<?xml version="1.0" encoding="UTF-8" standalone="no" ?>
<gpx xmlns="http://www.topografix.com/GPX/1/1" xmlns:xsi="http://www.w3.org/2001/XMLSchema-instance" xsi:schemaLocation="http://www.topografix.com/GPX/1/1 http://www.topografix.com/GPX/1/1/gpx.xsd" version="1.1" creator="VisuGPX - https://www.visugpx.com">
  <metadata>
    <name>Pornichet 09/02/2020</name>
    <desc><![CDATA[Sortie VTT du dimanche 09 février 2020
]]></desc>
  </metadata>
  <trk>
    <name><![CDATA[Pornichet Cyclisme]]></name>
    <trkseg>
      <trkpt lat="47.26407" lon="-2.3158">
        <ele>9.6</ele>
        <time>2020-02-09T07:57:39.000Z</time>
      </trkpt>
      <trkpt lat="47.26407" lon="-2.31592">
        <ele>9.7</ele>
        <time>2020-02-09T07:57:42.000Z</time>
      </trkpt>
      <trkpt lat="47.26407" lon="-2.31596">
        <ele>-1.3999999761581</ele>
        <time>2020-02-09T07:57:43.000Z</time>
      </trkpt>
      <trkpt lat="47.26408" lon="-2.31606">
        <ele>-1.3999999761581</ele>
        <time>2020-02-09T07:57:45.000Z</time>
      </trkpt>
      <trkpt lat="47.26409" lon="-2.31637">
        <ele>-1.3999999761581</ele>
        <time>2020-02-09T07:57:52.000Z</time>
      </trkpt>
      <trkpt lat="47.26403" lon="-2.31653">
        <ele>-1.3999999761581</ele>
        <time>2020-02-09T07:57:56.000Z</time>
      </trkpt>
      <trkpt lat="47.26388" lon="-2.31662">
        <ele>-1.3999999761581</ele>
        <time>2020-02-09T07:58:00.000Z</time>
      </trkpt>
      <trkpt lat="47.26365" lon="-2.31675">
        <ele>-1.3999999761581</ele>
        <time>2020-02-09T07:58:05.000Z</time>
      </trkpt>
      <trkpt lat="47.2636" lon="-2.31677">
        <ele>-1.3999999761581</ele>
        <time>2020-02-09T07:58:06.000Z</time>
      </trkpt>
      <trkpt lat="47.26325" lon="-2.31695">
        <ele>-1.3999999761581</ele>
        <time>2020-02-09T07:58:13.000Z</time>
      </trkpt>
      <trkpt lat="47.2632" lon="-2.31697">
        <ele>-1.3999999761581</ele>
        <time>2020-02-09T07:58:14.000Z</time>
      </trkpt>
      <trkpt lat="47.26307" lon="-2.31701">
        <ele>-1.7999999523163</ele>
        <time>2020-02-09T07:58:17.000Z</time>
      </trkpt>
      <trkpt lat="47.26304" lon="-2.317">
        <ele>-2.2000000476837</ele>
        <time>2020-02-09T07:58:18.000Z</time>
      </trkpt>
      <trkpt lat="47.26301" lon="-2.31697">
        <ele>-3</ele>
        <time>2020-02-09T07:58:19.000Z</time>
      </trkpt>
      <trkpt lat="47.26298" lon="-2.31695">
        <ele>-3.4000000953674</ele>
        <time>2020-02-09T07:58:20.000Z</time>
      </trkpt>
      <trkpt lat="47.26295" lon="-2.31691">
        <ele>-3.4000000953674</ele>
        <time>2020-02-09T07:58:21.000Z</time>
      </trkpt>
      <trkpt lat="47.26293" lon="-2.31686">
        <ele>-3.4000000953674</ele>
        <time>2020-02-09T07:58:22.000Z</time>
      </trkpt>
      <trkpt lat="47.26284" lon="-2.31668">
        <ele>-3.4000000953674</ele>
        <time>2020-02-09T07:58:26.000Z</time>
      </trkpt>
      <trkpt lat="47.26272" lon="-2.31648">
        <ele>-3.4000000953674</ele>
        <time>2020-02-09T07:58:31.000Z</time>
      </trkpt>
      <trkpt lat="47.26262" lon="-2.31627">
        <ele>-3.4000000953674</ele>
        <time>2020-02-09T07:58:36.000Z</time>
      </trkpt>
      <trkpt lat="47.26253" lon="-2.31613">
        <ele>-3.4000000953674</ele>
        <time>2020-02-09T07:58:40.000Z</time>
      </trkpt>
      <trkpt lat="47.26249" lon="-2.31609">
        <ele>-3.4000000953674</ele>
        <time>2020-02-09T07:58:41.000Z</time>
      </trkpt>
      <trkpt lat="47.26228" lon="-2.31593">
        <ele>-3.4000000953674</ele>
        <time>2020-02-09T07:58:47.000Z</time>
      </trkpt>
      <trkpt lat="47.26223" lon="-2.31592">
        <ele>-3.4000000953674</ele>
        <time>2020-02-09T07:58:48.000Z</time>
      </trkpt>
      <trkpt lat="47.26205" lon="-2.31593">
        <ele>-3.4000000953674</ele>
        <time>2020-02-09T07:58:52.000Z</time>
      </trkpt>
      <trkpt lat="47.26181" lon="-2.316">
        <ele>-3.4000000953674</ele>
        <time>2020-02-09T07:58:58.000Z</time>
      </trkpt>
      <trkpt lat="47.26168" lon="-2.31606">
        <ele>-3.4000000953674</ele>
        <time>2020-02-09T07:59:01.000Z</time>
      </trkpt>
      <trkpt lat="47.2615" lon="-2.31611">
        <ele>-3.4000000953674</ele>
        <time>2020-02-09T07:59:05.000Z</time>
      </trkpt>
      <trkpt lat="47.26125" lon="-2.31615">
        <ele>-3.4000000953674</ele>
        <time>2020-02-09T07:59:12.000Z</time>
      </trkpt>
      <trkpt lat="47.26117" lon="-2.31622">
        <ele>-3.4000000953674</ele>
        <time>2020-02-09T07:59:15.000Z</time>
      </trkpt>
      <trkpt lat="47.26116" lon="-2.31626">
        <ele>-3.4000000953674</ele>
        <time>2020-02-09T07:59:16.000Z</time>
      </trkpt>
      <trkpt lat="47.26119" lon="-2.31644">
        <ele>-3.4000000953674</ele>
        <time>2020-02-09T07:59:20.000Z</time>
      </trkpt>
      <trkpt lat="47.26123" lon="-2.31659">
        <ele>-3.4000000953674</ele>
        <time>2020-02-09T07:59:23.000Z</time>
      </trkpt>
      <trkpt lat="47.26125" lon="-2.31671">
        <ele>-3.4000000953674</ele>
        <time>2020-02-09T07:59:25.000Z</time>
      </trkpt>
      <trkpt lat="47.26128" lon="-2.31705">
        <ele>-3.4000000953674</ele>
        <time>2020-02-09T07:59:31.000Z</time>
      </trkpt>
      <trkpt lat="47.26129" lon="-2.31711">
        <ele>-3.4000000953674</ele>
        <time>2020-02-09T07:59:32.000Z</time>
      </trkpt>
      <trkpt lat="47.26132" lon="-2.31748">
        <ele>-3.4000000953674</ele>
        <time>2020-02-09T07:59:38.000Z</time>
      </trkpt>
      <trkpt lat="47.26137" lon="-2.31804">
        <ele>-3.4000000953674</ele>
        <time>2020-02-09T07:59:47.000Z</time>
      </trkpt>
      <trkpt lat="47.26137" lon="-2.31811">
        <ele>-3.4000000953674</ele>
        <time>2020-02-09T07:59:48.000Z</time>
      </trkpt>
      <trkpt lat="47.26138" lon="-2.31834">
        <ele>-3.4000000953674</ele>
        <time>2020-02-09T07:59:52.000Z</time>
      </trkpt>
      <trkpt lat="47.26141" lon="-2.31857">
        <ele>-3.4000000953674</ele>
        <time>2020-02-09T07:59:56.000Z</time>
      </trkpt>
      <trkpt lat="47.26142" lon="-2.31863">
        <ele>-3.7999999523163</ele>
        <time>2020-02-09T07:59:57.000Z</time>
      </trkpt>
      <trkpt lat="47.26143" lon="-2.31869">
        <ele>-4.5999999046326</ele>
        <time>2020-02-09T07:59:58.000Z</time>
      </trkpt>
      <trkpt lat="47.26144" lon="-2.31876">
        <ele>-5</ele>
        <time>2020-02-09T07:59:59.000Z</time>
      </trkpt>
      <trkpt lat="47.26145" lon="-2.31882">
        <ele>-5.4000000953674</ele>
        <time>2020-02-09T08:00:00.000Z</time>
      </trkpt>
      <trkpt lat="47.26146" lon="-2.31895">
        <ele>-5.4000000953674</ele>
        <time>2020-02-09T08:00:02.000Z</time>
      </trkpt>
      <trkpt lat="47.26148" lon="-2.31914">
        <ele>-5.4000000953674</ele>
        <time>2020-02-09T08:00:05.000Z</time>
      </trkpt>
      <trkpt lat="47.26152" lon="-2.31939">
        <ele>-5.4000000953674</ele>
        <time>2020-02-09T08:00:09.000Z</time>
      </trkpt>
      <trkpt lat="47.26156" lon="-2.31961">
        <ele>-5.4000000953674</ele>
        <time>2020-02-09T08:00:13.000Z</time>
      </trkpt>
      <trkpt lat="47.26156" lon="-2.31967">
        <ele>-5.4000000953674</ele>
        <time>2020-02-09T08:00:14.000Z</time>
      </trkpt>
      <trkpt lat="47.26156" lon="-2.31979">
        <ele>-5.4000000953674</ele>
        <time>2020-02-09T08:00:16.000Z</time>
      </trkpt>
      <trkpt lat="47.26155" lon="-2.31998">
        <ele>-5.4000000953674</ele>
        <time>2020-02-09T08:00:19.000Z</time>
      </trkpt>
      <trkpt lat="47.2615" lon="-2.32018">
        <ele>-5.4000000953674</ele>
        <time>2020-02-09T08:00:22.000Z</time>
      </trkpt>
      <trkpt lat="47.26149" lon="-2.32024">
        <ele>-5.4000000953674</ele>
        <time>2020-02-09T08:00:23.000Z</time>
      </trkpt>
      <trkpt lat="47.26147" lon="-2.3203">
        <ele>-5.4000000953674</ele>
        <time>2020-02-09T08:00:24.000Z</time>
      </trkpt>
      <trkpt lat="47.26142" lon="-2.32043">
        <ele>-5.4000000953674</ele>
        <time>2020-02-09T08:00:26.000Z</time>
      </trkpt>
      <trkpt lat="47.26138" lon="-2.32055">
        <ele>-5.4000000953674</ele>
        <time>2020-02-09T08:00:28.000Z</time>
      </trkpt>
      <trkpt lat="47.2613" lon="-2.32078">
        <ele>-5.4000000953674</ele>
        <time>2020-02-09T08:00:32.000Z</time>
      </trkpt>
      <trkpt lat="47.26128" lon="-2.32084">
        <ele>-5.4000000953674</ele>
        <time>2020-02-09T08:00:33.000Z</time>
      </trkpt>
      <trkpt lat="47.26118" lon="-2.32118">
        <ele>-5.4000000953674</ele>
        <time>2020-02-09T08:00:39.000Z</time>
      </trkpt>
      <trkpt lat="47.26109" lon="-2.3214">
        <ele>-5.4000000953674</ele>
        <time>2020-02-09T08:00:43.000Z</time>
      </trkpt>
      <trkpt lat="47.26104" lon="-2.3215">
        <ele>-5.4000000953674</ele>
        <time>2020-02-09T08:00:45.000Z</time>
      </trkpt>
      <trkpt lat="47.26101" lon="-2.32156">
        <ele>-5.4000000953674</ele>
        <time>2020-02-09T08:00:46.000Z</time>
      </trkpt>
      <trkpt lat="47.26097" lon="-2.32168">
        <ele>-5.4000000953674</ele>
        <time>2020-02-09T08:00:48.000Z</time>
      </trkpt>
      <trkpt lat="47.26091" lon="-2.32178">
        <ele>-5.4000000953674</ele>
        <time>2020-02-09T08:00:50.000Z</time>
      </trkpt>
      <trkpt lat="47.26081" lon="-2.32193">
        <ele>-5.4000000953674</ele>
        <time>2020-02-09T08:00:53.000Z</time>
      </trkpt>
      <trkpt lat="47.2607" lon="-2.32205">
        <ele>-5.4000000953674</ele>
        <time>2020-02-09T08:00:56.000Z</time>
      </trkpt>
      <trkpt lat="47.26049" lon="-2.32228">
        <ele>-5.4000000953674</ele>
        <time>2020-02-09T08:01:02.000Z</time>
      </trkpt>
      <trkpt lat="47.26042" lon="-2.32235">
        <ele>-5.4000000953674</ele>
        <time>2020-02-09T08:01:04.000Z</time>
      </trkpt>
      <trkpt lat="47.26038" lon="-2.32238">
        <ele>-5</ele>
        <time>2020-02-09T08:01:05.000Z</time>
      </trkpt>
      <trkpt lat="47.26034" lon="-2.32242">
        <ele>-4.5999999046326</ele>
        <time>2020-02-09T08:01:06.000Z</time>
      </trkpt>
      <trkpt lat="47.26031" lon="-2.32246">
        <ele>-4.1999998092651</ele>
        <time>2020-02-09T08:01:07.000Z</time>
      </trkpt>
      <trkpt lat="47.26027" lon="-2.3225">
        <ele>-3.5999999046326</ele>
        <time>2020-02-09T08:01:08.000Z</time>
      </trkpt>
      <trkpt lat="47.26024" lon="-2.32254">
        <ele>-3.2000000476837</ele>
        <time>2020-02-09T08:01:09.000Z</time>
      </trkpt>
      <trkpt lat="47.26013" lon="-2.32266">
        <ele>-3.2000000476837</ele>
        <time>2020-02-09T08:01:12.000Z</time>
      </trkpt>
      <trkpt lat="47.2601" lon="-2.3227">
        <ele>-3.5999999046326</ele>
        <time>2020-02-09T08:01:13.000Z</time>
      </trkpt>
      <trkpt lat="47.26006" lon="-2.32274">
        <ele>-4</ele>
        <time>2020-02-09T08:01:14.000Z</time>
      </trkpt>
      <trkpt lat="47.26003" lon="-2.32279">
        <ele>-4.4000000953674</ele>
        <time>2020-02-09T08:01:15.000Z</time>
      </trkpt>
      <trkpt lat="47.26" lon="-2.32283">
        <ele>-4.8000001907349</ele>
        <time>2020-02-09T08:01:16.000Z</time>
      </trkpt>
      <trkpt lat="47.25996" lon="-2.32287">
        <ele>-5.1999998092651</ele>
        <time>2020-02-09T08:01:17.000Z</time>
      </trkpt>
      <trkpt lat="47.25988" lon="-2.32296">
        <ele>-5.1999998092651</ele>
        <time>2020-02-09T08:01:19.000Z</time>
      </trkpt>
      <trkpt lat="47.25981" lon="-2.32306">
        <ele>-5.1999998092651</ele>
        <time>2020-02-09T08:01:21.000Z</time>
      </trkpt>
      <trkpt lat="47.25966" lon="-2.32325">
        <ele>-5.1999998092651</ele>
        <time>2020-02-09T08:01:25.000Z</time>
      </trkpt>
      <trkpt lat="47.25959" lon="-2.32333">
        <ele>-5.1999998092651</ele>
        <time>2020-02-09T08:01:27.000Z</time>
      </trkpt>
      <trkpt lat="47.25947" lon="-2.32349">
        <ele>-5.1999998092651</ele>
        <time>2020-02-09T08:01:31.000Z</time>
      </trkpt>
      <trkpt lat="47.25922" lon="-2.32382">
        <ele>-5.1999998092651</ele>
        <time>2020-02-09T08:01:39.000Z</time>
      </trkpt>
      <trkpt lat="47.25903" lon="-2.32406">
        <ele>-5.1999998092651</ele>
        <time>2020-02-09T08:01:45.000Z</time>
      </trkpt>
      <trkpt lat="47.25882" lon="-2.32439">
        <ele>-5.1999998092651</ele>
        <time>2020-02-09T08:01:52.000Z</time>
      </trkpt>
      <trkpt lat="47.25872" lon="-2.3245">
        <ele>-5.1999998092651</ele>
        <time>2020-02-09T08:01:55.000Z</time>
      </trkpt>
      <trkpt lat="47.25864" lon="-2.32452">
        <ele>-5.1999998092651</ele>
        <time>2020-02-09T08:01:57.000Z</time>
      </trkpt>
      <trkpt lat="47.2586" lon="-2.32452">
        <ele>-4.8000001907349</ele>
        <time>2020-02-09T08:01:58.000Z</time>
      </trkpt>
      <trkpt lat="47.25856" lon="-2.32452">
        <ele>-4.4000000953674</ele>
        <time>2020-02-09T08:01:59.000Z</time>
      </trkpt>
      <trkpt lat="47.25852" lon="-2.32453">
        <ele>-4</ele>
        <time>2020-02-09T08:02:00.000Z</time>
      </trkpt>
      <trkpt lat="47.25848" lon="-2.32453">
        <ele>-3.5999999046326</ele>
        <time>2020-02-09T08:02:01.000Z</time>
      </trkpt>
      <trkpt lat="47.25844" lon="-2.32453">
        <ele>-3.2000000476837</ele>
        <time>2020-02-09T08:02:02.000Z</time>
      </trkpt>
      <trkpt lat="47.2584" lon="-2.32452">
        <ele>-3.5999999046326</ele>
        <time>2020-02-09T08:02:03.000Z</time>
      </trkpt>
      <trkpt lat="47.25836" lon="-2.32452">
        <ele>-4</ele>
        <time>2020-02-09T08:02:04.000Z</time>
      </trkpt>
      <trkpt lat="47.25832" lon="-2.32451">
        <ele>-4.4000000953674</ele>
        <time>2020-02-09T08:02:05.000Z</time>
      </trkpt>
      <trkpt lat="47.25827" lon="-2.32449">
        <ele>-4.8000001907349</ele>
        <time>2020-02-09T08:02:06.000Z</time>
      </trkpt>
      <trkpt lat="47.25823" lon="-2.32448">
        <ele>-5.4000000953674</ele>
        <time>2020-02-09T08:02:07.000Z</time>
      </trkpt>
      <trkpt lat="47.25806" lon="-2.3244">
        <ele>-5.4000000953674</ele>
        <time>2020-02-09T08:02:11.000Z</time>
      </trkpt>
      <trkpt lat="47.25784" lon="-2.32435">
        <ele>-5.4000000953674</ele>
        <time>2020-02-09T08:02:17.000Z</time>
      </trkpt>
      <trkpt lat="47.25768" lon="-2.32428">
        <ele>-4.8000001907349</ele>
        <time>2020-02-09T08:02:22.000Z</time>
      </trkpt>
      <trkpt lat="47.25766" lon="-2.32426">
        <ele>-4.4000000953674</ele>
        <time>2020-02-09T08:02:23.000Z</time>
      </trkpt>
      <trkpt lat="47.25765" lon="-2.32422">
        <ele>-4</ele>
        <time>2020-02-09T08:02:24.000Z</time>
      </trkpt>
      <trkpt lat="47.25762" lon="-2.32418">
        <ele>-3.5999999046326</ele>
        <time>2020-02-09T08:02:25.000Z</time>
      </trkpt>
      <trkpt lat="47.25759" lon="-2.32414">
        <ele>-3.2000000476837</ele>
        <time>2020-02-09T08:02:26.000Z</time>
      </trkpt>
      <trkpt lat="47.25755" lon="-2.32412">
        <ele>-3.2000000476837</ele>
        <time>2020-02-09T08:02:27.000Z</time>
      </trkpt>
      <trkpt lat="47.25746" lon="-2.3241">
        <ele>-3.2000000476837</ele>
        <time>2020-02-09T08:02:29.000Z</time>
      </trkpt>
      <trkpt lat="47.2572" lon="-2.32409">
        <ele>-3.2000000476837</ele>
        <time>2020-02-09T08:02:35.000Z</time>
      </trkpt>
      <trkpt lat="47.25693" lon="-2.32408">
        <ele>-3.2000000476837</ele>
        <time>2020-02-09T08:02:41.000Z</time>
      </trkpt>
      <trkpt lat="47.25669" lon="-2.32404">
        <ele>-3.2000000476837</ele>
        <time>2020-02-09T08:02:47.000Z</time>
      </trkpt>
      <trkpt lat="47.25656" lon="-2.3241">
        <ele>-3.2000000476837</ele>
        <time>2020-02-09T08:02:51.000Z</time>
      </trkpt>
      <trkpt lat="47.25655" lon="-2.32415">
        <ele>-3.2000000476837</ele>
        <time>2020-02-09T08:02:52.000Z</time>
      </trkpt>
      <trkpt lat="47.25656" lon="-2.32434">
        <ele>-3.2000000476837</ele>
        <time>2020-02-09T08:02:55.000Z</time>
      </trkpt>
      <trkpt lat="47.25657" lon="-2.3244">
        <ele>-3.2000000476837</ele>
        <time>2020-02-09T08:02:56.000Z</time>
      </trkpt>
      <trkpt lat="47.25667" lon="-2.32472">
        <ele>-3.2000000476837</ele>
        <time>2020-02-09T08:03:02.000Z</time>
      </trkpt>
      <trkpt lat="47.25679" lon="-2.32504">
        <ele>-2.7999999523163</ele>
        <time>2020-02-09T08:03:08.000Z</time>
      </trkpt>
      <trkpt lat="47.2568" lon="-2.32509">
        <ele>-2.4000000953674</ele>
        <time>2020-02-09T08:03:09.000Z</time>
      </trkpt>
      <trkpt lat="47.25682" lon="-2.32513">
        <ele>-2</ele>
        <time>2020-02-09T08:03:10.000Z</time>
      </trkpt>
      <trkpt lat="47.25683" lon="-2.32518">
        <ele>-1.6000000238419</ele>
        <time>2020-02-09T08:03:11.000Z</time>
      </trkpt>
      <trkpt lat="47.25685" lon="-2.32523">
        <ele>-1.2000000476837</ele>
        <time>2020-02-09T08:03:12.000Z</time>
      </trkpt>
      <trkpt lat="47.25689" lon="-2.32533">
        <ele>-1.2000000476837</ele>
        <time>2020-02-09T08:03:14.000Z</time>
      </trkpt>
      <trkpt lat="47.25701" lon="-2.32569">
        <ele>-1.2000000476837</ele>
        <time>2020-02-09T08:03:21.000Z</time>
      </trkpt>
      <trkpt lat="47.25707" lon="-2.326">
        <ele>-1.2000000476837</ele>
        <time>2020-02-09T08:03:27.000Z</time>
      </trkpt>
      <trkpt lat="47.25707" lon="-2.32607">
        <ele>-1.2000000476837</ele>
        <time>2020-02-09T08:03:28.000Z</time>
      </trkpt>
      <trkpt lat="47.25701" lon="-2.3262">
        <ele>-0.80000001192093</ele>
        <time>2020-02-09T08:03:31.000Z</time>
      </trkpt>
      <trkpt lat="47.25698" lon="-2.32622">
        <ele>-0.40000000596046</ele>
        <time>2020-02-09T08:03:32.000Z</time>
      </trkpt>
      <trkpt lat="47.25695" lon="-2.32624">
        <ele>10</ele>
        <time>2020-02-09T08:03:33.000Z</time>
      </trkpt>
      <trkpt lat="47.25692" lon="-2.32627">
        <ele>0.40000000596046</ele>
        <time>2020-02-09T08:03:34.000Z</time>
      </trkpt>
      <trkpt lat="47.25688" lon="-2.32629">
        <ele>0.80000001192093</ele>
        <time>2020-02-09T08:03:35.000Z</time>
      </trkpt>
      <trkpt lat="47.25681" lon="-2.32632">
        <ele>0.80000001192093</ele>
        <time>2020-02-09T08:03:37.000Z</time>
      </trkpt>
      <trkpt lat="47.25667" lon="-2.32639">
        <ele>1.6000000238419</ele>
        <time>2020-02-09T08:03:41.000Z</time>
      </trkpt>
      <trkpt lat="47.25663" lon="-2.3264">
        <ele>2.2000000476837</ele>
        <time>2020-02-09T08:03:42.000Z</time>
      </trkpt>
      <trkpt lat="47.2566" lon="-2.32641">
        <ele>2.7999999523163</ele>
        <time>2020-02-09T08:03:43.000Z</time>
      </trkpt>
      <trkpt lat="47.25657" lon="-2.32643">
        <ele>3.4000000953674</ele>
        <time>2020-02-09T08:03:44.000Z</time>
      </trkpt>
      <trkpt lat="47.25653" lon="-2.32644">
        <ele>4</ele>
        <time>2020-02-09T08:03:45.000Z</time>
      </trkpt>
      <trkpt lat="47.2565" lon="-2.32646">
        <ele>4.5999999046326</ele>
        <time>2020-02-09T08:03:46.000Z</time>
      </trkpt>
      <trkpt lat="47.25647" lon="-2.32648">
        <ele>5.4000000953674</ele>
        <time>2020-02-09T08:03:47.000Z</time>
      </trkpt>
      <trkpt lat="47.25631" lon="-2.32658">
        <ele>5.4000000953674</ele>
        <time>2020-02-09T08:03:52.000Z</time>
      </trkpt>
      <trkpt lat="47.25599" lon="-2.32669">
        <ele>5.4000000953674</ele>
        <time>2020-02-09T08:04:01.000Z</time>
      </trkpt>
      <trkpt lat="47.25577" lon="-2.32677">
        <ele>5.4000000953674</ele>
        <time>2020-02-09T08:04:07.000Z</time>
      </trkpt>
      <trkpt lat="47.25553" lon="-2.32687">
        <ele>5.4000000953674</ele>
        <time>2020-02-09T08:04:14.000Z</time>
      </trkpt>
      <trkpt lat="47.25528" lon="-2.32702">
        <ele>5.4000000953674</ele>
        <time>2020-02-09T08:04:22.000Z</time>
      </trkpt>
      <trkpt lat="47.25508" lon="-2.32705">
        <ele>5.4000000953674</ele>
        <time>2020-02-09T08:04:28.000Z</time>
      </trkpt>
      <trkpt lat="47.25485" lon="-2.32711">
        <ele>5.4000000953674</ele>
        <time>2020-02-09T08:04:34.000Z</time>
      </trkpt>
      <trkpt lat="47.25469" lon="-2.32728">
        <ele>5.4000000953674</ele>
        <time>2020-02-09T08:04:39.000Z</time>
      </trkpt>
      <trkpt lat="47.25445" lon="-2.32758">
        <ele>5.4000000953674</ele>
        <time>2020-02-09T08:04:47.000Z</time>
      </trkpt>
      <trkpt lat="47.25435" lon="-2.32784">
        <ele>4.8000001907349</ele>
        <time>2020-02-09T08:04:52.000Z</time>
      </trkpt>
      <trkpt lat="47.25432" lon="-2.32788">
        <ele>4.4000000953674</ele>
        <time>2020-02-09T08:04:53.000Z</time>
      </trkpt>
      <trkpt lat="47.25429" lon="-2.32792">
        <ele>4</ele>
        <time>2020-02-09T08:04:54.000Z</time>
      </trkpt>
      <trkpt lat="47.25426" lon="-2.32796">
        <ele>3.5999999046326</ele>
        <time>2020-02-09T08:04:55.000Z</time>
      </trkpt>
      <trkpt lat="47.25423" lon="-2.32801">
        <ele>3.2000000476837</ele>
        <time>2020-02-09T08:04:56.000Z</time>
      </trkpt>
      <trkpt lat="47.25397" lon="-2.32835">
        <ele>3.2000000476837</ele>
        <time>2020-02-09T08:05:04.000Z</time>
      </trkpt>
      <trkpt lat="47.2537" lon="-2.32866">
        <ele>3.2000000476837</ele>
        <time>2020-02-09T08:05:12.000Z</time>
      </trkpt>
      <trkpt lat="47.25343" lon="-2.32892">
        <ele>3.2000000476837</ele>
        <time>2020-02-09T08:05:20.000Z</time>
      </trkpt>
      <trkpt lat="47.2532" lon="-2.32915">
        <ele>3.2000000476837</ele>
        <time>2020-02-09T08:05:27.000Z</time>
      </trkpt>
      <trkpt lat="47.2531" lon="-2.32932">
        <ele>3.2000000476837</ele>
        <time>2020-02-09T08:05:31.000Z</time>
      </trkpt>
      <trkpt lat="47.2531" lon="-2.32938">
        <ele>3.2000000476837</ele>
        <time>2020-02-09T08:05:32.000Z</time>
      </trkpt>
      <trkpt lat="47.25314" lon="-2.3296">
        <ele>2.7999999523163</ele>
        <time>2020-02-09T08:05:36.000Z</time>
      </trkpt>
      <trkpt lat="47.25317" lon="-2.32966">
        <ele>2.2000000476837</ele>
        <time>2020-02-09T08:05:37.000Z</time>
      </trkpt>
      <trkpt lat="47.25318" lon="-2.32972">
        <ele>1.6000000238419</ele>
        <time>2020-02-09T08:05:38.000Z</time>
      </trkpt>
      <trkpt lat="47.25319" lon="-2.32978">
        <ele>0.80000001192093</ele>
        <time>2020-02-09T08:05:39.000Z</time>
      </trkpt>
      <trkpt lat="47.25321" lon="-2.32984">
        <ele>0.20000000298023</ele>
        <time>2020-02-09T08:05:40.000Z</time>
      </trkpt>
      <trkpt lat="47.25323" lon="-2.3299">
        <ele>-0.60000002384186</ele>
        <time>2020-02-09T08:05:41.000Z</time>
      </trkpt>
      <trkpt lat="47.25325" lon="-2.32996">
        <ele>-1.2000000476837</ele>
        <time>2020-02-09T08:05:42.000Z</time>
      </trkpt>
      <trkpt lat="47.25332" lon="-2.33014">
        <ele>-1.2000000476837</ele>
        <time>2020-02-09T08:05:45.000Z</time>
      </trkpt>
      <trkpt lat="47.25337" lon="-2.33025">
        <ele>-1.2000000476837</ele>
        <time>2020-02-09T08:05:47.000Z</time>
      </trkpt>
      <trkpt lat="47.25343" lon="-2.33037">
        <ele>-1.2000000476837</ele>
        <time>2020-02-09T08:05:49.000Z</time>
      </trkpt>
      <trkpt lat="47.25352" lon="-2.3306">
        <ele>-1.2000000476837</ele>
        <time>2020-02-09T08:05:53.000Z</time>
      </trkpt>
      <trkpt lat="47.25354" lon="-2.33065">
        <ele>-1.2000000476837</ele>
        <time>2020-02-09T08:05:54.000Z</time>
      </trkpt>
      <trkpt lat="47.25367" lon="-2.33096">
        <ele>-1.2000000476837</ele>
        <time>2020-02-09T08:06:00.000Z</time>
      </trkpt>
      <trkpt lat="47.25375" lon="-2.3312">
        <ele>-1.2000000476837</ele>
        <time>2020-02-09T08:06:06.000Z</time>
      </trkpt>
      <trkpt lat="47.25375" lon="-2.33121">
        <ele>-1.2000000476837</ele>
        <time>2020-02-09T08:06:09.000Z</time>
      </trkpt>
      <trkpt lat="47.25381" lon="-2.33125">
        <ele>-1.2000000476837</ele>
        <time>2020-02-09T08:11:18.000Z</time>
      </trkpt>
      <trkpt lat="47.25387" lon="-2.3314">
        <ele>-1.2000000476837</ele>
        <time>2020-02-09T08:11:25.000Z</time>
      </trkpt>
      <trkpt lat="47.254" lon="-2.33165">
        <ele>-1.2000000476837</ele>
        <time>2020-02-09T08:11:32.000Z</time>
      </trkpt>
      <trkpt lat="47.25414" lon="-2.33199">
        <ele>-1.2000000476837</ele>
        <time>2020-02-09T08:11:40.000Z</time>
      </trkpt>
      <trkpt lat="47.25424" lon="-2.3322">
        <ele>-1.2000000476837</ele>
        <time>2020-02-09T08:11:46.000Z</time>
      </trkpt>
      <trkpt lat="47.25429" lon="-2.3323">
        <ele>-0.80000001192093</ele>
        <time>2020-02-09T08:11:49.000Z</time>
      </trkpt>
      <trkpt lat="47.25431" lon="-2.33235">
        <ele>-0.40000000596046</ele>
        <time>2020-02-09T08:11:50.000Z</time>
      </trkpt>
      <trkpt lat="47.25433" lon="-2.33239">
        <ele>0.20000000298023</ele>
        <time>2020-02-09T08:11:51.000Z</time>
      </trkpt>
      <trkpt lat="47.25434" lon="-2.33244">
        <ele>0.60000002384186</ele>
        <time>2020-02-09T08:11:52.000Z</time>
      </trkpt>
      <trkpt lat="47.25436" lon="-2.33249">
        <ele>1</ele>
        <time>2020-02-09T08:11:53.000Z</time>
      </trkpt>
      <trkpt lat="47.25446" lon="-2.33271">
        <ele>1</ele>
        <time>2020-02-09T08:11:58.000Z</time>
      </trkpt>
      <trkpt lat="47.2545" lon="-2.33303">
        <ele>1</ele>
        <time>2020-02-09T08:12:04.000Z</time>
      </trkpt>
      <trkpt lat="47.25446" lon="-2.33314">
        <ele>1</ele>
        <time>2020-02-09T08:12:06.000Z</time>
      </trkpt>
      <trkpt lat="47.2544" lon="-2.3333">
        <ele>1</ele>
        <time>2020-02-09T08:12:09.000Z</time>
      </trkpt>
      <trkpt lat="47.25432" lon="-2.33362">
        <ele>1</ele>
        <time>2020-02-09T08:12:15.000Z</time>
      </trkpt>
      <trkpt lat="47.25432" lon="-2.33415">
        <ele>1</ele>
        <time>2020-02-09T08:12:24.000Z</time>
      </trkpt>
      <trkpt lat="47.25434" lon="-2.33461">
        <ele>1.6000000238419</ele>
        <time>2020-02-09T08:12:32.000Z</time>
      </trkpt>
      <trkpt lat="47.25435" lon="-2.33466">
        <ele>2</ele>
        <time>2020-02-09T08:12:33.000Z</time>
      </trkpt>
      <trkpt lat="47.25436" lon="-2.33471">
        <ele>2.4000000953674</ele>
        <time>2020-02-09T08:12:34.000Z</time>
      </trkpt>
      <trkpt lat="47.25437" lon="-2.33476">
        <ele>3</ele>
        <time>2020-02-09T08:12:35.000Z</time>
      </trkpt>
      <trkpt lat="47.25438" lon="-2.33481">
        <ele>3.4000000953674</ele>
        <time>2020-02-09T08:12:36.000Z</time>
      </trkpt>
      <trkpt lat="47.25441" lon="-2.33491">
        <ele>3.4000000953674</ele>
        <time>2020-02-09T08:12:38.000Z</time>
      </trkpt>
      <trkpt lat="47.25448" lon="-2.33513">
        <ele>3</ele>
        <time>2020-02-09T08:12:42.000Z</time>
      </trkpt>
      <trkpt lat="47.25449" lon="-2.33519">
        <ele>2.5999999046326</ele>
        <time>2020-02-09T08:12:43.000Z</time>
      </trkpt>
      <trkpt lat="47.2545" lon="-2.33525">
        <ele>2.2000000476837</ele>
        <time>2020-02-09T08:12:44.000Z</time>
      </trkpt>
      <trkpt lat="47.25451" lon="-2.3353">
        <ele>1.2000000476837</ele>
        <time>2020-02-09T08:12:45.000Z</time>
      </trkpt>
      <trkpt lat="47.25457" lon="-2.33559">
        <ele>1.2000000476837</ele>
        <time>2020-02-09T08:12:50.000Z</time>
      </trkpt>
      <trkpt lat="47.25457" lon="-2.33578">
        <ele>1.2000000476837</ele>
        <time>2020-02-09T08:12:54.000Z</time>
      </trkpt>
      <trkpt lat="47.25447" lon="-2.33581">
        <ele>1.2000000476837</ele>
        <time>2020-02-09T08:12:57.000Z</time>
      </trkpt>
      <trkpt lat="47.25439" lon="-2.33591">
        <ele>1.2000000476837</ele>
        <time>2020-02-09T08:13:01.000Z</time>
      </trkpt>
      <trkpt lat="47.25438" lon="-2.33604">
        <ele>1.2000000476837</ele>
        <time>2020-02-09T08:13:04.000Z</time>
      </trkpt>
      <trkpt lat="47.25439" lon="-2.3361">
        <ele>1.2000000476837</ele>
        <time>2020-02-09T08:13:05.000Z</time>
      </trkpt>
      <trkpt lat="47.25443" lon="-2.33643">
        <ele>1.2000000476837</ele>
        <time>2020-02-09T08:13:10.000Z</time>
      </trkpt>
      <trkpt lat="47.25449" lon="-2.33679">
        <ele>1.2000000476837</ele>
        <time>2020-02-09T08:13:16.000Z</time>
      </trkpt>
      <trkpt lat="47.25453" lon="-2.33717">
        <ele>1.2000000476837</ele>
        <time>2020-02-09T08:13:23.000Z</time>
      </trkpt>
      <trkpt lat="47.25462" lon="-2.33744">
        <ele>1.7999999523163</ele>
        <time>2020-02-09T08:13:29.000Z</time>
      </trkpt>
      <trkpt lat="47.25465" lon="-2.33745">
        <ele>2.4000000953674</ele>
        <time>2020-02-09T08:13:30.000Z</time>
      </trkpt>
      <trkpt lat="47.25468" lon="-2.33747">
        <ele>3</ele>
        <time>2020-02-09T08:13:31.000Z</time>
      </trkpt>
      <trkpt lat="47.25471" lon="-2.33749">
        <ele>3.4000000953674</ele>
        <time>2020-02-09T08:13:32.000Z</time>
      </trkpt>
      <trkpt lat="47.25475" lon="-2.33751">
        <ele>3.2000000476837</ele>
        <time>2020-02-09T08:13:33.000Z</time>
      </trkpt>
      <trkpt lat="47.2548" lon="-2.33753">
        <ele>2.5999999046326</ele>
        <time>2020-02-09T08:13:34.000Z</time>
      </trkpt>
      <trkpt lat="47.25484" lon="-2.33754">
        <ele>2.2000000476837</ele>
        <time>2020-02-09T08:13:35.000Z</time>
      </trkpt>
      <trkpt lat="47.25489" lon="-2.33755">
        <ele>2</ele>
        <time>2020-02-09T08:13:36.000Z</time>
      </trkpt>
      <trkpt lat="47.25502" lon="-2.33756">
        <ele>2</ele>
        <time>2020-02-09T08:13:39.000Z</time>
      </trkpt>
      <trkpt lat="47.25535" lon="-2.33755">
        <ele>2</ele>
        <time>2020-02-09T08:13:47.000Z</time>
      </trkpt>
      <trkpt lat="47.25565" lon="-2.33755">
        <ele>2</ele>
        <time>2020-02-09T08:13:54.000Z</time>
      </trkpt>
      <trkpt lat="47.25584" lon="-2.33755">
        <ele>2</ele>
        <time>2020-02-09T08:13:59.000Z</time>
      </trkpt>
      <trkpt lat="47.25616" lon="-2.33758">
        <ele>2</ele>
        <time>2020-02-09T08:14:07.000Z</time>
      </trkpt>
      <trkpt lat="47.25638" lon="-2.33776">
        <ele>2</ele>
        <time>2020-02-09T08:14:13.000Z</time>
      </trkpt>
      <trkpt lat="47.25642" lon="-2.33788">
        <ele>2</ele>
        <time>2020-02-09T08:14:16.000Z</time>
      </trkpt>
      <trkpt lat="47.25642" lon="-2.33796">
        <ele>2</ele>
        <time>2020-02-09T08:14:17.000Z</time>
      </trkpt>
      <trkpt lat="47.25644" lon="-2.33812">
        <ele>2</ele>
        <time>2020-02-09T08:14:19.000Z</time>
      </trkpt>
      <trkpt lat="47.25645" lon="-2.33826">
        <ele>2</ele>
        <time>2020-02-09T08:14:21.000Z</time>
      </trkpt>
      <trkpt lat="47.25647" lon="-2.33841">
        <ele>2</ele>
        <time>2020-02-09T08:14:23.000Z</time>
      </trkpt>
      <trkpt lat="47.25648" lon="-2.33848">
        <ele>2</ele>
        <time>2020-02-09T08:14:24.000Z</time>
      </trkpt>
      <trkpt lat="47.25654" lon="-2.33892">
        <ele>2</ele>
        <time>2020-02-09T08:14:30.000Z</time>
      </trkpt>
      <trkpt lat="47.25655" lon="-2.339">
        <ele>2</ele>
        <time>2020-02-09T08:14:31.000Z</time>
      </trkpt>
      <trkpt lat="47.2566" lon="-2.33929">
        <ele>2</ele>
        <time>2020-02-09T08:14:35.000Z</time>
      </trkpt>
      <trkpt lat="47.25662" lon="-2.33941">
        <ele>2</ele>
        <time>2020-02-09T08:14:37.000Z</time>
      </trkpt>
      <trkpt lat="47.25663" lon="-2.33954">
        <ele>2</ele>
        <time>2020-02-09T08:14:39.000Z</time>
      </trkpt>
      <trkpt lat="47.2566" lon="-2.33975">
        <ele>2</ele>
        <time>2020-02-09T08:14:42.000Z</time>
      </trkpt>
      <trkpt lat="47.25656" lon="-2.33995">
        <ele>2.4000000953674</ele>
        <time>2020-02-09T08:14:45.000Z</time>
      </trkpt>
      <trkpt lat="47.25655" lon="-2.34002">
        <ele>2.7999999523163</ele>
        <time>2020-02-09T08:14:46.000Z</time>
      </trkpt>
      <trkpt lat="47.25654" lon="-2.34008">
        <ele>3.2000000476837</ele>
        <time>2020-02-09T08:14:47.000Z</time>
      </trkpt>
      <trkpt lat="47.25653" lon="-2.34013">
        <ele>4</ele>
        <time>2020-02-09T08:14:48.000Z</time>
      </trkpt>
      <trkpt lat="47.25652" lon="-2.34018">
        <ele>4</ele>
        <time>2020-02-09T08:14:49.000Z</time>
      </trkpt>
      <trkpt lat="47.25646" lon="-2.34054">
        <ele>4</ele>
        <time>2020-02-09T08:14:56.000Z</time>
      </trkpt>
      <trkpt lat="47.25644" lon="-2.3407">
        <ele>3.4000000953674</ele>
        <time>2020-02-09T08:15:00.000Z</time>
      </trkpt>
      <trkpt lat="47.25644" lon="-2.34075">
        <ele>3</ele>
        <time>2020-02-09T08:15:01.000Z</time>
      </trkpt>
      <trkpt lat="47.25643" lon="-2.34079">
        <ele>2.5999999046326</ele>
        <time>2020-02-09T08:15:02.000Z</time>
      </trkpt>
      <trkpt lat="47.25642" lon="-2.34084">
        <ele>2.2000000476837</ele>
        <time>2020-02-09T08:15:03.000Z</time>
      </trkpt>
      <trkpt lat="47.25642" lon="-2.34089">
        <ele>1.6000000238419</ele>
        <time>2020-02-09T08:15:04.000Z</time>
      </trkpt>
      <trkpt lat="47.25642" lon="-2.34107">
        <ele>1.2000000476837</ele>
        <time>2020-02-09T08:15:07.000Z</time>
      </trkpt>
      <trkpt lat="47.25643" lon="-2.34113">
        <ele>0.80000001192093</ele>
        <time>2020-02-09T08:15:08.000Z</time>
      </trkpt>
      <trkpt lat="47.25644" lon="-2.34119">
        <ele>0.20000000298023</ele>
        <time>2020-02-09T08:15:09.000Z</time>
      </trkpt>
      <trkpt lat="47.25645" lon="-2.34124">
        <ele>-0.20000000298023</ele>
        <time>2020-02-09T08:15:10.000Z</time>
      </trkpt>
      <trkpt lat="47.25647" lon="-2.3413">
        <ele>-0.60000002384186</ele>
        <time>2020-02-09T08:15:11.000Z</time>
      </trkpt>
      <trkpt lat="47.25648" lon="-2.34136">
        <ele>-0.60000002384186</ele>
        <time>2020-02-09T08:15:12.000Z</time>
      </trkpt>
      <trkpt lat="47.25653" lon="-2.34148">
        <ele>-0.60000002384186</ele>
        <time>2020-02-09T08:15:14.000Z</time>
      </trkpt>
      <trkpt lat="47.25658" lon="-2.34157">
        <ele>-0.60000002384186</ele>
        <time>2020-02-09T08:15:16.000Z</time>
      </trkpt>
      <trkpt lat="47.25669" lon="-2.3418">
        <ele>-0.60000002384186</ele>
        <time>2020-02-09T08:15:21.000Z</time>
      </trkpt>
      <trkpt lat="47.25672" lon="-2.34184">
        <ele>-0.20000000298023</ele>
        <time>2020-02-09T08:15:22.000Z</time>
      </trkpt>
      <trkpt lat="47.25675" lon="-2.34188">
        <ele>0.20000000298023</ele>
        <time>2020-02-09T08:15:23.000Z</time>
      </trkpt>
      <trkpt lat="47.25678" lon="-2.3419">
        <ele>1.2000000476837</ele>
        <time>2020-02-09T08:15:24.000Z</time>
      </trkpt>
      <trkpt lat="47.25682" lon="-2.34191">
        <ele>2</ele>
        <time>2020-02-09T08:15:25.000Z</time>
      </trkpt>
      <trkpt lat="47.25686" lon="-2.34191">
        <ele>3</ele>
        <time>2020-02-09T08:15:26.000Z</time>
      </trkpt>
      <trkpt lat="47.25691" lon="-2.34191">
        <ele>4</ele>
        <time>2020-02-09T08:15:27.000Z</time>
      </trkpt>
      <trkpt lat="47.25696" lon="-2.3419">
        <ele>3.5999999046326</ele>
        <time>2020-02-09T08:15:28.000Z</time>
      </trkpt>
      <trkpt lat="47.257" lon="-2.34189">
        <ele>3.4000000953674</ele>
        <time>2020-02-09T08:15:29.000Z</time>
      </trkpt>
      <trkpt lat="47.25705" lon="-2.34188">
        <ele>3</ele>
        <time>2020-02-09T08:15:30.000Z</time>
      </trkpt>
      <trkpt lat="47.25711" lon="-2.34187">
        <ele>2.7999999523163</ele>
        <time>2020-02-09T08:15:31.000Z</time>
      </trkpt>
      <trkpt lat="47.25717" lon="-2.34186">
        <ele>2.4000000953674</ele>
        <time>2020-02-09T08:15:32.000Z</time>
      </trkpt>
      <trkpt lat="47.25722" lon="-2.34185">
        <ele>2</ele>
        <time>2020-02-09T08:15:33.000Z</time>
      </trkpt>
      <trkpt lat="47.25728" lon="-2.34185">
        <ele>1.3999999761581</ele>
        <time>2020-02-09T08:15:34.000Z</time>
      </trkpt>
      <trkpt lat="47.25733" lon="-2.34183">
        <ele>1</ele>
        <time>2020-02-09T08:15:35.000Z</time>
      </trkpt>
      <trkpt lat="47.25739" lon="-2.34182">
        <ele>0.60000002384186</ele>
        <time>2020-02-09T08:15:36.000Z</time>
      </trkpt>
      <trkpt lat="47.25744" lon="-2.34181">
        <ele>5.4</ele>
        <time>2020-02-09T08:15:37.000Z</time>
      </trkpt>
      <trkpt lat="47.2576" lon="-2.34178">
        <ele>-0.40000000596046</ele>
        <time>2020-02-09T08:15:40.000Z</time>
      </trkpt>
      <trkpt lat="47.25764" lon="-2.34177">
        <ele>-0.80000001192093</ele>
        <time>2020-02-09T08:15:41.000Z</time>
      </trkpt>
      <trkpt lat="47.25769" lon="-2.34176">
        <ele>-1.3999999761581</ele>
        <time>2020-02-09T08:15:42.000Z</time>
      </trkpt>
      <trkpt lat="47.25772" lon="-2.34175">
        <ele>-1.7999999523163</ele>
        <time>2020-02-09T08:15:43.000Z</time>
      </trkpt>
      <trkpt lat="47.25777" lon="-2.34175">
        <ele>-2.2000000476837</ele>
        <time>2020-02-09T08:15:44.000Z</time>
      </trkpt>
      <trkpt lat="47.25789" lon="-2.34173">
        <ele>-2.2000000476837</ele>
        <time>2020-02-09T08:15:47.000Z</time>
      </trkpt>
      <trkpt lat="47.25809" lon="-2.34174">
        <ele>-2.2000000476837</ele>
        <time>2020-02-09T08:15:52.000Z</time>
      </trkpt>
      <trkpt lat="47.25827" lon="-2.34177">
        <ele>-2.2000000476837</ele>
        <time>2020-02-09T08:15:56.000Z</time>
      </trkpt>
      <trkpt lat="47.25831" lon="-2.34174">
        <ele>-2.2000000476837</ele>
        <time>2020-02-09T08:15:57.000Z</time>
      </trkpt>
      <trkpt lat="47.25836" lon="-2.3416">
        <ele>-2.2000000476837</ele>
        <time>2020-02-09T08:16:00.000Z</time>
      </trkpt>
      <trkpt lat="47.25845" lon="-2.34155">
        <ele>-2.2000000476837</ele>
        <time>2020-02-09T08:16:04.000Z</time>
      </trkpt>
      <trkpt lat="47.25855" lon="-2.34159">
        <ele>-2.2000000476837</ele>
        <time>2020-02-09T08:16:07.000Z</time>
      </trkpt>
      <trkpt lat="47.25863" lon="-2.34162">
        <ele>-2.2000000476837</ele>
        <time>2020-02-09T08:16:09.000Z</time>
      </trkpt>
      <trkpt lat="47.25876" lon="-2.34163">
        <ele>-2.2000000476837</ele>
        <time>2020-02-09T08:16:14.000Z</time>
      </trkpt>
      <trkpt lat="47.25893" lon="-2.34151">
        <ele>-2.2000000476837</ele>
        <time>2020-02-09T08:16:19.000Z</time>
      </trkpt>
      <trkpt lat="47.25909" lon="-2.34142">
        <ele>-2.5999999046326</ele>
        <time>2020-02-09T08:16:23.000Z</time>
      </trkpt>
      <trkpt lat="47.25913" lon="-2.34139">
        <ele>-3.2000000476837</ele>
        <time>2020-02-09T08:16:24.000Z</time>
      </trkpt>
      <trkpt lat="47.25917" lon="-2.34137">
        <ele>-3.5999999046326</ele>
        <time>2020-02-09T08:16:25.000Z</time>
      </trkpt>
      <trkpt lat="47.25922" lon="-2.34136">
        <ele>-4</ele>
        <time>2020-02-09T08:16:26.000Z</time>
      </trkpt>
      <trkpt lat="47.25926" lon="-2.34133">
        <ele>-4.4000000953674</ele>
        <time>2020-02-09T08:16:27.000Z</time>
      </trkpt>
      <trkpt lat="47.25929" lon="-2.3413">
        <ele>-4.4000000953674</ele>
        <time>2020-02-09T08:16:28.000Z</time>
      </trkpt>
      <trkpt lat="47.2595" lon="-2.34114">
        <ele>-4.4000000953674</ele>
        <time>2020-02-09T08:16:33.000Z</time>
      </trkpt>
      <trkpt lat="47.25954" lon="-2.34112">
        <ele>-4.4000000953674</ele>
        <time>2020-02-09T08:16:34.000Z</time>
      </trkpt>
      <trkpt lat="47.25972" lon="-2.34109">
        <ele>-4.4000000953674</ele>
        <time>2020-02-09T08:16:38.000Z</time>
      </trkpt>
      <trkpt lat="47.25998" lon="-2.34118">
        <ele>-4.4000000953674</ele>
        <time>2020-02-09T08:16:44.000Z</time>
      </trkpt>
      <trkpt lat="47.26027" lon="-2.3413">
        <ele>-4.4000000953674</ele>
        <time>2020-02-09T08:16:51.000Z</time>
      </trkpt>
      <trkpt lat="47.26055" lon="-2.34142">
        <ele>-4.4000000953674</ele>
        <time>2020-02-09T08:16:57.000Z</time>
      </trkpt>
      <trkpt lat="47.26081" lon="-2.34154">
        <ele>-4.4000000953674</ele>
        <time>2020-02-09T08:17:04.000Z</time>
      </trkpt>
      <trkpt lat="47.2611" lon="-2.34168">
        <ele>-4.4000000953674</ele>
        <time>2020-02-09T08:17:12.000Z</time>
      </trkpt>
      <trkpt lat="47.26114" lon="-2.34166">
        <ele>-4.4000000953674</ele>
        <time>2020-02-09T08:17:14.000Z</time>
      </trkpt>
      <trkpt lat="47.26116" lon="-2.34164">
        <ele>-4.4000000953674</ele>
        <time>2020-02-09T08:17:15.000Z</time>
      </trkpt>
      <trkpt lat="47.26119" lon="-2.34154">
        <ele>-4.4000000953674</ele>
        <time>2020-02-09T08:17:18.000Z</time>
      </trkpt>
      <trkpt lat="47.26121" lon="-2.34149">
        <ele>-4.4000000953674</ele>
        <time>2020-02-09T08:17:20.000Z</time>
      </trkpt>
      <trkpt lat="47.26128" lon="-2.3415">
        <ele>-4.4000000953674</ele>
        <time>2020-02-09T08:17:22.000Z</time>
      </trkpt>
      <trkpt lat="47.2614" lon="-2.34154">
        <ele>-3.7999999523163</ele>
        <time>2020-02-09T08:17:25.000Z</time>
      </trkpt>
      <trkpt lat="47.26145" lon="-2.34157">
        <ele>-3.2000000476837</ele>
        <time>2020-02-09T08:17:26.000Z</time>
      </trkpt>
      <trkpt lat="47.26149" lon="-2.34161">
        <ele>-2.5999999046326</ele>
        <time>2020-02-09T08:17:27.000Z</time>
      </trkpt>
      <trkpt lat="47.26152" lon="-2.34166">
        <ele>-2</ele>
        <time>2020-02-09T08:17:28.000Z</time>
      </trkpt>
      <trkpt lat="47.26156" lon="-2.34172">
        <ele>-1.3999999761581</ele>
        <time>2020-02-09T08:17:29.000Z</time>
      </trkpt>
      <trkpt lat="47.26165" lon="-2.34181">
        <ele>-1.3999999761581</ele>
        <time>2020-02-09T08:17:31.000Z</time>
      </trkpt>
      <trkpt lat="47.26169" lon="-2.34186">
        <ele>-1.3999999761581</ele>
        <time>2020-02-09T08:17:32.000Z</time>
      </trkpt>
      <trkpt lat="47.26178" lon="-2.34195">
        <ele>-1.7999999523163</ele>
        <time>2020-02-09T08:17:34.000Z</time>
      </trkpt>
      <trkpt lat="47.26183" lon="-2.34199">
        <ele>-2.2000000476837</ele>
        <time>2020-02-09T08:17:35.000Z</time>
      </trkpt>
      <trkpt lat="47.26187" lon="-2.34204">
        <ele>-2.5999999046326</ele>
        <time>2020-02-09T08:17:36.000Z</time>
      </trkpt>
      <trkpt lat="47.26192" lon="-2.34208">
        <ele>-3.2000000476837</ele>
        <time>2020-02-09T08:17:37.000Z</time>
      </trkpt>
      <trkpt lat="47.26197" lon="-2.34213">
        <ele>-3.5999999046326</ele>
        <time>2020-02-09T08:17:38.000Z</time>
      </trkpt>
      <trkpt lat="47.26202" lon="-2.34218">
        <ele>-3.5999999046326</ele>
        <time>2020-02-09T08:17:39.000Z</time>
      </trkpt>
      <trkpt lat="47.26233" lon="-2.34251">
        <ele>-3.5999999046326</ele>
        <time>2020-02-09T08:17:46.000Z</time>
      </trkpt>
      <trkpt lat="47.26255" lon="-2.34274">
        <ele>-3.5999999046326</ele>
        <time>2020-02-09T08:17:51.000Z</time>
      </trkpt>
      <trkpt lat="47.26264" lon="-2.34282">
        <ele>-3.5999999046326</ele>
        <time>2020-02-09T08:17:53.000Z</time>
      </trkpt>
      <trkpt lat="47.2629" lon="-2.3431">
        <ele>-3.5999999046326</ele>
        <time>2020-02-09T08:18:00.000Z</time>
      </trkpt>
      <trkpt lat="47.26294" lon="-2.34314">
        <ele>-4</ele>
        <time>2020-02-09T08:18:01.000Z</time>
      </trkpt>
      <trkpt lat="47.26297" lon="-2.34318">
        <ele>-4.4000000953674</ele>
        <time>2020-02-09T08:18:02.000Z</time>
      </trkpt>
      <trkpt lat="47.26301" lon="-2.34322">
        <ele>-4.8000001907349</ele>
        <time>2020-02-09T08:18:03.000Z</time>
      </trkpt>
      <trkpt lat="47.26305" lon="-2.34326">
        <ele>-5.1999998092651</ele>
        <time>2020-02-09T08:18:04.000Z</time>
      </trkpt>
      <trkpt lat="47.26309" lon="-2.3433">
        <ele>-5.5999999046326</ele>
        <time>2020-02-09T08:18:05.000Z</time>
      </trkpt>
      <trkpt lat="47.26316" lon="-2.34339">
        <ele>-5.5999999046326</ele>
        <time>2020-02-09T08:18:07.000Z</time>
      </trkpt>
      <trkpt lat="47.26324" lon="-2.34346">
        <ele>-5.5999999046326</ele>
        <time>2020-02-09T08:18:09.000Z</time>
      </trkpt>
      <trkpt lat="47.26332" lon="-2.34349">
        <ele>-5.1999998092651</ele>
        <time>2020-02-09T08:18:11.000Z</time>
      </trkpt>
      <trkpt lat="47.26336" lon="-2.34352">
        <ele>-4.5999999046326</ele>
        <time>2020-02-09T08:18:12.000Z</time>
      </trkpt>
      <trkpt lat="47.2634" lon="-2.34357">
        <ele>-4.1999998092651</ele>
        <time>2020-02-09T08:18:13.000Z</time>
      </trkpt>
      <trkpt lat="47.26343" lon="-2.34363">
        <ele>-3.5999999046326</ele>
        <time>2020-02-09T08:18:14.000Z</time>
      </trkpt>
      <trkpt lat="47.26347" lon="-2.34368">
        <ele>-3</ele>
        <time>2020-02-09T08:18:15.000Z</time>
      </trkpt>
      <trkpt lat="47.26352" lon="-2.34372">
        <ele>-3</ele>
        <time>2020-02-09T08:18:16.000Z</time>
      </trkpt>
      <trkpt lat="47.26384" lon="-2.34399">
        <ele>-3</ele>
        <time>2020-02-09T08:18:23.000Z</time>
      </trkpt>
      <trkpt lat="47.26422" lon="-2.3443">
        <ele>-3</ele>
        <time>2020-02-09T08:18:31.000Z</time>
      </trkpt>
      <trkpt lat="47.26454" lon="-2.34455">
        <ele>-3</ele>
        <time>2020-02-09T08:18:38.000Z</time>
      </trkpt>
      <trkpt lat="47.26472" lon="-2.34469">
        <ele>-3.5999999046326</ele>
        <time>2020-02-09T08:18:42.000Z</time>
      </trkpt>
      <trkpt lat="47.26477" lon="-2.34473">
        <ele>-4</ele>
        <time>2020-02-09T08:18:43.000Z</time>
      </trkpt>
      <trkpt lat="47.26482" lon="-2.34476">
        <ele>-4.4000000953674</ele>
        <time>2020-02-09T08:18:44.000Z</time>
      </trkpt>
      <trkpt lat="47.26487" lon="-2.3448">
        <ele>-4.8000001907349</ele>
        <time>2020-02-09T08:18:45.000Z</time>
      </trkpt>
      <trkpt lat="47.26491" lon="-2.34483">
        <ele>-5.1999998092651</ele>
        <time>2020-02-09T08:18:46.000Z</time>
      </trkpt>
      <trkpt lat="47.26532" lon="-2.34512">
        <ele>-5.1999998092651</ele>
        <time>2020-02-09T08:18:54.000Z</time>
      </trkpt>
      <trkpt lat="47.26542" lon="-2.34522">
        <ele>-4.8000001907349</ele>
        <time>2020-02-09T08:18:56.000Z</time>
      </trkpt>
      <trkpt lat="47.26546" lon="-2.34527">
        <ele>-4.4000000953674</ele>
        <time>2020-02-09T08:18:57.000Z</time>
      </trkpt>
      <trkpt lat="47.2655" lon="-2.34532">
        <ele>-4</ele>
        <time>2020-02-09T08:18:58.000Z</time>
      </trkpt>
      <trkpt lat="47.26555" lon="-2.34538">
        <ele>-3.4000000953674</ele>
        <time>2020-02-09T08:18:59.000Z</time>
      </trkpt>
      <trkpt lat="47.2656" lon="-2.34542">
        <ele>-3</ele>
        <time>2020-02-09T08:19:00.000Z</time>
      </trkpt>
      <trkpt lat="47.26592" lon="-2.34578">
        <ele>-3</ele>
        <time>2020-02-09T08:19:07.000Z</time>
      </trkpt>
      <trkpt lat="47.26628" lon="-2.34619">
        <ele>-3</ele>
        <time>2020-02-09T08:19:15.000Z</time>
      </trkpt>
      <trkpt lat="47.26647" lon="-2.34644">
        <ele>-2.5999999046326</ele>
        <time>2020-02-09T08:19:20.000Z</time>
      </trkpt>
      <trkpt lat="47.26652" lon="-2.34649">
        <ele>-2.2000000476837</ele>
        <time>2020-02-09T08:19:21.000Z</time>
      </trkpt>
      <trkpt lat="47.26656" lon="-2.34654">
        <ele>-2.4000000953674</ele>
        <time>2020-02-09T08:19:22.000Z</time>
      </trkpt>
      <trkpt lat="47.2666" lon="-2.34659">
        <ele>-2.5999999046326</ele>
        <time>2020-02-09T08:19:23.000Z</time>
      </trkpt>
      <trkpt lat="47.26664" lon="-2.34664">
        <ele>-2.7999999523163</ele>
        <time>2020-02-09T08:19:24.000Z</time>
      </trkpt>
      <trkpt lat="47.26668" lon="-2.34669">
        <ele>-3.2000000476837</ele>
        <time>2020-02-09T08:19:25.000Z</time>
      </trkpt>
      <trkpt lat="47.26673" lon="-2.34674">
        <ele>-3.7999999523163</ele>
        <time>2020-02-09T08:19:26.000Z</time>
      </trkpt>
      <trkpt lat="47.26677" lon="-2.34679">
        <ele>-4.1999998092651</ele>
        <time>2020-02-09T08:19:27.000Z</time>
      </trkpt>
      <trkpt lat="47.26681" lon="-2.34684">
        <ele>-4.8000001907349</ele>
        <time>2020-02-09T08:19:28.000Z</time>
      </trkpt>
      <trkpt lat="47.26685" lon="-2.34689">
        <ele>-5.1999998092651</ele>
        <time>2020-02-09T08:19:29.000Z</time>
      </trkpt>
      <trkpt lat="47.26702" lon="-2.34709">
        <ele>-5.1999998092651</ele>
        <time>2020-02-09T08:19:33.000Z</time>
      </trkpt>
      <trkpt lat="47.26736" lon="-2.34748">
        <ele>-4.8000001907349</ele>
        <time>2020-02-09T08:19:41.000Z</time>
      </trkpt>
      <trkpt lat="47.2674" lon="-2.34753">
        <ele>-4.4000000953674</ele>
        <time>2020-02-09T08:19:42.000Z</time>
      </trkpt>
      <trkpt lat="47.26744" lon="-2.34759">
        <ele>-3.7999999523163</ele>
        <time>2020-02-09T08:19:43.000Z</time>
      </trkpt>
      <trkpt lat="47.26748" lon="-2.34764">
        <ele>-3</ele>
        <time>2020-02-09T08:19:44.000Z</time>
      </trkpt>
      <trkpt lat="47.26752" lon="-2.3477">
        <ele>-1.7999999523163</ele>
        <time>2020-02-09T08:19:45.000Z</time>
      </trkpt>
      <trkpt lat="47.26756" lon="-2.34775">
        <ele>-1</ele>
        <time>2020-02-09T08:19:46.000Z</time>
      </trkpt>
      <trkpt lat="47.26768" lon="-2.34789">
        <ele>-1</ele>
        <time>2020-02-09T08:19:49.000Z</time>
      </trkpt>
      <trkpt lat="47.26777" lon="-2.34801">
        <ele>-1.3999999761581</ele>
        <time>2020-02-09T08:19:51.000Z</time>
      </trkpt>
      <trkpt lat="47.26781" lon="-2.34807">
        <ele>-1.7999999523163</ele>
        <time>2020-02-09T08:19:52.000Z</time>
      </trkpt>
      <trkpt lat="47.26784" lon="-2.34813">
        <ele>-2.2000000476837</ele>
        <time>2020-02-09T08:19:53.000Z</time>
      </trkpt>
      <trkpt lat="47.26788" lon="-2.34819">
        <ele>-2.5999999046326</ele>
        <time>2020-02-09T08:19:54.000Z</time>
      </trkpt>
      <trkpt lat="47.26792" lon="-2.34824">
        <ele>-3</ele>
        <time>2020-02-09T08:19:55.000Z</time>
      </trkpt>
      <trkpt lat="47.26815" lon="-2.34859">
        <ele>-3</ele>
        <time>2020-02-09T08:20:01.000Z</time>
      </trkpt>
      <trkpt lat="47.26844" lon="-2.34902">
        <ele>-3</ele>
        <time>2020-02-09T08:20:08.000Z</time>
      </trkpt>
      <trkpt lat="47.26875" lon="-2.34948">
        <ele>-3</ele>
        <time>2020-02-09T08:20:16.000Z</time>
      </trkpt>
      <trkpt lat="47.26899" lon="-2.34982">
        <ele>-3.4000000953674</ele>
        <time>2020-02-09T08:20:22.000Z</time>
      </trkpt>
      <trkpt lat="47.26903" lon="-2.34988">
        <ele>-3.7999999523163</ele>
        <time>2020-02-09T08:20:23.000Z</time>
      </trkpt>
      <trkpt lat="47.26906" lon="-2.34994">
        <ele>-4.1999998092651</ele>
        <time>2020-02-09T08:20:24.000Z</time>
      </trkpt>
      <trkpt lat="47.2691" lon="-2.35">
        <ele>-4.5999999046326</ele>
        <time>2020-02-09T08:20:25.000Z</time>
      </trkpt>
      <trkpt lat="47.26913" lon="-2.35006">
        <ele>-5</ele>
        <time>2020-02-09T08:20:26.000Z</time>
      </trkpt>
      <trkpt lat="47.26947" lon="-2.35058">
        <ele>-5</ele>
        <time>2020-02-09T08:20:35.000Z</time>
      </trkpt>
      <trkpt lat="47.26961" lon="-2.3508">
        <ele>-4.5999999046326</ele>
        <time>2020-02-09T08:20:39.000Z</time>
      </trkpt>
      <trkpt lat="47.26965" lon="-2.35085">
        <ele>-4.1999998092651</ele>
        <time>2020-02-09T08:20:40.000Z</time>
      </trkpt>
      <trkpt lat="47.26969" lon="-2.35091">
        <ele>-3.7999999523163</ele>
        <time>2020-02-09T08:20:41.000Z</time>
      </trkpt>
      <trkpt lat="47.26972" lon="-2.35096">
        <ele>-3.4000000953674</ele>
        <time>2020-02-09T08:20:42.000Z</time>
      </trkpt>
      <trkpt lat="47.26976" lon="-2.35101">
        <ele>-3</ele>
        <time>2020-02-09T08:20:43.000Z</time>
      </trkpt>
      <trkpt lat="47.26998" lon="-2.35136">
        <ele>-3</ele>
        <time>2020-02-09T08:20:50.000Z</time>
      </trkpt>
      <trkpt lat="47.27015" lon="-2.35161">
        <ele>-3.4000000953674</ele>
        <time>2020-02-09T08:20:55.000Z</time>
      </trkpt>
      <trkpt lat="47.27019" lon="-2.35167">
        <ele>-4</ele>
        <time>2020-02-09T08:20:56.000Z</time>
      </trkpt>
      <trkpt lat="47.27022" lon="-2.35172">
        <ele>-4.4000000953674</ele>
        <time>2020-02-09T08:20:57.000Z</time>
      </trkpt>
      <trkpt lat="47.27026" lon="-2.35178">
        <ele>-5</ele>
        <time>2020-02-09T08:20:58.000Z</time>
      </trkpt>
      <trkpt lat="47.2703" lon="-2.35184">
        <ele>-5.4000000953674</ele>
        <time>2020-02-09T08:20:59.000Z</time>
      </trkpt>
      <trkpt lat="47.27037" lon="-2.35196">
        <ele>-5</ele>
        <time>2020-02-09T08:21:01.000Z</time>
      </trkpt>
      <trkpt lat="47.2704" lon="-2.35201">
        <ele>-4.4000000953674</ele>
        <time>2020-02-09T08:21:02.000Z</time>
      </trkpt>
      <trkpt lat="47.27043" lon="-2.35206">
        <ele>-3.7999999523163</ele>
        <time>2020-02-09T08:21:03.000Z</time>
      </trkpt>
      <trkpt lat="47.27046" lon="-2.35211">
        <ele>-3.4000000953674</ele>
        <time>2020-02-09T08:21:04.000Z</time>
      </trkpt>
      <trkpt lat="47.2705" lon="-2.35216">
        <ele>-2.7999999523163</ele>
        <time>2020-02-09T08:21:05.000Z</time>
      </trkpt>
      <trkpt lat="47.2706" lon="-2.3523">
        <ele>-3.4000000953674</ele>
        <time>2020-02-09T08:21:08.000Z</time>
      </trkpt>
      <trkpt lat="47.27064" lon="-2.35236">
        <ele>-3.7999999523163</ele>
        <time>2020-02-09T08:21:09.000Z</time>
      </trkpt>
      <trkpt lat="47.27067" lon="-2.35241">
        <ele>-4.1999998092651</ele>
        <time>2020-02-09T08:21:10.000Z</time>
      </trkpt>
      <trkpt lat="47.27071" lon="-2.35246">
        <ele>-4.5999999046326</ele>
        <time>2020-02-09T08:21:11.000Z</time>
      </trkpt>
      <trkpt lat="47.27075" lon="-2.35251">
        <ele>-5</ele>
        <time>2020-02-09T08:21:12.000Z</time>
      </trkpt>
      <trkpt lat="47.27078" lon="-2.35256">
        <ele>-4.5999999046326</ele>
        <time>2020-02-09T08:21:13.000Z</time>
      </trkpt>
      <trkpt lat="47.27082" lon="-2.35262">
        <ele>-4.1999998092651</ele>
        <time>2020-02-09T08:21:14.000Z</time>
      </trkpt>
      <trkpt lat="47.27086" lon="-2.35268">
        <ele>-3.7999999523163</ele>
        <time>2020-02-09T08:21:15.000Z</time>
      </trkpt>
      <trkpt lat="47.2709" lon="-2.35274">
        <ele>-3.4000000953674</ele>
        <time>2020-02-09T08:21:16.000Z</time>
      </trkpt>
      <trkpt lat="47.27093" lon="-2.35281">
        <ele>-3</ele>
        <time>2020-02-09T08:21:17.000Z</time>
      </trkpt>
      <trkpt lat="47.27101" lon="-2.35293">
        <ele>-3</ele>
        <time>2020-02-09T08:21:19.000Z</time>
      </trkpt>
      <trkpt lat="47.27112" lon="-2.3531">
        <ele>-3</ele>
        <time>2020-02-09T08:21:22.000Z</time>
      </trkpt>
      <trkpt lat="47.27144" lon="-2.35364">
        <ele>-3</ele>
        <time>2020-02-09T08:21:31.000Z</time>
      </trkpt>
      <trkpt lat="47.27163" lon="-2.354">
        <ele>-2.4000000953674</ele>
        <time>2020-02-09T08:21:37.000Z</time>
      </trkpt>
      <trkpt lat="47.27166" lon="-2.35406">
        <ele>-2</ele>
        <time>2020-02-09T08:21:38.000Z</time>
      </trkpt>
      <trkpt lat="47.27169" lon="-2.35411">
        <ele>-1.6000000238419</ele>
        <time>2020-02-09T08:21:39.000Z</time>
      </trkpt>
      <trkpt lat="47.27172" lon="-2.35417">
        <ele>-1</ele>
        <time>2020-02-09T08:21:40.000Z</time>
      </trkpt>
      <trkpt lat="47.27175" lon="-2.35422">
        <ele>-0.60000002384186</ele>
        <time>2020-02-09T08:21:41.000Z</time>
      </trkpt>
      <trkpt lat="47.27181" lon="-2.35434">
        <ele>-1.3999999761581</ele>
        <time>2020-02-09T08:21:43.000Z</time>
      </trkpt>
      <trkpt lat="47.27185" lon="-2.35439">
        <ele>-2</ele>
        <time>2020-02-09T08:21:44.000Z</time>
      </trkpt>
      <trkpt lat="47.27188" lon="-2.35445">
        <ele>-2.7999999523163</ele>
        <time>2020-02-09T08:21:45.000Z</time>
      </trkpt>
      <trkpt lat="47.27191" lon="-2.35451">
        <ele>-3.4000000953674</ele>
        <time>2020-02-09T08:21:46.000Z</time>
      </trkpt>
      <trkpt lat="47.27194" lon="-2.35457">
        <ele>-4</ele>
        <time>2020-02-09T08:21:47.000Z</time>
      </trkpt>
      <trkpt lat="47.27198" lon="-2.35463">
        <ele>-4.5999999046326</ele>
        <time>2020-02-09T08:21:48.000Z</time>
      </trkpt>
      <trkpt lat="47.27201" lon="-2.35469">
        <ele>-5.4000000953674</ele>
        <time>2020-02-09T08:21:49.000Z</time>
      </trkpt>
      <trkpt lat="47.27204" lon="-2.35476">
        <ele>-5.8000001907349</ele>
        <time>2020-02-09T08:21:50.000Z</time>
      </trkpt>
      <trkpt lat="47.27207" lon="-2.35482">
        <ele>-6.1999998092651</ele>
        <time>2020-02-09T08:21:51.000Z</time>
      </trkpt>
      <trkpt lat="47.27227" lon="-2.3552">
        <ele>-6.1999998092651</ele>
        <time>2020-02-09T08:21:57.000Z</time>
      </trkpt>
      <trkpt lat="47.2723" lon="-2.35527">
        <ele>-5.8000001907349</ele>
        <time>2020-02-09T08:21:58.000Z</time>
      </trkpt>
      <trkpt lat="47.27233" lon="-2.35534">
        <ele>-5.1999998092651</ele>
        <time>2020-02-09T08:21:59.000Z</time>
      </trkpt>
      <trkpt lat="47.27236" lon="-2.35542">
        <ele>-4.8000001907349</ele>
        <time>2020-02-09T08:22:00.000Z</time>
      </trkpt>
      <trkpt lat="47.27239" lon="-2.35549">
        <ele>-4.4000000953674</ele>
        <time>2020-02-09T08:22:01.000Z</time>
      </trkpt>
      <trkpt lat="47.27243" lon="-2.35556">
        <ele>-3.7999999523163</ele>
        <time>2020-02-09T08:22:02.000Z</time>
      </trkpt>
      <trkpt lat="47.27252" lon="-2.35577">
        <ele>-3.7999999523163</ele>
        <time>2020-02-09T08:22:05.000Z</time>
      </trkpt>
      <trkpt lat="47.27274" lon="-2.35626">
        <ele>-3.7999999523163</ele>
        <time>2020-02-09T08:22:13.000Z</time>
      </trkpt>
      <trkpt lat="47.27297" lon="-2.35677">
        <ele>-3.7999999523163</ele>
        <time>2020-02-09T08:22:21.000Z</time>
      </trkpt>
      <trkpt lat="47.273" lon="-2.35683">
        <ele>-4.4000000953674</ele>
        <time>2020-02-09T08:22:22.000Z</time>
      </trkpt>
      <trkpt lat="47.27304" lon="-2.35688">
        <ele>-5</ele>
        <time>2020-02-09T08:22:23.000Z</time>
      </trkpt>
      <trkpt lat="47.27306" lon="-2.35694">
        <ele>-5.5999999046326</ele>
        <time>2020-02-09T08:22:24.000Z</time>
      </trkpt>
      <trkpt lat="47.27309" lon="-2.357">
        <ele>-6.1999998092651</ele>
        <time>2020-02-09T08:22:25.000Z</time>
      </trkpt>
      <trkpt lat="47.27312" lon="-2.35706">
        <ele>-6.5999999046326</ele>
        <time>2020-02-09T08:22:26.000Z</time>
      </trkpt>
      <trkpt lat="47.27314" lon="-2.35712">
        <ele>-6.5999999046326</ele>
        <time>2020-02-09T08:22:27.000Z</time>
      </trkpt>
      <trkpt lat="47.27317" lon="-2.35717">
        <ele>-6.5999999046326</ele>
        <time>2020-02-09T08:22:28.000Z</time>
      </trkpt>
      <trkpt lat="47.27325" lon="-2.35721">
        <ele>-6</ele>
        <time>2020-02-09T08:22:30.000Z</time>
      </trkpt>
      <trkpt lat="47.2733" lon="-2.35719">
        <ele>-5.1999998092651</ele>
        <time>2020-02-09T08:22:31.000Z</time>
      </trkpt>
      <trkpt lat="47.27335" lon="-2.35716">
        <ele>-4.1999998092651</ele>
        <time>2020-02-09T08:22:32.000Z</time>
      </trkpt>
      <trkpt lat="47.2734" lon="-2.35711">
        <ele>-3</ele>
        <time>2020-02-09T08:22:33.000Z</time>
      </trkpt>
      <trkpt lat="47.27346" lon="-2.35705">
        <ele>-1.7999999523163</ele>
        <time>2020-02-09T08:22:34.000Z</time>
      </trkpt>
      <trkpt lat="47.27351" lon="-2.357">
        <ele>-0.20000000298023</ele>
        <time>2020-02-09T08:22:35.000Z</time>
      </trkpt>
      <trkpt lat="47.27357" lon="-2.35694">
        <ele>2</ele>
        <time>2020-02-09T08:22:36.000Z</time>
      </trkpt>
      <trkpt lat="47.27363" lon="-2.35689">
        <ele>4.4000000953674</ele>
        <time>2020-02-09T08:22:37.000Z</time>
      </trkpt>
      <trkpt lat="47.2737" lon="-2.35685">
        <ele>7.4000000953674</ele>
        <time>2020-02-09T08:22:38.000Z</time>
      </trkpt>
      <trkpt lat="47.27376" lon="-2.3568">
        <ele>7.4000000953674</ele>
        <time>2020-02-09T08:22:39.000Z</time>
      </trkpt>
      <trkpt lat="47.27382" lon="-2.35676">
        <ele>7.5999999046326</ele>
        <time>2020-02-09T08:22:40.000Z</time>
      </trkpt>
      <trkpt lat="47.27388" lon="-2.35672">
        <ele>7.5999999046326</ele>
        <time>2020-02-09T08:22:41.000Z</time>
      </trkpt>
      <trkpt lat="47.27394" lon="-2.35668">
        <ele>7.1999998092651</ele>
        <time>2020-02-09T08:22:42.000Z</time>
      </trkpt>
      <trkpt lat="47.274" lon="-2.35664">
        <ele>6.8000001907349</ele>
        <time>2020-02-09T08:22:43.000Z</time>
      </trkpt>
      <trkpt lat="47.27405" lon="-2.35659">
        <ele>6.4000000953674</ele>
        <time>2020-02-09T08:22:44.000Z</time>
      </trkpt>
      <trkpt lat="47.2741" lon="-2.35656">
        <ele>6</ele>
        <time>2020-02-09T08:22:45.000Z</time>
      </trkpt>
      <trkpt lat="47.27416" lon="-2.35655">
        <ele>5.5999999046326</ele>
        <time>2020-02-09T08:22:46.000Z</time>
      </trkpt>
      <trkpt lat="47.27425" lon="-2.35658">
        <ele>5.5999999046326</ele>
        <time>2020-02-09T08:22:48.000Z</time>
      </trkpt>
      <trkpt lat="47.27434" lon="-2.35662">
        <ele>5.5999999046326</ele>
        <time>2020-02-09T08:22:50.000Z</time>
      </trkpt>
      <trkpt lat="47.2744" lon="-2.35664">
        <ele>5.1999998092651</ele>
        <time>2020-02-09T08:22:51.000Z</time>
      </trkpt>
      <trkpt lat="47.27446" lon="-2.35665">
        <ele>4.8000001907349</ele>
        <time>2020-02-09T08:22:52.000Z</time>
      </trkpt>
      <trkpt lat="47.27452" lon="-2.35667">
        <ele>4.4000000953674</ele>
        <time>2020-02-09T08:22:53.000Z</time>
      </trkpt>
      <trkpt lat="47.27457" lon="-2.35668">
        <ele>4</ele>
        <time>2020-02-09T08:22:54.000Z</time>
      </trkpt>
      <trkpt lat="47.27463" lon="-2.3567">
        <ele>3.5999999046326</ele>
        <time>2020-02-09T08:22:55.000Z</time>
      </trkpt>
      <trkpt lat="47.27479" lon="-2.35674">
        <ele>4</ele>
        <time>2020-02-09T08:22:58.000Z</time>
      </trkpt>
      <trkpt lat="47.27485" lon="-2.35676">
        <ele>4.4000000953674</ele>
        <time>2020-02-09T08:22:59.000Z</time>
      </trkpt>
      <trkpt lat="47.2749" lon="-2.35677">
        <ele>4.8000001907349</ele>
        <time>2020-02-09T08:23:00.000Z</time>
      </trkpt>
      <trkpt lat="47.27495" lon="-2.35677">
        <ele>5.1999998092651</ele>
        <time>2020-02-09T08:23:01.000Z</time>
      </trkpt>
      <trkpt lat="47.275" lon="-2.35678">
        <ele>5.5999999046326</ele>
        <time>2020-02-09T08:23:02.000Z</time>
      </trkpt>
      <trkpt lat="47.27509" lon="-2.35679">
        <ele>5.1999998092651</ele>
        <time>2020-02-09T08:23:04.000Z</time>
      </trkpt>
      <trkpt lat="47.27513" lon="-2.3568">
        <ele>4.5999999046326</ele>
        <time>2020-02-09T08:23:05.000Z</time>
      </trkpt>
      <trkpt lat="47.27518" lon="-2.35681">
        <ele>4.1999998092651</ele>
        <time>2020-02-09T08:23:06.000Z</time>
      </trkpt>
      <trkpt lat="47.27522" lon="-2.35682">
        <ele>3.5999999046326</ele>
        <time>2020-02-09T08:23:07.000Z</time>
      </trkpt>
      <trkpt lat="47.27527" lon="-2.35684">
        <ele>3.2000000476837</ele>
        <time>2020-02-09T08:23:08.000Z</time>
      </trkpt>
      <trkpt lat="47.2754" lon="-2.35688">
        <ele>3.2000000476837</ele>
        <time>2020-02-09T08:23:11.000Z</time>
      </trkpt>
      <trkpt lat="47.27569" lon="-2.35695">
        <ele>3.2000000476837</ele>
        <time>2020-02-09T08:23:18.000Z</time>
      </trkpt>
      <trkpt lat="47.27573" lon="-2.35696">
        <ele>3.2000000476837</ele>
        <time>2020-02-09T08:23:19.000Z</time>
      </trkpt>
      <trkpt lat="47.27595" lon="-2.35704">
        <ele>3.2000000476837</ele>
        <time>2020-02-09T08:23:25.000Z</time>
      </trkpt>
      <trkpt lat="47.27623" lon="-2.35712">
        <ele>3.2000000476837</ele>
        <time>2020-02-09T08:23:32.000Z</time>
      </trkpt>
      <trkpt lat="47.27634" lon="-2.35715">
        <ele>3.5999999046326</ele>
        <time>2020-02-09T08:23:35.000Z</time>
      </trkpt>
      <trkpt lat="47.27638" lon="-2.35716">
        <ele>4.1999998092651</ele>
        <time>2020-02-09T08:23:36.000Z</time>
      </trkpt>
      <trkpt lat="47.27641" lon="-2.35717">
        <ele>4.5999999046326</ele>
        <time>2020-02-09T08:23:37.000Z</time>
      </trkpt>
      <trkpt lat="47.27645" lon="-2.35718">
        <ele>5</ele>
        <time>2020-02-09T08:23:38.000Z</time>
      </trkpt>
      <trkpt lat="47.27649" lon="-2.35719">
        <ele>5.5999999046326</ele>
        <time>2020-02-09T08:23:39.000Z</time>
      </trkpt>
      <trkpt lat="47.27668" lon="-2.35725">
        <ele>5.5999999046326</ele>
        <time>2020-02-09T08:23:44.000Z</time>
      </trkpt>
      <trkpt lat="47.27676" lon="-2.35725">
        <ele>5.5999999046326</ele>
        <time>2020-02-09T08:23:46.000Z</time>
      </trkpt>
      <trkpt lat="47.27689" lon="-2.35727">
        <ele>5.5999999046326</ele>
        <time>2020-02-09T08:23:49.000Z</time>
      </trkpt>
      <trkpt lat="47.27703" lon="-2.35716">
        <ele>5.5999999046326</ele>
        <time>2020-02-09T08:23:53.000Z</time>
      </trkpt>
      <trkpt lat="47.2773" lon="-2.35685">
        <ele>5.5999999046326</ele>
        <time>2020-02-09T08:24:01.000Z</time>
      </trkpt>
      <trkpt lat="47.27737" lon="-2.35677">
        <ele>5.5999999046326</ele>
        <time>2020-02-09T08:24:03.000Z</time>
      </trkpt>
      <trkpt lat="47.2775" lon="-2.35657">
        <ele>5.5999999046326</ele>
        <time>2020-02-09T08:24:07.000Z</time>
      </trkpt>
      <trkpt lat="47.27758" lon="-2.35648">
        <ele>6</ele>
        <time>2020-02-09T08:24:09.000Z</time>
      </trkpt>
      <trkpt lat="47.27762" lon="-2.35643">
        <ele>6.4000000953674</ele>
        <time>2020-02-09T08:24:10.000Z</time>
      </trkpt>
      <trkpt lat="47.27766" lon="-2.35639">
        <ele>6.8000001907349</ele>
        <time>2020-02-09T08:24:11.000Z</time>
      </trkpt>
      <trkpt lat="47.2777" lon="-2.35635">
        <ele>7.1999998092651</ele>
        <time>2020-02-09T08:24:12.000Z</time>
      </trkpt>
      <trkpt lat="47.27774" lon="-2.35631">
        <ele>7.5999999046326</ele>
        <time>2020-02-09T08:24:13.000Z</time>
      </trkpt>
      <trkpt lat="47.27777" lon="-2.35628">
        <ele>7.5999999046326</ele>
        <time>2020-02-09T08:24:14.000Z</time>
      </trkpt>
      <trkpt lat="47.27795" lon="-2.35618">
        <ele>7.5999999046326</ele>
        <time>2020-02-09T08:24:18.000Z</time>
      </trkpt>
      <trkpt lat="47.27808" lon="-2.35612">
        <ele>7.5999999046326</ele>
        <time>2020-02-09T08:24:21.000Z</time>
      </trkpt>
      <trkpt lat="47.27822" lon="-2.35607">
        <ele>7.5999999046326</ele>
        <time>2020-02-09T08:24:24.000Z</time>
      </trkpt>
      <trkpt lat="47.2784" lon="-2.35603">
        <ele>8.1999998092651</ele>
        <time>2020-02-09T08:24:28.000Z</time>
      </trkpt>
      <trkpt lat="47.27844" lon="-2.35602">
        <ele>8.6000003814697</ele>
        <time>2020-02-09T08:24:29.000Z</time>
      </trkpt>
      <trkpt lat="47.27849" lon="-2.356">
        <ele>9</ele>
        <time>2020-02-09T08:24:30.000Z</time>
      </trkpt>
      <trkpt lat="47.27853" lon="-2.35599">
        <ele>9.3999996185303</ele>
        <time>2020-02-09T08:24:31.000Z</time>
      </trkpt>
      <trkpt lat="47.27857" lon="-2.35598">
        <ele>10</ele>
        <time>2020-02-09T08:24:32.000Z</time>
      </trkpt>
      <trkpt lat="47.27879" lon="-2.35592">
        <ele>10</ele>
        <time>2020-02-09T08:24:37.000Z</time>
      </trkpt>
      <trkpt lat="47.27883" lon="-2.35592">
        <ele>10</ele>
        <time>2020-02-09T08:24:38.000Z</time>
      </trkpt>
      <trkpt lat="47.27898" lon="-2.35589">
        <ele>10.800000190735</ele>
        <time>2020-02-09T08:24:42.000Z</time>
      </trkpt>
      <trkpt lat="47.27902" lon="-2.35588">
        <ele>11.199999809265</ele>
        <time>2020-02-09T08:24:43.000Z</time>
      </trkpt>
      <trkpt lat="47.27906" lon="-2.35586">
        <ele>11.60000038147</ele>
        <time>2020-02-09T08:24:44.000Z</time>
      </trkpt>
      <trkpt lat="47.2791" lon="-2.35585">
        <ele>12</ele>
        <time>2020-02-09T08:24:45.000Z</time>
      </trkpt>
      <trkpt lat="47.27937" lon="-2.35577">
        <ele>12</ele>
        <time>2020-02-09T08:24:52.000Z</time>
      </trkpt>
      <trkpt lat="47.27941" lon="-2.35576">
        <ele>12</ele>
        <time>2020-02-09T08:24:53.000Z</time>
      </trkpt>
      <trkpt lat="47.27961" lon="-2.35578">
        <ele>12.39999961853</ele>
        <time>2020-02-09T08:24:58.000Z</time>
      </trkpt>
      <trkpt lat="47.27965" lon="-2.35579">
        <ele>12.800000190735</ele>
        <time>2020-02-09T08:24:59.000Z</time>
      </trkpt>
      <trkpt lat="47.27969" lon="-2.3558">
        <ele>13.199999809265</ele>
        <time>2020-02-09T08:25:00.000Z</time>
      </trkpt>
      <trkpt lat="47.27973" lon="-2.35581">
        <ele>13.60000038147</ele>
        <time>2020-02-09T08:25:01.000Z</time>
      </trkpt>
      <trkpt lat="47.27977" lon="-2.35583">
        <ele>14</ele>
        <time>2020-02-09T08:25:02.000Z</time>
      </trkpt>
      <trkpt lat="47.27987" lon="-2.35584">
        <ele>14</ele>
        <time>2020-02-09T08:25:05.000Z</time>
      </trkpt>
      <trkpt lat="47.28011" lon="-2.35578">
        <ele>14</ele>
        <time>2020-02-09T08:25:11.000Z</time>
      </trkpt>
      <trkpt lat="47.28031" lon="-2.35576">
        <ele>14</ele>
        <time>2020-02-09T08:25:17.000Z</time>
      </trkpt>
      <trkpt lat="47.28046" lon="-2.35578">
        <ele>14</ele>
        <time>2020-02-09T08:25:22.000Z</time>
      </trkpt>
      <trkpt lat="47.28061" lon="-2.35582">
        <ele>14.39999961853</ele>
        <time>2020-02-09T08:25:27.000Z</time>
      </trkpt>
      <trkpt lat="47.28064" lon="-2.35583">
        <ele>15</ele>
        <time>2020-02-09T08:25:28.000Z</time>
      </trkpt>
      <trkpt lat="47.28066" lon="-2.35585">
        <ele>15.39999961853</ele>
        <time>2020-02-09T08:25:29.000Z</time>
      </trkpt>
      <trkpt lat="47.28067" lon="-2.35588">
        <ele>15.800000190735</ele>
        <time>2020-02-09T08:25:30.000Z</time>
      </trkpt>
      <trkpt lat="47.28069" lon="-2.35592">
        <ele>16.200000762939</ele>
        <time>2020-02-09T08:25:31.000Z</time>
      </trkpt>
      <trkpt lat="47.28071" lon="-2.35597">
        <ele>16.200000762939</ele>
        <time>2020-02-09T08:25:32.000Z</time>
      </trkpt>
      <trkpt lat="47.28079" lon="-2.35627">
        <ele>16.200000762939</ele>
        <time>2020-02-09T08:25:39.000Z</time>
      </trkpt>
      <trkpt lat="47.28081" lon="-2.35633">
        <ele>16.60000038147</ele>
        <time>2020-02-09T08:25:41.000Z</time>
      </trkpt>
      <trkpt lat="47.28081" lon="-2.35637">
        <ele>17.200000762939</ele>
        <time>2020-02-09T08:25:42.000Z</time>
      </trkpt>
      <trkpt lat="47.28082" lon="-2.3564">
        <ele>17.60000038147</ele>
        <time>2020-02-09T08:25:43.000Z</time>
      </trkpt>
      <trkpt lat="47.28082" lon="-2.35643">
        <ele>18</ele>
        <time>2020-02-09T08:25:44.000Z</time>
      </trkpt>
      <trkpt lat="47.28083" lon="-2.35645">
        <ele>18.60000038147</ele>
        <time>2020-02-09T08:25:45.000Z</time>
      </trkpt>
      <trkpt lat="47.28083" lon="-2.35648">
        <ele>19</ele>
        <time>2020-02-09T08:25:46.000Z</time>
      </trkpt>
      <trkpt lat="47.28084" lon="-2.35651">
        <ele>19.39999961853</ele>
        <time>2020-02-09T08:25:47.000Z</time>
      </trkpt>
      <trkpt lat="47.28084" lon="-2.35654">
        <ele>19.799999237061</ele>
        <time>2020-02-09T08:25:48.000Z</time>
      </trkpt>
      <trkpt lat="47.28085" lon="-2.35656">
        <ele>20.200000762939</ele>
        <time>2020-02-09T08:25:49.000Z</time>
      </trkpt>
      <trkpt lat="47.28085" lon="-2.3566">
        <ele>20.60000038147</ele>
        <time>2020-02-09T08:25:50.000Z</time>
      </trkpt>
      <trkpt lat="47.28086" lon="-2.35663">
        <ele>20.60000038147</ele>
        <time>2020-02-09T08:25:51.000Z</time>
      </trkpt>
      <trkpt lat="47.28089" lon="-2.35677">
        <ele>20.60000038147</ele>
        <time>2020-02-09T08:25:56.000Z</time>
      </trkpt>
      <trkpt lat="47.28089" lon="-2.35684">
        <ele>21</ele>
        <time>2020-02-09T08:25:59.000Z</time>
      </trkpt>
      <trkpt lat="47.28089" lon="-2.35686">
        <ele>21.39999961853</ele>
        <time>2020-02-09T08:26:00.000Z</time>
      </trkpt>
      <trkpt lat="47.2809" lon="-2.35689">
        <ele>21.799999237061</ele>
        <time>2020-02-09T08:26:01.000Z</time>
      </trkpt>
      <trkpt lat="47.28091" lon="-2.35692">
        <ele>22.200000762939</ele>
        <time>2020-02-09T08:26:02.000Z</time>
      </trkpt>
      <trkpt lat="47.28092" lon="-2.35695">
        <ele>22.60000038147</ele>
        <time>2020-02-09T08:26:03.000Z</time>
      </trkpt>
      <trkpt lat="47.28095" lon="-2.35706">
        <ele>22.60000038147</ele>
        <time>2020-02-09T08:26:06.000Z</time>
      </trkpt>
      <trkpt lat="47.28095" lon="-2.3571">
        <ele>22.60000038147</ele>
        <time>2020-02-09T08:26:07.000Z</time>
      </trkpt>
      <trkpt lat="47.28093" lon="-2.35727">
        <ele>22.60000038147</ele>
        <time>2020-02-09T08:26:11.000Z</time>
      </trkpt>
      <trkpt lat="47.28088" lon="-2.35759">
        <ele>22.60000038147</ele>
        <time>2020-02-09T08:26:17.000Z</time>
      </trkpt>
      <trkpt lat="47.28078" lon="-2.35784">
        <ele>22.60000038147</ele>
        <time>2020-02-09T08:26:21.000Z</time>
      </trkpt>
      <trkpt lat="47.28077" lon="-2.35789">
        <ele>22.200000762939</ele>
        <time>2020-02-09T08:26:22.000Z</time>
      </trkpt>
      <trkpt lat="47.28077" lon="-2.35793">
        <ele>21.799999237061</ele>
        <time>2020-02-09T08:26:23.000Z</time>
      </trkpt>
      <trkpt lat="47.28077" lon="-2.35797">
        <ele>21.39999961853</ele>
        <time>2020-02-09T08:26:24.000Z</time>
      </trkpt>
      <trkpt lat="47.28079" lon="-2.358">
        <ele>21</ele>
        <time>2020-02-09T08:26:25.000Z</time>
      </trkpt>
      <trkpt lat="47.28081" lon="-2.35802">
        <ele>20.60000038147</ele>
        <time>2020-02-09T08:26:26.000Z</time>
      </trkpt>
      <trkpt lat="47.28083" lon="-2.35802">
        <ele>20</ele>
        <time>2020-02-09T08:26:27.000Z</time>
      </trkpt>
      <trkpt lat="47.28084" lon="-2.35801">
        <ele>19.60000038147</ele>
        <time>2020-02-09T08:26:28.000Z</time>
      </trkpt>
      <trkpt lat="47.28086" lon="-2.35799">
        <ele>19.200000762939</ele>
        <time>2020-02-09T08:26:29.000Z</time>
      </trkpt>
      <trkpt lat="47.28088" lon="-2.35797">
        <ele>18.60000038147</ele>
        <time>2020-02-09T08:26:30.000Z</time>
      </trkpt>
      <trkpt lat="47.28089" lon="-2.35795">
        <ele>18.200000762939</ele>
        <time>2020-02-09T08:26:31.000Z</time>
      </trkpt>
      <trkpt lat="47.28092" lon="-2.35788">
        <ele>18.200000762939</ele>
        <time>2020-02-09T08:26:33.000Z</time>
      </trkpt>
      <trkpt lat="47.28095" lon="-2.35781">
        <ele>18.200000762939</ele>
        <time>2020-02-09T08:26:35.000Z</time>
      </trkpt>
      <trkpt lat="47.28095" lon="-2.35779">
        <ele>18.200000762939</ele>
        <time>2020-02-09T08:26:36.000Z</time>
      </trkpt>
      <trkpt lat="47.28096" lon="-2.3577">
        <ele>18.200000762939</ele>
        <time>2020-02-09T08:26:39.000Z</time>
      </trkpt>
      <trkpt lat="47.28101" lon="-2.35758">
        <ele>18.200000762939</ele>
        <time>2020-02-09T08:26:43.000Z</time>
      </trkpt>
      <trkpt lat="47.28103" lon="-2.35755">
        <ele>18.200000762939</ele>
        <time>2020-02-09T08:26:44.000Z</time>
      </trkpt>
      <trkpt lat="47.2812" lon="-2.35749">
        <ele>18.200000762939</ele>
        <time>2020-02-09T08:26:49.000Z</time>
      </trkpt>
      <trkpt lat="47.28137" lon="-2.35749">
        <ele>18.200000762939</ele>
        <time>2020-02-09T08:26:55.000Z</time>
      </trkpt>
      <trkpt lat="47.28147" lon="-2.35758">
        <ele>18.200000762939</ele>
        <time>2020-02-09T08:27:01.000Z</time>
      </trkpt>
      <trkpt lat="47.28153" lon="-2.35762">
        <ele>18.200000762939</ele>
        <time>2020-02-09T08:27:06.000Z</time>
      </trkpt>
      <trkpt lat="47.28157" lon="-2.35775">
        <ele>20</ele>
        <time>2020-02-09T08:27:14.000Z</time>
      </trkpt>
      <trkpt lat="47.28159" lon="-2.35777">
        <ele>20.39999961853</ele>
        <time>2020-02-09T08:27:15.000Z</time>
      </trkpt>
      <trkpt lat="47.28166" lon="-2.35787">
        <ele>20.39999961853</ele>
        <time>2020-02-09T08:27:20.000Z</time>
      </trkpt>
      <trkpt lat="47.28174" lon="-2.35801">
        <ele>20.39999961853</ele>
        <time>2020-02-09T08:27:24.000Z</time>
      </trkpt>
      <trkpt lat="47.2818" lon="-2.35822">
        <ele>20.39999961853</ele>
        <time>2020-02-09T08:27:29.000Z</time>
      </trkpt>
      <trkpt lat="47.28184" lon="-2.35844">
        <ele>20.39999961853</ele>
        <time>2020-02-09T08:27:33.000Z</time>
      </trkpt>
      <trkpt lat="47.2819" lon="-2.35864">
        <ele>20.39999961853</ele>
        <time>2020-02-09T08:27:38.000Z</time>
      </trkpt>
      <trkpt lat="47.28201" lon="-2.35889">
        <ele>20.39999961853</ele>
        <time>2020-02-09T08:27:44.000Z</time>
      </trkpt>
      <trkpt lat="47.282" lon="-2.35911">
        <ele>20.39999961853</ele>
        <time>2020-02-09T08:27:48.000Z</time>
      </trkpt>
      <trkpt lat="47.28199" lon="-2.35917">
        <ele>20.39999961853</ele>
        <time>2020-02-09T08:27:49.000Z</time>
      </trkpt>
      <trkpt lat="47.28186" lon="-2.35928">
        <ele>20.39999961853</ele>
        <time>2020-02-09T08:27:52.000Z</time>
      </trkpt>
      <trkpt lat="47.28184" lon="-2.35931">
        <ele>20.39999961853</ele>
        <time>2020-02-09T08:27:53.000Z</time>
      </trkpt>
      <trkpt lat="47.28183" lon="-2.35937">
        <ele>20.39999961853</ele>
        <time>2020-02-09T08:27:55.000Z</time>
      </trkpt>
      <trkpt lat="47.28185" lon="-2.35942">
        <ele>20</ele>
        <time>2020-02-09T08:27:56.000Z</time>
      </trkpt>
      <trkpt lat="47.28187" lon="-2.35947">
        <ele>19.60000038147</ele>
        <time>2020-02-09T08:27:57.000Z</time>
      </trkpt>
      <trkpt lat="47.28189" lon="-2.35952">
        <ele>19.200000762939</ele>
        <time>2020-02-09T08:27:58.000Z</time>
      </trkpt>
      <trkpt lat="47.28191" lon="-2.3596">
        <ele>18.799999237061</ele>
        <time>2020-02-09T08:27:59.000Z</time>
      </trkpt>
      <trkpt lat="47.28193" lon="-2.35968">
        <ele>18.39999961853</ele>
        <time>2020-02-09T08:28:00.000Z</time>
      </trkpt>
      <trkpt lat="47.28198" lon="-2.3598">
        <ele>18.39999961853</ele>
        <time>2020-02-09T08:28:02.000Z</time>
      </trkpt>
      <trkpt lat="47.28199" lon="-2.35985">
        <ele>18.39999961853</ele>
        <time>2020-02-09T08:28:03.000Z</time>
      </trkpt>
      <trkpt lat="47.28201" lon="-2.35991">
        <ele>18.39999961853</ele>
        <time>2020-02-09T08:28:04.000Z</time>
      </trkpt>
      <trkpt lat="47.28211" lon="-2.3601">
        <ele>18.39999961853</ele>
        <time>2020-02-09T08:28:08.000Z</time>
      </trkpt>
      <trkpt lat="47.28221" lon="-2.36025">
        <ele>18.39999961853</ele>
        <time>2020-02-09T08:28:13.000Z</time>
      </trkpt>
      <trkpt lat="47.28224" lon="-2.36027">
        <ele>18.39999961853</ele>
        <time>2020-02-09T08:28:14.000Z</time>
      </trkpt>
      <trkpt lat="47.28229" lon="-2.36026">
        <ele>18.39999961853</ele>
        <time>2020-02-09T08:28:16.000Z</time>
      </trkpt>
      <trkpt lat="47.28235" lon="-2.36022">
        <ele>18.39999961853</ele>
        <time>2020-02-09T08:28:18.000Z</time>
      </trkpt>
      <trkpt lat="47.28246" lon="-2.36019">
        <ele>18.39999961853</ele>
        <time>2020-02-09T08:28:21.000Z</time>
      </trkpt>
      <trkpt lat="47.28258" lon="-2.36019">
        <ele>18.39999961853</ele>
        <time>2020-02-09T08:28:26.000Z</time>
      </trkpt>
      <trkpt lat="47.28258" lon="-2.36022">
        <ele>18.39999961853</ele>
        <time>2020-02-09T08:28:27.000Z</time>
      </trkpt>
      <trkpt lat="47.28254" lon="-2.36029">
        <ele>18.39999961853</ele>
        <time>2020-02-09T08:28:29.000Z</time>
      </trkpt>
      <trkpt lat="47.28252" lon="-2.36037">
        <ele>18.39999961853</ele>
        <time>2020-02-09T08:28:31.000Z</time>
      </trkpt>
      <trkpt lat="47.2825" lon="-2.3605">
        <ele>18.39999961853</ele>
        <time>2020-02-09T08:28:34.000Z</time>
      </trkpt>
      <trkpt lat="47.28249" lon="-2.36052">
        <ele>18.799999237061</ele>
        <time>2020-02-09T08:28:35.000Z</time>
      </trkpt>
      <trkpt lat="47.28249" lon="-2.36055">
        <ele>19.200000762939</ele>
        <time>2020-02-09T08:28:36.000Z</time>
      </trkpt>
      <trkpt lat="47.28248" lon="-2.36058">
        <ele>19.60000038147</ele>
        <time>2020-02-09T08:28:37.000Z</time>
      </trkpt>
      <trkpt lat="47.28247" lon="-2.36061">
        <ele>20</ele>
        <time>2020-02-09T08:28:38.000Z</time>
      </trkpt>
      <trkpt lat="47.28246" lon="-2.36063">
        <ele>20.39999961853</ele>
        <time>2020-02-09T08:28:39.000Z</time>
      </trkpt>
      <trkpt lat="47.28246" lon="-2.36066">
        <ele>20.39999961853</ele>
        <time>2020-02-09T08:28:40.000Z</time>
      </trkpt>
      <trkpt lat="47.28245" lon="-2.36068">
        <ele>20.39999961853</ele>
        <time>2020-02-09T08:28:41.000Z</time>
      </trkpt>
      <trkpt lat="47.2824" lon="-2.36084">
        <ele>20.39999961853</ele>
        <time>2020-02-09T08:28:45.000Z</time>
      </trkpt>
      <trkpt lat="47.28242" lon="-2.36099">
        <ele>20.39999961853</ele>
        <time>2020-02-09T08:28:48.000Z</time>
      </trkpt>
      <trkpt lat="47.28245" lon="-2.36104">
        <ele>20.39999961853</ele>
        <time>2020-02-09T08:28:49.000Z</time>
      </trkpt>
      <trkpt lat="47.28253" lon="-2.36121">
        <ele>20.39999961853</ele>
        <time>2020-02-09T08:28:52.000Z</time>
      </trkpt>
      <trkpt lat="47.28256" lon="-2.36131">
        <ele>20.39999961853</ele>
        <time>2020-02-09T08:28:54.000Z</time>
      </trkpt>
      <trkpt lat="47.28264" lon="-2.36147">
        <ele>20.39999961853</ele>
        <time>2020-02-09T08:28:58.000Z</time>
      </trkpt>
      <trkpt lat="47.28272" lon="-2.36171">
        <ele>20.39999961853</ele>
        <time>2020-02-09T08:29:03.000Z</time>
      </trkpt>
      <trkpt lat="47.28275" lon="-2.36194">
        <ele>20.39999961853</ele>
        <time>2020-02-09T08:29:08.000Z</time>
      </trkpt>
      <trkpt lat="47.28281" lon="-2.36223">
        <ele>20</ele>
        <time>2020-02-09T08:29:13.000Z</time>
      </trkpt>
      <trkpt lat="47.28282" lon="-2.36228">
        <ele>19.200000762939</ele>
        <time>2020-02-09T08:29:14.000Z</time>
      </trkpt>
      <trkpt lat="47.28283" lon="-2.36233">
        <ele>18.799999237061</ele>
        <time>2020-02-09T08:29:15.000Z</time>
      </trkpt>
      <trkpt lat="47.28285" lon="-2.36237">
        <ele>18.39999961853</ele>
        <time>2020-02-09T08:29:16.000Z</time>
      </trkpt>
      <trkpt lat="47.28288" lon="-2.3624">
        <ele>18.39999961853</ele>
        <time>2020-02-09T08:29:17.000Z</time>
      </trkpt>
      <trkpt lat="47.28293" lon="-2.36242">
        <ele>18.39999961853</ele>
        <time>2020-02-09T08:29:18.000Z</time>
      </trkpt>
      <trkpt lat="47.28311" lon="-2.36244">
        <ele>18.39999961853</ele>
        <time>2020-02-09T08:29:22.000Z</time>
      </trkpt>
      <trkpt lat="47.28315" lon="-2.36246">
        <ele>18.39999961853</ele>
        <time>2020-02-09T08:29:23.000Z</time>
      </trkpt>
      <trkpt lat="47.28334" lon="-2.36256">
        <ele>18.39999961853</ele>
        <time>2020-02-09T08:29:29.000Z</time>
      </trkpt>
      <trkpt lat="47.28347" lon="-2.3626">
        <ele>18.39999961853</ele>
        <time>2020-02-09T08:29:34.000Z</time>
      </trkpt>
      <trkpt lat="47.28356" lon="-2.36266">
        <ele>18.39999961853</ele>
        <time>2020-02-09T08:29:39.000Z</time>
      </trkpt>
      <trkpt lat="47.28356" lon="-2.36271">
        <ele>18.39999961853</ele>
        <time>2020-02-09T08:29:43.000Z</time>
      </trkpt>
      <trkpt lat="47.28354" lon="-2.3628">
        <ele>18.799999237061</ele>
        <time>2020-02-09T08:29:46.000Z</time>
      </trkpt>
      <trkpt lat="47.28354" lon="-2.36283">
        <ele>19.200000762939</ele>
        <time>2020-02-09T08:29:47.000Z</time>
      </trkpt>
      <trkpt lat="47.28355" lon="-2.36285">
        <ele>19.60000038147</ele>
        <time>2020-02-09T08:29:48.000Z</time>
      </trkpt>
      <trkpt lat="47.28357" lon="-2.36289">
        <ele>20</ele>
        <time>2020-02-09T08:29:49.000Z</time>
      </trkpt>
      <trkpt lat="47.28358" lon="-2.36291">
        <ele>20.39999961853</ele>
        <time>2020-02-09T08:29:50.000Z</time>
      </trkpt>
      <trkpt lat="47.28362" lon="-2.36299">
        <ele>20.39999961853</ele>
        <time>2020-02-09T08:29:53.000Z</time>
      </trkpt>
      <trkpt lat="47.2837" lon="-2.36304">
        <ele>21</ele>
        <time>2020-02-09T08:29:58.000Z</time>
      </trkpt>
      <trkpt lat="47.28371" lon="-2.36305">
        <ele>21.39999961853</ele>
        <time>2020-02-09T08:29:59.000Z</time>
      </trkpt>
      <trkpt lat="47.28372" lon="-2.36306">
        <ele>22</ele>
        <time>2020-02-09T08:30:00.000Z</time>
      </trkpt>
      <trkpt lat="47.28374" lon="-2.36307">
        <ele>22.39999961853</ele>
        <time>2020-02-09T08:30:01.000Z</time>
      </trkpt>
      <trkpt lat="47.28377" lon="-2.3631">
        <ele>22.799999237061</ele>
        <time>2020-02-09T08:30:02.000Z</time>
      </trkpt>
      <trkpt lat="47.28386" lon="-2.36321">
        <ele>22.799999237061</ele>
        <time>2020-02-09T08:30:05.000Z</time>
      </trkpt>
      <trkpt lat="47.284" lon="-2.36339">
        <ele>22.799999237061</ele>
        <time>2020-02-09T08:30:11.000Z</time>
      </trkpt>
      <trkpt lat="47.28414" lon="-2.36359">
        <ele>22.799999237061</ele>
        <time>2020-02-09T08:30:16.000Z</time>
      </trkpt>
      <trkpt lat="47.2843" lon="-2.36372">
        <ele>22.799999237061</ele>
        <time>2020-02-09T08:30:21.000Z</time>
      </trkpt>
      <trkpt lat="47.28444" lon="-2.36385">
        <ele>22.799999237061</ele>
        <time>2020-02-09T08:30:26.000Z</time>
      </trkpt>
      <trkpt lat="47.28455" lon="-2.36396">
        <ele>23.39999961853</ele>
        <time>2020-02-09T08:30:30.000Z</time>
      </trkpt>
      <trkpt lat="47.28457" lon="-2.36397">
        <ele>23.799999237061</ele>
        <time>2020-02-09T08:30:31.000Z</time>
      </trkpt>
      <trkpt lat="47.28459" lon="-2.36399">
        <ele>24.200000762939</ele>
        <time>2020-02-09T08:30:32.000Z</time>
      </trkpt>
      <trkpt lat="47.28461" lon="-2.36398">
        <ele>24.60000038147</ele>
        <time>2020-02-09T08:30:33.000Z</time>
      </trkpt>
      <trkpt lat="47.28463" lon="-2.36396">
        <ele>25.200000762939</ele>
        <time>2020-02-09T08:30:34.000Z</time>
      </trkpt>
      <trkpt lat="47.28464" lon="-2.36394">
        <ele>25.200000762939</ele>
        <time>2020-02-09T08:30:35.000Z</time>
      </trkpt>
      <trkpt lat="47.28466" lon="-2.36385">
        <ele>25.200000762939</ele>
        <time>2020-02-09T08:30:37.000Z</time>
      </trkpt>
      <trkpt lat="47.28467" lon="-2.36374">
        <ele>25.200000762939</ele>
        <time>2020-02-09T08:30:39.000Z</time>
      </trkpt>
      <trkpt lat="47.2847" lon="-2.36359">
        <ele>25.200000762939</ele>
        <time>2020-02-09T08:30:42.000Z</time>
      </trkpt>
      <trkpt lat="47.28471" lon="-2.36355">
        <ele>25.200000762939</ele>
        <time>2020-02-09T08:30:43.000Z</time>
      </trkpt>
      <trkpt lat="47.28475" lon="-2.36328">
        <ele>25.200000762939</ele>
        <time>2020-02-09T08:30:48.000Z</time>
      </trkpt>
      <trkpt lat="47.28476" lon="-2.36317">
        <ele>25.200000762939</ele>
        <time>2020-02-09T08:30:50.000Z</time>
      </trkpt>
      <trkpt lat="47.28472" lon="-2.363">
        <ele>25.200000762939</ele>
        <time>2020-02-09T08:30:52.000Z</time>
      </trkpt>
      <trkpt lat="47.28467" lon="-2.36272">
        <ele>25.200000762939</ele>
        <time>2020-02-09T08:30:57.000Z</time>
      </trkpt>
      <trkpt lat="47.28461" lon="-2.3625">
        <ele>25.200000762939</ele>
        <time>2020-02-09T08:31:02.000Z</time>
      </trkpt>
      <trkpt lat="47.28458" lon="-2.3623">
        <ele>25.60000038147</ele>
        <time>2020-02-09T08:31:06.000Z</time>
      </trkpt>
      <trkpt lat="47.28458" lon="-2.36225">
        <ele>26</ele>
        <time>2020-02-09T08:31:07.000Z</time>
      </trkpt>
      <trkpt lat="47.28457" lon="-2.36221">
        <ele>26.39999961853</ele>
        <time>2020-02-09T08:31:08.000Z</time>
      </trkpt>
      <trkpt lat="47.28456" lon="-2.36218">
        <ele>26.799999237061</ele>
        <time>2020-02-09T08:31:09.000Z</time>
      </trkpt>
      <trkpt lat="47.28455" lon="-2.36215">
        <ele>27.200000762939</ele>
        <time>2020-02-09T08:31:10.000Z</time>
      </trkpt>
      <trkpt lat="47.28456" lon="-2.36211">
        <ele>27.200000762939</ele>
        <time>2020-02-09T08:31:11.000Z</time>
      </trkpt>
      <trkpt lat="47.2846" lon="-2.36203">
        <ele>27.200000762939</ele>
        <time>2020-02-09T08:31:16.000Z</time>
      </trkpt>
      <trkpt lat="47.28463" lon="-2.36199">
        <ele>27.200000762939</ele>
        <time>2020-02-09T08:31:18.000Z</time>
      </trkpt>
      <trkpt lat="47.28466" lon="-2.36195">
        <ele>27.200000762939</ele>
        <time>2020-02-09T08:31:20.000Z</time>
      </trkpt>
      <trkpt lat="47.28469" lon="-2.3619">
        <ele>27.60000038147</ele>
        <time>2020-02-09T08:31:22.000Z</time>
      </trkpt>
      <trkpt lat="47.28471" lon="-2.36189">
        <ele>28</ele>
        <time>2020-02-09T08:31:23.000Z</time>
      </trkpt>
      <trkpt lat="47.28472" lon="-2.36187">
        <ele>28.39999961853</ele>
        <time>2020-02-09T08:31:24.000Z</time>
      </trkpt>
      <trkpt lat="47.28474" lon="-2.36186">
        <ele>28.799999237061</ele>
        <time>2020-02-09T08:31:25.000Z</time>
      </trkpt>
      <trkpt lat="47.28476" lon="-2.36187">
        <ele>29.200000762939</ele>
        <time>2020-02-09T08:31:26.000Z</time>
      </trkpt>
      <trkpt lat="47.28482" lon="-2.36187">
        <ele>29.200000762939</ele>
        <time>2020-02-09T08:31:31.000Z</time>
      </trkpt>
      <trkpt lat="47.28488" lon="-2.3619">
        <ele>29.200000762939</ele>
        <time>2020-02-09T08:31:35.000Z</time>
      </trkpt>
      <trkpt lat="47.28491" lon="-2.36192">
        <ele>29.200000762939</ele>
        <time>2020-02-09T08:31:37.000Z</time>
      </trkpt>
      <trkpt lat="47.28501" lon="-2.36206">
        <ele>29.200000762939</ele>
        <time>2020-02-09T08:31:44.000Z</time>
      </trkpt>
      <trkpt lat="47.28502" lon="-2.36207">
        <ele>29.200000762939</ele>
        <time>2020-02-09T08:31:45.000Z</time>
      </trkpt>
      <trkpt lat="47.2851" lon="-2.3623">
        <ele>31.39999961853</ele>
        <time>2020-02-09T08:33:26.000Z</time>
      </trkpt>
      <trkpt lat="47.28514" lon="-2.36234">
        <ele>31.39999961853</ele>
        <time>2020-02-09T08:33:29.000Z</time>
      </trkpt>
      <trkpt lat="47.28521" lon="-2.36244">
        <ele>31.39999961853</ele>
        <time>2020-02-09T08:33:33.000Z</time>
      </trkpt>
      <trkpt lat="47.28528" lon="-2.3626">
        <ele>31.39999961853</ele>
        <time>2020-02-09T08:33:38.000Z</time>
      </trkpt>
      <trkpt lat="47.28527" lon="-2.36271">
        <ele>31.799999237061</ele>
        <time>2020-02-09T08:33:43.000Z</time>
      </trkpt>
      <trkpt lat="47.28528" lon="-2.36275">
        <ele>32.200000762939</ele>
        <time>2020-02-09T08:33:44.000Z</time>
      </trkpt>
      <trkpt lat="47.28528" lon="-2.36281">
        <ele>33</ele>
        <time>2020-02-09T08:33:45.000Z</time>
      </trkpt>
      <trkpt lat="47.28527" lon="-2.36286">
        <ele>33.400001525879</ele>
        <time>2020-02-09T08:33:46.000Z</time>
      </trkpt>
      <trkpt lat="47.28526" lon="-2.36303">
        <ele>33.400001525879</ele>
        <time>2020-02-09T08:33:50.000Z</time>
      </trkpt>
      <trkpt lat="47.28528" lon="-2.3631">
        <ele>33.400001525879</ele>
        <time>2020-02-09T08:33:52.000Z</time>
      </trkpt>
      <trkpt lat="47.28531" lon="-2.36319">
        <ele>33.400001525879</ele>
        <time>2020-02-09T08:33:56.000Z</time>
      </trkpt>
      <trkpt lat="47.28534" lon="-2.36325">
        <ele>33.799999237061</ele>
        <time>2020-02-09T08:33:59.000Z</time>
      </trkpt>
      <trkpt lat="47.28542" lon="-2.36349">
        <ele>37.799999237061</ele>
        <time>2020-02-09T08:34:34.000Z</time>
      </trkpt>
      <trkpt lat="47.28542" lon="-2.36351">
        <ele>37.799999237061</ele>
        <time>2020-02-09T08:34:35.000Z</time>
      </trkpt>
      <trkpt lat="47.28543" lon="-2.36354">
        <ele>38.200000762939</ele>
        <time>2020-02-09T08:34:36.000Z</time>
      </trkpt>
      <trkpt lat="47.28543" lon="-2.36355">
        <ele>38.599998474121</ele>
        <time>2020-02-09T08:34:37.000Z</time>
      </trkpt>
      <trkpt lat="47.28544" lon="-2.36356">
        <ele>39</ele>
        <time>2020-02-09T08:34:38.000Z</time>
      </trkpt>
      <trkpt lat="47.28546" lon="-2.36356">
        <ele>39.400001525879</ele>
        <time>2020-02-09T08:34:39.000Z</time>
      </trkpt>
      <trkpt lat="47.28549" lon="-2.36355">
        <ele>39.799999237061</ele>
        <time>2020-02-09T08:34:40.000Z</time>
      </trkpt>
      <trkpt lat="47.28556" lon="-2.36352">
        <ele>40.200000762939</ele>
        <time>2020-02-09T08:34:43.000Z</time>
      </trkpt>
      <trkpt lat="47.28558" lon="-2.36352">
        <ele>40.599998474121</ele>
        <time>2020-02-09T08:34:44.000Z</time>
      </trkpt>
      <trkpt lat="47.2856" lon="-2.36352">
        <ele>41</ele>
        <time>2020-02-09T08:34:45.000Z</time>
      </trkpt>
      <trkpt lat="47.28563" lon="-2.36351">
        <ele>41.400001525879</ele>
        <time>2020-02-09T08:34:46.000Z</time>
      </trkpt>
      <trkpt lat="47.28566" lon="-2.3635">
        <ele>41.799999237061</ele>
        <time>2020-02-09T08:34:47.000Z</time>
      </trkpt>
      <trkpt lat="47.28575" lon="-2.36341">
        <ele>41.799999237061</ele>
        <time>2020-02-09T08:34:50.000Z</time>
      </trkpt>
      <trkpt lat="47.28582" lon="-2.36333">
        <ele>41.400001525879</ele>
        <time>2020-02-09T08:34:52.000Z</time>
      </trkpt>
      <trkpt lat="47.28586" lon="-2.36329">
        <ele>41</ele>
        <time>2020-02-09T08:34:53.000Z</time>
      </trkpt>
      <trkpt lat="47.2859" lon="-2.36324">
        <ele>40.599998474121</ele>
        <time>2020-02-09T08:34:54.000Z</time>
      </trkpt>
      <trkpt lat="47.28594" lon="-2.36318">
        <ele>40.200000762939</ele>
        <time>2020-02-09T08:34:55.000Z</time>
      </trkpt>
      <trkpt lat="47.28597" lon="-2.36314">
        <ele>39.799999237061</ele>
        <time>2020-02-09T08:34:56.000Z</time>
      </trkpt>
      <trkpt lat="47.28606" lon="-2.36305">
        <ele>39.799999237061</ele>
        <time>2020-02-09T08:34:59.000Z</time>
      </trkpt>
      <trkpt lat="47.28611" lon="-2.36302">
        <ele>39.200000762939</ele>
        <time>2020-02-09T08:35:01.000Z</time>
      </trkpt>
      <trkpt lat="47.28613" lon="-2.36299">
        <ele>38.799999237061</ele>
        <time>2020-02-09T08:35:02.000Z</time>
      </trkpt>
      <trkpt lat="47.28616" lon="-2.36297">
        <ele>38.400001525879</ele>
        <time>2020-02-09T08:35:03.000Z</time>
      </trkpt>
      <trkpt lat="47.2862" lon="-2.36294">
        <ele>38</ele>
        <time>2020-02-09T08:35:04.000Z</time>
      </trkpt>
      <trkpt lat="47.28623" lon="-2.36292">
        <ele>37.599998474121</ele>
        <time>2020-02-09T08:35:05.000Z</time>
      </trkpt>
      <trkpt lat="47.28632" lon="-2.36287">
        <ele>37.599998474121</ele>
        <time>2020-02-09T08:35:07.000Z</time>
      </trkpt>
      <trkpt lat="47.28636" lon="-2.36285">
        <ele>37.599998474121</ele>
        <time>2020-02-09T08:35:08.000Z</time>
      </trkpt>
      <trkpt lat="47.28654" lon="-2.36284">
        <ele>37.599998474121</ele>
        <time>2020-02-09T08:35:13.000Z</time>
      </trkpt>
      <trkpt lat="47.28671" lon="-2.36288">
        <ele>37.599998474121</ele>
        <time>2020-02-09T08:35:18.000Z</time>
      </trkpt>
      <trkpt lat="47.28684" lon="-2.36286">
        <ele>37.599998474121</ele>
        <time>2020-02-09T08:35:23.000Z</time>
      </trkpt>
      <trkpt lat="47.287" lon="-2.36288">
        <ele>37.599998474121</ele>
        <time>2020-02-09T08:35:29.000Z</time>
      </trkpt>
      <trkpt lat="47.28701" lon="-2.3629">
        <ele>37.599998474121</ele>
        <time>2020-02-09T08:35:30.000Z</time>
      </trkpt>
      <trkpt lat="47.28703" lon="-2.36295">
        <ele>37.599998474121</ele>
        <time>2020-02-09T08:35:32.000Z</time>
      </trkpt>
      <trkpt lat="47.28706" lon="-2.36312">
        <ele>38</ele>
        <time>2020-02-09T08:35:38.000Z</time>
      </trkpt>
      <trkpt lat="47.28706" lon="-2.36315">
        <ele>38.400001525879</ele>
        <time>2020-02-09T08:35:39.000Z</time>
      </trkpt>
      <trkpt lat="47.28706" lon="-2.36319">
        <ele>38.799999237061</ele>
        <time>2020-02-09T08:35:40.000Z</time>
      </trkpt>
      <trkpt lat="47.28706" lon="-2.36322">
        <ele>39.200000762939</ele>
        <time>2020-02-09T08:35:41.000Z</time>
      </trkpt>
      <trkpt lat="47.28705" lon="-2.36326">
        <ele>39.599998474121</ele>
        <time>2020-02-09T08:35:42.000Z</time>
      </trkpt>
      <trkpt lat="47.28705" lon="-2.36329">
        <ele>39.599998474121</ele>
        <time>2020-02-09T08:35:43.000Z</time>
      </trkpt>
      <trkpt lat="47.28702" lon="-2.3635">
        <ele>40.599998474121</ele>
        <time>2020-02-09T08:35:49.000Z</time>
      </trkpt>
      <trkpt lat="47.28703" lon="-2.36353">
        <ele>41</ele>
        <time>2020-02-09T08:35:50.000Z</time>
      </trkpt>
      <trkpt lat="47.28703" lon="-2.36356">
        <ele>41.400001525879</ele>
        <time>2020-02-09T08:35:51.000Z</time>
      </trkpt>
      <trkpt lat="47.28704" lon="-2.36358">
        <ele>41.799999237061</ele>
        <time>2020-02-09T08:35:52.000Z</time>
      </trkpt>
      <trkpt lat="47.28709" lon="-2.36367">
        <ele>41.799999237061</ele>
        <time>2020-02-09T08:35:55.000Z</time>
      </trkpt>
      <trkpt lat="47.28711" lon="-2.3637">
        <ele>41.799999237061</ele>
        <time>2020-02-09T08:35:56.000Z</time>
      </trkpt>
      <trkpt lat="47.28716" lon="-2.36372">
        <ele>41.799999237061</ele>
        <time>2020-02-09T08:35:58.000Z</time>
      </trkpt>
      <trkpt lat="47.28727" lon="-2.36377">
        <ele>41.799999237061</ele>
        <time>2020-02-09T08:36:03.000Z</time>
      </trkpt>
      <trkpt lat="47.28741" lon="-2.36385">
        <ele>41.799999237061</ele>
        <time>2020-02-09T08:36:08.000Z</time>
      </trkpt>
      <trkpt lat="47.28746" lon="-2.36395">
        <ele>41.400001525879</ele>
        <time>2020-02-09T08:36:10.000Z</time>
      </trkpt>
      <trkpt lat="47.28748" lon="-2.364">
        <ele>41</ele>
        <time>2020-02-09T08:36:11.000Z</time>
      </trkpt>
      <trkpt lat="47.28749" lon="-2.36403">
        <ele>40.599998474121</ele>
        <time>2020-02-09T08:36:12.000Z</time>
      </trkpt>
      <trkpt lat="47.2875" lon="-2.36406">
        <ele>40.200000762939</ele>
        <time>2020-02-09T08:36:13.000Z</time>
      </trkpt>
      <trkpt lat="47.2875" lon="-2.3641">
        <ele>39.400001525879</ele>
        <time>2020-02-09T08:36:14.000Z</time>
      </trkpt>
      <trkpt lat="47.28751" lon="-2.36412">
        <ele>38.799999237061</ele>
        <time>2020-02-09T08:36:15.000Z</time>
      </trkpt>
      <trkpt lat="47.2875" lon="-2.36416">
        <ele>38.400001525879</ele>
        <time>2020-02-09T08:36:16.000Z</time>
      </trkpt>
      <trkpt lat="47.28749" lon="-2.36419">
        <ele>38</ele>
        <time>2020-02-09T08:36:17.000Z</time>
      </trkpt>
      <trkpt lat="47.28749" lon="-2.36421">
        <ele>37.400001525879</ele>
        <time>2020-02-09T08:36:18.000Z</time>
      </trkpt>
      <trkpt lat="47.28749" lon="-2.36423">
        <ele>37.400001525879</ele>
        <time>2020-02-09T08:36:19.000Z</time>
      </trkpt>
      <trkpt lat="47.28754" lon="-2.36442">
        <ele>36.599998474121</ele>
        <time>2020-02-09T08:36:36.000Z</time>
      </trkpt>
      <trkpt lat="47.28754" lon="-2.36446">
        <ele>36.200000762939</ele>
        <time>2020-02-09T08:36:37.000Z</time>
      </trkpt>
      <trkpt lat="47.28755" lon="-2.36448">
        <ele>35.400001525879</ele>
        <time>2020-02-09T08:36:38.000Z</time>
      </trkpt>
      <trkpt lat="47.28763" lon="-2.36451">
        <ele>35.400001525879</ele>
        <time>2020-02-09T08:36:41.000Z</time>
      </trkpt>
      <trkpt lat="47.28772" lon="-2.36457">
        <ele>35.400001525879</ele>
        <time>2020-02-09T08:36:45.000Z</time>
      </trkpt>
      <trkpt lat="47.28783" lon="-2.36451">
        <ele>35.400001525879</ele>
        <time>2020-02-09T08:36:49.000Z</time>
      </trkpt>
      <trkpt lat="47.28795" lon="-2.36435">
        <ele>35.400001525879</ele>
        <time>2020-02-09T08:36:54.000Z</time>
      </trkpt>
      <trkpt lat="47.28797" lon="-2.36431">
        <ele>35.799999237061</ele>
        <time>2020-02-09T08:36:55.000Z</time>
      </trkpt>
      <trkpt lat="47.28798" lon="-2.36427">
        <ele>36.200000762939</ele>
        <time>2020-02-09T08:36:56.000Z</time>
      </trkpt>
      <trkpt lat="47.28801" lon="-2.36425">
        <ele>36.599998474121</ele>
        <time>2020-02-09T08:36:57.000Z</time>
      </trkpt>
      <trkpt lat="47.28803" lon="-2.36423">
        <ele>37</ele>
        <time>2020-02-09T08:36:58.000Z</time>
      </trkpt>
      <trkpt lat="47.28804" lon="-2.3642">
        <ele>37.400001525879</ele>
        <time>2020-02-09T08:36:59.000Z</time>
      </trkpt>
      <trkpt lat="47.28807" lon="-2.36419">
        <ele>37.400001525879</ele>
        <time>2020-02-09T08:37:00.000Z</time>
      </trkpt>
      <trkpt lat="47.28816" lon="-2.36414">
        <ele>37.400001525879</ele>
        <time>2020-02-09T08:37:05.000Z</time>
      </trkpt>
      <trkpt lat="47.28817" lon="-2.36412">
        <ele>37.400001525879</ele>
        <time>2020-02-09T08:37:06.000Z</time>
      </trkpt>
      <trkpt lat="47.28825" lon="-2.36405">
        <ele>37.400001525879</ele>
        <time>2020-02-09T08:37:10.000Z</time>
      </trkpt>
      <trkpt lat="47.28834" lon="-2.36409">
        <ele>37.400001525879</ele>
        <time>2020-02-09T08:37:16.000Z</time>
      </trkpt>
      <trkpt lat="47.28841" lon="-2.36415">
        <ele>37.400001525879</ele>
        <time>2020-02-09T08:37:21.000Z</time>
      </trkpt>
      <trkpt lat="47.28842" lon="-2.36412">
        <ele>37.400001525879</ele>
        <time>2020-02-09T08:37:24.000Z</time>
      </trkpt>
      <trkpt lat="47.28843" lon="-2.3641">
        <ele>37</ele>
        <time>2020-02-09T08:37:25.000Z</time>
      </trkpt>
      <trkpt lat="47.28843" lon="-2.36407">
        <ele>36.599998474121</ele>
        <time>2020-02-09T08:37:26.000Z</time>
      </trkpt>
      <trkpt lat="47.28844" lon="-2.36404">
        <ele>36.200000762939</ele>
        <time>2020-02-09T08:37:27.000Z</time>
      </trkpt>
      <trkpt lat="47.28847" lon="-2.36398">
        <ele>35.599998474121</ele>
        <time>2020-02-09T08:37:28.000Z</time>
      </trkpt>
      <trkpt lat="47.28849" lon="-2.36393">
        <ele>34.200000762939</ele>
        <time>2020-02-09T08:37:29.000Z</time>
      </trkpt>
      <trkpt lat="47.2885" lon="-2.36388">
        <ele>33.599998474121</ele>
        <time>2020-02-09T08:37:30.000Z</time>
      </trkpt>
      <trkpt lat="47.28851" lon="-2.36382">
        <ele>33.200000762939</ele>
        <time>2020-02-09T08:37:31.000Z</time>
      </trkpt>
      <trkpt lat="47.28853" lon="-2.36376">
        <ele>32.599998474121</ele>
        <time>2020-02-09T08:37:32.000Z</time>
      </trkpt>
      <trkpt lat="47.28854" lon="-2.3637">
        <ele>32</ele>
        <time>2020-02-09T08:37:33.000Z</time>
      </trkpt>
      <trkpt lat="47.28856" lon="-2.36365">
        <ele>31.60000038147</ele>
        <time>2020-02-09T08:37:34.000Z</time>
      </trkpt>
      <trkpt lat="47.28857" lon="-2.36358">
        <ele>31</ele>
        <time>2020-02-09T08:37:35.000Z</time>
      </trkpt>
      <trkpt lat="47.2886" lon="-2.36352">
        <ele>31</ele>
        <time>2020-02-09T08:37:36.000Z</time>
      </trkpt>
      <trkpt lat="47.28862" lon="-2.36346">
        <ele>30.60000038147</ele>
        <time>2020-02-09T08:37:37.000Z</time>
      </trkpt>
      <trkpt lat="47.28864" lon="-2.36341">
        <ele>30.200000762939</ele>
        <time>2020-02-09T08:37:38.000Z</time>
      </trkpt>
      <trkpt lat="47.28865" lon="-2.36338">
        <ele>29.799999237061</ele>
        <time>2020-02-09T08:37:39.000Z</time>
      </trkpt>
      <trkpt lat="47.28867" lon="-2.36337">
        <ele>29.200000762939</ele>
        <time>2020-02-09T08:37:40.000Z</time>
      </trkpt>
      <trkpt lat="47.28869" lon="-2.36336">
        <ele>28.799999237061</ele>
        <time>2020-02-09T08:37:41.000Z</time>
      </trkpt>
      <trkpt lat="47.28874" lon="-2.36336">
        <ele>28.799999237061</ele>
        <time>2020-02-09T08:37:42.000Z</time>
      </trkpt>
      <trkpt lat="47.28879" lon="-2.36336">
        <ele>28.39999961853</ele>
        <time>2020-02-09T08:37:43.000Z</time>
      </trkpt>
      <trkpt lat="47.28884" lon="-2.36336">
        <ele>28</ele>
        <time>2020-02-09T08:37:44.000Z</time>
      </trkpt>
      <trkpt lat="47.2889" lon="-2.36337">
        <ele>27.60000038147</ele>
        <time>2020-02-09T08:37:45.000Z</time>
      </trkpt>
      <trkpt lat="47.28897" lon="-2.36341">
        <ele>27.200000762939</ele>
        <time>2020-02-09T08:37:46.000Z</time>
      </trkpt>
      <trkpt lat="47.28904" lon="-2.36346">
        <ele>26.799999237061</ele>
        <time>2020-02-09T08:37:47.000Z</time>
      </trkpt>
      <trkpt lat="47.2893" lon="-2.36366">
        <ele>26.799999237061</ele>
        <time>2020-02-09T08:37:51.000Z</time>
      </trkpt>
      <trkpt lat="47.28936" lon="-2.36372">
        <ele>26.799999237061</ele>
        <time>2020-02-09T08:37:52.000Z</time>
      </trkpt>
      <trkpt lat="47.28948" lon="-2.36385">
        <ele>25.799999237061</ele>
        <time>2020-02-09T08:37:54.000Z</time>
      </trkpt>
      <trkpt lat="47.28954" lon="-2.36394">
        <ele>25.200000762939</ele>
        <time>2020-02-09T08:37:55.000Z</time>
      </trkpt>
      <trkpt lat="47.2896" lon="-2.36404">
        <ele>24.60000038147</ele>
        <time>2020-02-09T08:37:56.000Z</time>
      </trkpt>
      <trkpt lat="47.28966" lon="-2.36414">
        <ele>23.799999237061</ele>
        <time>2020-02-09T08:37:57.000Z</time>
      </trkpt>
      <trkpt lat="47.28972" lon="-2.36422">
        <ele>23.200000762939</ele>
        <time>2020-02-09T08:37:58.000Z</time>
      </trkpt>
      <trkpt lat="47.28978" lon="-2.36431">
        <ele>22.60000038147</ele>
        <time>2020-02-09T08:37:59.000Z</time>
      </trkpt>
      <trkpt lat="47.28983" lon="-2.36439">
        <ele>21.799999237061</ele>
        <time>2020-02-09T08:38:00.000Z</time>
      </trkpt>
      <trkpt lat="47.29004" lon="-2.36468">
        <ele>21.39999961853</ele>
        <time>2020-02-09T08:38:04.000Z</time>
      </trkpt>
      <trkpt lat="47.29008" lon="-2.36475">
        <ele>21</ele>
        <time>2020-02-09T08:38:05.000Z</time>
      </trkpt>
      <trkpt lat="47.29012" lon="-2.36481">
        <ele>20.60000038147</ele>
        <time>2020-02-09T08:38:06.000Z</time>
      </trkpt>
      <trkpt lat="47.29015" lon="-2.36486">
        <ele>20.200000762939</ele>
        <time>2020-02-09T08:38:07.000Z</time>
      </trkpt>
      <trkpt lat="47.29018" lon="-2.36491">
        <ele>19.799999237061</ele>
        <time>2020-02-09T08:38:08.000Z</time>
      </trkpt>
      <trkpt lat="47.29019" lon="-2.36496">
        <ele>19.799999237061</ele>
        <time>2020-02-09T08:38:09.000Z</time>
      </trkpt>
      <trkpt lat="47.29019" lon="-2.36499">
        <ele>19.799999237061</ele>
        <time>2020-02-09T08:38:10.000Z</time>
      </trkpt>
      <trkpt lat="47.29014" lon="-2.3651">
        <ele>20.200000762939</ele>
        <time>2020-02-09T08:38:13.000Z</time>
      </trkpt>
      <trkpt lat="47.29012" lon="-2.36515">
        <ele>20.60000038147</ele>
        <time>2020-02-09T08:38:14.000Z</time>
      </trkpt>
      <trkpt lat="47.2901" lon="-2.36519">
        <ele>21</ele>
        <time>2020-02-09T08:38:15.000Z</time>
      </trkpt>
      <trkpt lat="47.29008" lon="-2.36524">
        <ele>21.60000038147</ele>
        <time>2020-02-09T08:38:16.000Z</time>
      </trkpt>
      <trkpt lat="47.29005" lon="-2.36528">
        <ele>22</ele>
        <time>2020-02-09T08:38:17.000Z</time>
      </trkpt>
      <trkpt lat="47.29001" lon="-2.36531">
        <ele>22.39999961853</ele>
        <time>2020-02-09T08:38:18.000Z</time>
      </trkpt>
      <trkpt lat="47.28998" lon="-2.36534">
        <ele>22.799999237061</ele>
        <time>2020-02-09T08:38:19.000Z</time>
      </trkpt>
      <trkpt lat="47.28994" lon="-2.36537">
        <ele>23.200000762939</ele>
        <time>2020-02-09T08:38:20.000Z</time>
      </trkpt>
      <trkpt lat="47.28991" lon="-2.3654">
        <ele>23.60000038147</ele>
        <time>2020-02-09T08:38:21.000Z</time>
      </trkpt>
      <trkpt lat="47.28987" lon="-2.36543">
        <ele>24.200000762939</ele>
        <time>2020-02-09T08:38:22.000Z</time>
      </trkpt>
      <trkpt lat="47.2898" lon="-2.3655">
        <ele>24.200000762939</ele>
        <time>2020-02-09T08:38:24.000Z</time>
      </trkpt>
      <trkpt lat="47.28973" lon="-2.36558">
        <ele>24.200000762939</ele>
        <time>2020-02-09T08:38:26.000Z</time>
      </trkpt>
      <trkpt lat="47.28954" lon="-2.36588">
        <ele>24.200000762939</ele>
        <time>2020-02-09T08:38:32.000Z</time>
      </trkpt>
      <trkpt lat="47.28936" lon="-2.36626">
        <ele>24.200000762939</ele>
        <time>2020-02-09T08:38:39.000Z</time>
      </trkpt>
      <trkpt lat="47.28932" lon="-2.36637">
        <ele>24.200000762939</ele>
        <time>2020-02-09T08:38:41.000Z</time>
      </trkpt>
      <trkpt lat="47.28923" lon="-2.36657">
        <ele>24.200000762939</ele>
        <time>2020-02-09T08:38:45.000Z</time>
      </trkpt>
      <trkpt lat="47.28916" lon="-2.36673">
        <ele>24.200000762939</ele>
        <time>2020-02-09T08:38:48.000Z</time>
      </trkpt>
      <trkpt lat="47.28899" lon="-2.36708">
        <ele>24.200000762939</ele>
        <time>2020-02-09T08:38:55.000Z</time>
      </trkpt>
      <trkpt lat="47.28897" lon="-2.36714">
        <ele>24.200000762939</ele>
        <time>2020-02-09T08:38:56.000Z</time>
      </trkpt>
      <trkpt lat="47.28886" lon="-2.3674">
        <ele>24.200000762939</ele>
        <time>2020-02-09T08:39:01.000Z</time>
      </trkpt>
      <trkpt lat="47.28877" lon="-2.36763">
        <ele>24.200000762939</ele>
        <time>2020-02-09T08:39:05.000Z</time>
      </trkpt>
      <trkpt lat="47.28871" lon="-2.3678">
        <ele>24.200000762939</ele>
        <time>2020-02-09T08:39:08.000Z</time>
      </trkpt>
      <trkpt lat="47.28867" lon="-2.36793">
        <ele>23.60000038147</ele>
        <time>2020-02-09T08:39:10.000Z</time>
      </trkpt>
      <trkpt lat="47.28865" lon="-2.368">
        <ele>23.200000762939</ele>
        <time>2020-02-09T08:39:11.000Z</time>
      </trkpt>
      <trkpt lat="47.28863" lon="-2.36807">
        <ele>22.799999237061</ele>
        <time>2020-02-09T08:39:12.000Z</time>
      </trkpt>
      <trkpt lat="47.28862" lon="-2.36814">
        <ele>22.39999961853</ele>
        <time>2020-02-09T08:39:13.000Z</time>
      </trkpt>
      <trkpt lat="47.2886" lon="-2.36822">
        <ele>22</ele>
        <time>2020-02-09T08:39:14.000Z</time>
      </trkpt>
      <trkpt lat="47.28858" lon="-2.36829">
        <ele>22</ele>
        <time>2020-02-09T08:39:15.000Z</time>
      </trkpt>
      <trkpt lat="47.28852" lon="-2.36856">
        <ele>22</ele>
        <time>2020-02-09T08:39:19.000Z</time>
      </trkpt>
      <trkpt lat="47.28849" lon="-2.36867">
        <ele>22</ele>
        <time>2020-02-09T08:39:21.000Z</time>
      </trkpt>
      <trkpt lat="47.28843" lon="-2.3688">
        <ele>22</ele>
        <time>2020-02-09T08:39:25.000Z</time>
      </trkpt>
      <trkpt lat="47.28837" lon="-2.36879">
        <ele>21.39999961853</ele>
        <time>2020-02-09T08:39:28.000Z</time>
      </trkpt>
      <trkpt lat="47.28836" lon="-2.36877">
        <ele>21</ele>
        <time>2020-02-09T08:39:29.000Z</time>
      </trkpt>
      <trkpt lat="47.28834" lon="-2.36873">
        <ele>20.39999961853</ele>
        <time>2020-02-09T08:39:30.000Z</time>
      </trkpt>
      <trkpt lat="47.28832" lon="-2.36868">
        <ele>19.60000038147</ele>
        <time>2020-02-09T08:39:31.000Z</time>
      </trkpt>
      <trkpt lat="47.2883" lon="-2.36864">
        <ele>19</ele>
        <time>2020-02-09T08:39:32.000Z</time>
      </trkpt>
      <trkpt lat="47.28829" lon="-2.36858">
        <ele>17.39999961853</ele>
        <time>2020-02-09T08:39:33.000Z</time>
      </trkpt>
      <trkpt lat="47.28828" lon="-2.36853">
        <ele>16.799999237061</ele>
        <time>2020-02-09T08:39:34.000Z</time>
      </trkpt>
      <trkpt lat="47.28827" lon="-2.36848">
        <ele>16</ele>
        <time>2020-02-09T08:39:35.000Z</time>
      </trkpt>
      <trkpt lat="47.28826" lon="-2.36843">
        <ele>15.199999809265</ele>
        <time>2020-02-09T08:39:36.000Z</time>
      </trkpt>
      <trkpt lat="47.28824" lon="-2.36838">
        <ele>14.39999961853</ele>
        <time>2020-02-09T08:39:37.000Z</time>
      </trkpt>
      <trkpt lat="47.28822" lon="-2.36833">
        <ele>13.800000190735</ele>
        <time>2020-02-09T08:39:38.000Z</time>
      </trkpt>
      <trkpt lat="47.28819" lon="-2.36828">
        <ele>13.199999809265</ele>
        <time>2020-02-09T08:39:39.000Z</time>
      </trkpt>
      <trkpt lat="47.28817" lon="-2.36825">
        <ele>12.60000038147</ele>
        <time>2020-02-09T08:39:40.000Z</time>
      </trkpt>
      <trkpt lat="47.28814" lon="-2.36822">
        <ele>12</ele>
        <time>2020-02-09T08:39:41.000Z</time>
      </trkpt>
      <trkpt lat="47.28813" lon="-2.36821">
        <ele>12</ele>
        <time>2020-02-09T08:39:42.000Z</time>
      </trkpt>
      <trkpt lat="47.28812" lon="-2.3682">
        <ele>12</ele>
        <time>2020-02-09T08:39:43.000Z</time>
      </trkpt>
      <trkpt lat="47.28812" lon="-2.3682">
        <ele>12</ele>
        <time>2020-02-09T08:39:44.000Z</time>
      </trkpt>
      <trkpt lat="47.2881" lon="-2.3682">
        <ele>10</ele>
        <time>2020-02-09T08:41:57.000Z</time>
      </trkpt>
      <trkpt lat="47.28808" lon="-2.36821">
        <ele>10</ele>
        <time>2020-02-09T08:41:58.000Z</time>
      </trkpt>
      <trkpt lat="47.28799" lon="-2.36836">
        <ele>10</ele>
        <time>2020-02-09T08:42:04.000Z</time>
      </trkpt>
      <trkpt lat="47.2879" lon="-2.36859">
        <ele>10</ele>
        <time>2020-02-09T08:42:09.000Z</time>
      </trkpt>
      <trkpt lat="47.28789" lon="-2.36862">
        <ele>10</ele>
        <time>2020-02-09T08:42:10.000Z</time>
      </trkpt>
      <trkpt lat="47.28787" lon="-2.36872">
        <ele>10</ele>
        <time>2020-02-09T08:42:12.000Z</time>
      </trkpt>
      <trkpt lat="47.28785" lon="-2.36894">
        <ele>10</ele>
        <time>2020-02-09T08:42:17.000Z</time>
      </trkpt>
      <trkpt lat="47.28786" lon="-2.36904">
        <ele>10</ele>
        <time>2020-02-09T08:42:21.000Z</time>
      </trkpt>
      <trkpt lat="47.28783" lon="-2.36905">
        <ele>10</ele>
        <time>2020-02-09T08:42:23.000Z</time>
      </trkpt>
      <trkpt lat="47.28777" lon="-2.36907">
        <ele>10</ele>
        <time>2020-02-09T08:42:25.000Z</time>
      </trkpt>
      <trkpt lat="47.2877" lon="-2.36906">
        <ele>10</ele>
        <time>2020-02-09T08:42:30.000Z</time>
      </trkpt>
      <trkpt lat="47.28764" lon="-2.36905">
        <ele>10</ele>
        <time>2020-02-09T08:42:33.000Z</time>
      </trkpt>
      <trkpt lat="47.28755" lon="-2.36906">
        <ele>10.39999961853</ele>
        <time>2020-02-09T08:42:37.000Z</time>
      </trkpt>
      <trkpt lat="47.28753" lon="-2.36906">
        <ele>10.800000190735</ele>
        <time>2020-02-09T08:42:38.000Z</time>
      </trkpt>
      <trkpt lat="47.28751" lon="-2.36907">
        <ele>11.199999809265</ele>
        <time>2020-02-09T08:42:39.000Z</time>
      </trkpt>
      <trkpt lat="47.2875" lon="-2.36908">
        <ele>11.800000190735</ele>
        <time>2020-02-09T08:42:40.000Z</time>
      </trkpt>
      <trkpt lat="47.28748" lon="-2.36908">
        <ele>12.199999809265</ele>
        <time>2020-02-09T08:42:41.000Z</time>
      </trkpt>
      <trkpt lat="47.28746" lon="-2.36911">
        <ele>12.199999809265</ele>
        <time>2020-02-09T08:42:42.000Z</time>
      </trkpt>
      <trkpt lat="47.28743" lon="-2.36915">
        <ele>12.199999809265</ele>
        <time>2020-02-09T08:42:44.000Z</time>
      </trkpt>
      <trkpt lat="47.2874" lon="-2.36916">
        <ele>12.60000038147</ele>
        <time>2020-02-09T08:42:46.000Z</time>
      </trkpt>
      <trkpt lat="47.2874" lon="-2.36917">
        <ele>13</ele>
        <time>2020-02-09T08:42:47.000Z</time>
      </trkpt>
      <trkpt lat="47.2874" lon="-2.3692">
        <ele>13.800000190735</ele>
        <time>2020-02-09T08:42:48.000Z</time>
      </trkpt>
      <trkpt lat="47.28741" lon="-2.36922">
        <ele>14.199999809265</ele>
        <time>2020-02-09T08:42:49.000Z</time>
      </trkpt>
      <trkpt lat="47.28742" lon="-2.36924">
        <ele>14.199999809265</ele>
        <time>2020-02-09T08:42:50.000Z</time>
      </trkpt>
      <trkpt lat="47.28743" lon="-2.36925">
        <ele>14.199999809265</ele>
        <time>2020-02-09T08:42:51.000Z</time>
      </trkpt>
      <trkpt lat="47.28745" lon="-2.3693">
        <ele>14.199999809265</ele>
        <time>2020-02-09T08:42:54.000Z</time>
      </trkpt>
      <trkpt lat="47.28747" lon="-2.36935">
        <ele>14.60000038147</ele>
        <time>2020-02-09T08:42:58.000Z</time>
      </trkpt>
      <trkpt lat="47.28747" lon="-2.36936">
        <ele>15</ele>
        <time>2020-02-09T08:42:59.000Z</time>
      </trkpt>
      <trkpt lat="47.28748" lon="-2.36936">
        <ele>15.39999961853</ele>
        <time>2020-02-09T08:43:00.000Z</time>
      </trkpt>
      <trkpt lat="47.28749" lon="-2.36937">
        <ele>15.800000190735</ele>
        <time>2020-02-09T08:43:01.000Z</time>
      </trkpt>
      <trkpt lat="47.2875" lon="-2.36937">
        <ele>16.200000762939</ele>
        <time>2020-02-09T08:43:02.000Z</time>
      </trkpt>
      <trkpt lat="47.28751" lon="-2.36939">
        <ele>16.200000762939</ele>
        <time>2020-02-09T08:43:04.000Z</time>
      </trkpt>
      <trkpt lat="47.28753" lon="-2.36942">
        <ele>16.200000762939</ele>
        <time>2020-02-09T08:43:05.000Z</time>
      </trkpt>
      <trkpt lat="47.28754" lon="-2.36949">
        <ele>16.200000762939</ele>
        <time>2020-02-09T08:43:08.000Z</time>
      </trkpt>
      <trkpt lat="47.28754" lon="-2.3695">
        <ele>16.60000038147</ele>
        <time>2020-02-09T08:43:09.000Z</time>
      </trkpt>
      <trkpt lat="47.28755" lon="-2.36953">
        <ele>17.39999961853</ele>
        <time>2020-02-09T08:43:11.000Z</time>
      </trkpt>
      <trkpt lat="47.28755" lon="-2.36957">
        <ele>18.200000762939</ele>
        <time>2020-02-09T08:43:12.000Z</time>
      </trkpt>
      <trkpt lat="47.28756" lon="-2.36959">
        <ele>18.200000762939</ele>
        <time>2020-02-09T08:43:13.000Z</time>
      </trkpt>
      <trkpt lat="47.28757" lon="-2.36972">
        <ele>18.799999237061</ele>
        <time>2020-02-09T08:43:18.000Z</time>
      </trkpt>
      <trkpt lat="47.28757" lon="-2.36974">
        <ele>19.200000762939</ele>
        <time>2020-02-09T08:43:19.000Z</time>
      </trkpt>
      <trkpt lat="47.28758" lon="-2.36977">
        <ele>19.60000038147</ele>
        <time>2020-02-09T08:43:20.000Z</time>
      </trkpt>
      <trkpt lat="47.28758" lon="-2.3698">
        <ele>20</ele>
        <time>2020-02-09T08:43:21.000Z</time>
      </trkpt>
      <trkpt lat="47.28759" lon="-2.36983">
        <ele>20.39999961853</ele>
        <time>2020-02-09T08:43:22.000Z</time>
      </trkpt>
      <trkpt lat="47.28764" lon="-2.36988">
        <ele>20.39999961853</ele>
        <time>2020-02-09T08:43:24.000Z</time>
      </trkpt>
      <trkpt lat="47.28771" lon="-2.36997">
        <ele>20.39999961853</ele>
        <time>2020-02-09T08:43:29.000Z</time>
      </trkpt>
      <trkpt lat="47.2878" lon="-2.3702">
        <ele>20.39999961853</ele>
        <time>2020-02-09T08:43:34.000Z</time>
      </trkpt>
      <trkpt lat="47.28786" lon="-2.37045">
        <ele>20.39999961853</ele>
        <time>2020-02-09T08:43:39.000Z</time>
      </trkpt>
      <trkpt lat="47.28791" lon="-2.37066">
        <ele>20</ele>
        <time>2020-02-09T08:43:42.000Z</time>
      </trkpt>
      <trkpt lat="47.28792" lon="-2.37072">
        <ele>19.39999961853</ele>
        <time>2020-02-09T08:43:43.000Z</time>
      </trkpt>
      <trkpt lat="47.28793" lon="-2.3708">
        <ele>19</ele>
        <time>2020-02-09T08:43:44.000Z</time>
      </trkpt>
      <trkpt lat="47.28795" lon="-2.37086">
        <ele>18.39999961853</ele>
        <time>2020-02-09T08:43:45.000Z</time>
      </trkpt>
      <trkpt lat="47.28795" lon="-2.37091">
        <ele>17.799999237061</ele>
        <time>2020-02-09T08:43:46.000Z</time>
      </trkpt>
      <trkpt lat="47.28795" lon="-2.37095">
        <ele>17.39999961853</ele>
        <time>2020-02-09T08:43:47.000Z</time>
      </trkpt>
      <trkpt lat="47.28796" lon="-2.37097">
        <ele>16.799999237061</ele>
        <time>2020-02-09T08:43:48.000Z</time>
      </trkpt>
      <trkpt lat="47.28797" lon="-2.37099">
        <ele>16.200000762939</ele>
        <time>2020-02-09T08:43:49.000Z</time>
      </trkpt>
      <trkpt lat="47.28798" lon="-2.37101">
        <ele>15.60000038147</ele>
        <time>2020-02-09T08:43:50.000Z</time>
      </trkpt>
      <trkpt lat="47.288" lon="-2.37101">
        <ele>15.60000038147</ele>
        <time>2020-02-09T08:43:51.000Z</time>
      </trkpt>
      <trkpt lat="47.28805" lon="-2.37101">
        <ele>15</ele>
        <time>2020-02-09T08:43:53.000Z</time>
      </trkpt>
      <trkpt lat="47.28807" lon="-2.37101">
        <ele>14.60000038147</ele>
        <time>2020-02-09T08:43:54.000Z</time>
      </trkpt>
      <trkpt lat="47.28809" lon="-2.371">
        <ele>14</ele>
        <time>2020-02-09T08:43:55.000Z</time>
      </trkpt>
      <trkpt lat="47.28812" lon="-2.37098">
        <ele>13.60000038147</ele>
        <time>2020-02-09T08:43:56.000Z</time>
      </trkpt>
      <trkpt lat="47.28814" lon="-2.37097">
        <ele>13</ele>
        <time>2020-02-09T08:43:57.000Z</time>
      </trkpt>
      <trkpt lat="47.28815" lon="-2.37097">
        <ele>12.60000038147</ele>
        <time>2020-02-09T08:43:58.000Z</time>
      </trkpt>
      <trkpt lat="47.28816" lon="-2.371">
        <ele>12</ele>
        <time>2020-02-09T08:43:59.000Z</time>
      </trkpt>
      <trkpt lat="47.28818" lon="-2.37102">
        <ele>11.39999961853</ele>
        <time>2020-02-09T08:44:00.000Z</time>
      </trkpt>
      <trkpt lat="47.28819" lon="-2.37106">
        <ele>11</ele>
        <time>2020-02-09T08:44:01.000Z</time>
      </trkpt>
      <trkpt lat="47.28821" lon="-2.37116">
        <ele>10.60000038147</ele>
        <time>2020-02-09T08:44:03.000Z</time>
      </trkpt>
      <trkpt lat="47.28821" lon="-2.37122">
        <ele>10.199999809265</ele>
        <time>2020-02-09T08:44:04.000Z</time>
      </trkpt>
      <trkpt lat="47.28821" lon="-2.37129">
        <ele>9.8000001907349</ele>
        <time>2020-02-09T08:44:05.000Z</time>
      </trkpt>
      <trkpt lat="47.28822" lon="-2.37136">
        <ele>9.3999996185303</ele>
        <time>2020-02-09T08:44:06.000Z</time>
      </trkpt>
      <trkpt lat="47.28824" lon="-2.37143">
        <ele>9</ele>
        <time>2020-02-09T08:44:07.000Z</time>
      </trkpt>
      <trkpt lat="47.28827" lon="-2.37156">
        <ele>9</ele>
        <time>2020-02-09T08:44:09.000Z</time>
      </trkpt>
      <trkpt lat="47.28829" lon="-2.37163">
        <ele>9</ele>
        <time>2020-02-09T08:44:10.000Z</time>
      </trkpt>
      <trkpt lat="47.28831" lon="-2.37176">
        <ele>9</ele>
        <time>2020-02-09T08:44:12.000Z</time>
      </trkpt>
      <trkpt lat="47.28833" lon="-2.37183">
        <ele>9</ele>
        <time>2020-02-09T08:44:13.000Z</time>
      </trkpt>
      <trkpt lat="47.28838" lon="-2.37211">
        <ele>9</ele>
        <time>2020-02-09T08:44:18.000Z</time>
      </trkpt>
      <trkpt lat="47.28849" lon="-2.37245">
        <ele>9</ele>
        <time>2020-02-09T08:44:24.000Z</time>
      </trkpt>
      <trkpt lat="47.28852" lon="-2.37278">
        <ele>9</ele>
        <time>2020-02-09T08:44:29.000Z</time>
      </trkpt>
      <trkpt lat="47.28853" lon="-2.37285">
        <ele>9</ele>
        <time>2020-02-09T08:44:30.000Z</time>
      </trkpt>
      <trkpt lat="47.28856" lon="-2.37312">
        <ele>9</ele>
        <time>2020-02-09T08:44:34.000Z</time>
      </trkpt>
      <trkpt lat="47.28859" lon="-2.37349">
        <ele>9</ele>
        <time>2020-02-09T08:44:40.000Z</time>
      </trkpt>
      <trkpt lat="47.28862" lon="-2.37373">
        <ele>9</ele>
        <time>2020-02-09T08:44:44.000Z</time>
      </trkpt>
      <trkpt lat="47.28863" lon="-2.37379">
        <ele>9</ele>
        <time>2020-02-09T08:44:45.000Z</time>
      </trkpt>
      <trkpt lat="47.28863" lon="-2.37385">
        <ele>8.6000003814697</ele>
        <time>2020-02-09T08:44:46.000Z</time>
      </trkpt>
      <trkpt lat="47.28864" lon="-2.37391">
        <ele>8.1999998092651</ele>
        <time>2020-02-09T08:44:47.000Z</time>
      </trkpt>
      <trkpt lat="47.28866" lon="-2.37397">
        <ele>7.8000001907349</ele>
        <time>2020-02-09T08:44:48.000Z</time>
      </trkpt>
      <trkpt lat="47.28867" lon="-2.37404">
        <ele>7.1999998092651</ele>
        <time>2020-02-09T08:44:49.000Z</time>
      </trkpt>
      <trkpt lat="47.28867" lon="-2.3741">
        <ele>6.8000001907349</ele>
        <time>2020-02-09T08:44:50.000Z</time>
      </trkpt>
      <trkpt lat="47.28869" lon="-2.3744">
        <ele>6.8000001907349</ele>
        <time>2020-02-09T08:44:54.000Z</time>
      </trkpt>
      <trkpt lat="47.28874" lon="-2.37465">
        <ele>6.8000001907349</ele>
        <time>2020-02-09T08:44:58.000Z</time>
      </trkpt>
      <trkpt lat="47.28876" lon="-2.37471">
        <ele>6.8000001907349</ele>
        <time>2020-02-09T08:44:59.000Z</time>
      </trkpt>
      <trkpt lat="47.2888" lon="-2.37495">
        <ele>6.8000001907349</ele>
        <time>2020-02-09T08:45:03.000Z</time>
      </trkpt>
      <trkpt lat="47.28881" lon="-2.3752">
        <ele>6.8000001907349</ele>
        <time>2020-02-09T08:45:08.000Z</time>
      </trkpt>
      <trkpt lat="47.28883" lon="-2.37537">
        <ele>6.8000001907349</ele>
        <time>2020-02-09T08:45:13.000Z</time>
      </trkpt>
      <trkpt lat="47.2889" lon="-2.37557">
        <ele>6.8000001907349</ele>
        <time>2020-02-09T08:45:17.000Z</time>
      </trkpt>
      <trkpt lat="47.28898" lon="-2.37577">
        <ele>6.8000001907349</ele>
        <time>2020-02-09T08:45:20.000Z</time>
      </trkpt>
      <trkpt lat="47.28902" lon="-2.37598">
        <ele>6.8000001907349</ele>
        <time>2020-02-09T08:45:23.000Z</time>
      </trkpt>
      <trkpt lat="47.28909" lon="-2.37638">
        <ele>6.8000001907349</ele>
        <time>2020-02-09T08:45:30.000Z</time>
      </trkpt>
      <trkpt lat="47.28914" lon="-2.37643">
        <ele>6.8000001907349</ele>
        <time>2020-02-09T08:45:32.000Z</time>
      </trkpt>
      <trkpt lat="47.28918" lon="-2.37642">
        <ele>6.4000000953674</ele>
        <time>2020-02-09T08:45:33.000Z</time>
      </trkpt>
      <trkpt lat="47.28922" lon="-2.37642">
        <ele>6</ele>
        <time>2020-02-09T08:45:34.000Z</time>
      </trkpt>
      <trkpt lat="47.28926" lon="-2.37641">
        <ele>5.5999999046326</ele>
        <time>2020-02-09T08:45:35.000Z</time>
      </trkpt>
      <trkpt lat="47.28929" lon="-2.37641">
        <ele>5</ele>
        <time>2020-02-09T08:45:36.000Z</time>
      </trkpt>
      <trkpt lat="47.28932" lon="-2.37642">
        <ele>4.5999999046326</ele>
        <time>2020-02-09T08:45:37.000Z</time>
      </trkpt>
      <trkpt lat="47.28933" lon="-2.37644">
        <ele>4.5999999046326</ele>
        <time>2020-02-09T08:45:38.000Z</time>
      </trkpt>
      <trkpt lat="47.28934" lon="-2.37645">
        <ele>4.5999999046326</ele>
        <time>2020-02-09T08:45:40.000Z</time>
      </trkpt>
      <trkpt lat="47.28936" lon="-2.37647">
        <ele>4.5999999046326</ele>
        <time>2020-02-09T08:45:43.000Z</time>
      </trkpt>
      <trkpt lat="47.28938" lon="-2.3765">
        <ele>4.5999999046326</ele>
        <time>2020-02-09T08:45:44.000Z</time>
      </trkpt>
      <trkpt lat="47.28939" lon="-2.37667">
        <ele>4.5999999046326</ele>
        <time>2020-02-09T08:45:47.000Z</time>
      </trkpt>
      <trkpt lat="47.28937" lon="-2.37705">
        <ele>4.5999999046326</ele>
        <time>2020-02-09T08:45:52.000Z</time>
      </trkpt>
      <trkpt lat="47.28934" lon="-2.3776">
        <ele>4.5999999046326</ele>
        <time>2020-02-09T08:45:59.000Z</time>
      </trkpt>
      <trkpt lat="47.28933" lon="-2.37782">
        <ele>4.5999999046326</ele>
        <time>2020-02-09T08:46:02.000Z</time>
      </trkpt>
      <trkpt lat="47.28932" lon="-2.3779">
        <ele>5</ele>
        <time>2020-02-09T08:46:03.000Z</time>
      </trkpt>
      <trkpt lat="47.28932" lon="-2.37796">
        <ele>5.5999999046326</ele>
        <time>2020-02-09T08:46:04.000Z</time>
      </trkpt>
      <trkpt lat="47.28932" lon="-2.37803">
        <ele>6</ele>
        <time>2020-02-09T08:46:05.000Z</time>
      </trkpt>
      <trkpt lat="47.28931" lon="-2.37811">
        <ele>7</ele>
        <time>2020-02-09T08:46:06.000Z</time>
      </trkpt>
      <trkpt lat="47.2893" lon="-2.37818">
        <ele>6.4000000953674</ele>
        <time>2020-02-09T08:46:07.000Z</time>
      </trkpt>
      <trkpt lat="47.2893" lon="-2.37825">
        <ele>6</ele>
        <time>2020-02-09T08:46:08.000Z</time>
      </trkpt>
      <trkpt lat="47.28929" lon="-2.37833">
        <ele>5.4000000953674</ele>
        <time>2020-02-09T08:46:09.000Z</time>
      </trkpt>
      <trkpt lat="47.28929" lon="-2.3784">
        <ele>5</ele>
        <time>2020-02-09T08:46:10.000Z</time>
      </trkpt>
      <trkpt lat="47.28928" lon="-2.37847">
        <ele>4.5999999046326</ele>
        <time>2020-02-09T08:46:11.000Z</time>
      </trkpt>
      <trkpt lat="47.28927" lon="-2.37854">
        <ele>4.5999999046326</ele>
        <time>2020-02-09T08:46:12.000Z</time>
      </trkpt>
      <trkpt lat="47.28926" lon="-2.37861">
        <ele>4.5999999046326</ele>
        <time>2020-02-09T08:46:13.000Z</time>
      </trkpt>
      <trkpt lat="47.28925" lon="-2.3789">
        <ele>4.5999999046326</ele>
        <time>2020-02-09T08:46:17.000Z</time>
      </trkpt>
      <trkpt lat="47.28919" lon="-2.37945">
        <ele>4.5999999046326</ele>
        <time>2020-02-09T08:46:25.000Z</time>
      </trkpt>
      <trkpt lat="47.28914" lon="-2.38003">
        <ele>4.5999999046326</ele>
        <time>2020-02-09T08:46:34.000Z</time>
      </trkpt>
      <trkpt lat="47.28912" lon="-2.38039">
        <ele>4.5999999046326</ele>
        <time>2020-02-09T08:46:40.000Z</time>
      </trkpt>
      <trkpt lat="47.28913" lon="-2.38045">
        <ele>4.5999999046326</ele>
        <time>2020-02-09T08:46:41.000Z</time>
      </trkpt>
      <trkpt lat="47.28919" lon="-2.3807">
        <ele>4.5999999046326</ele>
        <time>2020-02-09T08:46:45.000Z</time>
      </trkpt>
      <trkpt lat="47.28922" lon="-2.38077">
        <ele>4.5999999046326</ele>
        <time>2020-02-09T08:46:46.000Z</time>
      </trkpt>
      <trkpt lat="47.28925" lon="-2.38091">
        <ele>4.5999999046326</ele>
        <time>2020-02-09T08:46:48.000Z</time>
      </trkpt>
      <trkpt lat="47.2893" lon="-2.38112">
        <ele>4.5999999046326</ele>
        <time>2020-02-09T08:46:51.000Z</time>
      </trkpt>
      <trkpt lat="47.28931" lon="-2.38118">
        <ele>4.5999999046326</ele>
        <time>2020-02-09T08:46:52.000Z</time>
      </trkpt>
      <trkpt lat="47.2894" lon="-2.38167">
        <ele>4.5999999046326</ele>
        <time>2020-02-09T08:46:59.000Z</time>
      </trkpt>
      <trkpt lat="47.28942" lon="-2.38197">
        <ele>4.5999999046326</ele>
        <time>2020-02-09T08:47:03.000Z</time>
      </trkpt>
      <trkpt lat="47.28943" lon="-2.3822">
        <ele>4.5999999046326</ele>
        <time>2020-02-09T08:47:06.000Z</time>
      </trkpt>
      <trkpt lat="47.28944" lon="-2.3828">
        <ele>4.5999999046326</ele>
        <time>2020-02-09T08:47:14.000Z</time>
      </trkpt>
      <trkpt lat="47.2894" lon="-2.38325">
        <ele>4.5999999046326</ele>
        <time>2020-02-09T08:47:20.000Z</time>
      </trkpt>
      <trkpt lat="47.28942" lon="-2.38381">
        <ele>4.5999999046326</ele>
        <time>2020-02-09T08:47:28.000Z</time>
      </trkpt>
      <trkpt lat="47.28945" lon="-2.38429">
        <ele>4.5999999046326</ele>
        <time>2020-02-09T08:47:35.000Z</time>
      </trkpt>
      <trkpt lat="47.2895" lon="-2.38487">
        <ele>4.5999999046326</ele>
        <time>2020-02-09T08:47:43.000Z</time>
      </trkpt>
      <trkpt lat="47.28952" lon="-2.38503">
        <ele>4.5999999046326</ele>
        <time>2020-02-09T08:47:45.000Z</time>
      </trkpt>
      <trkpt lat="47.28956" lon="-2.38541">
        <ele>4.5999999046326</ele>
        <time>2020-02-09T08:47:50.000Z</time>
      </trkpt>
      <trkpt lat="47.28962" lon="-2.38601">
        <ele>4.5999999046326</ele>
        <time>2020-02-09T08:47:58.000Z</time>
      </trkpt>
      <trkpt lat="47.28962" lon="-2.38661">
        <ele>4.5999999046326</ele>
        <time>2020-02-09T08:48:06.000Z</time>
      </trkpt>
      <trkpt lat="47.28963" lon="-2.38697">
        <ele>5</ele>
        <time>2020-02-09T08:48:11.000Z</time>
      </trkpt>
      <trkpt lat="47.28963" lon="-2.38704">
        <ele>5.4000000953674</ele>
        <time>2020-02-09T08:48:12.000Z</time>
      </trkpt>
      <trkpt lat="47.28963" lon="-2.3871">
        <ele>5.8000001907349</ele>
        <time>2020-02-09T08:48:13.000Z</time>
      </trkpt>
      <trkpt lat="47.28963" lon="-2.38717">
        <ele>6.1999998092651</ele>
        <time>2020-02-09T08:48:14.000Z</time>
      </trkpt>
      <trkpt lat="47.28963" lon="-2.38723">
        <ele>6.5999999046326</ele>
        <time>2020-02-09T08:48:15.000Z</time>
      </trkpt>
      <trkpt lat="47.28963" lon="-2.38731">
        <ele>6.5999999046326</ele>
        <time>2020-02-09T08:48:16.000Z</time>
      </trkpt>
      <trkpt lat="47.28964" lon="-2.38744">
        <ele>6.5999999046326</ele>
        <time>2020-02-09T08:48:18.000Z</time>
      </trkpt>
      <trkpt lat="47.28964" lon="-2.38765">
        <ele>6.1999998092651</ele>
        <time>2020-02-09T08:48:21.000Z</time>
      </trkpt>
      <trkpt lat="47.28964" lon="-2.38772">
        <ele>5.8000001907349</ele>
        <time>2020-02-09T08:48:22.000Z</time>
      </trkpt>
      <trkpt lat="47.28964" lon="-2.38779">
        <ele>5.4000000953674</ele>
        <time>2020-02-09T08:48:23.000Z</time>
      </trkpt>
      <trkpt lat="47.28964" lon="-2.38786">
        <ele>5</ele>
        <time>2020-02-09T08:48:24.000Z</time>
      </trkpt>
      <trkpt lat="47.28964" lon="-2.38794">
        <ele>4.5999999046326</ele>
        <time>2020-02-09T08:48:25.000Z</time>
      </trkpt>
      <trkpt lat="47.28964" lon="-2.38801">
        <ele>4.5999999046326</ele>
        <time>2020-02-09T08:48:26.000Z</time>
      </trkpt>
      <trkpt lat="47.28965" lon="-2.38831">
        <ele>4.5999999046326</ele>
        <time>2020-02-09T08:48:30.000Z</time>
      </trkpt>
      <trkpt lat="47.28964" lon="-2.38853">
        <ele>4.5999999046326</ele>
        <time>2020-02-09T08:48:33.000Z</time>
      </trkpt>
      <trkpt lat="47.28963" lon="-2.38894">
        <ele>4.5999999046326</ele>
        <time>2020-02-09T08:48:39.000Z</time>
      </trkpt>
      <trkpt lat="47.28961" lon="-2.38948">
        <ele>4.5999999046326</ele>
        <time>2020-02-09T08:48:47.000Z</time>
      </trkpt>
      <trkpt lat="47.2896" lon="-2.38954">
        <ele>4.5999999046326</ele>
        <time>2020-02-09T08:48:48.000Z</time>
      </trkpt>
      <trkpt lat="47.28958" lon="-2.38982">
        <ele>4.5999999046326</ele>
        <time>2020-02-09T08:48:52.000Z</time>
      </trkpt>
      <trkpt lat="47.28957" lon="-2.38988">
        <ele>4.5999999046326</ele>
        <time>2020-02-09T08:48:53.000Z</time>
      </trkpt>
      <trkpt lat="47.28955" lon="-2.39014">
        <ele>4.5999999046326</ele>
        <time>2020-02-09T08:48:57.000Z</time>
      </trkpt>
      <trkpt lat="47.28955" lon="-2.39026">
        <ele>4.5999999046326</ele>
        <time>2020-02-09T08:48:59.000Z</time>
      </trkpt>
      <trkpt lat="47.28953" lon="-2.39044">
        <ele>4.5999999046326</ele>
        <time>2020-02-09T08:49:02.000Z</time>
      </trkpt>
      <trkpt lat="47.28948" lon="-2.39094">
        <ele>4.5999999046326</ele>
        <time>2020-02-09T08:49:10.000Z</time>
      </trkpt>
      <trkpt lat="47.28941" lon="-2.39133">
        <ele>4.5999999046326</ele>
        <time>2020-02-09T08:49:16.000Z</time>
      </trkpt>
      <trkpt lat="47.28936" lon="-2.39179">
        <ele>4.5999999046326</ele>
        <time>2020-02-09T08:49:23.000Z</time>
      </trkpt>
      <trkpt lat="47.28936" lon="-2.39186">
        <ele>4.5999999046326</ele>
        <time>2020-02-09T08:49:24.000Z</time>
      </trkpt>
      <trkpt lat="47.28939" lon="-2.39233">
        <ele>4.5999999046326</ele>
        <time>2020-02-09T08:49:31.000Z</time>
      </trkpt>
      <trkpt lat="47.28939" lon="-2.39255">
        <ele>4.1999998092651</ele>
        <time>2020-02-09T08:49:34.000Z</time>
      </trkpt>
      <trkpt lat="47.28939" lon="-2.39262">
        <ele>3.7999999523163</ele>
        <time>2020-02-09T08:49:35.000Z</time>
      </trkpt>
      <trkpt lat="47.2894" lon="-2.39268">
        <ele>3.4000000953674</ele>
        <time>2020-02-09T08:49:36.000Z</time>
      </trkpt>
      <trkpt lat="47.28941" lon="-2.39275">
        <ele>2.7999999523163</ele>
        <time>2020-02-09T08:49:37.000Z</time>
      </trkpt>
      <trkpt lat="47.28943" lon="-2.3928">
        <ele>2.4000000953674</ele>
        <time>2020-02-09T08:49:38.000Z</time>
      </trkpt>
      <trkpt lat="47.28953" lon="-2.39301">
        <ele>2.4000000953674</ele>
        <time>2020-02-09T08:49:42.000Z</time>
      </trkpt>
      <trkpt lat="47.28955" lon="-2.39305">
        <ele>2.4000000953674</ele>
        <time>2020-02-09T08:49:43.000Z</time>
      </trkpt>
      <trkpt lat="47.28961" lon="-2.39313">
        <ele>2.4000000953674</ele>
        <time>2020-02-09T08:49:45.000Z</time>
      </trkpt>
      <trkpt lat="47.2896" lon="-2.39323">
        <ele>2.4000000953674</ele>
        <time>2020-02-09T08:49:47.000Z</time>
      </trkpt>
      <trkpt lat="47.28955" lon="-2.39331">
        <ele>2.4000000953674</ele>
        <time>2020-02-09T08:49:49.000Z</time>
      </trkpt>
      <trkpt lat="47.2895" lon="-2.3934">
        <ele>2.4000000953674</ele>
        <time>2020-02-09T08:49:51.000Z</time>
      </trkpt>
      <trkpt lat="47.28949" lon="-2.39347">
        <ele>2.4000000953674</ele>
        <time>2020-02-09T08:49:52.000Z</time>
      </trkpt>
      <trkpt lat="47.28947" lon="-2.39359">
        <ele>2.4000000953674</ele>
        <time>2020-02-09T08:49:54.000Z</time>
      </trkpt>
      <trkpt lat="47.28946" lon="-2.39365">
        <ele>2.4000000953674</ele>
        <time>2020-02-09T08:49:55.000Z</time>
      </trkpt>
      <trkpt lat="47.28945" lon="-2.39371">
        <ele>2.4000000953674</ele>
        <time>2020-02-09T08:49:56.000Z</time>
      </trkpt>
      <trkpt lat="47.28938" lon="-2.39404">
        <ele>2.4000000953674</ele>
        <time>2020-02-09T08:50:01.000Z</time>
      </trkpt>
      <trkpt lat="47.28933" lon="-2.39422">
        <ele>2.4000000953674</ele>
        <time>2020-02-09T08:50:04.000Z</time>
      </trkpt>
      <trkpt lat="47.2893" lon="-2.39434">
        <ele>2.4000000953674</ele>
        <time>2020-02-09T08:50:06.000Z</time>
      </trkpt>
      <trkpt lat="47.28929" lon="-2.39441">
        <ele>2.4000000953674</ele>
        <time>2020-02-09T08:50:07.000Z</time>
      </trkpt>
      <trkpt lat="47.28926" lon="-2.39475">
        <ele>3</ele>
        <time>2020-02-09T08:50:12.000Z</time>
      </trkpt>
      <trkpt lat="47.28925" lon="-2.39482">
        <ele>3.4000000953674</ele>
        <time>2020-02-09T08:50:13.000Z</time>
      </trkpt>
      <trkpt lat="47.28924" lon="-2.39488">
        <ele>4</ele>
        <time>2020-02-09T08:50:14.000Z</time>
      </trkpt>
      <trkpt lat="47.28923" lon="-2.39495">
        <ele>4.4000000953674</ele>
        <time>2020-02-09T08:50:15.000Z</time>
      </trkpt>
      <trkpt lat="47.28922" lon="-2.39502">
        <ele>5</ele>
        <time>2020-02-09T08:50:16.000Z</time>
      </trkpt>
      <trkpt lat="47.28914" lon="-2.39551">
        <ele>5</ele>
        <time>2020-02-09T08:50:23.000Z</time>
      </trkpt>
      <trkpt lat="47.28913" lon="-2.39558">
        <ele>4.5999999046326</ele>
        <time>2020-02-09T08:50:24.000Z</time>
      </trkpt>
      <trkpt lat="47.28912" lon="-2.39565">
        <ele>4.1999998092651</ele>
        <time>2020-02-09T08:50:25.000Z</time>
      </trkpt>
      <trkpt lat="47.28911" lon="-2.39572">
        <ele>3.7999999523163</ele>
        <time>2020-02-09T08:50:26.000Z</time>
      </trkpt>
      <trkpt lat="47.2891" lon="-2.39579">
        <ele>3.4000000953674</ele>
        <time>2020-02-09T08:50:27.000Z</time>
      </trkpt>
      <trkpt lat="47.28909" lon="-2.39587">
        <ele>2.7999999523163</ele>
        <time>2020-02-09T08:50:28.000Z</time>
      </trkpt>
      <trkpt lat="47.28906" lon="-2.39607">
        <ele>2.7999999523163</ele>
        <time>2020-02-09T08:50:31.000Z</time>
      </trkpt>
      <trkpt lat="47.28896" lon="-2.39664">
        <ele>2.7999999523163</ele>
        <time>2020-02-09T08:50:39.000Z</time>
      </trkpt>
      <trkpt lat="47.28894" lon="-2.39671">
        <ele>2.4000000953674</ele>
        <time>2020-02-09T08:50:40.000Z</time>
      </trkpt>
      <trkpt lat="47.28892" lon="-2.39678">
        <ele>2</ele>
        <time>2020-02-09T08:50:41.000Z</time>
      </trkpt>
      <trkpt lat="47.28889" lon="-2.39684">
        <ele>1.6000000238419</ele>
        <time>2020-02-09T08:50:42.000Z</time>
      </trkpt>
      <trkpt lat="47.28887" lon="-2.39691">
        <ele>1.2000000476837</ele>
        <time>2020-02-09T08:50:43.000Z</time>
      </trkpt>
      <trkpt lat="47.28884" lon="-2.39698">
        <ele>0.60000002384186</ele>
        <time>2020-02-09T08:50:44.000Z</time>
      </trkpt>
      <trkpt lat="47.28867" lon="-2.39745">
        <ele>0.60000002384186</ele>
        <time>2020-02-09T08:50:51.000Z</time>
      </trkpt>
      <trkpt lat="47.28846" lon="-2.39805">
        <ele>0.60000002384186</ele>
        <time>2020-02-09T08:51:00.000Z</time>
      </trkpt>
      <trkpt lat="47.28836" lon="-2.39845">
        <ele>0.60000002384186</ele>
        <time>2020-02-09T08:51:07.000Z</time>
      </trkpt>
      <trkpt lat="47.28831" lon="-2.39875">
        <ele>0.60000002384186</ele>
        <time>2020-02-09T08:51:14.000Z</time>
      </trkpt>
      <trkpt lat="47.28829" lon="-2.39873">
        <ele>0.60000002384186</ele>
        <time>2020-02-09T08:51:15.000Z</time>
      </trkpt>
      <trkpt lat="47.28826" lon="-2.3987">
        <ele>0.60000002384186</ele>
        <time>2020-02-09T08:51:17.000Z</time>
      </trkpt>
      <trkpt lat="47.28823" lon="-2.39864">
        <ele>0.60000002384186</ele>
        <time>2020-02-09T08:51:20.000Z</time>
      </trkpt>
      <trkpt lat="47.28823" lon="-2.39859">
        <ele>0.60000002384186</ele>
        <time>2020-02-09T08:51:22.000Z</time>
      </trkpt>
      <trkpt lat="47.28823" lon="-2.39857">
        <ele>0.60000002384186</ele>
        <time>2020-02-09T08:51:23.000Z</time>
      </trkpt>
      <trkpt lat="47.28823" lon="-2.39847">
        <ele>0.60000002384186</ele>
        <time>2020-02-09T08:51:30.000Z</time>
      </trkpt>
      <trkpt lat="47.28821" lon="-2.39849">
        <ele>0.60000002384186</ele>
        <time>2020-02-09T08:51:33.000Z</time>
      </trkpt>
      <trkpt lat="47.28821" lon="-2.39851">
        <ele>0.60000002384186</ele>
        <time>2020-02-09T08:51:34.000Z</time>
      </trkpt>
      <trkpt lat="47.2882" lon="-2.39853">
        <ele>1.2000000476837</ele>
        <time>2020-02-09T08:51:35.000Z</time>
      </trkpt>
      <trkpt lat="47.28819" lon="-2.39856">
        <ele>1.6000000238419</ele>
        <time>2020-02-09T08:51:36.000Z</time>
      </trkpt>
      <trkpt lat="47.28819" lon="-2.39858">
        <ele>2</ele>
        <time>2020-02-09T08:51:37.000Z</time>
      </trkpt>
      <trkpt lat="47.28818" lon="-2.3986">
        <ele>2.4000000953674</ele>
        <time>2020-02-09T08:51:38.000Z</time>
      </trkpt>
      <trkpt lat="47.28818" lon="-2.39862">
        <ele>2.7999999523163</ele>
        <time>2020-02-09T08:51:39.000Z</time>
      </trkpt>
      <trkpt lat="47.28818" lon="-2.39864">
        <ele>2.7999999523163</ele>
        <time>2020-02-09T08:51:40.000Z</time>
      </trkpt>
      <trkpt lat="47.2882" lon="-2.39865">
        <ele>2.7999999523163</ele>
        <time>2020-02-09T08:51:43.000Z</time>
      </trkpt>
      <trkpt lat="47.28819" lon="-2.39864">
        <ele>2.7999999523163</ele>
        <time>2020-02-09T08:51:44.000Z</time>
      </trkpt>
      <trkpt lat="47.28821" lon="-2.39851">
        <ele>3.2000000476837</ele>
        <time>2020-02-09T08:51:49.000Z</time>
      </trkpt>
      <trkpt lat="47.28822" lon="-2.39849">
        <ele>3.7999999523163</ele>
        <time>2020-02-09T08:51:50.000Z</time>
      </trkpt>
      <trkpt lat="47.28822" lon="-2.39848">
        <ele>4.5999999046326</ele>
        <time>2020-02-09T08:51:51.000Z</time>
      </trkpt>
      <trkpt lat="47.28821" lon="-2.39848">
        <ele>5</ele>
        <time>2020-02-09T08:51:52.000Z</time>
      </trkpt>
      <trkpt lat="47.28816" lon="-2.39846">
        <ele>5</ele>
        <time>2020-02-09T08:51:54.000Z</time>
      </trkpt>
      <trkpt lat="47.2881" lon="-2.39845">
        <ele>5</ele>
        <time>2020-02-09T08:51:58.000Z</time>
      </trkpt>
      <trkpt lat="47.28807" lon="-2.39843">
        <ele>5</ele>
        <time>2020-02-09T08:52:00.000Z</time>
      </trkpt>
      <trkpt lat="47.28802" lon="-2.39844">
        <ele>5</ele>
        <time>2020-02-09T08:52:04.000Z</time>
      </trkpt>
      <trkpt lat="47.28804" lon="-2.39846">
        <ele>5</ele>
        <time>2020-02-09T08:52:06.000Z</time>
      </trkpt>
      <trkpt lat="47.28813" lon="-2.39849">
        <ele>4.5999999046326</ele>
        <time>2020-02-09T08:52:11.000Z</time>
      </trkpt>
      <trkpt lat="47.28814" lon="-2.39848">
        <ele>4.1999998092651</ele>
        <time>2020-02-09T08:52:12.000Z</time>
      </trkpt>
      <trkpt lat="47.28814" lon="-2.39846">
        <ele>3.5999999046326</ele>
        <time>2020-02-09T08:52:13.000Z</time>
      </trkpt>
      <trkpt lat="47.28815" lon="-2.39845">
        <ele>3.2000000476837</ele>
        <time>2020-02-09T08:52:14.000Z</time>
      </trkpt>
      <trkpt lat="47.28815" lon="-2.39844">
        <ele>2.7999999523163</ele>
        <time>2020-02-09T08:52:15.000Z</time>
      </trkpt>
      <trkpt lat="47.28811" lon="-2.39844">
        <ele>2.7999999523163</ele>
        <time>2020-02-09T08:52:17.000Z</time>
      </trkpt>
      <trkpt lat="47.28809" lon="-2.39843">
        <ele>2.7999999523163</ele>
        <time>2020-02-09T08:52:18.000Z</time>
      </trkpt>
      <trkpt lat="47.28807" lon="-2.39842">
        <ele>2.4000000953674</ele>
        <time>2020-02-09T08:52:19.000Z</time>
      </trkpt>
      <trkpt lat="47.28805" lon="-2.39841">
        <ele>1.7999999523163</ele>
        <time>2020-02-09T08:52:20.000Z</time>
      </trkpt>
      <trkpt lat="47.28802" lon="-2.39844">
        <ele>1.3999999761581</ele>
        <time>2020-02-09T08:52:21.000Z</time>
      </trkpt>
      <trkpt lat="47.28801" lon="-2.39848">
        <ele>1</ele>
        <time>2020-02-09T08:52:22.000Z</time>
      </trkpt>
      <trkpt lat="47.28802" lon="-2.39851">
        <ele>0.40000000596046</ele>
        <time>2020-02-09T08:52:23.000Z</time>
      </trkpt>
      <trkpt lat="47.28807" lon="-2.39853">
        <ele>0.40000000596046</ele>
        <time>2020-02-09T08:52:25.000Z</time>
      </trkpt>
      <trkpt lat="47.28809" lon="-2.39854">
        <ele>0.40000000596046</ele>
        <time>2020-02-09T08:52:26.000Z</time>
      </trkpt>
      <trkpt lat="47.28813" lon="-2.3986">
        <ele>0.40000000596046</ele>
        <time>2020-02-09T08:52:28.000Z</time>
      </trkpt>
      <trkpt lat="47.28814" lon="-2.39868">
        <ele>0.40000000596046</ele>
        <time>2020-02-09T08:52:30.000Z</time>
      </trkpt>
      <trkpt lat="47.28815" lon="-2.39879">
        <ele>0.40000000596046</ele>
        <time>2020-02-09T08:52:32.000Z</time>
      </trkpt>
      <trkpt lat="47.28814" lon="-2.39895">
        <ele>0.40000000596046</ele>
        <time>2020-02-09T08:52:35.000Z</time>
      </trkpt>
      <trkpt lat="47.28807" lon="-2.39906">
        <ele>0.40000000596046</ele>
        <time>2020-02-09T08:52:39.000Z</time>
      </trkpt>
      <trkpt lat="47.28803" lon="-2.39903">
        <ele>0.40000000596046</ele>
        <time>2020-02-09T08:52:42.000Z</time>
      </trkpt>
      <trkpt lat="47.28801" lon="-2.39901">
        <ele>0.40000000596046</ele>
        <time>2020-02-09T08:52:44.000Z</time>
      </trkpt>
      <trkpt lat="47.28794" lon="-2.399">
        <ele>0.40000000596046</ele>
        <time>2020-02-09T08:52:46.000Z</time>
      </trkpt>
      <trkpt lat="47.28792" lon="-2.39904">
        <ele>0.40000000596046</ele>
        <time>2020-02-09T08:52:47.000Z</time>
      </trkpt>
      <trkpt lat="47.28785" lon="-2.39918">
        <ele>0.40000000596046</ele>
        <time>2020-02-09T08:52:52.000Z</time>
      </trkpt>
      <trkpt lat="47.28774" lon="-2.39943">
        <ele>0.40000000596046</ele>
        <time>2020-02-09T08:52:57.000Z</time>
      </trkpt>
      <trkpt lat="47.28756" lon="-2.39983">
        <ele>0.40000000596046</ele>
        <time>2020-02-09T08:53:04.000Z</time>
      </trkpt>
      <trkpt lat="47.28746" lon="-2.40012">
        <ele>0.40000000596046</ele>
        <time>2020-02-09T08:53:09.000Z</time>
      </trkpt>
      <trkpt lat="47.28743" lon="-2.40024">
        <ele>0.40000000596046</ele>
        <time>2020-02-09T08:53:11.000Z</time>
      </trkpt>
      <trkpt lat="47.28736" lon="-2.40048">
        <ele>0.40000000596046</ele>
        <time>2020-02-09T08:53:15.000Z</time>
      </trkpt>
      <trkpt lat="47.28734" lon="-2.40062">
        <ele>0.40000000596046</ele>
        <time>2020-02-09T08:53:17.000Z</time>
      </trkpt>
      <trkpt lat="47.28725" lon="-2.40119">
        <ele>0.40000000596046</ele>
        <time>2020-02-09T08:53:25.000Z</time>
      </trkpt>
      <trkpt lat="47.28717" lon="-2.40172">
        <ele>0.40000000596046</ele>
        <time>2020-02-09T08:53:32.000Z</time>
      </trkpt>
      <trkpt lat="47.28704" lon="-2.40225">
        <ele>0.40000000596046</ele>
        <time>2020-02-09T08:53:39.000Z</time>
      </trkpt>
      <trkpt lat="47.28682" lon="-2.4027">
        <ele>0.40000000596046</ele>
        <time>2020-02-09T08:53:46.000Z</time>
      </trkpt>
      <trkpt lat="47.28654" lon="-2.40327">
        <ele>0.40000000596046</ele>
        <time>2020-02-09T08:53:55.000Z</time>
      </trkpt>
      <trkpt lat="47.28628" lon="-2.40378">
        <ele>0.40000000596046</ele>
        <time>2020-02-09T08:54:03.000Z</time>
      </trkpt>
      <trkpt lat="47.28607" lon="-2.40416">
        <ele>0.40000000596046</ele>
        <time>2020-02-09T08:54:09.000Z</time>
      </trkpt>
      <trkpt lat="47.28605" lon="-2.40422">
        <ele>0.40000000596046</ele>
        <time>2020-02-09T08:54:10.000Z</time>
      </trkpt>
      <trkpt lat="47.28593" lon="-2.40445">
        <ele>0.40000000596046</ele>
        <time>2020-02-09T08:54:14.000Z</time>
      </trkpt>
      <trkpt lat="47.28586" lon="-2.40456">
        <ele>0.40000000596046</ele>
        <time>2020-02-09T08:54:16.000Z</time>
      </trkpt>
      <trkpt lat="47.28585" lon="-2.40468">
        <ele>0.40000000596046</ele>
        <time>2020-02-09T08:54:18.000Z</time>
      </trkpt>
      <trkpt lat="47.28593" lon="-2.40484">
        <ele>0.40000000596046</ele>
        <time>2020-02-09T08:54:21.000Z</time>
      </trkpt>
      <trkpt lat="47.28597" lon="-2.40489">
        <ele>0.40000000596046</ele>
        <time>2020-02-09T08:54:22.000Z</time>
      </trkpt>
      <trkpt lat="47.28616" lon="-2.40514">
        <ele>0.40000000596046</ele>
        <time>2020-02-09T08:54:27.000Z</time>
      </trkpt>
      <trkpt lat="47.28635" lon="-2.40539">
        <ele>0.40000000596046</ele>
        <time>2020-02-09T08:54:32.000Z</time>
      </trkpt>
      <trkpt lat="47.28652" lon="-2.40564">
        <ele>0.40000000596046</ele>
        <time>2020-02-09T08:54:37.000Z</time>
      </trkpt>
      <trkpt lat="47.28652" lon="-2.40571">
        <ele>0.40000000596046</ele>
        <time>2020-02-09T08:54:38.000Z</time>
      </trkpt>
      <trkpt lat="47.28646" lon="-2.40587">
        <ele>0.40000000596046</ele>
        <time>2020-02-09T08:54:41.000Z</time>
      </trkpt>
      <trkpt lat="47.28641" lon="-2.40597">
        <ele>1</ele>
        <time>2020-02-09T08:54:43.000Z</time>
      </trkpt>
      <trkpt lat="47.28638" lon="-2.40601">
        <ele>1.7999999523163</ele>
        <time>2020-02-09T08:54:44.000Z</time>
      </trkpt>
      <trkpt lat="47.28634" lon="-2.40605">
        <ele>2.2000000476837</ele>
        <time>2020-02-09T08:54:45.000Z</time>
      </trkpt>
      <trkpt lat="47.2863" lon="-2.4061">
        <ele>2.7999999523163</ele>
        <time>2020-02-09T08:54:46.000Z</time>
      </trkpt>
      <trkpt lat="47.28624" lon="-2.4062">
        <ele>2.4000000953674</ele>
        <time>2020-02-09T08:54:48.000Z</time>
      </trkpt>
      <trkpt lat="47.2862" lon="-2.40624">
        <ele>2</ele>
        <time>2020-02-09T08:54:49.000Z</time>
      </trkpt>
      <trkpt lat="47.28618" lon="-2.40629">
        <ele>1.6000000238419</ele>
        <time>2020-02-09T08:54:50.000Z</time>
      </trkpt>
      <trkpt lat="47.28615" lon="-2.40634">
        <ele>1.2000000476837</ele>
        <time>2020-02-09T08:54:51.000Z</time>
      </trkpt>
      <trkpt lat="47.28613" lon="-2.40638">
        <ele>0.80000001192093</ele>
        <time>2020-02-09T08:54:52.000Z</time>
      </trkpt>
      <trkpt lat="47.28606" lon="-2.40651">
        <ele>0.80000001192093</ele>
        <time>2020-02-09T08:54:55.000Z</time>
      </trkpt>
      <trkpt lat="47.28594" lon="-2.40672">
        <ele>0.80000001192093</ele>
        <time>2020-02-09T08:55:01.000Z</time>
      </trkpt>
      <trkpt lat="47.28578" lon="-2.40698">
        <ele>0.80000001192093</ele>
        <time>2020-02-09T08:55:07.000Z</time>
      </trkpt>
      <trkpt lat="47.28574" lon="-2.40702">
        <ele>0.80000001192093</ele>
        <time>2020-02-09T08:55:08.000Z</time>
      </trkpt>
      <trkpt lat="47.28559" lon="-2.40722">
        <ele>0.80000001192093</ele>
        <time>2020-02-09T08:55:12.000Z</time>
      </trkpt>
      <trkpt lat="47.28543" lon="-2.40742">
        <ele>0.80000001192093</ele>
        <time>2020-02-09T08:55:16.000Z</time>
      </trkpt>
      <trkpt lat="47.28533" lon="-2.4076">
        <ele>0.80000001192093</ele>
        <time>2020-02-09T08:55:19.000Z</time>
      </trkpt>
      <trkpt lat="47.28525" lon="-2.40772">
        <ele>0.80000001192093</ele>
        <time>2020-02-09T08:55:21.000Z</time>
      </trkpt>
      <trkpt lat="47.28517" lon="-2.40784">
        <ele>0.20000000298023</ele>
        <time>2020-02-09T08:55:23.000Z</time>
      </trkpt>
      <trkpt lat="47.28514" lon="-2.4079">
        <ele>-0.20000000298023</ele>
        <time>2020-02-09T08:55:24.000Z</time>
      </trkpt>
      <trkpt lat="47.2851" lon="-2.40795">
        <ele>-0.60000002384186</ele>
        <time>2020-02-09T08:55:25.000Z</time>
      </trkpt>
      <trkpt lat="47.28506" lon="-2.408">
        <ele>-1</ele>
        <time>2020-02-09T08:55:26.000Z</time>
      </trkpt>
      <trkpt lat="47.28503" lon="-2.40805">
        <ele>-1.3999999761581</ele>
        <time>2020-02-09T08:55:27.000Z</time>
      </trkpt>
      <trkpt lat="47.28491" lon="-2.40825">
        <ele>-1.3999999761581</ele>
        <time>2020-02-09T08:55:31.000Z</time>
      </trkpt>
      <trkpt lat="47.28472" lon="-2.40854">
        <ele>-1.3999999761581</ele>
        <time>2020-02-09T08:55:37.000Z</time>
      </trkpt>
      <trkpt lat="47.28468" lon="-2.40858">
        <ele>-1.3999999761581</ele>
        <time>2020-02-09T08:55:38.000Z</time>
      </trkpt>
      <trkpt lat="47.28458" lon="-2.40874">
        <ele>-1.3999999761581</ele>
        <time>2020-02-09T08:55:41.000Z</time>
      </trkpt>
      <trkpt lat="47.28451" lon="-2.40885">
        <ele>-1.3999999761581</ele>
        <time>2020-02-09T08:55:43.000Z</time>
      </trkpt>
      <trkpt lat="47.28433" lon="-2.40917">
        <ele>-1.3999999761581</ele>
        <time>2020-02-09T08:55:50.000Z</time>
      </trkpt>
      <trkpt lat="47.28429" lon="-2.40929">
        <ele>-1.3999999761581</ele>
        <time>2020-02-09T08:55:52.000Z</time>
      </trkpt>
      <trkpt lat="47.28422" lon="-2.40955">
        <ele>-1.3999999761581</ele>
        <time>2020-02-09T08:55:56.000Z</time>
      </trkpt>
      <trkpt lat="47.28404" lon="-2.41027">
        <ele>-1.3999999761581</ele>
        <time>2020-02-09T08:56:06.000Z</time>
      </trkpt>
      <trkpt lat="47.2839" lon="-2.41081">
        <ele>-1.3999999761581</ele>
        <time>2020-02-09T08:56:14.000Z</time>
      </trkpt>
      <trkpt lat="47.28379" lon="-2.41119">
        <ele>-1.3999999761581</ele>
        <time>2020-02-09T08:56:20.000Z</time>
      </trkpt>
      <trkpt lat="47.28373" lon="-2.41149">
        <ele>-1.3999999761581</ele>
        <time>2020-02-09T08:56:26.000Z</time>
      </trkpt>
      <trkpt lat="47.28376" lon="-2.41156">
        <ele>-1.3999999761581</ele>
        <time>2020-02-09T08:56:28.000Z</time>
      </trkpt>
      <trkpt lat="47.28379" lon="-2.4116">
        <ele>-1.3999999761581</ele>
        <time>2020-02-09T08:56:29.000Z</time>
      </trkpt>
      <trkpt lat="47.28382" lon="-2.41183">
        <ele>-1.3999999761581</ele>
        <time>2020-02-09T08:56:33.000Z</time>
      </trkpt>
      <trkpt lat="47.28387" lon="-2.41199">
        <ele>-1.3999999761581</ele>
        <time>2020-02-09T08:56:36.000Z</time>
      </trkpt>
      <trkpt lat="47.28389" lon="-2.41202">
        <ele>-1.3999999761581</ele>
        <time>2020-02-09T08:56:37.000Z</time>
      </trkpt>
      <trkpt lat="47.28405" lon="-2.41215">
        <ele>-1.3999999761581</ele>
        <time>2020-02-09T08:56:43.000Z</time>
      </trkpt>
      <trkpt lat="47.28405" lon="-2.41219">
        <ele>-1.3999999761581</ele>
        <time>2020-02-09T08:56:44.000Z</time>
      </trkpt>
      <trkpt lat="47.28406" lon="-2.41225">
        <ele>-1.3999999761581</ele>
        <time>2020-02-09T08:56:46.000Z</time>
      </trkpt>
      <trkpt lat="47.28405" lon="-2.41229">
        <ele>-1.3999999761581</ele>
        <time>2020-02-09T08:56:47.000Z</time>
      </trkpt>
      <trkpt lat="47.28405" lon="-2.41234">
        <ele>-1.3999999761581</ele>
        <time>2020-02-09T08:56:48.000Z</time>
      </trkpt>
      <trkpt lat="47.2841" lon="-2.41241">
        <ele>-1.3999999761581</ele>
        <time>2020-02-09T08:56:50.000Z</time>
      </trkpt>
      <trkpt lat="47.28427" lon="-2.41253">
        <ele>-1.3999999761581</ele>
        <time>2020-02-09T08:56:54.000Z</time>
      </trkpt>
      <trkpt lat="47.28448" lon="-2.41266">
        <ele>-1.3999999761581</ele>
        <time>2020-02-09T08:56:59.000Z</time>
      </trkpt>
      <trkpt lat="47.2845" lon="-2.4127">
        <ele>-1.3999999761581</ele>
        <time>2020-02-09T08:57:00.000Z</time>
      </trkpt>
      <trkpt lat="47.28455" lon="-2.41292">
        <ele>-1.3999999761581</ele>
        <time>2020-02-09T08:57:04.000Z</time>
      </trkpt>
      <trkpt lat="47.28455" lon="-2.41298">
        <ele>-1.3999999761581</ele>
        <time>2020-02-09T08:57:05.000Z</time>
      </trkpt>
      <trkpt lat="47.28454" lon="-2.4131">
        <ele>-1.3999999761581</ele>
        <time>2020-02-09T08:57:07.000Z</time>
      </trkpt>
      <trkpt lat="47.28451" lon="-2.41323">
        <ele>-1.3999999761581</ele>
        <time>2020-02-09T08:57:09.000Z</time>
      </trkpt>
      <trkpt lat="47.28441" lon="-2.41368">
        <ele>-1.3999999761581</ele>
        <time>2020-02-09T08:57:16.000Z</time>
      </trkpt>
      <trkpt lat="47.28438" lon="-2.4138">
        <ele>-1.3999999761581</ele>
        <time>2020-02-09T08:57:18.000Z</time>
      </trkpt>
      <trkpt lat="47.2843" lon="-2.41405">
        <ele>-1.3999999761581</ele>
        <time>2020-02-09T08:57:22.000Z</time>
      </trkpt>
      <trkpt lat="47.28423" lon="-2.41431">
        <ele>-1.3999999761581</ele>
        <time>2020-02-09T08:57:26.000Z</time>
      </trkpt>
      <trkpt lat="47.28419" lon="-2.41452">
        <ele>-1.3999999761581</ele>
        <time>2020-02-09T08:57:29.000Z</time>
      </trkpt>
      <trkpt lat="47.28413" lon="-2.41507">
        <ele>-1.3999999761581</ele>
        <time>2020-02-09T08:57:37.000Z</time>
      </trkpt>
      <trkpt lat="47.28408" lon="-2.41556">
        <ele>-1.3999999761581</ele>
        <time>2020-02-09T08:57:44.000Z</time>
      </trkpt>
      <trkpt lat="47.28401" lon="-2.41595">
        <ele>-1.3999999761581</ele>
        <time>2020-02-09T08:57:50.000Z</time>
      </trkpt>
      <trkpt lat="47.28395" lon="-2.41628">
        <ele>-1.3999999761581</ele>
        <time>2020-02-09T08:57:57.000Z</time>
      </trkpt>
      <trkpt lat="47.28387" lon="-2.41645">
        <ele>-1.3999999761581</ele>
        <time>2020-02-09T08:58:02.000Z</time>
      </trkpt>
      <trkpt lat="47.28382" lon="-2.41664">
        <ele>-1.3999999761581</ele>
        <time>2020-02-09T08:58:06.000Z</time>
      </trkpt>
      <trkpt lat="47.28374" lon="-2.41697">
        <ele>-1.3999999761581</ele>
        <time>2020-02-09T08:58:12.000Z</time>
      </trkpt>
      <trkpt lat="47.28363" lon="-2.41728">
        <ele>-1.3999999761581</ele>
        <time>2020-02-09T08:58:17.000Z</time>
      </trkpt>
      <trkpt lat="47.28354" lon="-2.4176">
        <ele>-1.3999999761581</ele>
        <time>2020-02-09T08:58:22.000Z</time>
      </trkpt>
      <trkpt lat="47.28352" lon="-2.41766">
        <ele>-1.3999999761581</ele>
        <time>2020-02-09T08:58:23.000Z</time>
      </trkpt>
      <trkpt lat="47.2834" lon="-2.41806">
        <ele>-1.3999999761581</ele>
        <time>2020-02-09T08:58:29.000Z</time>
      </trkpt>
      <trkpt lat="47.2833" lon="-2.41835">
        <ele>-1.3999999761581</ele>
        <time>2020-02-09T08:58:34.000Z</time>
      </trkpt>
      <trkpt lat="47.28321" lon="-2.41857">
        <ele>-1.3999999761581</ele>
        <time>2020-02-09T08:58:38.000Z</time>
      </trkpt>
      <trkpt lat="47.28317" lon="-2.41873">
        <ele>-1.3999999761581</ele>
        <time>2020-02-09T08:58:41.000Z</time>
      </trkpt>
      <trkpt lat="47.28313" lon="-2.41905">
        <ele>-1.3999999761581</ele>
        <time>2020-02-09T08:58:47.000Z</time>
      </trkpt>
      <trkpt lat="47.28307" lon="-2.41938">
        <ele>-1.3999999761581</ele>
        <time>2020-02-09T08:58:53.000Z</time>
      </trkpt>
      <trkpt lat="47.28302" lon="-2.41958">
        <ele>-1.3999999761581</ele>
        <time>2020-02-09T08:58:57.000Z</time>
      </trkpt>
      <trkpt lat="47.28302" lon="-2.41979">
        <ele>-1.3999999761581</ele>
        <time>2020-02-09T08:59:01.000Z</time>
      </trkpt>
      <trkpt lat="47.28304" lon="-2.41984">
        <ele>-1.3999999761581</ele>
        <time>2020-02-09T08:59:02.000Z</time>
      </trkpt>
      <trkpt lat="47.28308" lon="-2.41994">
        <ele>-1.3999999761581</ele>
        <time>2020-02-09T08:59:04.000Z</time>
      </trkpt>
      <trkpt lat="47.28309" lon="-2.42011">
        <ele>-1.3999999761581</ele>
        <time>2020-02-09T08:59:07.000Z</time>
      </trkpt>
      <trkpt lat="47.28305" lon="-2.42061">
        <ele>-1.3999999761581</ele>
        <time>2020-02-09T08:59:15.000Z</time>
      </trkpt>
      <trkpt lat="47.28297" lon="-2.42115">
        <ele>-1.3999999761581</ele>
        <time>2020-02-09T08:59:23.000Z</time>
      </trkpt>
      <trkpt lat="47.28288" lon="-2.42173">
        <ele>-1.3999999761581</ele>
        <time>2020-02-09T08:59:32.000Z</time>
      </trkpt>
      <trkpt lat="47.28282" lon="-2.42221">
        <ele>-1.3999999761581</ele>
        <time>2020-02-09T08:59:39.000Z</time>
      </trkpt>
      <trkpt lat="47.2828" lon="-2.42227">
        <ele>-1.3999999761581</ele>
        <time>2020-02-09T08:59:40.000Z</time>
      </trkpt>
      <trkpt lat="47.28276" lon="-2.42259">
        <ele>-1.3999999761581</ele>
        <time>2020-02-09T08:59:45.000Z</time>
      </trkpt>
      <trkpt lat="47.28269" lon="-2.4231">
        <ele>-1.3999999761581</ele>
        <time>2020-02-09T08:59:53.000Z</time>
      </trkpt>
      <trkpt lat="47.28268" lon="-2.42322">
        <ele>-1.3999999761581</ele>
        <time>2020-02-09T08:59:55.000Z</time>
      </trkpt>
      <trkpt lat="47.28266" lon="-2.42349">
        <ele>-1.3999999761581</ele>
        <time>2020-02-09T08:59:59.000Z</time>
      </trkpt>
      <trkpt lat="47.28258" lon="-2.42401">
        <ele>-1.3999999761581</ele>
        <time>2020-02-09T09:00:07.000Z</time>
      </trkpt>
      <trkpt lat="47.28244" lon="-2.42449">
        <ele>-1.3999999761581</ele>
        <time>2020-02-09T09:00:15.000Z</time>
      </trkpt>
      <trkpt lat="47.28222" lon="-2.42491">
        <ele>-1.3999999761581</ele>
        <time>2020-02-09T09:00:23.000Z</time>
      </trkpt>
      <trkpt lat="47.28202" lon="-2.42523">
        <ele>-1.3999999761581</ele>
        <time>2020-02-09T09:00:30.000Z</time>
      </trkpt>
      <trkpt lat="47.28199" lon="-2.42527">
        <ele>-1.3999999761581</ele>
        <time>2020-02-09T09:00:31.000Z</time>
      </trkpt>
      <trkpt lat="47.28188" lon="-2.42534">
        <ele>-1.3999999761581</ele>
        <time>2020-02-09T09:00:34.000Z</time>
      </trkpt>
      <trkpt lat="47.28176" lon="-2.42533">
        <ele>-1.3999999761581</ele>
        <time>2020-02-09T09:00:37.000Z</time>
      </trkpt>
      <trkpt lat="47.28164" lon="-2.42534">
        <ele>-1.3999999761581</ele>
        <time>2020-02-09T09:00:40.000Z</time>
      </trkpt>
      <trkpt lat="47.28156" lon="-2.42535">
        <ele>-1.3999999761581</ele>
        <time>2020-02-09T09:00:42.000Z</time>
      </trkpt>
      <trkpt lat="47.2814" lon="-2.4254">
        <ele>-1.3999999761581</ele>
        <time>2020-02-09T09:00:46.000Z</time>
      </trkpt>
      <trkpt lat="47.28114" lon="-2.42547">
        <ele>-1.3999999761581</ele>
        <time>2020-02-09T09:00:53.000Z</time>
      </trkpt>
      <trkpt lat="47.281" lon="-2.42551">
        <ele>-1.3999999761581</ele>
        <time>2020-02-09T09:00:58.000Z</time>
      </trkpt>
      <trkpt lat="47.28092" lon="-2.4256">
        <ele>-1.3999999761581</ele>
        <time>2020-02-09T09:01:03.000Z</time>
      </trkpt>
      <trkpt lat="47.28088" lon="-2.42562">
        <ele>-1.3999999761581</ele>
        <time>2020-02-09T09:01:05.000Z</time>
      </trkpt>
      <trkpt lat="47.28083" lon="-2.42563">
        <ele>-1.3999999761581</ele>
        <time>2020-02-09T09:01:07.000Z</time>
      </trkpt>
      <trkpt lat="47.28073" lon="-2.42578">
        <ele>-1.3999999761581</ele>
        <time>2020-02-09T09:01:11.000Z</time>
      </trkpt>
      <trkpt lat="47.2807" lon="-2.42583">
        <ele>-1.3999999761581</ele>
        <time>2020-02-09T09:01:12.000Z</time>
      </trkpt>
      <trkpt lat="47.28054" lon="-2.42597">
        <ele>-1.3999999761581</ele>
        <time>2020-02-09T09:01:16.000Z</time>
      </trkpt>
      <trkpt lat="47.28031" lon="-2.42609">
        <ele>-1.3999999761581</ele>
        <time>2020-02-09T09:01:21.000Z</time>
      </trkpt>
      <trkpt lat="47.28023" lon="-2.42616">
        <ele>-1.3999999761581</ele>
        <time>2020-02-09T09:01:23.000Z</time>
      </trkpt>
      <trkpt lat="47.28018" lon="-2.42619">
        <ele>-1.3999999761581</ele>
        <time>2020-02-09T09:01:24.000Z</time>
      </trkpt>
      <trkpt lat="47.27998" lon="-2.42635">
        <ele>-1.3999999761581</ele>
        <time>2020-02-09T09:01:29.000Z</time>
      </trkpt>
      <trkpt lat="47.27981" lon="-2.42643">
        <ele>-1.3999999761581</ele>
        <time>2020-02-09T09:01:33.000Z</time>
      </trkpt>
      <trkpt lat="47.27969" lon="-2.42648">
        <ele>-1.3999999761581</ele>
        <time>2020-02-09T09:01:36.000Z</time>
      </trkpt>
      <trkpt lat="47.27956" lon="-2.42652">
        <ele>-1.3999999761581</ele>
        <time>2020-02-09T09:01:39.000Z</time>
      </trkpt>
      <trkpt lat="47.27952" lon="-2.42655">
        <ele>-1.3999999761581</ele>
        <time>2020-02-09T09:01:40.000Z</time>
      </trkpt>
      <trkpt lat="47.2794" lon="-2.42662">
        <ele>-1.3999999761581</ele>
        <time>2020-02-09T09:01:43.000Z</time>
      </trkpt>
      <trkpt lat="47.27936" lon="-2.42665">
        <ele>-1.3999999761581</ele>
        <time>2020-02-09T09:01:44.000Z</time>
      </trkpt>
      <trkpt lat="47.27933" lon="-2.42667">
        <ele>-1.3999999761581</ele>
        <time>2020-02-09T09:01:45.000Z</time>
      </trkpt>
      <trkpt lat="47.27912" lon="-2.42686">
        <ele>-1.3999999761581</ele>
        <time>2020-02-09T09:01:52.000Z</time>
      </trkpt>
      <trkpt lat="47.27891" lon="-2.42698">
        <ele>-1.3999999761581</ele>
        <time>2020-02-09T09:01:57.000Z</time>
      </trkpt>
      <trkpt lat="47.27862" lon="-2.42712">
        <ele>-1.3999999761581</ele>
        <time>2020-02-09T09:02:04.000Z</time>
      </trkpt>
      <trkpt lat="47.27841" lon="-2.42721">
        <ele>-1.3999999761581</ele>
        <time>2020-02-09T09:02:10.000Z</time>
      </trkpt>
      <trkpt lat="47.27831" lon="-2.42723">
        <ele>-1.3999999761581</ele>
        <time>2020-02-09T09:02:15.000Z</time>
      </trkpt>
      <trkpt lat="47.27831" lon="-2.42724">
        <ele>-1.3999999761581</ele>
        <time>2020-02-09T09:02:16.000Z</time>
      </trkpt>
      <trkpt lat="47.2783" lon="-2.4273">
        <ele>-1.3999999761581</ele>
        <time>2020-02-09T09:02:18.000Z</time>
      </trkpt>
      <trkpt lat="47.27831" lon="-2.42752">
        <ele>-1.3999999761581</ele>
        <time>2020-02-09T09:02:23.000Z</time>
      </trkpt>
      <trkpt lat="47.27832" lon="-2.42798">
        <ele>-1.3999999761581</ele>
        <time>2020-02-09T09:02:31.000Z</time>
      </trkpt>
      <trkpt lat="47.27821" lon="-2.42821">
        <ele>-1.3999999761581</ele>
        <time>2020-02-09T09:02:36.000Z</time>
      </trkpt>
      <trkpt lat="47.27809" lon="-2.42823">
        <ele>-1.3999999761581</ele>
        <time>2020-02-09T09:02:39.000Z</time>
      </trkpt>
      <trkpt lat="47.27801" lon="-2.42824">
        <ele>-1.3999999761581</ele>
        <time>2020-02-09T09:02:41.000Z</time>
      </trkpt>
      <trkpt lat="47.2779" lon="-2.42822">
        <ele>-1.3999999761581</ele>
        <time>2020-02-09T09:02:44.000Z</time>
      </trkpt>
      <trkpt lat="47.27767" lon="-2.42816">
        <ele>-1.3999999761581</ele>
        <time>2020-02-09T09:02:51.000Z</time>
      </trkpt>
      <trkpt lat="47.27766" lon="-2.42809">
        <ele>-1.3999999761581</ele>
        <time>2020-02-09T09:02:54.000Z</time>
      </trkpt>
      <trkpt lat="47.27765" lon="-2.42808">
        <ele>-1.3999999761581</ele>
        <time>2020-02-09T09:03:04.000Z</time>
      </trkpt>
      <trkpt lat="47.27752" lon="-2.42807">
        <ele>-1.3999999761581</ele>
        <time>2020-02-09T09:03:10.000Z</time>
      </trkpt>
      <trkpt lat="47.27734" lon="-2.42808">
        <ele>-1.3999999761581</ele>
        <time>2020-02-09T09:03:15.000Z</time>
      </trkpt>
      <trkpt lat="47.27712" lon="-2.42802">
        <ele>-1.3999999761581</ele>
        <time>2020-02-09T09:03:20.000Z</time>
      </trkpt>
      <trkpt lat="47.2769" lon="-2.42795">
        <ele>-1.3999999761581</ele>
        <time>2020-02-09T09:03:25.000Z</time>
      </trkpt>
      <trkpt lat="47.27686" lon="-2.42793">
        <ele>-1.3999999761581</ele>
        <time>2020-02-09T09:03:26.000Z</time>
      </trkpt>
      <trkpt lat="47.27664" lon="-2.42777">
        <ele>-1.3999999761581</ele>
        <time>2020-02-09T09:03:31.000Z</time>
      </trkpt>
      <trkpt lat="47.27656" lon="-2.42769">
        <ele>-1.3999999761581</ele>
        <time>2020-02-09T09:03:33.000Z</time>
      </trkpt>
      <trkpt lat="47.27623" lon="-2.42734">
        <ele>-1.3999999761581</ele>
        <time>2020-02-09T09:03:41.000Z</time>
      </trkpt>
      <trkpt lat="47.27587" lon="-2.42692">
        <ele>-1.3999999761581</ele>
        <time>2020-02-09T09:03:50.000Z</time>
      </trkpt>
      <trkpt lat="47.27581" lon="-2.42683">
        <ele>-1.3999999761581</ele>
        <time>2020-02-09T09:03:52.000Z</time>
      </trkpt>
      <trkpt lat="47.2757" lon="-2.42671">
        <ele>-1.3999999761581</ele>
        <time>2020-02-09T09:03:55.000Z</time>
      </trkpt>
      <trkpt lat="47.27567" lon="-2.42667">
        <ele>-1.3999999761581</ele>
        <time>2020-02-09T09:03:56.000Z</time>
      </trkpt>
      <trkpt lat="47.27554" lon="-2.4265">
        <ele>-1.3999999761581</ele>
        <time>2020-02-09T09:04:00.000Z</time>
      </trkpt>
      <trkpt lat="47.2755" lon="-2.42647">
        <ele>-1.3999999761581</ele>
        <time>2020-02-09T09:04:01.000Z</time>
      </trkpt>
      <trkpt lat="47.2754" lon="-2.42636">
        <ele>-1.3999999761581</ele>
        <time>2020-02-09T09:04:04.000Z</time>
      </trkpt>
      <trkpt lat="47.27533" lon="-2.42628">
        <ele>-1.3999999761581</ele>
        <time>2020-02-09T09:04:06.000Z</time>
      </trkpt>
      <trkpt lat="47.27513" lon="-2.42607">
        <ele>-1.3999999761581</ele>
        <time>2020-02-09T09:04:11.000Z</time>
      </trkpt>
      <trkpt lat="47.27505" lon="-2.42599">
        <ele>-1.3999999761581</ele>
        <time>2020-02-09T09:04:13.000Z</time>
      </trkpt>
      <trkpt lat="47.27495" lon="-2.42587">
        <ele>-1.3999999761581</ele>
        <time>2020-02-09T09:04:16.000Z</time>
      </trkpt>
      <trkpt lat="47.27484" lon="-2.42575">
        <ele>-1.3999999761581</ele>
        <time>2020-02-09T09:04:19.000Z</time>
      </trkpt>
      <trkpt lat="47.27481" lon="-2.42571">
        <ele>-1.3999999761581</ele>
        <time>2020-02-09T09:04:20.000Z</time>
      </trkpt>
      <trkpt lat="47.27462" lon="-2.4255">
        <ele>-1.3999999761581</ele>
        <time>2020-02-09T09:04:26.000Z</time>
      </trkpt>
      <trkpt lat="47.27446" lon="-2.42532">
        <ele>-1.3999999761581</ele>
        <time>2020-02-09T09:04:31.000Z</time>
      </trkpt>
      <trkpt lat="47.27439" lon="-2.42525">
        <ele>-1.3999999761581</ele>
        <time>2020-02-09T09:04:33.000Z</time>
      </trkpt>
      <trkpt lat="47.27428" lon="-2.42515">
        <ele>-1.3999999761581</ele>
        <time>2020-02-09T09:04:36.000Z</time>
      </trkpt>
      <trkpt lat="47.27417" lon="-2.42504">
        <ele>-1.3999999761581</ele>
        <time>2020-02-09T09:04:39.000Z</time>
      </trkpt>
      <trkpt lat="47.27392" lon="-2.42477">
        <ele>-1.3999999761581</ele>
        <time>2020-02-09T09:04:46.000Z</time>
      </trkpt>
      <trkpt lat="47.27373" lon="-2.42457">
        <ele>-1.3999999761581</ele>
        <time>2020-02-09T09:04:52.000Z</time>
      </trkpt>
      <trkpt lat="47.27371" lon="-2.42457">
        <ele>-1.3999999761581</ele>
        <time>2020-02-09T09:04:53.000Z</time>
      </trkpt>
      <trkpt lat="47.27362" lon="-2.42464">
        <ele>-1.3999999761581</ele>
        <time>2020-02-09T09:04:56.000Z</time>
      </trkpt>
      <trkpt lat="47.2735" lon="-2.42478">
        <ele>-1.3999999761581</ele>
        <time>2020-02-09T09:05:01.000Z</time>
      </trkpt>
      <trkpt lat="47.27347" lon="-2.42481">
        <ele>-1.3999999761581</ele>
        <time>2020-02-09T09:05:02.000Z</time>
      </trkpt>
      <trkpt lat="47.27333" lon="-2.42492">
        <ele>-1.3999999761581</ele>
        <time>2020-02-09T09:05:06.000Z</time>
      </trkpt>
      <trkpt lat="47.27325" lon="-2.42498">
        <ele>-1.3999999761581</ele>
        <time>2020-02-09T09:05:08.000Z</time>
      </trkpt>
      <trkpt lat="47.27316" lon="-2.42502">
        <ele>-1.3999999761581</ele>
        <time>2020-02-09T09:05:10.000Z</time>
      </trkpt>
      <trkpt lat="47.27292" lon="-2.42509">
        <ele>-1.3999999761581</ele>
        <time>2020-02-09T09:05:15.000Z</time>
      </trkpt>
      <trkpt lat="47.27258" lon="-2.42519">
        <ele>-1.3999999761581</ele>
        <time>2020-02-09T09:05:22.000Z</time>
      </trkpt>
      <trkpt lat="47.27223" lon="-2.42527">
        <ele>-1.3999999761581</ele>
        <time>2020-02-09T09:05:30.000Z</time>
      </trkpt>
      <trkpt lat="47.27199" lon="-2.42528">
        <ele>-1.3999999761581</ele>
        <time>2020-02-09T09:05:36.000Z</time>
      </trkpt>
      <trkpt lat="47.27178" lon="-2.42529">
        <ele>-1.3999999761581</ele>
        <time>2020-02-09T09:05:41.000Z</time>
      </trkpt>
      <trkpt lat="47.27164" lon="-2.42528">
        <ele>-1</ele>
        <time>2020-02-09T09:05:44.000Z</time>
      </trkpt>
      <trkpt lat="47.27159" lon="-2.42528">
        <ele>-0.60000002384186</ele>
        <time>2020-02-09T09:05:45.000Z</time>
      </trkpt>
      <trkpt lat="47.27155" lon="-2.42527">
        <ele>-0.20000000298023</ele>
        <time>2020-02-09T09:05:46.000Z</time>
      </trkpt>
      <trkpt lat="47.2715" lon="-2.42527">
        <ele>0.20000000298023</ele>
        <time>2020-02-09T09:05:47.000Z</time>
      </trkpt>
      <trkpt lat="47.27146" lon="-2.42527">
        <ele>0.60000002384186</ele>
        <time>2020-02-09T09:05:48.000Z</time>
      </trkpt>
      <trkpt lat="47.2712" lon="-2.42525">
        <ele>0.60000002384186</ele>
        <time>2020-02-09T09:05:55.000Z</time>
      </trkpt>
      <trkpt lat="47.27098" lon="-2.42519">
        <ele>0.60000002384186</ele>
        <time>2020-02-09T09:06:02.000Z</time>
      </trkpt>
      <trkpt lat="47.27076" lon="-2.42508">
        <ele>0.60000002384186</ele>
        <time>2020-02-09T09:06:08.000Z</time>
      </trkpt>
      <trkpt lat="47.2705" lon="-2.42491">
        <ele>0.60000002384186</ele>
        <time>2020-02-09T09:06:16.000Z</time>
      </trkpt>
      <trkpt lat="47.27041" lon="-2.42476">
        <ele>0.60000002384186</ele>
        <time>2020-02-09T09:06:20.000Z</time>
      </trkpt>
      <trkpt lat="47.27037" lon="-2.42466">
        <ele>0.60000002384186</ele>
        <time>2020-02-09T09:06:23.000Z</time>
      </trkpt>
      <trkpt lat="47.27036" lon="-2.42462">
        <ele>0.60000002384186</ele>
        <time>2020-02-09T09:06:24.000Z</time>
      </trkpt>
      <trkpt lat="47.27034" lon="-2.42443">
        <ele>0.60000002384186</ele>
        <time>2020-02-09T09:06:29.000Z</time>
      </trkpt>
      <trkpt lat="47.27023" lon="-2.42427">
        <ele>0.60000002384186</ele>
        <time>2020-02-09T09:06:34.000Z</time>
      </trkpt>
      <trkpt lat="47.27002" lon="-2.42396">
        <ele>0.60000002384186</ele>
        <time>2020-02-09T09:06:41.000Z</time>
      </trkpt>
      <trkpt lat="47.26996" lon="-2.42386">
        <ele>0.60000002384186</ele>
        <time>2020-02-09T09:06:43.000Z</time>
      </trkpt>
      <trkpt lat="47.26982" lon="-2.42371">
        <ele>0.60000002384186</ele>
        <time>2020-02-09T09:06:47.000Z</time>
      </trkpt>
      <trkpt lat="47.26952" lon="-2.42347">
        <ele>0.60000002384186</ele>
        <time>2020-02-09T09:06:55.000Z</time>
      </trkpt>
      <trkpt lat="47.26934" lon="-2.42335">
        <ele>0.60000002384186</ele>
        <time>2020-02-09T09:07:00.000Z</time>
      </trkpt>
      <trkpt lat="47.26919" lon="-2.42338">
        <ele>0.60000002384186</ele>
        <time>2020-02-09T09:07:04.000Z</time>
      </trkpt>
      <trkpt lat="47.26915" lon="-2.4234">
        <ele>0.60000002384186</ele>
        <time>2020-02-09T09:07:05.000Z</time>
      </trkpt>
      <trkpt lat="47.26911" lon="-2.42342">
        <ele>0.60000002384186</ele>
        <time>2020-02-09T09:07:06.000Z</time>
      </trkpt>
      <trkpt lat="47.26895" lon="-2.42347">
        <ele>0.60000002384186</ele>
        <time>2020-02-09T09:07:10.000Z</time>
      </trkpt>
      <trkpt lat="47.26874" lon="-2.42339">
        <ele>0.60000002384186</ele>
        <time>2020-02-09T09:07:15.000Z</time>
      </trkpt>
      <trkpt lat="47.2687" lon="-2.42337">
        <ele>0.60000002384186</ele>
        <time>2020-02-09T09:07:16.000Z</time>
      </trkpt>
      <trkpt lat="47.26845" lon="-2.42324">
        <ele>0.60000002384186</ele>
        <time>2020-02-09T09:07:22.000Z</time>
      </trkpt>
      <trkpt lat="47.26825" lon="-2.42316">
        <ele>0.60000002384186</ele>
        <time>2020-02-09T09:07:27.000Z</time>
      </trkpt>
      <trkpt lat="47.26821" lon="-2.42314">
        <ele>0.60000002384186</ele>
        <time>2020-02-09T09:07:28.000Z</time>
      </trkpt>
      <trkpt lat="47.26806" lon="-2.42301">
        <ele>0.60000002384186</ele>
        <time>2020-02-09T09:07:32.000Z</time>
      </trkpt>
      <trkpt lat="47.26799" lon="-2.42291">
        <ele>0.60000002384186</ele>
        <time>2020-02-09T09:07:34.000Z</time>
      </trkpt>
      <trkpt lat="47.2678" lon="-2.42273">
        <ele>0.60000002384186</ele>
        <time>2020-02-09T09:07:39.000Z</time>
      </trkpt>
      <trkpt lat="47.26758" lon="-2.4226">
        <ele>0.60000002384186</ele>
        <time>2020-02-09T09:07:45.000Z</time>
      </trkpt>
      <trkpt lat="47.26737" lon="-2.42245">
        <ele>0.60000002384186</ele>
        <time>2020-02-09T09:07:51.000Z</time>
      </trkpt>
      <trkpt lat="47.26733" lon="-2.42243">
        <ele>0.60000002384186</ele>
        <time>2020-02-09T09:07:52.000Z</time>
      </trkpt>
      <trkpt lat="47.26717" lon="-2.42233">
        <ele>0.60000002384186</ele>
        <time>2020-02-09T09:07:56.000Z</time>
      </trkpt>
      <trkpt lat="47.26698" lon="-2.42224">
        <ele>0.60000002384186</ele>
        <time>2020-02-09T09:08:00.000Z</time>
      </trkpt>
      <trkpt lat="47.26689" lon="-2.42219">
        <ele>0.60000002384186</ele>
        <time>2020-02-09T09:08:02.000Z</time>
      </trkpt>
      <trkpt lat="47.26668" lon="-2.42205">
        <ele>0.60000002384186</ele>
        <time>2020-02-09T09:08:07.000Z</time>
      </trkpt>
      <trkpt lat="47.26648" lon="-2.42183">
        <ele>0.60000002384186</ele>
        <time>2020-02-09T09:08:12.000Z</time>
      </trkpt>
      <trkpt lat="47.26634" lon="-2.42173">
        <ele>0.60000002384186</ele>
        <time>2020-02-09T09:08:16.000Z</time>
      </trkpt>
      <trkpt lat="47.26625" lon="-2.42164">
        <ele>0.60000002384186</ele>
        <time>2020-02-09T09:08:19.000Z</time>
      </trkpt>
      <trkpt lat="47.26618" lon="-2.42158">
        <ele>0.60000002384186</ele>
        <time>2020-02-09T09:08:21.000Z</time>
      </trkpt>
      <trkpt lat="47.26604" lon="-2.42145">
        <ele>0.60000002384186</ele>
        <time>2020-02-09T09:08:25.000Z</time>
      </trkpt>
      <trkpt lat="47.26593" lon="-2.42137">
        <ele>0.60000002384186</ele>
        <time>2020-02-09T09:08:28.000Z</time>
      </trkpt>
      <trkpt lat="47.26587" lon="-2.42128">
        <ele>0.60000002384186</ele>
        <time>2020-02-09T09:08:30.000Z</time>
      </trkpt>
      <trkpt lat="47.26582" lon="-2.42117">
        <ele>0.60000002384186</ele>
        <time>2020-02-09T09:08:32.000Z</time>
      </trkpt>
      <trkpt lat="47.26577" lon="-2.42105">
        <ele>0.60000002384186</ele>
        <time>2020-02-09T09:08:34.000Z</time>
      </trkpt>
      <trkpt lat="47.26573" lon="-2.42095">
        <ele>0.60000002384186</ele>
        <time>2020-02-09T09:08:36.000Z</time>
      </trkpt>
      <trkpt lat="47.26571" lon="-2.42082">
        <ele>0.60000002384186</ele>
        <time>2020-02-09T09:08:38.000Z</time>
      </trkpt>
      <trkpt lat="47.2657" lon="-2.42064">
        <ele>0.60000002384186</ele>
        <time>2020-02-09T09:08:41.000Z</time>
      </trkpt>
      <trkpt lat="47.2657" lon="-2.42047">
        <ele>0.60000002384186</ele>
        <time>2020-02-09T09:08:44.000Z</time>
      </trkpt>
      <trkpt lat="47.26564" lon="-2.42014">
        <ele>0.60000002384186</ele>
        <time>2020-02-09T09:08:50.000Z</time>
      </trkpt>
      <trkpt lat="47.26549" lon="-2.41982">
        <ele>0.60000002384186</ele>
        <time>2020-02-09T09:08:57.000Z</time>
      </trkpt>
      <trkpt lat="47.26532" lon="-2.4196">
        <ele>0.60000002384186</ele>
        <time>2020-02-09T09:09:03.000Z</time>
      </trkpt>
      <trkpt lat="47.26512" lon="-2.41946">
        <ele>0.60000002384186</ele>
        <time>2020-02-09T09:09:09.000Z</time>
      </trkpt>
      <trkpt lat="47.26492" lon="-2.41926">
        <ele>0.60000002384186</ele>
        <time>2020-02-09T09:09:15.000Z</time>
      </trkpt>
      <trkpt lat="47.26484" lon="-2.41921">
        <ele>0.60000002384186</ele>
        <time>2020-02-09T09:09:17.000Z</time>
      </trkpt>
      <trkpt lat="47.26474" lon="-2.41913">
        <ele>0.60000002384186</ele>
        <time>2020-02-09T09:09:20.000Z</time>
      </trkpt>
      <trkpt lat="47.26471" lon="-2.41911">
        <ele>0.60000002384186</ele>
        <time>2020-02-09T09:09:21.000Z</time>
      </trkpt>
      <trkpt lat="47.26463" lon="-2.41907">
        <ele>0.60000002384186</ele>
        <time>2020-02-09T09:09:23.000Z</time>
      </trkpt>
      <trkpt lat="47.26452" lon="-2.41903">
        <ele>0.60000002384186</ele>
        <time>2020-02-09T09:09:26.000Z</time>
      </trkpt>
      <trkpt lat="47.26435" lon="-2.41891">
        <ele>0.60000002384186</ele>
        <time>2020-02-09T09:09:32.000Z</time>
      </trkpt>
      <trkpt lat="47.26421" lon="-2.41885">
        <ele>0.60000002384186</ele>
        <time>2020-02-09T09:09:37.000Z</time>
      </trkpt>
      <trkpt lat="47.26413" lon="-2.41881">
        <ele>0.60000002384186</ele>
        <time>2020-02-09T09:09:43.000Z</time>
      </trkpt>
      <trkpt lat="47.26412" lon="-2.4188">
        <ele>0.60000002384186</ele>
        <time>2020-02-09T09:09:45.000Z</time>
      </trkpt>
      <trkpt lat="47.26403" lon="-2.41893">
        <ele>0.60000002384186</ele>
        <time>2020-02-09T09:10:18.000Z</time>
      </trkpt>
      <trkpt lat="47.264" lon="-2.41894">
        <ele>0.60000002384186</ele>
        <time>2020-02-09T09:10:19.000Z</time>
      </trkpt>
      <trkpt lat="47.26382" lon="-2.41894">
        <ele>0.60000002384186</ele>
        <time>2020-02-09T09:10:25.000Z</time>
      </trkpt>
      <trkpt lat="47.26362" lon="-2.41896">
        <ele>0.60000002384186</ele>
        <time>2020-02-09T09:10:31.000Z</time>
      </trkpt>
      <trkpt lat="47.26351" lon="-2.41892">
        <ele>0.60000002384186</ele>
        <time>2020-02-09T09:10:36.000Z</time>
      </trkpt>
      <trkpt lat="47.26341" lon="-2.41892">
        <ele>0.60000002384186</ele>
        <time>2020-02-09T09:10:42.000Z</time>
      </trkpt>
      <trkpt lat="47.26331" lon="-2.41885">
        <ele>0.60000002384186</ele>
        <time>2020-02-09T09:10:48.000Z</time>
      </trkpt>
      <trkpt lat="47.26317" lon="-2.41883">
        <ele>0.60000002384186</ele>
        <time>2020-02-09T09:10:54.000Z</time>
      </trkpt>
      <trkpt lat="47.26319" lon="-2.41891">
        <ele>0.60000002384186</ele>
        <time>2020-02-09T09:10:58.000Z</time>
      </trkpt>
      <trkpt lat="47.26324" lon="-2.41891">
        <ele>0.60000002384186</ele>
        <time>2020-02-09T09:11:00.000Z</time>
      </trkpt>
      <trkpt lat="47.26334" lon="-2.41896">
        <ele>0.60000002384186</ele>
        <time>2020-02-09T09:11:03.000Z</time>
      </trkpt>
      <trkpt lat="47.2635" lon="-2.41907">
        <ele>0.60000002384186</ele>
        <time>2020-02-09T09:11:08.000Z</time>
      </trkpt>
      <trkpt lat="47.26363" lon="-2.41917">
        <ele>0.60000002384186</ele>
        <time>2020-02-09T09:11:13.000Z</time>
      </trkpt>
      <trkpt lat="47.26367" lon="-2.41918">
        <ele>0.60000002384186</ele>
        <time>2020-02-09T09:11:17.000Z</time>
      </trkpt>
      <trkpt lat="47.26368" lon="-2.41926">
        <ele>0.60000002384186</ele>
        <time>2020-02-09T09:11:27.000Z</time>
      </trkpt>
      <trkpt lat="47.26368" lon="-2.41933">
        <ele>0.60000002384186</ele>
        <time>2020-02-09T09:11:29.000Z</time>
      </trkpt>
      <trkpt lat="47.26364" lon="-2.41947">
        <ele>0.60000002384186</ele>
        <time>2020-02-09T09:11:32.000Z</time>
      </trkpt>
      <trkpt lat="47.26359" lon="-2.41966">
        <ele>0.60000002384186</ele>
        <time>2020-02-09T09:11:37.000Z</time>
      </trkpt>
      <trkpt lat="47.2635" lon="-2.41966">
        <ele>0.60000002384186</ele>
        <time>2020-02-09T09:11:41.000Z</time>
      </trkpt>
      <trkpt lat="47.26332" lon="-2.4196">
        <ele>0.60000002384186</ele>
        <time>2020-02-09T09:11:46.000Z</time>
      </trkpt>
      <trkpt lat="47.26304" lon="-2.41943">
        <ele>0.60000002384186</ele>
        <time>2020-02-09T09:11:53.000Z</time>
      </trkpt>
      <trkpt lat="47.263" lon="-2.4194">
        <ele>0.60000002384186</ele>
        <time>2020-02-09T09:11:54.000Z</time>
      </trkpt>
      <trkpt lat="47.26284" lon="-2.41929">
        <ele>0.60000002384186</ele>
        <time>2020-02-09T09:11:58.000Z</time>
      </trkpt>
      <trkpt lat="47.2628" lon="-2.41927">
        <ele>0.60000002384186</ele>
        <time>2020-02-09T09:11:59.000Z</time>
      </trkpt>
      <trkpt lat="47.26272" lon="-2.41923">
        <ele>0.60000002384186</ele>
        <time>2020-02-09T09:12:01.000Z</time>
      </trkpt>
      <trkpt lat="47.26257" lon="-2.41914">
        <ele>0.60000002384186</ele>
        <time>2020-02-09T09:12:05.000Z</time>
      </trkpt>
      <trkpt lat="47.26236" lon="-2.41899">
        <ele>0.60000002384186</ele>
        <time>2020-02-09T09:12:11.000Z</time>
      </trkpt>
      <trkpt lat="47.2622" lon="-2.41882">
        <ele>0.60000002384186</ele>
        <time>2020-02-09T09:12:18.000Z</time>
      </trkpt>
      <trkpt lat="47.26214" lon="-2.41871">
        <ele>0.60000002384186</ele>
        <time>2020-02-09T09:12:23.000Z</time>
      </trkpt>
      <trkpt lat="47.26215" lon="-2.4187">
        <ele>0.60000002384186</ele>
        <time>2020-02-09T09:12:24.000Z</time>
      </trkpt>
      <trkpt lat="47.26219" lon="-2.4186">
        <ele>0.60000002384186</ele>
        <time>2020-02-09T09:12:27.000Z</time>
      </trkpt>
      <trkpt lat="47.26235" lon="-2.41833">
        <ele>0.60000002384186</ele>
        <time>2020-02-09T09:12:32.000Z</time>
      </trkpt>
      <trkpt lat="47.26249" lon="-2.41819">
        <ele>0.60000002384186</ele>
        <time>2020-02-09T09:12:36.000Z</time>
      </trkpt>
      <trkpt lat="47.26251" lon="-2.4182">
        <ele>0.60000002384186</ele>
        <time>2020-02-09T09:12:37.000Z</time>
      </trkpt>
      <trkpt lat="47.26257" lon="-2.41826">
        <ele>0.60000002384186</ele>
        <time>2020-02-09T09:12:40.000Z</time>
      </trkpt>
      <trkpt lat="47.26268" lon="-2.41835">
        <ele>0.60000002384186</ele>
        <time>2020-02-09T09:12:46.000Z</time>
      </trkpt>
      <trkpt lat="47.2627" lon="-2.41839">
        <ele>0.60000002384186</ele>
        <time>2020-02-09T09:12:48.000Z</time>
      </trkpt>
      <trkpt lat="47.2627" lon="-2.4184">
        <ele>0.60000002384186</ele>
        <time>2020-02-09T09:12:50.000Z</time>
      </trkpt>
      <trkpt lat="47.26266" lon="-2.41834">
        <ele>0.60000002384186</ele>
        <time>2020-02-09T09:13:09.000Z</time>
      </trkpt>
      <trkpt lat="47.26259" lon="-2.41825">
        <ele>0.60000002384186</ele>
        <time>2020-02-09T09:13:15.000Z</time>
      </trkpt>
      <trkpt lat="47.26258" lon="-2.41821">
        <ele>0.60000002384186</ele>
        <time>2020-02-09T09:13:18.000Z</time>
      </trkpt>
      <trkpt lat="47.2626" lon="-2.41817">
        <ele>0.60000002384186</ele>
        <time>2020-02-09T09:13:21.000Z</time>
      </trkpt>
      <trkpt lat="47.26263" lon="-2.41818">
        <ele>0.60000002384186</ele>
        <time>2020-02-09T09:13:24.000Z</time>
      </trkpt>
      <trkpt lat="47.26263" lon="-2.41824">
        <ele>2.7999999523163</ele>
        <time>2020-02-09T09:15:44.000Z</time>
      </trkpt>
      <trkpt lat="47.26256" lon="-2.41831">
        <ele>2.7999999523163</ele>
        <time>2020-02-09T09:15:48.000Z</time>
      </trkpt>
      <trkpt lat="47.26248" lon="-2.41842">
        <ele>2.7999999523163</ele>
        <time>2020-02-09T09:15:51.000Z</time>
      </trkpt>
      <trkpt lat="47.26243" lon="-2.41851">
        <ele>2.7999999523163</ele>
        <time>2020-02-09T09:15:53.000Z</time>
      </trkpt>
      <trkpt lat="47.26227" lon="-2.41869">
        <ele>2.7999999523163</ele>
        <time>2020-02-09T09:15:58.000Z</time>
      </trkpt>
      <trkpt lat="47.26218" lon="-2.41875">
        <ele>2.7999999523163</ele>
        <time>2020-02-09T09:16:02.000Z</time>
      </trkpt>
      <trkpt lat="47.26206" lon="-2.41874">
        <ele>2.7999999523163</ele>
        <time>2020-02-09T09:16:06.000Z</time>
      </trkpt>
      <trkpt lat="47.26203" lon="-2.4187">
        <ele>2.7999999523163</ele>
        <time>2020-02-09T09:16:07.000Z</time>
      </trkpt>
      <trkpt lat="47.26176" lon="-2.41838">
        <ele>2.7999999523163</ele>
        <time>2020-02-09T09:16:14.000Z</time>
      </trkpt>
      <trkpt lat="47.26169" lon="-2.4183">
        <ele>2.7999999523163</ele>
        <time>2020-02-09T09:16:16.000Z</time>
      </trkpt>
      <trkpt lat="47.26157" lon="-2.4182">
        <ele>2.7999999523163</ele>
        <time>2020-02-09T09:16:19.000Z</time>
      </trkpt>
      <trkpt lat="47.26149" lon="-2.41815">
        <ele>2.7999999523163</ele>
        <time>2020-02-09T09:16:21.000Z</time>
      </trkpt>
      <trkpt lat="47.26134" lon="-2.41808">
        <ele>2.7999999523163</ele>
        <time>2020-02-09T09:16:24.000Z</time>
      </trkpt>
      <trkpt lat="47.26129" lon="-2.41809">
        <ele>2.7999999523163</ele>
        <time>2020-02-09T09:16:25.000Z</time>
      </trkpt>
      <trkpt lat="47.26118" lon="-2.41822">
        <ele>2.7999999523163</ele>
        <time>2020-02-09T09:16:28.000Z</time>
      </trkpt>
      <trkpt lat="47.26115" lon="-2.41827">
        <ele>2.7999999523163</ele>
        <time>2020-02-09T09:16:29.000Z</time>
      </trkpt>
      <trkpt lat="47.26103" lon="-2.41845">
        <ele>2.7999999523163</ele>
        <time>2020-02-09T09:16:33.000Z</time>
      </trkpt>
      <trkpt lat="47.26099" lon="-2.41849">
        <ele>2.7999999523163</ele>
        <time>2020-02-09T09:16:34.000Z</time>
      </trkpt>
      <trkpt lat="47.26096" lon="-2.41854">
        <ele>2.7999999523163</ele>
        <time>2020-02-09T09:16:35.000Z</time>
      </trkpt>
      <trkpt lat="47.2608" lon="-2.41877">
        <ele>2.7999999523163</ele>
        <time>2020-02-09T09:16:40.000Z</time>
      </trkpt>
      <trkpt lat="47.26076" lon="-2.4188">
        <ele>2.7999999523163</ele>
        <time>2020-02-09T09:16:41.000Z</time>
      </trkpt>
      <trkpt lat="47.26063" lon="-2.41898">
        <ele>2.7999999523163</ele>
        <time>2020-02-09T09:16:45.000Z</time>
      </trkpt>
      <trkpt lat="47.26057" lon="-2.41908">
        <ele>2.7999999523163</ele>
        <time>2020-02-09T09:16:47.000Z</time>
      </trkpt>
      <trkpt lat="47.2605" lon="-2.41916">
        <ele>2.7999999523163</ele>
        <time>2020-02-09T09:16:49.000Z</time>
      </trkpt>
      <trkpt lat="47.26044" lon="-2.41923">
        <ele>2.7999999523163</ele>
        <time>2020-02-09T09:16:51.000Z</time>
      </trkpt>
      <trkpt lat="47.26022" lon="-2.41952">
        <ele>3.2000000476837</ele>
        <time>2020-02-09T09:16:58.000Z</time>
      </trkpt>
      <trkpt lat="47.2602" lon="-2.41957">
        <ele>3.5999999046326</ele>
        <time>2020-02-09T09:16:59.000Z</time>
      </trkpt>
      <trkpt lat="47.26017" lon="-2.41962">
        <ele>4</ele>
        <time>2020-02-09T09:17:00.000Z</time>
      </trkpt>
      <trkpt lat="47.26014" lon="-2.41965">
        <ele>4.4000000953674</ele>
        <time>2020-02-09T09:17:01.000Z</time>
      </trkpt>
      <trkpt lat="47.26012" lon="-2.41969">
        <ele>4.8000001907349</ele>
        <time>2020-02-09T09:17:02.000Z</time>
      </trkpt>
      <trkpt lat="47.26009" lon="-2.41974">
        <ele>4.8000001907349</ele>
        <time>2020-02-09T09:17:03.000Z</time>
      </trkpt>
      <trkpt lat="47.26007" lon="-2.41979">
        <ele>4.8000001907349</ele>
        <time>2020-02-09T09:17:04.000Z</time>
      </trkpt>
      <trkpt lat="47.26" lon="-2.41993">
        <ele>4.8000001907349</ele>
        <time>2020-02-09T09:17:07.000Z</time>
      </trkpt>
      <trkpt lat="47.25998" lon="-2.42003">
        <ele>4.8000001907349</ele>
        <time>2020-02-09T09:17:09.000Z</time>
      </trkpt>
      <trkpt lat="47.25999" lon="-2.42022">
        <ele>4.8000001907349</ele>
        <time>2020-02-09T09:17:13.000Z</time>
      </trkpt>
      <trkpt lat="47.26002" lon="-2.42027">
        <ele>4.8000001907349</ele>
        <time>2020-02-09T09:17:14.000Z</time>
      </trkpt>
      <trkpt lat="47.26007" lon="-2.42046">
        <ele>4.8000001907349</ele>
        <time>2020-02-09T09:17:17.000Z</time>
      </trkpt>
      <trkpt lat="47.26012" lon="-2.4206">
        <ele>4.8000001907349</ele>
        <time>2020-02-09T09:17:19.000Z</time>
      </trkpt>
      <trkpt lat="47.2602" lon="-2.42083">
        <ele>4.8000001907349</ele>
        <time>2020-02-09T09:17:22.000Z</time>
      </trkpt>
      <trkpt lat="47.26028" lon="-2.42106">
        <ele>4.8000001907349</ele>
        <time>2020-02-09T09:17:25.000Z</time>
      </trkpt>
      <trkpt lat="47.26035" lon="-2.42128">
        <ele>4.8000001907349</ele>
        <time>2020-02-09T09:17:28.000Z</time>
      </trkpt>
      <trkpt lat="47.2605" lon="-2.42163">
        <ele>4.8000001907349</ele>
        <time>2020-02-09T09:17:33.000Z</time>
      </trkpt>
      <trkpt lat="47.26056" lon="-2.42178">
        <ele>4.8000001907349</ele>
        <time>2020-02-09T09:17:35.000Z</time>
      </trkpt>
      <trkpt lat="47.26065" lon="-2.422">
        <ele>4.8000001907349</ele>
        <time>2020-02-09T09:17:38.000Z</time>
      </trkpt>
      <trkpt lat="47.26078" lon="-2.42239">
        <ele>4.8000001907349</ele>
        <time>2020-02-09T09:17:43.000Z</time>
      </trkpt>
      <trkpt lat="47.2608" lon="-2.42247">
        <ele>4.8000001907349</ele>
        <time>2020-02-09T09:17:44.000Z</time>
      </trkpt>
      <trkpt lat="47.26085" lon="-2.42262">
        <ele>4.8000001907349</ele>
        <time>2020-02-09T09:17:46.000Z</time>
      </trkpt>
      <trkpt lat="47.26093" lon="-2.42281">
        <ele>4.8000001907349</ele>
        <time>2020-02-09T09:17:49.000Z</time>
      </trkpt>
      <trkpt lat="47.261" lon="-2.42308">
        <ele>4.8000001907349</ele>
        <time>2020-02-09T09:17:54.000Z</time>
      </trkpt>
      <trkpt lat="47.261" lon="-2.42317">
        <ele>4.8000001907349</ele>
        <time>2020-02-09T09:17:59.000Z</time>
      </trkpt>
      <trkpt lat="47.261" lon="-2.42321">
        <ele>4.8000001907349</ele>
        <time>2020-02-09T09:18:02.000Z</time>
      </trkpt>
      <trkpt lat="47.26101" lon="-2.42333">
        <ele>4.8000001907349</ele>
        <time>2020-02-09T09:18:05.000Z</time>
      </trkpt>
      <trkpt lat="47.26102" lon="-2.42339">
        <ele>4.8000001907349</ele>
        <time>2020-02-09T09:18:06.000Z</time>
      </trkpt>
      <trkpt lat="47.26105" lon="-2.42359">
        <ele>4.8000001907349</ele>
        <time>2020-02-09T09:18:09.000Z</time>
      </trkpt>
      <trkpt lat="47.26107" lon="-2.42365">
        <ele>4.8000001907349</ele>
        <time>2020-02-09T09:18:10.000Z</time>
      </trkpt>
      <trkpt lat="47.26116" lon="-2.42412">
        <ele>4.8000001907349</ele>
        <time>2020-02-09T09:18:17.000Z</time>
      </trkpt>
      <trkpt lat="47.26125" lon="-2.4246">
        <ele>4.8000001907349</ele>
        <time>2020-02-09T09:18:24.000Z</time>
      </trkpt>
      <trkpt lat="47.26131" lon="-2.42502">
        <ele>4.8000001907349</ele>
        <time>2020-02-09T09:18:30.000Z</time>
      </trkpt>
      <trkpt lat="47.26136" lon="-2.42529">
        <ele>4.8000001907349</ele>
        <time>2020-02-09T09:18:34.000Z</time>
      </trkpt>
      <trkpt lat="47.2614" lon="-2.4255">
        <ele>4.8000001907349</ele>
        <time>2020-02-09T09:18:37.000Z</time>
      </trkpt>
      <trkpt lat="47.26145" lon="-2.42592">
        <ele>4.8000001907349</ele>
        <time>2020-02-09T09:18:43.000Z</time>
      </trkpt>
      <trkpt lat="47.26147" lon="-2.42613">
        <ele>4.8000001907349</ele>
        <time>2020-02-09T09:18:46.000Z</time>
      </trkpt>
      <trkpt lat="47.2615" lon="-2.42634">
        <ele>4.8000001907349</ele>
        <time>2020-02-09T09:18:49.000Z</time>
      </trkpt>
      <trkpt lat="47.26158" lon="-2.42682">
        <ele>4.8000001907349</ele>
        <time>2020-02-09T09:18:57.000Z</time>
      </trkpt>
      <trkpt lat="47.26163" lon="-2.42716">
        <ele>4.8000001907349</ele>
        <time>2020-02-09T09:19:04.000Z</time>
      </trkpt>
      <trkpt lat="47.26163" lon="-2.42718">
        <ele>4.8000001907349</ele>
        <time>2020-02-09T09:19:05.000Z</time>
      </trkpt>
      <trkpt lat="47.2616" lon="-2.42726">
        <ele>4.8000001907349</ele>
        <time>2020-02-09T09:19:08.000Z</time>
      </trkpt>
      <trkpt lat="47.26151" lon="-2.42731">
        <ele>4.8000001907349</ele>
        <time>2020-02-09T09:19:13.000Z</time>
      </trkpt>
      <trkpt lat="47.26145" lon="-2.42736">
        <ele>4.8000001907349</ele>
        <time>2020-02-09T09:19:17.000Z</time>
      </trkpt>
      <trkpt lat="47.26142" lon="-2.42737">
        <ele>4.8000001907349</ele>
        <time>2020-02-09T09:19:19.000Z</time>
      </trkpt>
      <trkpt lat="47.26133" lon="-2.42742">
        <ele>4.8000001907349</ele>
        <time>2020-02-09T09:19:25.000Z</time>
      </trkpt>
      <trkpt lat="47.26122" lon="-2.4275">
        <ele>4.8000001907349</ele>
        <time>2020-02-09T09:19:32.000Z</time>
      </trkpt>
      <trkpt lat="47.2611" lon="-2.42758">
        <ele>4.8000001907349</ele>
        <time>2020-02-09T09:19:38.000Z</time>
      </trkpt>
      <trkpt lat="47.26096" lon="-2.42766">
        <ele>4.8000001907349</ele>
        <time>2020-02-09T09:19:44.000Z</time>
      </trkpt>
      <trkpt lat="47.26084" lon="-2.42775">
        <ele>4.8000001907349</ele>
        <time>2020-02-09T09:19:50.000Z</time>
      </trkpt>
      <trkpt lat="47.2607" lon="-2.42787">
        <ele>4.8000001907349</ele>
        <time>2020-02-09T09:19:57.000Z</time>
      </trkpt>
      <trkpt lat="47.26061" lon="-2.42798">
        <ele>4.8000001907349</ele>
        <time>2020-02-09T09:20:02.000Z</time>
      </trkpt>
      <trkpt lat="47.2606" lon="-2.42812">
        <ele>4.8000001907349</ele>
        <time>2020-02-09T09:20:07.000Z</time>
      </trkpt>
      <trkpt lat="47.26059" lon="-2.42834">
        <ele>4.8000001907349</ele>
        <time>2020-02-09T09:20:14.000Z</time>
      </trkpt>
      <trkpt lat="47.26059" lon="-2.42859">
        <ele>4.8000001907349</ele>
        <time>2020-02-09T09:20:21.000Z</time>
      </trkpt>
      <trkpt lat="47.26061" lon="-2.42886">
        <ele>4.8000001907349</ele>
        <time>2020-02-09T09:20:28.000Z</time>
      </trkpt>
      <trkpt lat="47.26061" lon="-2.42915">
        <ele>4.8000001907349</ele>
        <time>2020-02-09T09:20:35.000Z</time>
      </trkpt>
      <trkpt lat="47.26061" lon="-2.42944">
        <ele>4.8000001907349</ele>
        <time>2020-02-09T09:20:42.000Z</time>
      </trkpt>
      <trkpt lat="47.26061" lon="-2.42964">
        <ele>4.8000001907349</ele>
        <time>2020-02-09T09:20:48.000Z</time>
      </trkpt>
      <trkpt lat="47.26061" lon="-2.42971">
        <ele>4.8000001907349</ele>
        <time>2020-02-09T09:20:51.000Z</time>
      </trkpt>
      <trkpt lat="47.26058" lon="-2.42975">
        <ele>4.8000001907349</ele>
        <time>2020-02-09T09:20:53.000Z</time>
      </trkpt>
      <trkpt lat="47.26055" lon="-2.42976">
        <ele>4.8000001907349</ele>
        <time>2020-02-09T09:20:55.000Z</time>
      </trkpt>
      <trkpt lat="47.2605" lon="-2.42977">
        <ele>4.8000001907349</ele>
        <time>2020-02-09T09:20:59.000Z</time>
      </trkpt>
      <trkpt lat="47.26042" lon="-2.42978">
        <ele>4.8000001907349</ele>
        <time>2020-02-09T09:21:05.000Z</time>
      </trkpt>
      <trkpt lat="47.2603" lon="-2.42981">
        <ele>4.8000001907349</ele>
        <time>2020-02-09T09:21:12.000Z</time>
      </trkpt>
      <trkpt lat="47.26019" lon="-2.42984">
        <ele>4.8000001907349</ele>
        <time>2020-02-09T09:21:18.000Z</time>
      </trkpt>
      <trkpt lat="47.26003" lon="-2.42988">
        <ele>4.8000001907349</ele>
        <time>2020-02-09T09:21:26.000Z</time>
      </trkpt>
      <trkpt lat="47.25987" lon="-2.42989">
        <ele>4.8000001907349</ele>
        <time>2020-02-09T09:21:32.000Z</time>
      </trkpt>
      <trkpt lat="47.25973" lon="-2.42993">
        <ele>4.8000001907349</ele>
        <time>2020-02-09T09:21:39.000Z</time>
      </trkpt>
      <trkpt lat="47.25971" lon="-2.42995">
        <ele>5.1999998092651</ele>
        <time>2020-02-09T09:21:40.000Z</time>
      </trkpt>
      <trkpt lat="47.2597" lon="-2.42995">
        <ele>5.5999999046326</ele>
        <time>2020-02-09T09:21:41.000Z</time>
      </trkpt>
      <trkpt lat="47.25968" lon="-2.42997">
        <ele>6</ele>
        <time>2020-02-09T09:21:42.000Z</time>
      </trkpt>
      <trkpt lat="47.25966" lon="-2.42999">
        <ele>6.4000000953674</ele>
        <time>2020-02-09T09:21:43.000Z</time>
      </trkpt>
      <trkpt lat="47.25965" lon="-2.43002">
        <ele>6.8000001907349</ele>
        <time>2020-02-09T09:21:44.000Z</time>
      </trkpt>
      <trkpt lat="47.2596" lon="-2.43013">
        <ele>6.8000001907349</ele>
        <time>2020-02-09T09:21:48.000Z</time>
      </trkpt>
      <trkpt lat="47.25959" lon="-2.43042">
        <ele>6.8000001907349</ele>
        <time>2020-02-09T09:21:53.000Z</time>
      </trkpt>
      <trkpt lat="47.25953" lon="-2.43084">
        <ele>6.8000001907349</ele>
        <time>2020-02-09T09:22:00.000Z</time>
      </trkpt>
      <trkpt lat="47.25946" lon="-2.43133">
        <ele>6.8000001907349</ele>
        <time>2020-02-09T09:22:07.000Z</time>
      </trkpt>
      <trkpt lat="47.25944" lon="-2.43147">
        <ele>6.8000001907349</ele>
        <time>2020-02-09T09:22:09.000Z</time>
      </trkpt>
      <trkpt lat="47.25942" lon="-2.43167">
        <ele>6.8000001907349</ele>
        <time>2020-02-09T09:22:12.000Z</time>
      </trkpt>
      <trkpt lat="47.25941" lon="-2.43209">
        <ele>6.8000001907349</ele>
        <time>2020-02-09T09:22:18.000Z</time>
      </trkpt>
      <trkpt lat="47.25943" lon="-2.43241">
        <ele>6.8000001907349</ele>
        <time>2020-02-09T09:22:23.000Z</time>
      </trkpt>
      <trkpt lat="47.25944" lon="-2.43253">
        <ele>6.8000001907349</ele>
        <time>2020-02-09T09:22:25.000Z</time>
      </trkpt>
      <trkpt lat="47.25949" lon="-2.43295">
        <ele>6.8000001907349</ele>
        <time>2020-02-09T09:22:32.000Z</time>
      </trkpt>
      <trkpt lat="47.25956" lon="-2.43338">
        <ele>6.8000001907349</ele>
        <time>2020-02-09T09:22:39.000Z</time>
      </trkpt>
      <trkpt lat="47.25967" lon="-2.43372">
        <ele>6.8000001907349</ele>
        <time>2020-02-09T09:22:45.000Z</time>
      </trkpt>
      <trkpt lat="47.2598" lon="-2.4342">
        <ele>6.8000001907349</ele>
        <time>2020-02-09T09:22:54.000Z</time>
      </trkpt>
      <trkpt lat="47.25987" lon="-2.43446">
        <ele>6.8000001907349</ele>
        <time>2020-02-09T09:22:59.000Z</time>
      </trkpt>
      <trkpt lat="47.25998" lon="-2.43466">
        <ele>6.8000001907349</ele>
        <time>2020-02-09T09:23:04.000Z</time>
      </trkpt>
      <trkpt lat="47.26006" lon="-2.43482">
        <ele>6.8000001907349</ele>
        <time>2020-02-09T09:23:08.000Z</time>
      </trkpt>
      <trkpt lat="47.26017" lon="-2.43519">
        <ele>6.8000001907349</ele>
        <time>2020-02-09T09:23:15.000Z</time>
      </trkpt>
      <trkpt lat="47.26029" lon="-2.43554">
        <ele>6.8000001907349</ele>
        <time>2020-02-09T09:23:22.000Z</time>
      </trkpt>
      <trkpt lat="47.26043" lon="-2.43582">
        <ele>6.8000001907349</ele>
        <time>2020-02-09T09:23:28.000Z</time>
      </trkpt>
      <trkpt lat="47.26057" lon="-2.43615">
        <ele>6.8000001907349</ele>
        <time>2020-02-09T09:23:35.000Z</time>
      </trkpt>
      <trkpt lat="47.26074" lon="-2.43641">
        <ele>6.8000001907349</ele>
        <time>2020-02-09T09:23:41.000Z</time>
      </trkpt>
      <trkpt lat="47.26079" lon="-2.43657">
        <ele>6.8000001907349</ele>
        <time>2020-02-09T09:23:45.000Z</time>
      </trkpt>
      <trkpt lat="47.2608" lon="-2.43667">
        <ele>6.8000001907349</ele>
        <time>2020-02-09T09:23:49.000Z</time>
      </trkpt>
      <trkpt lat="47.26083" lon="-2.43673">
        <ele>6.8000001907349</ele>
        <time>2020-02-09T09:23:51.000Z</time>
      </trkpt>
      <trkpt lat="47.26087" lon="-2.43681">
        <ele>6.8000001907349</ele>
        <time>2020-02-09T09:23:55.000Z</time>
      </trkpt>
      <trkpt lat="47.26089" lon="-2.437">
        <ele>6.8000001907349</ele>
        <time>2020-02-09T09:24:00.000Z</time>
      </trkpt>
      <trkpt lat="47.26085" lon="-2.4373">
        <ele>6.8000001907349</ele>
        <time>2020-02-09T09:24:06.000Z</time>
      </trkpt>
      <trkpt lat="47.26078" lon="-2.43771">
        <ele>6.8000001907349</ele>
        <time>2020-02-09T09:24:14.000Z</time>
      </trkpt>
      <trkpt lat="47.26072" lon="-2.43806">
        <ele>6.8000001907349</ele>
        <time>2020-02-09T09:24:20.000Z</time>
      </trkpt>
      <trkpt lat="47.26068" lon="-2.43839">
        <ele>6.8000001907349</ele>
        <time>2020-02-09T09:24:26.000Z</time>
      </trkpt>
      <trkpt lat="47.26067" lon="-2.43845">
        <ele>6.8000001907349</ele>
        <time>2020-02-09T09:24:27.000Z</time>
      </trkpt>
      <trkpt lat="47.26067" lon="-2.43882">
        <ele>6.8000001907349</ele>
        <time>2020-02-09T09:24:33.000Z</time>
      </trkpt>
      <trkpt lat="47.26071" lon="-2.43928">
        <ele>6.8000001907349</ele>
        <time>2020-02-09T09:24:40.000Z</time>
      </trkpt>
      <trkpt lat="47.26076" lon="-2.43975">
        <ele>6.8000001907349</ele>
        <time>2020-02-09T09:24:47.000Z</time>
      </trkpt>
      <trkpt lat="47.2608" lon="-2.44007">
        <ele>6.8000001907349</ele>
        <time>2020-02-09T09:24:53.000Z</time>
      </trkpt>
      <trkpt lat="47.26079" lon="-2.44017">
        <ele>6.8000001907349</ele>
        <time>2020-02-09T09:24:58.000Z</time>
      </trkpt>
      <trkpt lat="47.26078" lon="-2.44017">
        <ele>6.8000001907349</ele>
        <time>2020-02-09T09:25:00.000Z</time>
      </trkpt>
      <trkpt lat="47.26073" lon="-2.44015">
        <ele>6.8000001907349</ele>
        <time>2020-02-09T09:25:03.000Z</time>
      </trkpt>
      <trkpt lat="47.26065" lon="-2.44018">
        <ele>6.8000001907349</ele>
        <time>2020-02-09T09:25:06.000Z</time>
      </trkpt>
      <trkpt lat="47.26062" lon="-2.44022">
        <ele>6.8000001907349</ele>
        <time>2020-02-09T09:25:08.000Z</time>
      </trkpt>
      <trkpt lat="47.26053" lon="-2.44038">
        <ele>6.8000001907349</ele>
        <time>2020-02-09T09:25:13.000Z</time>
      </trkpt>
      <trkpt lat="47.26044" lon="-2.44061">
        <ele>6.8000001907349</ele>
        <time>2020-02-09T09:25:20.000Z</time>
      </trkpt>
      <trkpt lat="47.26044" lon="-2.4409">
        <ele>6.8000001907349</ele>
        <time>2020-02-09T09:25:26.000Z</time>
      </trkpt>
      <trkpt lat="47.26049" lon="-2.44107">
        <ele>6.8000001907349</ele>
        <time>2020-02-09T09:25:31.000Z</time>
      </trkpt>
      <trkpt lat="47.2606" lon="-2.44128">
        <ele>6.8000001907349</ele>
        <time>2020-02-09T09:25:38.000Z</time>
      </trkpt>
      <trkpt lat="47.26067" lon="-2.44148">
        <ele>6.8000001907349</ele>
        <time>2020-02-09T09:25:44.000Z</time>
      </trkpt>
      <trkpt lat="47.26083" lon="-2.4415">
        <ele>6.8000001907349</ele>
        <time>2020-02-09T09:25:48.000Z</time>
      </trkpt>
      <trkpt lat="47.26104" lon="-2.4415">
        <ele>6.8000001907349</ele>
        <time>2020-02-09T09:25:54.000Z</time>
      </trkpt>
      <trkpt lat="47.26105" lon="-2.44153">
        <ele>6.8000001907349</ele>
        <time>2020-02-09T09:25:55.000Z</time>
      </trkpt>
      <trkpt lat="47.26108" lon="-2.44162">
        <ele>6.8000001907349</ele>
        <time>2020-02-09T09:25:57.000Z</time>
      </trkpt>
      <trkpt lat="47.26111" lon="-2.44193">
        <ele>6.8000001907349</ele>
        <time>2020-02-09T09:26:02.000Z</time>
      </trkpt>
      <trkpt lat="47.26114" lon="-2.44234">
        <ele>6.8000001907349</ele>
        <time>2020-02-09T09:26:08.000Z</time>
      </trkpt>
      <trkpt lat="47.26116" lon="-2.44246">
        <ele>6.8000001907349</ele>
        <time>2020-02-09T09:26:10.000Z</time>
      </trkpt>
      <trkpt lat="47.26122" lon="-2.44263">
        <ele>6.8000001907349</ele>
        <time>2020-02-09T09:26:13.000Z</time>
      </trkpt>
      <trkpt lat="47.26124" lon="-2.44268">
        <ele>6.8000001907349</ele>
        <time>2020-02-09T09:26:14.000Z</time>
      </trkpt>
      <trkpt lat="47.26134" lon="-2.44297">
        <ele>6.8000001907349</ele>
        <time>2020-02-09T09:26:19.000Z</time>
      </trkpt>
      <trkpt lat="47.26142" lon="-2.44316">
        <ele>6.8000001907349</ele>
        <time>2020-02-09T09:26:22.000Z</time>
      </trkpt>
      <trkpt lat="47.2615" lon="-2.44325">
        <ele>6.8000001907349</ele>
        <time>2020-02-09T09:26:24.000Z</time>
      </trkpt>
      <trkpt lat="47.26156" lon="-2.44348">
        <ele>6.8000001907349</ele>
        <time>2020-02-09T09:26:28.000Z</time>
      </trkpt>
      <trkpt lat="47.26156" lon="-2.44355">
        <ele>6.8000001907349</ele>
        <time>2020-02-09T09:26:29.000Z</time>
      </trkpt>
      <trkpt lat="47.26157" lon="-2.44369">
        <ele>6.8000001907349</ele>
        <time>2020-02-09T09:26:31.000Z</time>
      </trkpt>
      <trkpt lat="47.26159" lon="-2.44375">
        <ele>6.8000001907349</ele>
        <time>2020-02-09T09:26:32.000Z</time>
      </trkpt>
      <trkpt lat="47.26166" lon="-2.4439">
        <ele>6.8000001907349</ele>
        <time>2020-02-09T09:26:35.000Z</time>
      </trkpt>
      <trkpt lat="47.26171" lon="-2.444">
        <ele>6.8000001907349</ele>
        <time>2020-02-09T09:26:37.000Z</time>
      </trkpt>
      <trkpt lat="47.26178" lon="-2.44415">
        <ele>6.8000001907349</ele>
        <time>2020-02-09T09:26:40.000Z</time>
      </trkpt>
      <trkpt lat="47.26183" lon="-2.44432">
        <ele>6.8000001907349</ele>
        <time>2020-02-09T09:26:43.000Z</time>
      </trkpt>
      <trkpt lat="47.26193" lon="-2.44469">
        <ele>6.8000001907349</ele>
        <time>2020-02-09T09:26:50.000Z</time>
      </trkpt>
      <trkpt lat="47.262" lon="-2.44489">
        <ele>6.8000001907349</ele>
        <time>2020-02-09T09:26:54.000Z</time>
      </trkpt>
      <trkpt lat="47.26201" lon="-2.44494">
        <ele>6.8000001907349</ele>
        <time>2020-02-09T09:26:55.000Z</time>
      </trkpt>
      <trkpt lat="47.26207" lon="-2.44515">
        <ele>6.8000001907349</ele>
        <time>2020-02-09T09:27:00.000Z</time>
      </trkpt>
      <trkpt lat="47.26211" lon="-2.44538">
        <ele>6.8000001907349</ele>
        <time>2020-02-09T09:27:05.000Z</time>
      </trkpt>
      <trkpt lat="47.2621" lon="-2.4459">
        <ele>6.8000001907349</ele>
        <time>2020-02-09T09:27:13.000Z</time>
      </trkpt>
      <trkpt lat="47.26212" lon="-2.44647">
        <ele>6.8000001907349</ele>
        <time>2020-02-09T09:27:21.000Z</time>
      </trkpt>
      <trkpt lat="47.26216" lon="-2.44695">
        <ele>6.8000001907349</ele>
        <time>2020-02-09T09:27:28.000Z</time>
      </trkpt>
      <trkpt lat="47.26218" lon="-2.44702">
        <ele>6.8000001907349</ele>
        <time>2020-02-09T09:27:29.000Z</time>
      </trkpt>
      <trkpt lat="47.26225" lon="-2.44733">
        <ele>6.8000001907349</ele>
        <time>2020-02-09T09:27:34.000Z</time>
      </trkpt>
      <trkpt lat="47.26229" lon="-2.44745">
        <ele>6.8000001907349</ele>
        <time>2020-02-09T09:27:36.000Z</time>
      </trkpt>
      <trkpt lat="47.26239" lon="-2.44769">
        <ele>6.8000001907349</ele>
        <time>2020-02-09T09:27:40.000Z</time>
      </trkpt>
      <trkpt lat="47.26256" lon="-2.44821">
        <ele>6.8000001907349</ele>
        <time>2020-02-09T09:27:48.000Z</time>
      </trkpt>
      <trkpt lat="47.26259" lon="-2.44827">
        <ele>6.8000001907349</ele>
        <time>2020-02-09T09:27:49.000Z</time>
      </trkpt>
      <trkpt lat="47.2627" lon="-2.44852">
        <ele>6.8000001907349</ele>
        <time>2020-02-09T09:27:53.000Z</time>
      </trkpt>
      <trkpt lat="47.26273" lon="-2.44857">
        <ele>6.8000001907349</ele>
        <time>2020-02-09T09:27:54.000Z</time>
      </trkpt>
      <trkpt lat="47.26283" lon="-2.44873">
        <ele>6.8000001907349</ele>
        <time>2020-02-09T09:27:57.000Z</time>
      </trkpt>
      <trkpt lat="47.26301" lon="-2.44889">
        <ele>6.8000001907349</ele>
        <time>2020-02-09T09:28:01.000Z</time>
      </trkpt>
      <trkpt lat="47.26315" lon="-2.44896">
        <ele>6.8000001907349</ele>
        <time>2020-02-09T09:28:04.000Z</time>
      </trkpt>
      <trkpt lat="47.26329" lon="-2.44899">
        <ele>6.8000001907349</ele>
        <time>2020-02-09T09:28:07.000Z</time>
      </trkpt>
      <trkpt lat="47.26338" lon="-2.44902">
        <ele>6.8000001907349</ele>
        <time>2020-02-09T09:28:09.000Z</time>
      </trkpt>
      <trkpt lat="47.26359" lon="-2.44907">
        <ele>6.8000001907349</ele>
        <time>2020-02-09T09:28:14.000Z</time>
      </trkpt>
      <trkpt lat="47.26377" lon="-2.4492">
        <ele>6.8000001907349</ele>
        <time>2020-02-09T09:28:20.000Z</time>
      </trkpt>
      <trkpt lat="47.26384" lon="-2.44937">
        <ele>6.8000001907349</ele>
        <time>2020-02-09T09:28:25.000Z</time>
      </trkpt>
      <trkpt lat="47.26387" lon="-2.44938">
        <ele>6.8000001907349</ele>
        <time>2020-02-09T09:28:26.000Z</time>
      </trkpt>
      <trkpt lat="47.26392" lon="-2.44943">
        <ele>6.8000001907349</ele>
        <time>2020-02-09T09:28:28.000Z</time>
      </trkpt>
      <trkpt lat="47.26397" lon="-2.44961">
        <ele>6.8000001907349</ele>
        <time>2020-02-09T09:28:31.000Z</time>
      </trkpt>
      <trkpt lat="47.26399" lon="-2.44967">
        <ele>6.8000001907349</ele>
        <time>2020-02-09T09:28:32.000Z</time>
      </trkpt>
      <trkpt lat="47.26401" lon="-2.44973">
        <ele>6.8000001907349</ele>
        <time>2020-02-09T09:28:33.000Z</time>
      </trkpt>
      <trkpt lat="47.26408" lon="-2.44994">
        <ele>6.8000001907349</ele>
        <time>2020-02-09T09:28:36.000Z</time>
      </trkpt>
      <trkpt lat="47.2641" lon="-2.45001">
        <ele>6.8000001907349</ele>
        <time>2020-02-09T09:28:37.000Z</time>
      </trkpt>
      <trkpt lat="47.26427" lon="-2.45059">
        <ele>6.8000001907349</ele>
        <time>2020-02-09T09:28:45.000Z</time>
      </trkpt>
      <trkpt lat="47.26443" lon="-2.45102">
        <ele>6.8000001907349</ele>
        <time>2020-02-09T09:28:51.000Z</time>
      </trkpt>
      <trkpt lat="47.26454" lon="-2.45125">
        <ele>6.8000001907349</ele>
        <time>2020-02-09T09:28:55.000Z</time>
      </trkpt>
      <trkpt lat="47.26462" lon="-2.45135">
        <ele>6.8000001907349</ele>
        <time>2020-02-09T09:28:57.000Z</time>
      </trkpt>
      <trkpt lat="47.26491" lon="-2.45173">
        <ele>6.8000001907349</ele>
        <time>2020-02-09T09:29:04.000Z</time>
      </trkpt>
      <trkpt lat="47.26521" lon="-2.45206">
        <ele>6.8000001907349</ele>
        <time>2020-02-09T09:29:10.000Z</time>
      </trkpt>
      <trkpt lat="47.2656" lon="-2.4524">
        <ele>6.8000001907349</ele>
        <time>2020-02-09T09:29:17.000Z</time>
      </trkpt>
      <trkpt lat="47.26595" lon="-2.45272">
        <ele>6.8000001907349</ele>
        <time>2020-02-09T09:29:23.000Z</time>
      </trkpt>
      <trkpt lat="47.26644" lon="-2.45319">
        <ele>6.8000001907349</ele>
        <time>2020-02-09T09:29:31.000Z</time>
      </trkpt>
      <trkpt lat="47.2665" lon="-2.45325">
        <ele>6.8000001907349</ele>
        <time>2020-02-09T09:29:32.000Z</time>
      </trkpt>
      <trkpt lat="47.2669" lon="-2.45365">
        <ele>6.8000001907349</ele>
        <time>2020-02-09T09:29:39.000Z</time>
      </trkpt>
      <trkpt lat="47.26727" lon="-2.454">
        <ele>6.8000001907349</ele>
        <time>2020-02-09T09:29:46.000Z</time>
      </trkpt>
      <trkpt lat="47.26743" lon="-2.45412">
        <ele>6.8000001907349</ele>
        <time>2020-02-09T09:29:49.000Z</time>
      </trkpt>
      <trkpt lat="47.26754" lon="-2.45416">
        <ele>6.8000001907349</ele>
        <time>2020-02-09T09:29:51.000Z</time>
      </trkpt>
      <trkpt lat="47.26762" lon="-2.45435">
        <ele>6.8000001907349</ele>
        <time>2020-02-09T09:29:54.000Z</time>
      </trkpt>
      <trkpt lat="47.2677" lon="-2.45455">
        <ele>6.8000001907349</ele>
        <time>2020-02-09T09:29:57.000Z</time>
      </trkpt>
      <trkpt lat="47.26779" lon="-2.45468">
        <ele>6.8000001907349</ele>
        <time>2020-02-09T09:29:59.000Z</time>
      </trkpt>
      <trkpt lat="47.26784" lon="-2.45473">
        <ele>6.8000001907349</ele>
        <time>2020-02-09T09:30:00.000Z</time>
      </trkpt>
      <trkpt lat="47.26802" lon="-2.45496">
        <ele>6.8000001907349</ele>
        <time>2020-02-09T09:30:04.000Z</time>
      </trkpt>
      <trkpt lat="47.26833" lon="-2.45526">
        <ele>6.8000001907349</ele>
        <time>2020-02-09T09:30:11.000Z</time>
      </trkpt>
      <trkpt lat="47.26872" lon="-2.45558">
        <ele>6.8000001907349</ele>
        <time>2020-02-09T09:30:19.000Z</time>
      </trkpt>
      <trkpt lat="47.26906" lon="-2.45587">
        <ele>6.8000001907349</ele>
        <time>2020-02-09T09:30:26.000Z</time>
      </trkpt>
      <trkpt lat="47.26923" lon="-2.45605">
        <ele>6.8000001907349</ele>
        <time>2020-02-09T09:30:30.000Z</time>
      </trkpt>
      <trkpt lat="47.26931" lon="-2.45612">
        <ele>6.8000001907349</ele>
        <time>2020-02-09T09:30:32.000Z</time>
      </trkpt>
      <trkpt lat="47.26953" lon="-2.45632">
        <ele>6.8000001907349</ele>
        <time>2020-02-09T09:30:38.000Z</time>
      </trkpt>
      <trkpt lat="47.26957" lon="-2.45634">
        <ele>6.8000001907349</ele>
        <time>2020-02-09T09:30:39.000Z</time>
      </trkpt>
      <trkpt lat="47.26964" lon="-2.45641">
        <ele>6.8000001907349</ele>
        <time>2020-02-09T09:30:41.000Z</time>
      </trkpt>
      <trkpt lat="47.26968" lon="-2.45655">
        <ele>6.8000001907349</ele>
        <time>2020-02-09T09:30:44.000Z</time>
      </trkpt>
      <trkpt lat="47.26966" lon="-2.45664">
        <ele>6.8000001907349</ele>
        <time>2020-02-09T09:30:46.000Z</time>
      </trkpt>
      <trkpt lat="47.26965" lon="-2.45676">
        <ele>6.8000001907349</ele>
        <time>2020-02-09T09:30:48.000Z</time>
      </trkpt>
      <trkpt lat="47.26965" lon="-2.45681">
        <ele>6.4000000953674</ele>
        <time>2020-02-09T09:30:49.000Z</time>
      </trkpt>
      <trkpt lat="47.26965" lon="-2.45688">
        <ele>6</ele>
        <time>2020-02-09T09:30:50.000Z</time>
      </trkpt>
      <trkpt lat="47.26967" lon="-2.45695">
        <ele>5.5999999046326</ele>
        <time>2020-02-09T09:30:51.000Z</time>
      </trkpt>
      <trkpt lat="47.26967" lon="-2.45701">
        <ele>5.1999998092651</ele>
        <time>2020-02-09T09:30:52.000Z</time>
      </trkpt>
      <trkpt lat="47.26968" lon="-2.45708">
        <ele>4.8000001907349</ele>
        <time>2020-02-09T09:30:53.000Z</time>
      </trkpt>
      <trkpt lat="47.26971" lon="-2.4575">
        <ele>4.8000001907349</ele>
        <time>2020-02-09T09:31:00.000Z</time>
      </trkpt>
      <trkpt lat="47.26972" lon="-2.45775">
        <ele>4.8000001907349</ele>
        <time>2020-02-09T09:31:04.000Z</time>
      </trkpt>
      <trkpt lat="47.26971" lon="-2.45791">
        <ele>4.8000001907349</ele>
        <time>2020-02-09T09:31:07.000Z</time>
      </trkpt>
      <trkpt lat="47.26972" lon="-2.45821">
        <ele>4.8000001907349</ele>
        <time>2020-02-09T09:31:13.000Z</time>
      </trkpt>
      <trkpt lat="47.26975" lon="-2.45858">
        <ele>4.8000001907349</ele>
        <time>2020-02-09T09:31:19.000Z</time>
      </trkpt>
      <trkpt lat="47.26981" lon="-2.45907">
        <ele>4.8000001907349</ele>
        <time>2020-02-09T09:31:27.000Z</time>
      </trkpt>
      <trkpt lat="47.26991" lon="-2.45962">
        <ele>4.8000001907349</ele>
        <time>2020-02-09T09:31:35.000Z</time>
      </trkpt>
      <trkpt lat="47.26994" lon="-2.45976">
        <ele>4.8000001907349</ele>
        <time>2020-02-09T09:31:37.000Z</time>
      </trkpt>
      <trkpt lat="47.26996" lon="-2.45993">
        <ele>4.8000001907349</ele>
        <time>2020-02-09T09:31:40.000Z</time>
      </trkpt>
      <trkpt lat="47.27003" lon="-2.46023">
        <ele>4.8000001907349</ele>
        <time>2020-02-09T09:31:46.000Z</time>
      </trkpt>
      <trkpt lat="47.27011" lon="-2.46061">
        <ele>4.8000001907349</ele>
        <time>2020-02-09T09:31:52.000Z</time>
      </trkpt>
      <trkpt lat="47.27027" lon="-2.46121">
        <ele>4.8000001907349</ele>
        <time>2020-02-09T09:32:00.000Z</time>
      </trkpt>
      <trkpt lat="47.27041" lon="-2.46176">
        <ele>4.8000001907349</ele>
        <time>2020-02-09T09:32:08.000Z</time>
      </trkpt>
      <trkpt lat="47.27046" lon="-2.46193">
        <ele>4.8000001907349</ele>
        <time>2020-02-09T09:32:11.000Z</time>
      </trkpt>
      <trkpt lat="47.27054" lon="-2.46209">
        <ele>4.8000001907349</ele>
        <time>2020-02-09T09:32:14.000Z</time>
      </trkpt>
      <trkpt lat="47.27056" lon="-2.46216">
        <ele>4.8000001907349</ele>
        <time>2020-02-09T09:32:15.000Z</time>
      </trkpt>
      <trkpt lat="47.27062" lon="-2.46239">
        <ele>4.8000001907349</ele>
        <time>2020-02-09T09:32:18.000Z</time>
      </trkpt>
      <trkpt lat="47.27075" lon="-2.46297">
        <ele>4.8000001907349</ele>
        <time>2020-02-09T09:32:25.000Z</time>
      </trkpt>
      <trkpt lat="47.27092" lon="-2.46371">
        <ele>4.8000001907349</ele>
        <time>2020-02-09T09:32:34.000Z</time>
      </trkpt>
      <trkpt lat="47.27104" lon="-2.46434">
        <ele>4.8000001907349</ele>
        <time>2020-02-09T09:32:42.000Z</time>
      </trkpt>
      <trkpt lat="47.27111" lon="-2.46482">
        <ele>4.8000001907349</ele>
        <time>2020-02-09T09:32:48.000Z</time>
      </trkpt>
      <trkpt lat="47.27113" lon="-2.46489">
        <ele>4.8000001907349</ele>
        <time>2020-02-09T09:32:49.000Z</time>
      </trkpt>
      <trkpt lat="47.27116" lon="-2.46534">
        <ele>4.8000001907349</ele>
        <time>2020-02-09T09:32:56.000Z</time>
      </trkpt>
      <trkpt lat="47.27118" lon="-2.46563">
        <ele>4.8000001907349</ele>
        <time>2020-02-09T09:33:01.000Z</time>
      </trkpt>
      <trkpt lat="47.27118" lon="-2.46575">
        <ele>4.8000001907349</ele>
        <time>2020-02-09T09:33:03.000Z</time>
      </trkpt>
      <trkpt lat="47.27119" lon="-2.46626">
        <ele>4.8000001907349</ele>
        <time>2020-02-09T09:33:11.000Z</time>
      </trkpt>
      <trkpt lat="47.27121" lon="-2.46667">
        <ele>4.8000001907349</ele>
        <time>2020-02-09T09:33:18.000Z</time>
      </trkpt>
      <trkpt lat="47.27124" lon="-2.46721">
        <ele>4.8000001907349</ele>
        <time>2020-02-09T09:33:27.000Z</time>
      </trkpt>
      <trkpt lat="47.27125" lon="-2.46733">
        <ele>4.8000001907349</ele>
        <time>2020-02-09T09:33:29.000Z</time>
      </trkpt>
      <trkpt lat="47.27126" lon="-2.46759">
        <ele>4.8000001907349</ele>
        <time>2020-02-09T09:33:33.000Z</time>
      </trkpt>
      <trkpt lat="47.27127" lon="-2.46817">
        <ele>4.8000001907349</ele>
        <time>2020-02-09T09:33:42.000Z</time>
      </trkpt>
      <trkpt lat="47.27125" lon="-2.46856">
        <ele>4.8000001907349</ele>
        <time>2020-02-09T09:33:49.000Z</time>
      </trkpt>
      <trkpt lat="47.27121" lon="-2.4689">
        <ele>4.8000001907349</ele>
        <time>2020-02-09T09:33:55.000Z</time>
      </trkpt>
      <trkpt lat="47.27119" lon="-2.46921">
        <ele>4.8000001907349</ele>
        <time>2020-02-09T09:34:01.000Z</time>
      </trkpt>
      <trkpt lat="47.27117" lon="-2.46939">
        <ele>4.8000001907349</ele>
        <time>2020-02-09T09:34:04.000Z</time>
      </trkpt>
      <trkpt lat="47.27115" lon="-2.46957">
        <ele>4.8000001907349</ele>
        <time>2020-02-09T09:34:07.000Z</time>
      </trkpt>
      <trkpt lat="47.27113" lon="-2.46986">
        <ele>4.8000001907349</ele>
        <time>2020-02-09T09:34:12.000Z</time>
      </trkpt>
      <trkpt lat="47.27113" lon="-2.47029">
        <ele>4.8000001907349</ele>
        <time>2020-02-09T09:34:19.000Z</time>
      </trkpt>
      <trkpt lat="47.27114" lon="-2.47055">
        <ele>4.8000001907349</ele>
        <time>2020-02-09T09:34:23.000Z</time>
      </trkpt>
      <trkpt lat="47.27114" lon="-2.47076">
        <ele>4.8000001907349</ele>
        <time>2020-02-09T09:34:26.000Z</time>
      </trkpt>
      <trkpt lat="47.27116" lon="-2.47116">
        <ele>4.8000001907349</ele>
        <time>2020-02-09T09:34:32.000Z</time>
      </trkpt>
      <trkpt lat="47.27117" lon="-2.47123">
        <ele>4.8000001907349</ele>
        <time>2020-02-09T09:34:33.000Z</time>
      </trkpt>
      <trkpt lat="47.27123" lon="-2.47172">
        <ele>4.8000001907349</ele>
        <time>2020-02-09T09:34:40.000Z</time>
      </trkpt>
      <trkpt lat="47.27127" lon="-2.47218">
        <ele>4.8000001907349</ele>
        <time>2020-02-09T09:34:47.000Z</time>
      </trkpt>
      <trkpt lat="47.27131" lon="-2.47255">
        <ele>4.8000001907349</ele>
        <time>2020-02-09T09:34:53.000Z</time>
      </trkpt>
      <trkpt lat="47.27133" lon="-2.47295">
        <ele>4.8000001907349</ele>
        <time>2020-02-09T09:34:59.000Z</time>
      </trkpt>
      <trkpt lat="47.27136" lon="-2.47332">
        <ele>4.8000001907349</ele>
        <time>2020-02-09T09:35:05.000Z</time>
      </trkpt>
      <trkpt lat="47.27145" lon="-2.47374">
        <ele>4.8000001907349</ele>
        <time>2020-02-09T09:35:11.000Z</time>
      </trkpt>
      <trkpt lat="47.27168" lon="-2.47433">
        <ele>4.8000001907349</ele>
        <time>2020-02-09T09:35:19.000Z</time>
      </trkpt>
      <trkpt lat="47.27189" lon="-2.47487">
        <ele>4.8000001907349</ele>
        <time>2020-02-09T09:35:26.000Z</time>
      </trkpt>
      <trkpt lat="47.27199" lon="-2.47536">
        <ele>4.8000001907349</ele>
        <time>2020-02-09T09:35:32.000Z</time>
      </trkpt>
      <trkpt lat="47.27203" lon="-2.47578">
        <ele>4.8000001907349</ele>
        <time>2020-02-09T09:35:38.000Z</time>
      </trkpt>
      <trkpt lat="47.27206" lon="-2.4763">
        <ele>4.8000001907349</ele>
        <time>2020-02-09T09:35:45.000Z</time>
      </trkpt>
      <trkpt lat="47.27216" lon="-2.47637">
        <ele>4.8000001907349</ele>
        <time>2020-02-09T09:35:48.000Z</time>
      </trkpt>
      <trkpt lat="47.27225" lon="-2.47633">
        <ele>4.8000001907349</ele>
        <time>2020-02-09T09:35:50.000Z</time>
      </trkpt>
      <trkpt lat="47.27234" lon="-2.47627">
        <ele>4.8000001907349</ele>
        <time>2020-02-09T09:35:52.000Z</time>
      </trkpt>
      <trkpt lat="47.27256" lon="-2.47613">
        <ele>4.8000001907349</ele>
        <time>2020-02-09T09:35:58.000Z</time>
      </trkpt>
      <trkpt lat="47.27286" lon="-2.47594">
        <ele>4.8000001907349</ele>
        <time>2020-02-09T09:36:06.000Z</time>
      </trkpt>
      <trkpt lat="47.27302" lon="-2.47587">
        <ele>4.8000001907349</ele>
        <time>2020-02-09T09:36:11.000Z</time>
      </trkpt>
      <trkpt lat="47.27305" lon="-2.47589">
        <ele>4.8000001907349</ele>
        <time>2020-02-09T09:36:12.000Z</time>
      </trkpt>
      <trkpt lat="47.27319" lon="-2.47609">
        <ele>4.8000001907349</ele>
        <time>2020-02-09T09:36:18.000Z</time>
      </trkpt>
      <trkpt lat="47.2733" lon="-2.47623">
        <ele>4.8000001907349</ele>
        <time>2020-02-09T09:36:22.000Z</time>
      </trkpt>
      <trkpt lat="47.27341" lon="-2.47631">
        <ele>4.8000001907349</ele>
        <time>2020-02-09T09:36:25.000Z</time>
      </trkpt>
      <trkpt lat="47.27344" lon="-2.47635">
        <ele>4.8000001907349</ele>
        <time>2020-02-09T09:36:26.000Z</time>
      </trkpt>
      <trkpt lat="47.27358" lon="-2.47651">
        <ele>4.8000001907349</ele>
        <time>2020-02-09T09:36:29.000Z</time>
      </trkpt>
      <trkpt lat="47.27389" lon="-2.47688">
        <ele>4.8000001907349</ele>
        <time>2020-02-09T09:36:35.000Z</time>
      </trkpt>
      <trkpt lat="47.27404" lon="-2.47703">
        <ele>4.8000001907349</ele>
        <time>2020-02-09T09:36:38.000Z</time>
      </trkpt>
      <trkpt lat="47.27409" lon="-2.47709">
        <ele>4.8000001907349</ele>
        <time>2020-02-09T09:36:39.000Z</time>
      </trkpt>
      <trkpt lat="47.27413" lon="-2.47716">
        <ele>4.8000001907349</ele>
        <time>2020-02-09T09:36:40.000Z</time>
      </trkpt>
      <trkpt lat="47.27425" lon="-2.47733">
        <ele>4.8000001907349</ele>
        <time>2020-02-09T09:36:43.000Z</time>
      </trkpt>
      <trkpt lat="47.27429" lon="-2.47739">
        <ele>4.8000001907349</ele>
        <time>2020-02-09T09:36:44.000Z</time>
      </trkpt>
      <trkpt lat="47.27447" lon="-2.47769">
        <ele>4.8000001907349</ele>
        <time>2020-02-09T09:36:49.000Z</time>
      </trkpt>
      <trkpt lat="47.27466" lon="-2.47804">
        <ele>4.8000001907349</ele>
        <time>2020-02-09T09:36:55.000Z</time>
      </trkpt>
      <trkpt lat="47.27469" lon="-2.47809">
        <ele>4.8000001907349</ele>
        <time>2020-02-09T09:36:56.000Z</time>
      </trkpt>
      <trkpt lat="47.27484" lon="-2.47829">
        <ele>4.8000001907349</ele>
        <time>2020-02-09T09:37:00.000Z</time>
      </trkpt>
      <trkpt lat="47.2749" lon="-2.47842">
        <ele>4.8000001907349</ele>
        <time>2020-02-09T09:37:02.000Z</time>
      </trkpt>
      <trkpt lat="47.27495" lon="-2.47854">
        <ele>4.8000001907349</ele>
        <time>2020-02-09T09:37:04.000Z</time>
      </trkpt>
      <trkpt lat="47.275" lon="-2.47866">
        <ele>4.8000001907349</ele>
        <time>2020-02-09T09:37:06.000Z</time>
      </trkpt>
      <trkpt lat="47.27508" lon="-2.47885">
        <ele>4.8000001907349</ele>
        <time>2020-02-09T09:37:09.000Z</time>
      </trkpt>
      <trkpt lat="47.27511" lon="-2.47891">
        <ele>4.8000001907349</ele>
        <time>2020-02-09T09:37:10.000Z</time>
      </trkpt>
      <trkpt lat="47.27532" lon="-2.47926">
        <ele>4.8000001907349</ele>
        <time>2020-02-09T09:37:17.000Z</time>
      </trkpt>
      <trkpt lat="47.27545" lon="-2.47926">
        <ele>4.8000001907349</ele>
        <time>2020-02-09T09:37:20.000Z</time>
      </trkpt>
      <trkpt lat="47.2755" lon="-2.47923">
        <ele>4.8000001907349</ele>
        <time>2020-02-09T09:37:21.000Z</time>
      </trkpt>
      <trkpt lat="47.27582" lon="-2.47907">
        <ele>4.8000001907349</ele>
        <time>2020-02-09T09:37:28.000Z</time>
      </trkpt>
      <trkpt lat="47.27593" lon="-2.47917">
        <ele>4.8000001907349</ele>
        <time>2020-02-09T09:37:31.000Z</time>
      </trkpt>
      <trkpt lat="47.27598" lon="-2.47929">
        <ele>4.8000001907349</ele>
        <time>2020-02-09T09:37:33.000Z</time>
      </trkpt>
      <trkpt lat="47.27605" lon="-2.47952">
        <ele>4.8000001907349</ele>
        <time>2020-02-09T09:37:37.000Z</time>
      </trkpt>
      <trkpt lat="47.27612" lon="-2.47982">
        <ele>4.8000001907349</ele>
        <time>2020-02-09T09:37:42.000Z</time>
      </trkpt>
      <trkpt lat="47.27617" lon="-2.47993">
        <ele>4.8000001907349</ele>
        <time>2020-02-09T09:37:44.000Z</time>
      </trkpt>
      <trkpt lat="47.27623" lon="-2.48009">
        <ele>4.8000001907349</ele>
        <time>2020-02-09T09:37:47.000Z</time>
      </trkpt>
      <trkpt lat="47.27624" lon="-2.48022">
        <ele>4.8000001907349</ele>
        <time>2020-02-09T09:37:49.000Z</time>
      </trkpt>
      <trkpt lat="47.2762" lon="-2.48047">
        <ele>4.8000001907349</ele>
        <time>2020-02-09T09:37:53.000Z</time>
      </trkpt>
      <trkpt lat="47.27617" lon="-2.4806">
        <ele>4.8000001907349</ele>
        <time>2020-02-09T09:37:55.000Z</time>
      </trkpt>
      <trkpt lat="47.27618" lon="-2.48086">
        <ele>4.8000001907349</ele>
        <time>2020-02-09T09:37:59.000Z</time>
      </trkpt>
      <trkpt lat="47.27621" lon="-2.48102">
        <ele>4.8000001907349</ele>
        <time>2020-02-09T09:38:03.000Z</time>
      </trkpt>
      <trkpt lat="47.27625" lon="-2.4813">
        <ele>4.8000001907349</ele>
        <time>2020-02-09T09:38:08.000Z</time>
      </trkpt>
      <trkpt lat="47.27631" lon="-2.4816">
        <ele>4.8000001907349</ele>
        <time>2020-02-09T09:38:13.000Z</time>
      </trkpt>
      <trkpt lat="47.27637" lon="-2.482">
        <ele>4.8000001907349</ele>
        <time>2020-02-09T09:38:21.000Z</time>
      </trkpt>
      <trkpt lat="47.27641" lon="-2.48217">
        <ele>4.8000001907349</ele>
        <time>2020-02-09T09:38:24.000Z</time>
      </trkpt>
      <trkpt lat="47.27641" lon="-2.48221">
        <ele>4.8000001907349</ele>
        <time>2020-02-09T09:38:25.000Z</time>
      </trkpt>
      <trkpt lat="47.27637" lon="-2.48235">
        <ele>4.8000001907349</ele>
        <time>2020-02-09T09:38:28.000Z</time>
      </trkpt>
      <trkpt lat="47.27632" lon="-2.48248">
        <ele>4.8000001907349</ele>
        <time>2020-02-09T09:38:31.000Z</time>
      </trkpt>
      <trkpt lat="47.27631" lon="-2.48258">
        <ele>4.8000001907349</ele>
        <time>2020-02-09T09:38:33.000Z</time>
      </trkpt>
      <trkpt lat="47.27632" lon="-2.48264">
        <ele>4.8000001907349</ele>
        <time>2020-02-09T09:38:34.000Z</time>
      </trkpt>
      <trkpt lat="47.27641" lon="-2.48303">
        <ele>4.8000001907349</ele>
        <time>2020-02-09T09:38:40.000Z</time>
      </trkpt>
      <trkpt lat="47.27641" lon="-2.4831">
        <ele>4.8000001907349</ele>
        <time>2020-02-09T09:38:41.000Z</time>
      </trkpt>
      <trkpt lat="47.27646" lon="-2.48326">
        <ele>4.8000001907349</ele>
        <time>2020-02-09T09:38:45.000Z</time>
      </trkpt>
      <trkpt lat="47.27658" lon="-2.48324">
        <ele>4.8000001907349</ele>
        <time>2020-02-09T09:38:49.000Z</time>
      </trkpt>
      <trkpt lat="47.27665" lon="-2.48321">
        <ele>4.8000001907349</ele>
        <time>2020-02-09T09:38:51.000Z</time>
      </trkpt>
      <trkpt lat="47.27666" lon="-2.48318">
        <ele>4.8000001907349</ele>
        <time>2020-02-09T09:38:52.000Z</time>
      </trkpt>
      <trkpt lat="47.27672" lon="-2.4831">
        <ele>4.8000001907349</ele>
        <time>2020-02-09T09:38:55.000Z</time>
      </trkpt>
      <trkpt lat="47.27678" lon="-2.48306">
        <ele>4.8000001907349</ele>
        <time>2020-02-09T09:38:58.000Z</time>
      </trkpt>
      <trkpt lat="47.27688" lon="-2.48299">
        <ele>4.8000001907349</ele>
        <time>2020-02-09T09:39:04.000Z</time>
      </trkpt>
      <trkpt lat="47.27697" lon="-2.48308">
        <ele>4.8000001907349</ele>
        <time>2020-02-09T09:39:09.000Z</time>
      </trkpt>
      <trkpt lat="47.27705" lon="-2.48325">
        <ele>4.8000001907349</ele>
        <time>2020-02-09T09:39:13.000Z</time>
      </trkpt>
      <trkpt lat="47.2771" lon="-2.48356">
        <ele>4.8000001907349</ele>
        <time>2020-02-09T09:39:18.000Z</time>
      </trkpt>
      <trkpt lat="47.27707" lon="-2.4837">
        <ele>4.8000001907349</ele>
        <time>2020-02-09T09:39:22.000Z</time>
      </trkpt>
      <trkpt lat="47.27706" lon="-2.48376">
        <ele>4.8000001907349</ele>
        <time>2020-02-09T09:39:24.000Z</time>
      </trkpt>
      <trkpt lat="47.27707" lon="-2.48383">
        <ele>4.8000001907349</ele>
        <time>2020-02-09T09:39:26.000Z</time>
      </trkpt>
      <trkpt lat="47.27703" lon="-2.48391">
        <ele>4.8000001907349</ele>
        <time>2020-02-09T09:39:28.000Z</time>
      </trkpt>
      <trkpt lat="47.27698" lon="-2.48398">
        <ele>4.8000001907349</ele>
        <time>2020-02-09T09:39:30.000Z</time>
      </trkpt>
      <trkpt lat="47.27681" lon="-2.48432">
        <ele>4.8000001907349</ele>
        <time>2020-02-09T09:39:37.000Z</time>
      </trkpt>
      <trkpt lat="47.27663" lon="-2.48461">
        <ele>4.8000001907349</ele>
        <time>2020-02-09T09:39:43.000Z</time>
      </trkpt>
      <trkpt lat="47.27646" lon="-2.485">
        <ele>4.8000001907349</ele>
        <time>2020-02-09T09:39:50.000Z</time>
      </trkpt>
      <trkpt lat="47.27634" lon="-2.4853">
        <ele>4.8000001907349</ele>
        <time>2020-02-09T09:39:55.000Z</time>
      </trkpt>
      <trkpt lat="47.27629" lon="-2.48542">
        <ele>4.8000001907349</ele>
        <time>2020-02-09T09:39:57.000Z</time>
      </trkpt>
      <trkpt lat="47.27624" lon="-2.48554">
        <ele>4.8000001907349</ele>
        <time>2020-02-09T09:39:59.000Z</time>
      </trkpt>
      <trkpt lat="47.27614" lon="-2.48579">
        <ele>4.8000001907349</ele>
        <time>2020-02-09T09:40:03.000Z</time>
      </trkpt>
      <trkpt lat="47.276" lon="-2.48613">
        <ele>4.8000001907349</ele>
        <time>2020-02-09T09:40:10.000Z</time>
      </trkpt>
      <trkpt lat="47.27592" lon="-2.48629">
        <ele>4.8000001907349</ele>
        <time>2020-02-09T09:40:15.000Z</time>
      </trkpt>
      <trkpt lat="47.27581" lon="-2.48652">
        <ele>4.8000001907349</ele>
        <time>2020-02-09T09:40:20.000Z</time>
      </trkpt>
      <trkpt lat="47.27569" lon="-2.48679">
        <ele>4.8000001907349</ele>
        <time>2020-02-09T09:40:25.000Z</time>
      </trkpt>
      <trkpt lat="47.27563" lon="-2.48688">
        <ele>4.8000001907349</ele>
        <time>2020-02-09T09:40:27.000Z</time>
      </trkpt>
      <trkpt lat="47.27546" lon="-2.48698">
        <ele>4.8000001907349</ele>
        <time>2020-02-09T09:40:32.000Z</time>
      </trkpt>
      <trkpt lat="47.27539" lon="-2.48697">
        <ele>4.8000001907349</ele>
        <time>2020-02-09T09:40:34.000Z</time>
      </trkpt>
      <trkpt lat="47.27525" lon="-2.48693">
        <ele>4.8000001907349</ele>
        <time>2020-02-09T09:40:38.000Z</time>
      </trkpt>
      <trkpt lat="47.27521" lon="-2.4868">
        <ele>4.8000001907349</ele>
        <time>2020-02-09T09:40:41.000Z</time>
      </trkpt>
      <trkpt lat="47.27514" lon="-2.48664">
        <ele>4.8000001907349</ele>
        <time>2020-02-09T09:40:45.000Z</time>
      </trkpt>
      <trkpt lat="47.27501" lon="-2.48644">
        <ele>4.8000001907349</ele>
        <time>2020-02-09T09:40:50.000Z</time>
      </trkpt>
      <trkpt lat="47.27486" lon="-2.48616">
        <ele>4.8000001907349</ele>
        <time>2020-02-09T09:40:56.000Z</time>
      </trkpt>
      <trkpt lat="47.27479" lon="-2.48591">
        <ele>4.8000001907349</ele>
        <time>2020-02-09T09:41:01.000Z</time>
      </trkpt>
      <trkpt lat="47.27473" lon="-2.4856">
        <ele>4.8000001907349</ele>
        <time>2020-02-09T09:41:07.000Z</time>
      </trkpt>
      <trkpt lat="47.2747" lon="-2.48539">
        <ele>4.8000001907349</ele>
        <time>2020-02-09T09:41:11.000Z</time>
      </trkpt>
      <trkpt lat="47.27469" lon="-2.48532">
        <ele>4.8000001907349</ele>
        <time>2020-02-09T09:41:12.000Z</time>
      </trkpt>
      <trkpt lat="47.27468" lon="-2.48487">
        <ele>4.8000001907349</ele>
        <time>2020-02-09T09:41:19.000Z</time>
      </trkpt>
      <trkpt lat="47.27465" lon="-2.48453">
        <ele>4.8000001907349</ele>
        <time>2020-02-09T09:41:25.000Z</time>
      </trkpt>
      <trkpt lat="47.27455" lon="-2.48415">
        <ele>4.8000001907349</ele>
        <time>2020-02-09T09:41:32.000Z</time>
      </trkpt>
      <trkpt lat="47.27442" lon="-2.48375">
        <ele>4.8000001907349</ele>
        <time>2020-02-09T09:41:39.000Z</time>
      </trkpt>
      <trkpt lat="47.2743" lon="-2.48325">
        <ele>4.8000001907349</ele>
        <time>2020-02-09T09:41:47.000Z</time>
      </trkpt>
      <trkpt lat="47.27422" lon="-2.48272">
        <ele>4.8000001907349</ele>
        <time>2020-02-09T09:41:53.000Z</time>
      </trkpt>
      <trkpt lat="47.27414" lon="-2.48225">
        <ele>4.8000001907349</ele>
        <time>2020-02-09T09:41:59.000Z</time>
      </trkpt>
      <trkpt lat="47.27413" lon="-2.48218">
        <ele>4.8000001907349</ele>
        <time>2020-02-09T09:42:00.000Z</time>
      </trkpt>
      <trkpt lat="47.27408" lon="-2.4819">
        <ele>4.8000001907349</ele>
        <time>2020-02-09T09:42:05.000Z</time>
      </trkpt>
      <trkpt lat="47.27407" lon="-2.48178">
        <ele>4.8000001907349</ele>
        <time>2020-02-09T09:42:07.000Z</time>
      </trkpt>
      <trkpt lat="47.27407" lon="-2.48147">
        <ele>4.8000001907349</ele>
        <time>2020-02-09T09:42:12.000Z</time>
      </trkpt>
      <trkpt lat="47.27406" lon="-2.48141">
        <ele>4.8000001907349</ele>
        <time>2020-02-09T09:42:13.000Z</time>
      </trkpt>
      <trkpt lat="47.27402" lon="-2.4813">
        <ele>4.8000001907349</ele>
        <time>2020-02-09T09:42:15.000Z</time>
      </trkpt>
      <trkpt lat="47.27395" lon="-2.48121">
        <ele>4.8000001907349</ele>
        <time>2020-02-09T09:42:17.000Z</time>
      </trkpt>
      <trkpt lat="47.27389" lon="-2.48113">
        <ele>4.8000001907349</ele>
        <time>2020-02-09T09:42:19.000Z</time>
      </trkpt>
      <trkpt lat="47.27374" lon="-2.48098">
        <ele>4.8000001907349</ele>
        <time>2020-02-09T09:42:24.000Z</time>
      </trkpt>
      <trkpt lat="47.2737" lon="-2.48093">
        <ele>4.8000001907349</ele>
        <time>2020-02-09T09:42:27.000Z</time>
      </trkpt>
      <trkpt lat="47.2737" lon="-2.4809">
        <ele>4.8000001907349</ele>
        <time>2020-02-09T09:42:28.000Z</time>
      </trkpt>
      <trkpt lat="47.27375" lon="-2.48088">
        <ele>4.8000001907349</ele>
        <time>2020-02-09T09:42:31.000Z</time>
      </trkpt>
      <trkpt lat="47.27376" lon="-2.4809">
        <ele>4.8000001907349</ele>
        <time>2020-02-09T09:42:32.000Z</time>
      </trkpt>
      <trkpt lat="47.27383" lon="-2.48104">
        <ele>4.8000001907349</ele>
        <time>2020-02-09T09:42:38.000Z</time>
      </trkpt>
      <trkpt lat="47.27392" lon="-2.48117">
        <ele>4.8000001907349</ele>
        <time>2020-02-09T09:42:45.000Z</time>
      </trkpt>
      <trkpt lat="47.27405" lon="-2.48128">
        <ele>4.8000001907349</ele>
        <time>2020-02-09T09:42:52.000Z</time>
      </trkpt>
      <trkpt lat="47.27419" lon="-2.4813">
        <ele>4.8000001907349</ele>
        <time>2020-02-09T09:42:58.000Z</time>
      </trkpt>
      <trkpt lat="47.2744" lon="-2.48131">
        <ele>4.8000001907349</ele>
        <time>2020-02-09T09:43:05.000Z</time>
      </trkpt>
      <trkpt lat="47.27459" lon="-2.48126">
        <ele>4.8000001907349</ele>
        <time>2020-02-09T09:43:11.000Z</time>
      </trkpt>
      <trkpt lat="47.27474" lon="-2.48122">
        <ele>4.8000001907349</ele>
        <time>2020-02-09T09:43:16.000Z</time>
      </trkpt>
      <trkpt lat="47.27495" lon="-2.48117">
        <ele>4.8000001907349</ele>
        <time>2020-02-09T09:43:22.000Z</time>
      </trkpt>
      <trkpt lat="47.27508" lon="-2.48128">
        <ele>4.8000001907349</ele>
        <time>2020-02-09T09:43:27.000Z</time>
      </trkpt>
      <trkpt lat="47.27516" lon="-2.48131">
        <ele>4.8000001907349</ele>
        <time>2020-02-09T09:43:31.000Z</time>
      </trkpt>
      <trkpt lat="47.27527" lon="-2.48137">
        <ele>4.8000001907349</ele>
        <time>2020-02-09T09:43:35.000Z</time>
      </trkpt>
      <trkpt lat="47.27544" lon="-2.4815">
        <ele>4.8000001907349</ele>
        <time>2020-02-09T09:43:41.000Z</time>
      </trkpt>
      <trkpt lat="47.27545" lon="-2.48151">
        <ele>4.8000001907349</ele>
        <time>2020-02-09T09:43:43.000Z</time>
      </trkpt>
      <trkpt lat="47.27547" lon="-2.4815">
        <ele>-7.4000000953674</ele>
        <time>2020-02-09T09:55:56.000Z</time>
      </trkpt>
      <trkpt lat="47.27548" lon="-2.48148">
        <ele>-7.4000000953674</ele>
        <time>2020-02-09T09:55:57.000Z</time>
      </trkpt>
      <trkpt lat="47.27557" lon="-2.48146">
        <ele>-7.4000000953674</ele>
        <time>2020-02-09T09:56:01.000Z</time>
      </trkpt>
      <trkpt lat="47.27566" lon="-2.4815">
        <ele>-7.4000000953674</ele>
        <time>2020-02-09T09:56:06.000Z</time>
      </trkpt>
      <trkpt lat="47.27584" lon="-2.48164">
        <ele>-7.4000000953674</ele>
        <time>2020-02-09T09:56:12.000Z</time>
      </trkpt>
      <trkpt lat="47.27594" lon="-2.48176">
        <ele>-7.4000000953674</ele>
        <time>2020-02-09T09:56:17.000Z</time>
      </trkpt>
      <trkpt lat="47.27605" lon="-2.48186">
        <ele>-7.4000000953674</ele>
        <time>2020-02-09T09:56:22.000Z</time>
      </trkpt>
      <trkpt lat="47.2762" lon="-2.48197">
        <ele>-7.4000000953674</ele>
        <time>2020-02-09T09:56:26.000Z</time>
      </trkpt>
      <trkpt lat="47.27636" lon="-2.48214">
        <ele>-7.4000000953674</ele>
        <time>2020-02-09T09:56:31.000Z</time>
      </trkpt>
      <trkpt lat="47.27643" lon="-2.48216">
        <ele>-7.4000000953674</ele>
        <time>2020-02-09T09:56:33.000Z</time>
      </trkpt>
      <trkpt lat="47.27648" lon="-2.48209">
        <ele>-7.4000000953674</ele>
        <time>2020-02-09T09:56:35.000Z</time>
      </trkpt>
      <trkpt lat="47.27658" lon="-2.48189">
        <ele>-7.4000000953674</ele>
        <time>2020-02-09T09:56:39.000Z</time>
      </trkpt>
      <trkpt lat="47.2766" lon="-2.48184">
        <ele>-7.4000000953674</ele>
        <time>2020-02-09T09:56:40.000Z</time>
      </trkpt>
      <trkpt lat="47.27681" lon="-2.48143">
        <ele>-7.4000000953674</ele>
        <time>2020-02-09T09:56:49.000Z</time>
      </trkpt>
      <trkpt lat="47.27689" lon="-2.48129">
        <ele>-7</ele>
        <time>2020-02-09T09:56:53.000Z</time>
      </trkpt>
      <trkpt lat="47.27691" lon="-2.48126">
        <ele>-6.5999999046326</ele>
        <time>2020-02-09T09:56:54.000Z</time>
      </trkpt>
      <trkpt lat="47.27693" lon="-2.48124">
        <ele>-6.1999998092651</ele>
        <time>2020-02-09T09:56:55.000Z</time>
      </trkpt>
      <trkpt lat="47.27694" lon="-2.48121">
        <ele>-5.8000001907349</ele>
        <time>2020-02-09T09:56:56.000Z</time>
      </trkpt>
      <trkpt lat="47.27696" lon="-2.48118">
        <ele>-5.4000000953674</ele>
        <time>2020-02-09T09:56:57.000Z</time>
      </trkpt>
      <trkpt lat="47.277" lon="-2.48104">
        <ele>-5.4000000953674</ele>
        <time>2020-02-09T09:57:01.000Z</time>
      </trkpt>
      <trkpt lat="47.277" lon="-2.481">
        <ele>-5.4000000953674</ele>
        <time>2020-02-09T09:57:02.000Z</time>
      </trkpt>
      <trkpt lat="47.27703" lon="-2.48093">
        <ele>-5.4000000953674</ele>
        <time>2020-02-09T09:57:05.000Z</time>
      </trkpt>
      <trkpt lat="47.27705" lon="-2.48087">
        <ele>-5.4000000953674</ele>
        <time>2020-02-09T09:57:08.000Z</time>
      </trkpt>
      <trkpt lat="47.27707" lon="-2.48086">
        <ele>-5.4000000953674</ele>
        <time>2020-02-09T09:57:09.000Z</time>
      </trkpt>
      <trkpt lat="47.27714" lon="-2.48077">
        <ele>-5.4000000953674</ele>
        <time>2020-02-09T09:57:12.000Z</time>
      </trkpt>
      <trkpt lat="47.27722" lon="-2.48072">
        <ele>-5.4000000953674</ele>
        <time>2020-02-09T09:57:15.000Z</time>
      </trkpt>
      <trkpt lat="47.27728" lon="-2.48067">
        <ele>-5.4000000953674</ele>
        <time>2020-02-09T09:57:17.000Z</time>
      </trkpt>
      <trkpt lat="47.27747" lon="-2.48051">
        <ele>-5.4000000953674</ele>
        <time>2020-02-09T09:57:22.000Z</time>
      </trkpt>
      <trkpt lat="47.27751" lon="-2.48048">
        <ele>-5.4000000953674</ele>
        <time>2020-02-09T09:57:23.000Z</time>
      </trkpt>
      <trkpt lat="47.27758" lon="-2.48031">
        <ele>-5.4000000953674</ele>
        <time>2020-02-09T09:57:26.000Z</time>
      </trkpt>
      <trkpt lat="47.27757" lon="-2.48012">
        <ele>-5.4000000953674</ele>
        <time>2020-02-09T09:57:29.000Z</time>
      </trkpt>
      <trkpt lat="47.27757" lon="-2.48005">
        <ele>-5.4000000953674</ele>
        <time>2020-02-09T09:57:30.000Z</time>
      </trkpt>
      <trkpt lat="47.27757" lon="-2.47999">
        <ele>-5.4000000953674</ele>
        <time>2020-02-09T09:57:31.000Z</time>
      </trkpt>
      <trkpt lat="47.27756" lon="-2.47972">
        <ele>-5.4000000953674</ele>
        <time>2020-02-09T09:57:35.000Z</time>
      </trkpt>
      <trkpt lat="47.27759" lon="-2.47963">
        <ele>-5.4000000953674</ele>
        <time>2020-02-09T09:57:37.000Z</time>
      </trkpt>
      <trkpt lat="47.27767" lon="-2.4796">
        <ele>-5.4000000953674</ele>
        <time>2020-02-09T09:57:39.000Z</time>
      </trkpt>
      <trkpt lat="47.27771" lon="-2.47959">
        <ele>-5.4000000953674</ele>
        <time>2020-02-09T09:57:40.000Z</time>
      </trkpt>
      <trkpt lat="47.27775" lon="-2.47956">
        <ele>-5.4000000953674</ele>
        <time>2020-02-09T09:57:41.000Z</time>
      </trkpt>
      <trkpt lat="47.27783" lon="-2.47948">
        <ele>-5.4000000953674</ele>
        <time>2020-02-09T09:57:43.000Z</time>
      </trkpt>
      <trkpt lat="47.27787" lon="-2.47942">
        <ele>-5.4000000953674</ele>
        <time>2020-02-09T09:57:44.000Z</time>
      </trkpt>
      <trkpt lat="47.27799" lon="-2.4791">
        <ele>-5.4000000953674</ele>
        <time>2020-02-09T09:57:48.000Z</time>
      </trkpt>
      <trkpt lat="47.27805" lon="-2.47893">
        <ele>-5.4000000953674</ele>
        <time>2020-02-09T09:57:50.000Z</time>
      </trkpt>
      <trkpt lat="47.27813" lon="-2.47861">
        <ele>-5.4000000953674</ele>
        <time>2020-02-09T09:57:54.000Z</time>
      </trkpt>
      <trkpt lat="47.27824" lon="-2.47821">
        <ele>-5.4000000953674</ele>
        <time>2020-02-09T09:58:00.000Z</time>
      </trkpt>
      <trkpt lat="47.27835" lon="-2.47803">
        <ele>-5</ele>
        <time>2020-02-09T09:58:04.000Z</time>
      </trkpt>
      <trkpt lat="47.27838" lon="-2.47799">
        <ele>-4.1999998092651</ele>
        <time>2020-02-09T09:58:05.000Z</time>
      </trkpt>
      <trkpt lat="47.27841" lon="-2.47795">
        <ele>-3.7999999523163</ele>
        <time>2020-02-09T09:58:06.000Z</time>
      </trkpt>
      <trkpt lat="47.27844" lon="-2.4779">
        <ele>-3.4000000953674</ele>
        <time>2020-02-09T09:58:07.000Z</time>
      </trkpt>
      <trkpt lat="47.27846" lon="-2.47788">
        <ele>-3.4000000953674</ele>
        <time>2020-02-09T09:58:09.000Z</time>
      </trkpt>
      <trkpt lat="47.27851" lon="-2.47778">
        <ele>-3.4000000953674</ele>
        <time>2020-02-09T09:58:14.000Z</time>
      </trkpt>
      <trkpt lat="47.27865" lon="-2.47764">
        <ele>-3.4000000953674</ele>
        <time>2020-02-09T09:58:18.000Z</time>
      </trkpt>
      <trkpt lat="47.27873" lon="-2.47756">
        <ele>-3.4000000953674</ele>
        <time>2020-02-09T09:58:20.000Z</time>
      </trkpt>
      <trkpt lat="47.27885" lon="-2.47742">
        <ele>-3.4000000953674</ele>
        <time>2020-02-09T09:58:23.000Z</time>
      </trkpt>
      <trkpt lat="47.27911" lon="-2.47707">
        <ele>-3.4000000953674</ele>
        <time>2020-02-09T09:58:29.000Z</time>
      </trkpt>
      <trkpt lat="47.27944" lon="-2.47662">
        <ele>-3.4000000953674</ele>
        <time>2020-02-09T09:58:35.000Z</time>
      </trkpt>
      <trkpt lat="47.27949" lon="-2.47652">
        <ele>-3.4000000953674</ele>
        <time>2020-02-09T09:58:36.000Z</time>
      </trkpt>
      <trkpt lat="47.27958" lon="-2.4763">
        <ele>-3.4000000953674</ele>
        <time>2020-02-09T09:58:38.000Z</time>
      </trkpt>
      <trkpt lat="47.27977" lon="-2.47566">
        <ele>-3.4000000953674</ele>
        <time>2020-02-09T09:58:44.000Z</time>
      </trkpt>
      <trkpt lat="47.27984" lon="-2.47534">
        <ele>-3.4000000953674</ele>
        <time>2020-02-09T09:58:47.000Z</time>
      </trkpt>
      <trkpt lat="47.27986" lon="-2.47513">
        <ele>-3.4000000953674</ele>
        <time>2020-02-09T09:58:49.000Z</time>
      </trkpt>
      <trkpt lat="47.2799" lon="-2.47452">
        <ele>-3.4000000953674</ele>
        <time>2020-02-09T09:58:55.000Z</time>
      </trkpt>
      <trkpt lat="47.27997" lon="-2.47387">
        <ele>-3.4000000953674</ele>
        <time>2020-02-09T09:59:02.000Z</time>
      </trkpt>
      <trkpt lat="47.27999" lon="-2.47372">
        <ele>-3.4000000953674</ele>
        <time>2020-02-09T09:59:04.000Z</time>
      </trkpt>
      <trkpt lat="47.28004" lon="-2.47352">
        <ele>-3.4000000953674</ele>
        <time>2020-02-09T09:59:07.000Z</time>
      </trkpt>
      <trkpt lat="47.28006" lon="-2.47347">
        <ele>-3.4000000953674</ele>
        <time>2020-02-09T09:59:08.000Z</time>
      </trkpt>
      <trkpt lat="47.28022" lon="-2.47331">
        <ele>-3.4000000953674</ele>
        <time>2020-02-09T09:59:12.000Z</time>
      </trkpt>
      <trkpt lat="47.28045" lon="-2.47323">
        <ele>-3.4000000953674</ele>
        <time>2020-02-09T09:59:16.000Z</time>
      </trkpt>
      <trkpt lat="47.28052" lon="-2.47321">
        <ele>-3.4000000953674</ele>
        <time>2020-02-09T09:59:17.000Z</time>
      </trkpt>
      <trkpt lat="47.28083" lon="-2.47314">
        <ele>-3.4000000953674</ele>
        <time>2020-02-09T09:59:22.000Z</time>
      </trkpt>
      <trkpt lat="47.28123" lon="-2.47302">
        <ele>-3.4000000953674</ele>
        <time>2020-02-09T09:59:28.000Z</time>
      </trkpt>
      <trkpt lat="47.28167" lon="-2.47284">
        <ele>-3.4000000953674</ele>
        <time>2020-02-09T09:59:34.000Z</time>
      </trkpt>
      <trkpt lat="47.28203" lon="-2.47253">
        <ele>-3.4000000953674</ele>
        <time>2020-02-09T09:59:39.000Z</time>
      </trkpt>
      <trkpt lat="47.28252" lon="-2.47195">
        <ele>-3.4000000953674</ele>
        <time>2020-02-09T09:59:46.000Z</time>
      </trkpt>
      <trkpt lat="47.28299" lon="-2.47136">
        <ele>-3.4000000953674</ele>
        <time>2020-02-09T09:59:53.000Z</time>
      </trkpt>
      <trkpt lat="47.28313" lon="-2.47119">
        <ele>-3.4000000953674</ele>
        <time>2020-02-09T09:59:55.000Z</time>
      </trkpt>
      <trkpt lat="47.28361" lon="-2.47059">
        <ele>-3.4000000953674</ele>
        <time>2020-02-09T10:00:02.000Z</time>
      </trkpt>
      <trkpt lat="47.28367" lon="-2.47051">
        <ele>-3.4000000953674</ele>
        <time>2020-02-09T10:00:03.000Z</time>
      </trkpt>
      <trkpt lat="47.28401" lon="-2.4701">
        <ele>-3.4000000953674</ele>
        <time>2020-02-09T10:00:08.000Z</time>
      </trkpt>
      <trkpt lat="47.28447" lon="-2.46954">
        <ele>-3.4000000953674</ele>
        <time>2020-02-09T10:00:15.000Z</time>
      </trkpt>
      <trkpt lat="47.28462" lon="-2.46941">
        <ele>-3.4000000953674</ele>
        <time>2020-02-09T10:00:17.000Z</time>
      </trkpt>
      <trkpt lat="47.28493" lon="-2.46921">
        <ele>-3.4000000953674</ele>
        <time>2020-02-09T10:00:21.000Z</time>
      </trkpt>
      <trkpt lat="47.28502" lon="-2.46918">
        <ele>-3.4000000953674</ele>
        <time>2020-02-09T10:00:22.000Z</time>
      </trkpt>
      <trkpt lat="47.28543" lon="-2.46892">
        <ele>-3.4000000953674</ele>
        <time>2020-02-09T10:00:27.000Z</time>
      </trkpt>
      <trkpt lat="47.28579" lon="-2.4685">
        <ele>-3.4000000953674</ele>
        <time>2020-02-09T10:00:32.000Z</time>
      </trkpt>
      <trkpt lat="47.28625" lon="-2.46792">
        <ele>-3.4000000953674</ele>
        <time>2020-02-09T10:00:39.000Z</time>
      </trkpt>
      <trkpt lat="47.28632" lon="-2.46784">
        <ele>-3.4000000953674</ele>
        <time>2020-02-09T10:00:40.000Z</time>
      </trkpt>
      <trkpt lat="47.28669" lon="-2.46739">
        <ele>-3.4000000953674</ele>
        <time>2020-02-09T10:00:45.000Z</time>
      </trkpt>
      <trkpt lat="47.287" lon="-2.46711">
        <ele>-3.4000000953674</ele>
        <time>2020-02-09T10:00:49.000Z</time>
      </trkpt>
      <trkpt lat="47.28708" lon="-2.46707">
        <ele>-3.4000000953674</ele>
        <time>2020-02-09T10:00:50.000Z</time>
      </trkpt>
      <trkpt lat="47.28759" lon="-2.46684">
        <ele>-3.4000000953674</ele>
        <time>2020-02-09T10:00:56.000Z</time>
      </trkpt>
      <trkpt lat="47.28784" lon="-2.46666">
        <ele>-3.4000000953674</ele>
        <time>2020-02-09T10:00:59.000Z</time>
      </trkpt>
      <trkpt lat="47.2879" lon="-2.46657">
        <ele>-3.4000000953674</ele>
        <time>2020-02-09T10:01:00.000Z</time>
      </trkpt>
      <trkpt lat="47.28801" lon="-2.46623">
        <ele>-3.4000000953674</ele>
        <time>2020-02-09T10:01:03.000Z</time>
      </trkpt>
      <trkpt lat="47.28804" lon="-2.4661">
        <ele>-3.4000000953674</ele>
        <time>2020-02-09T10:01:04.000Z</time>
      </trkpt>
      <trkpt lat="47.28808" lon="-2.466">
        <ele>-3.4000000953674</ele>
        <time>2020-02-09T10:01:05.000Z</time>
      </trkpt>
      <trkpt lat="47.2882" lon="-2.46582">
        <ele>-3.4000000953674</ele>
        <time>2020-02-09T10:01:07.000Z</time>
      </trkpt>
      <trkpt lat="47.28851" lon="-2.46555">
        <ele>-3.4000000953674</ele>
        <time>2020-02-09T10:01:11.000Z</time>
      </trkpt>
      <trkpt lat="47.28859" lon="-2.46549">
        <ele>-3.4000000953674</ele>
        <time>2020-02-09T10:01:12.000Z</time>
      </trkpt>
      <trkpt lat="47.28913" lon="-2.46511">
        <ele>-3.4000000953674</ele>
        <time>2020-02-09T10:01:19.000Z</time>
      </trkpt>
      <trkpt lat="47.28921" lon="-2.46506">
        <ele>-3.4000000953674</ele>
        <time>2020-02-09T10:01:20.000Z</time>
      </trkpt>
      <trkpt lat="47.28964" lon="-2.4649">
        <ele>-3.4000000953674</ele>
        <time>2020-02-09T10:01:25.000Z</time>
      </trkpt>
      <trkpt lat="47.29024" lon="-2.46475">
        <ele>-3.4000000953674</ele>
        <time>2020-02-09T10:01:32.000Z</time>
      </trkpt>
      <trkpt lat="47.29082" lon="-2.46462">
        <ele>-3.4000000953674</ele>
        <time>2020-02-09T10:01:39.000Z</time>
      </trkpt>
      <trkpt lat="47.29134" lon="-2.46461">
        <ele>-3.4000000953674</ele>
        <time>2020-02-09T10:01:45.000Z</time>
      </trkpt>
      <trkpt lat="47.29173" lon="-2.46479">
        <ele>-3.4000000953674</ele>
        <time>2020-02-09T10:01:50.000Z</time>
      </trkpt>
      <trkpt lat="47.29204" lon="-2.46506">
        <ele>-3.4000000953674</ele>
        <time>2020-02-09T10:01:55.000Z</time>
      </trkpt>
      <trkpt lat="47.29237" lon="-2.4654">
        <ele>-3.4000000953674</ele>
        <time>2020-02-09T10:02:01.000Z</time>
      </trkpt>
      <trkpt lat="47.2925" lon="-2.46572">
        <ele>-3.4000000953674</ele>
        <time>2020-02-09T10:02:05.000Z</time>
      </trkpt>
      <trkpt lat="47.29254" lon="-2.46596">
        <ele>-3.4000000953674</ele>
        <time>2020-02-09T10:02:08.000Z</time>
      </trkpt>
      <trkpt lat="47.29256" lon="-2.46612">
        <ele>-3.4000000953674</ele>
        <time>2020-02-09T10:02:10.000Z</time>
      </trkpt>
      <trkpt lat="47.29257" lon="-2.46625">
        <ele>-3.4000000953674</ele>
        <time>2020-02-09T10:02:12.000Z</time>
      </trkpt>
      <trkpt lat="47.2926" lon="-2.46639">
        <ele>-3.4000000953674</ele>
        <time>2020-02-09T10:02:14.000Z</time>
      </trkpt>
      <trkpt lat="47.29265" lon="-2.46652">
        <ele>-3.4000000953674</ele>
        <time>2020-02-09T10:02:16.000Z</time>
      </trkpt>
      <trkpt lat="47.29281" lon="-2.46671">
        <ele>-3.4000000953674</ele>
        <time>2020-02-09T10:02:20.000Z</time>
      </trkpt>
      <trkpt lat="47.2929" lon="-2.46677">
        <ele>-3.4000000953674</ele>
        <time>2020-02-09T10:02:22.000Z</time>
      </trkpt>
      <trkpt lat="47.29313" lon="-2.46689">
        <ele>-3.4000000953674</ele>
        <time>2020-02-09T10:02:26.000Z</time>
      </trkpt>
      <trkpt lat="47.2935" lon="-2.46709">
        <ele>-3.4000000953674</ele>
        <time>2020-02-09T10:02:32.000Z</time>
      </trkpt>
      <trkpt lat="47.2939" lon="-2.46719">
        <ele>-3.4000000953674</ele>
        <time>2020-02-09T10:02:38.000Z</time>
      </trkpt>
      <trkpt lat="47.29424" lon="-2.46717">
        <ele>-3.4000000953674</ele>
        <time>2020-02-09T10:02:43.000Z</time>
      </trkpt>
      <trkpt lat="47.29431" lon="-2.46719">
        <ele>-3.4000000953674</ele>
        <time>2020-02-09T10:02:44.000Z</time>
      </trkpt>
      <trkpt lat="47.29438" lon="-2.46722">
        <ele>-3</ele>
        <time>2020-02-09T10:02:45.000Z</time>
      </trkpt>
      <trkpt lat="47.29444" lon="-2.46727">
        <ele>-2.5999999046326</ele>
        <time>2020-02-09T10:02:46.000Z</time>
      </trkpt>
      <trkpt lat="47.2945" lon="-2.46732">
        <ele>-2.2000000476837</ele>
        <time>2020-02-09T10:02:47.000Z</time>
      </trkpt>
      <trkpt lat="47.29457" lon="-2.46737">
        <ele>-1.6000000238419</ele>
        <time>2020-02-09T10:02:48.000Z</time>
      </trkpt>
      <trkpt lat="47.29463" lon="-2.46741">
        <ele>-1.2000000476837</ele>
        <time>2020-02-09T10:02:49.000Z</time>
      </trkpt>
      <trkpt lat="47.29469" lon="-2.46745">
        <ele>-1.2000000476837</ele>
        <time>2020-02-09T10:02:50.000Z</time>
      </trkpt>
      <trkpt lat="47.29483" lon="-2.46747">
        <ele>-1.2000000476837</ele>
        <time>2020-02-09T10:02:52.000Z</time>
      </trkpt>
      <trkpt lat="47.29502" lon="-2.4674">
        <ele>-1.2000000476837</ele>
        <time>2020-02-09T10:02:55.000Z</time>
      </trkpt>
      <trkpt lat="47.29509" lon="-2.46738">
        <ele>-1.2000000476837</ele>
        <time>2020-02-09T10:02:56.000Z</time>
      </trkpt>
      <trkpt lat="47.29562" lon="-2.46717">
        <ele>-1.2000000476837</ele>
        <time>2020-02-09T10:03:04.000Z</time>
      </trkpt>
      <trkpt lat="47.29597" lon="-2.46693">
        <ele>-1.2000000476837</ele>
        <time>2020-02-09T10:03:09.000Z</time>
      </trkpt>
      <trkpt lat="47.29644" lon="-2.46652">
        <ele>-1.2000000476837</ele>
        <time>2020-02-09T10:03:16.000Z</time>
      </trkpt>
      <trkpt lat="47.29657" lon="-2.46641">
        <ele>-1.2000000476837</ele>
        <time>2020-02-09T10:03:18.000Z</time>
      </trkpt>
      <trkpt lat="47.29703" lon="-2.46599">
        <ele>-1.2000000476837</ele>
        <time>2020-02-09T10:03:25.000Z</time>
      </trkpt>
      <trkpt lat="47.29717" lon="-2.46587">
        <ele>-1.2000000476837</ele>
        <time>2020-02-09T10:03:27.000Z</time>
      </trkpt>
      <trkpt lat="47.29739" lon="-2.46572">
        <ele>-1.2000000476837</ele>
        <time>2020-02-09T10:03:30.000Z</time>
      </trkpt>
      <trkpt lat="47.29747" lon="-2.46571">
        <ele>-1.2000000476837</ele>
        <time>2020-02-09T10:03:31.000Z</time>
      </trkpt>
      <trkpt lat="47.29771" lon="-2.46582">
        <ele>-1.2000000476837</ele>
        <time>2020-02-09T10:03:34.000Z</time>
      </trkpt>
      <trkpt lat="47.29785" lon="-2.46593">
        <ele>-1.2000000476837</ele>
        <time>2020-02-09T10:03:36.000Z</time>
      </trkpt>
      <trkpt lat="47.29808" lon="-2.46607">
        <ele>-1.2000000476837</ele>
        <time>2020-02-09T10:03:39.000Z</time>
      </trkpt>
      <trkpt lat="47.29832" lon="-2.46605">
        <ele>-1.2000000476837</ele>
        <time>2020-02-09T10:03:42.000Z</time>
      </trkpt>
      <trkpt lat="47.29847" lon="-2.46601">
        <ele>-1.2000000476837</ele>
        <time>2020-02-09T10:03:44.000Z</time>
      </trkpt>
      <trkpt lat="47.29878" lon="-2.46591">
        <ele>-1.2000000476837</ele>
        <time>2020-02-09T10:03:48.000Z</time>
      </trkpt>
      <trkpt lat="47.29935" lon="-2.4657">
        <ele>-1.2000000476837</ele>
        <time>2020-02-09T10:03:55.000Z</time>
      </trkpt>
      <trkpt lat="47.29943" lon="-2.46567">
        <ele>-1.2000000476837</ele>
        <time>2020-02-09T10:03:56.000Z</time>
      </trkpt>
      <trkpt lat="47.29967" lon="-2.46554">
        <ele>-1.2000000476837</ele>
        <time>2020-02-09T10:03:59.000Z</time>
      </trkpt>
      <trkpt lat="47.29974" lon="-2.46546">
        <ele>-1.2000000476837</ele>
        <time>2020-02-09T10:04:00.000Z</time>
      </trkpt>
      <trkpt lat="47.29998" lon="-2.4651">
        <ele>-1.2000000476837</ele>
        <time>2020-02-09T10:04:04.000Z</time>
      </trkpt>
      <trkpt lat="47.30005" lon="-2.46505">
        <ele>-1.2000000476837</ele>
        <time>2020-02-09T10:04:05.000Z</time>
      </trkpt>
      <trkpt lat="47.30017" lon="-2.46503">
        <ele>-1.2000000476837</ele>
        <time>2020-02-09T10:04:07.000Z</time>
      </trkpt>
      <trkpt lat="47.30035" lon="-2.46513">
        <ele>-1.2000000476837</ele>
        <time>2020-02-09T10:04:10.000Z</time>
      </trkpt>
      <trkpt lat="47.30041" lon="-2.46518">
        <ele>-1.2000000476837</ele>
        <time>2020-02-09T10:04:11.000Z</time>
      </trkpt>
      <trkpt lat="47.30066" lon="-2.46535">
        <ele>-1.2000000476837</ele>
        <time>2020-02-09T10:04:15.000Z</time>
      </trkpt>
      <trkpt lat="47.30073" lon="-2.46537">
        <ele>-1.2000000476837</ele>
        <time>2020-02-09T10:04:16.000Z</time>
      </trkpt>
      <trkpt lat="47.30104" lon="-2.46534">
        <ele>-1.2000000476837</ele>
        <time>2020-02-09T10:04:20.000Z</time>
      </trkpt>
      <trkpt lat="47.30111" lon="-2.46532">
        <ele>-1.2000000476837</ele>
        <time>2020-02-09T10:04:21.000Z</time>
      </trkpt>
      <trkpt lat="47.30159" lon="-2.4652">
        <ele>-1.2000000476837</ele>
        <time>2020-02-09T10:04:27.000Z</time>
      </trkpt>
      <trkpt lat="47.30215" lon="-2.46506">
        <ele>-1.2000000476837</ele>
        <time>2020-02-09T10:04:34.000Z</time>
      </trkpt>
      <trkpt lat="47.30222" lon="-2.46504">
        <ele>-1.2000000476837</ele>
        <time>2020-02-09T10:04:35.000Z</time>
      </trkpt>
      <trkpt lat="47.30272" lon="-2.46491">
        <ele>-1.2000000476837</ele>
        <time>2020-02-09T10:04:41.000Z</time>
      </trkpt>
      <trkpt lat="47.30333" lon="-2.46469">
        <ele>-1.2000000476837</ele>
        <time>2020-02-09T10:04:48.000Z</time>
      </trkpt>
      <trkpt lat="47.30354" lon="-2.46445">
        <ele>-1.2000000476837</ele>
        <time>2020-02-09T10:04:51.000Z</time>
      </trkpt>
      <trkpt lat="47.30369" lon="-2.46414">
        <ele>-1.2000000476837</ele>
        <time>2020-02-09T10:04:54.000Z</time>
      </trkpt>
      <trkpt lat="47.30404" lon="-2.46341">
        <ele>-1.2000000476837</ele>
        <time>2020-02-09T10:05:01.000Z</time>
      </trkpt>
      <trkpt lat="47.30411" lon="-2.46332">
        <ele>-1.2000000476837</ele>
        <time>2020-02-09T10:05:02.000Z</time>
      </trkpt>
      <trkpt lat="47.30424" lon="-2.46316">
        <ele>-1.2000000476837</ele>
        <time>2020-02-09T10:05:04.000Z</time>
      </trkpt>
      <trkpt lat="47.3044" lon="-2.46305">
        <ele>-1.2000000476837</ele>
        <time>2020-02-09T10:05:06.000Z</time>
      </trkpt>
      <trkpt lat="47.30454" lon="-2.46293">
        <ele>-1.2000000476837</ele>
        <time>2020-02-09T10:05:08.000Z</time>
      </trkpt>
      <trkpt lat="47.30463" lon="-2.46272">
        <ele>-1.2000000476837</ele>
        <time>2020-02-09T10:05:10.000Z</time>
      </trkpt>
      <trkpt lat="47.30462" lon="-2.4625">
        <ele>-1.2000000476837</ele>
        <time>2020-02-09T10:05:12.000Z</time>
      </trkpt>
      <trkpt lat="47.30451" lon="-2.46226">
        <ele>-1.2000000476837</ele>
        <time>2020-02-09T10:05:15.000Z</time>
      </trkpt>
      <trkpt lat="47.30447" lon="-2.46219">
        <ele>-0.80000001192093</ele>
        <time>2020-02-09T10:05:16.000Z</time>
      </trkpt>
      <trkpt lat="47.30444" lon="-2.4621">
        <ele>-0.40000000596046</ele>
        <time>2020-02-09T10:05:17.000Z</time>
      </trkpt>
      <trkpt lat="47.30442" lon="-2.46201">
        <ele>2.2</ele>
        <time>2020-02-09T10:05:18.000Z</time>
      </trkpt>
      <trkpt lat="47.30439" lon="-2.46192">
        <ele>0.40000000596046</ele>
        <time>2020-02-09T10:05:19.000Z</time>
      </trkpt>
      <trkpt lat="47.30437" lon="-2.46184">
        <ele>0.80000001192093</ele>
        <time>2020-02-09T10:05:20.000Z</time>
      </trkpt>
      <trkpt lat="47.30433" lon="-2.46176">
        <ele>0.80000001192093</ele>
        <time>2020-02-09T10:05:21.000Z</time>
      </trkpt>
      <trkpt lat="47.30421" lon="-2.46156">
        <ele>0.80000001192093</ele>
        <time>2020-02-09T10:05:24.000Z</time>
      </trkpt>
      <trkpt lat="47.3042" lon="-2.46126">
        <ele>0.80000001192093</ele>
        <time>2020-02-09T10:05:27.000Z</time>
      </trkpt>
      <trkpt lat="47.30423" lon="-2.46106">
        <ele>0.80000001192093</ele>
        <time>2020-02-09T10:05:29.000Z</time>
      </trkpt>
      <trkpt lat="47.30425" lon="-2.46086">
        <ele>0.80000001192093</ele>
        <time>2020-02-09T10:05:31.000Z</time>
      </trkpt>
      <trkpt lat="47.30417" lon="-2.46058">
        <ele>0.80000001192093</ele>
        <time>2020-02-09T10:05:34.000Z</time>
      </trkpt>
      <trkpt lat="47.30402" lon="-2.46042">
        <ele>0.80000001192093</ele>
        <time>2020-02-09T10:05:37.000Z</time>
      </trkpt>
      <trkpt lat="47.30386" lon="-2.46017">
        <ele>0.80000001192093</ele>
        <time>2020-02-09T10:05:41.000Z</time>
      </trkpt>
      <trkpt lat="47.30384" lon="-2.46009">
        <ele>0.80000001192093</ele>
        <time>2020-02-09T10:05:42.000Z</time>
      </trkpt>
      <trkpt lat="47.3038" lon="-2.45976">
        <ele>0.80000001192093</ele>
        <time>2020-02-09T10:05:46.000Z</time>
      </trkpt>
      <trkpt lat="47.30379" lon="-2.45967">
        <ele>0.80000001192093</ele>
        <time>2020-02-09T10:05:47.000Z</time>
      </trkpt>
      <trkpt lat="47.30377" lon="-2.45911">
        <ele>0.80000001192093</ele>
        <time>2020-02-09T10:05:53.000Z</time>
      </trkpt>
      <trkpt lat="47.30368" lon="-2.45846">
        <ele>0.80000001192093</ele>
        <time>2020-02-09T10:06:00.000Z</time>
      </trkpt>
      <trkpt lat="47.3036" lon="-2.45803">
        <ele>0.80000001192093</ele>
        <time>2020-02-09T10:06:05.000Z</time>
      </trkpt>
      <trkpt lat="47.3036" lon="-2.45794">
        <ele>0.80000001192093</ele>
        <time>2020-02-09T10:06:06.000Z</time>
      </trkpt>
      <trkpt lat="47.30365" lon="-2.45768">
        <ele>0.80000001192093</ele>
        <time>2020-02-09T10:06:09.000Z</time>
      </trkpt>
      <trkpt lat="47.30368" lon="-2.45739">
        <ele>0.80000001192093</ele>
        <time>2020-02-09T10:06:12.000Z</time>
      </trkpt>
      <trkpt lat="47.30365" lon="-2.4572">
        <ele>0.80000001192093</ele>
        <time>2020-02-09T10:06:14.000Z</time>
      </trkpt>
      <trkpt lat="47.30365" lon="-2.45709">
        <ele>0.80000001192093</ele>
        <time>2020-02-09T10:06:15.000Z</time>
      </trkpt>
      <trkpt lat="47.30369" lon="-2.45692">
        <ele>0.80000001192093</ele>
        <time>2020-02-09T10:06:17.000Z</time>
      </trkpt>
      <trkpt lat="47.30374" lon="-2.45677">
        <ele>0.80000001192093</ele>
        <time>2020-02-09T10:06:19.000Z</time>
      </trkpt>
      <trkpt lat="47.30387" lon="-2.45636">
        <ele>0.80000001192093</ele>
        <time>2020-02-09T10:06:24.000Z</time>
      </trkpt>
      <trkpt lat="47.30384" lon="-2.45614">
        <ele>0.80000001192093</ele>
        <time>2020-02-09T10:06:27.000Z</time>
      </trkpt>
      <trkpt lat="47.30381" lon="-2.456">
        <ele>0.80000001192093</ele>
        <time>2020-02-09T10:06:29.000Z</time>
      </trkpt>
      <trkpt lat="47.30376" lon="-2.45578">
        <ele>0.80000001192093</ele>
        <time>2020-02-09T10:06:33.000Z</time>
      </trkpt>
      <trkpt lat="47.30373" lon="-2.45566">
        <ele>0.80000001192093</ele>
        <time>2020-02-09T10:06:37.000Z</time>
      </trkpt>
      <trkpt lat="47.30374" lon="-2.45564">
        <ele>0.80000001192093</ele>
        <time>2020-02-09T10:06:38.000Z</time>
      </trkpt>
      <trkpt lat="47.30378" lon="-2.45566">
        <ele>0.80000001192093</ele>
        <time>2020-02-09T10:06:41.000Z</time>
      </trkpt>
      <trkpt lat="47.30379" lon="-2.4558">
        <ele>0.80000001192093</ele>
        <time>2020-02-09T10:06:45.000Z</time>
      </trkpt>
      <trkpt lat="47.30388" lon="-2.45592">
        <ele>0.80000001192093</ele>
        <time>2020-02-09T10:06:49.000Z</time>
      </trkpt>
      <trkpt lat="47.304" lon="-2.45587">
        <ele>0.80000001192093</ele>
        <time>2020-02-09T10:06:52.000Z</time>
      </trkpt>
      <trkpt lat="47.30405" lon="-2.45584">
        <ele>0.80000001192093</ele>
        <time>2020-02-09T10:06:53.000Z</time>
      </trkpt>
      <trkpt lat="47.30409" lon="-2.45581">
        <ele>0.80000001192093</ele>
        <time>2020-02-09T10:06:54.000Z</time>
      </trkpt>
      <trkpt lat="47.3042" lon="-2.45573">
        <ele>1.2000000476837</ele>
        <time>2020-02-09T10:06:56.000Z</time>
      </trkpt>
      <trkpt lat="47.30425" lon="-2.45569">
        <ele>1.6000000238419</ele>
        <time>2020-02-09T10:06:57.000Z</time>
      </trkpt>
      <trkpt lat="47.30431" lon="-2.45566">
        <ele>2</ele>
        <time>2020-02-09T10:06:58.000Z</time>
      </trkpt>
      <trkpt lat="47.30437" lon="-2.45562">
        <ele>2.4000000953674</ele>
        <time>2020-02-09T10:06:59.000Z</time>
      </trkpt>
      <trkpt lat="47.30442" lon="-2.45558">
        <ele>2.7999999523163</ele>
        <time>2020-02-09T10:07:00.000Z</time>
      </trkpt>
      <trkpt lat="47.30454" lon="-2.4555">
        <ele>2.7999999523163</ele>
        <time>2020-02-09T10:07:02.000Z</time>
      </trkpt>
      <trkpt lat="47.30461" lon="-2.45548">
        <ele>2.7999999523163</ele>
        <time>2020-02-09T10:07:03.000Z</time>
      </trkpt>
      <trkpt lat="47.30487" lon="-2.45552">
        <ele>2.7999999523163</ele>
        <time>2020-02-09T10:07:07.000Z</time>
      </trkpt>
      <trkpt lat="47.30534" lon="-2.45578">
        <ele>2.7999999523163</ele>
        <time>2020-02-09T10:07:14.000Z</time>
      </trkpt>
      <trkpt lat="47.30554" lon="-2.4559">
        <ele>2.7999999523163</ele>
        <time>2020-02-09T10:07:17.000Z</time>
      </trkpt>
      <trkpt lat="47.3057" lon="-2.4559">
        <ele>2.7999999523163</ele>
        <time>2020-02-09T10:07:19.000Z</time>
      </trkpt>
      <trkpt lat="47.30591" lon="-2.45577">
        <ele>2.7999999523163</ele>
        <time>2020-02-09T10:07:22.000Z</time>
      </trkpt>
      <trkpt lat="47.30598" lon="-2.45572">
        <ele>2.7999999523163</ele>
        <time>2020-02-09T10:07:23.000Z</time>
      </trkpt>
      <trkpt lat="47.30611" lon="-2.45563">
        <ele>2.7999999523163</ele>
        <time>2020-02-09T10:07:25.000Z</time>
      </trkpt>
      <trkpt lat="47.30626" lon="-2.45557">
        <ele>2.7999999523163</ele>
        <time>2020-02-09T10:07:27.000Z</time>
      </trkpt>
      <trkpt lat="47.30649" lon="-2.45559">
        <ele>2.7999999523163</ele>
        <time>2020-02-09T10:07:30.000Z</time>
      </trkpt>
      <trkpt lat="47.30677" lon="-2.45579">
        <ele>2.7999999523163</ele>
        <time>2020-02-09T10:07:34.000Z</time>
      </trkpt>
      <trkpt lat="47.30723" lon="-2.45621">
        <ele>2.7999999523163</ele>
        <time>2020-02-09T10:07:41.000Z</time>
      </trkpt>
      <trkpt lat="47.30764" lon="-2.45652">
        <ele>2.7999999523163</ele>
        <time>2020-02-09T10:07:47.000Z</time>
      </trkpt>
      <trkpt lat="47.30772" lon="-2.45656">
        <ele>2.7999999523163</ele>
        <time>2020-02-09T10:07:48.000Z</time>
      </trkpt>
      <trkpt lat="47.30788" lon="-2.45656">
        <ele>2.7999999523163</ele>
        <time>2020-02-09T10:07:50.000Z</time>
      </trkpt>
      <trkpt lat="47.30803" lon="-2.45649">
        <ele>2.7999999523163</ele>
        <time>2020-02-09T10:07:52.000Z</time>
      </trkpt>
      <trkpt lat="47.30819" lon="-2.4564">
        <ele>2.7999999523163</ele>
        <time>2020-02-09T10:07:54.000Z</time>
      </trkpt>
      <trkpt lat="47.30873" lon="-2.45601">
        <ele>2.7999999523163</ele>
        <time>2020-02-09T10:08:01.000Z</time>
      </trkpt>
      <trkpt lat="47.30922" lon="-2.45574">
        <ele>2.7999999523163</ele>
        <time>2020-02-09T10:08:07.000Z</time>
      </trkpt>
      <trkpt lat="47.30958" lon="-2.4556">
        <ele>2.7999999523163</ele>
        <time>2020-02-09T10:08:11.000Z</time>
      </trkpt>
      <trkpt lat="47.30967" lon="-2.4556">
        <ele>2.7999999523163</ele>
        <time>2020-02-09T10:08:12.000Z</time>
      </trkpt>
      <trkpt lat="47.31022" lon="-2.45562">
        <ele>2.7999999523163</ele>
        <time>2020-02-09T10:08:18.000Z</time>
      </trkpt>
      <trkpt lat="47.31049" lon="-2.45556">
        <ele>2.7999999523163</ele>
        <time>2020-02-09T10:08:21.000Z</time>
      </trkpt>
      <trkpt lat="47.31058" lon="-2.45553">
        <ele>2.7999999523163</ele>
        <time>2020-02-09T10:08:22.000Z</time>
      </trkpt>
      <trkpt lat="47.31091" lon="-2.45535">
        <ele>2.7999999523163</ele>
        <time>2020-02-09T10:08:26.000Z</time>
      </trkpt>
      <trkpt lat="47.311" lon="-2.45532">
        <ele>2.7999999523163</ele>
        <time>2020-02-09T10:08:27.000Z</time>
      </trkpt>
      <trkpt lat="47.31118" lon="-2.45526">
        <ele>2.7999999523163</ele>
        <time>2020-02-09T10:08:29.000Z</time>
      </trkpt>
      <trkpt lat="47.31135" lon="-2.45514">
        <ele>2.7999999523163</ele>
        <time>2020-02-09T10:08:31.000Z</time>
      </trkpt>
      <trkpt lat="47.31168" lon="-2.45491">
        <ele>2.7999999523163</ele>
        <time>2020-02-09T10:08:35.000Z</time>
      </trkpt>
      <trkpt lat="47.31176" lon="-2.45483">
        <ele>2.7999999523163</ele>
        <time>2020-02-09T10:08:36.000Z</time>
      </trkpt>
      <trkpt lat="47.31193" lon="-2.4545">
        <ele>2.7999999523163</ele>
        <time>2020-02-09T10:08:39.000Z</time>
      </trkpt>
      <trkpt lat="47.31219" lon="-2.45377">
        <ele>2.7999999523163</ele>
        <time>2020-02-09T10:08:45.000Z</time>
      </trkpt>
      <trkpt lat="47.31222" lon="-2.45365">
        <ele>2.7999999523163</ele>
        <time>2020-02-09T10:08:46.000Z</time>
      </trkpt>
      <trkpt lat="47.31234" lon="-2.45331">
        <ele>2.7999999523163</ele>
        <time>2020-02-09T10:08:49.000Z</time>
      </trkpt>
      <trkpt lat="47.3124" lon="-2.45322">
        <ele>2.7999999523163</ele>
        <time>2020-02-09T10:08:50.000Z</time>
      </trkpt>
      <trkpt lat="47.31263" lon="-2.45302">
        <ele>2.7999999523163</ele>
        <time>2020-02-09T10:08:53.000Z</time>
      </trkpt>
      <trkpt lat="47.31313" lon="-2.45277">
        <ele>2.7999999523163</ele>
        <time>2020-02-09T10:08:59.000Z</time>
      </trkpt>
      <trkpt lat="47.31354" lon="-2.45268">
        <ele>2.7999999523163</ele>
        <time>2020-02-09T10:09:04.000Z</time>
      </trkpt>
      <trkpt lat="47.314" lon="-2.45264">
        <ele>2.7999999523163</ele>
        <time>2020-02-09T10:09:10.000Z</time>
      </trkpt>
      <trkpt lat="47.31436" lon="-2.45269">
        <ele>2.7999999523163</ele>
        <time>2020-02-09T10:09:15.000Z</time>
      </trkpt>
      <trkpt lat="47.31479" lon="-2.4527">
        <ele>2.7999999523163</ele>
        <time>2020-02-09T10:09:21.000Z</time>
      </trkpt>
      <trkpt lat="47.31519" lon="-2.45261">
        <ele>2.7999999523163</ele>
        <time>2020-02-09T10:09:27.000Z</time>
      </trkpt>
      <trkpt lat="47.31525" lon="-2.45261">
        <ele>2.7999999523163</ele>
        <time>2020-02-09T10:09:28.000Z</time>
      </trkpt>
      <trkpt lat="47.31543" lon="-2.45266">
        <ele>2.7999999523163</ele>
        <time>2020-02-09T10:09:31.000Z</time>
      </trkpt>
      <trkpt lat="47.31554" lon="-2.45271">
        <ele>2.7999999523163</ele>
        <time>2020-02-09T10:09:33.000Z</time>
      </trkpt>
      <trkpt lat="47.31578" lon="-2.45282">
        <ele>2.7999999523163</ele>
        <time>2020-02-09T10:09:37.000Z</time>
      </trkpt>
      <trkpt lat="47.31591" lon="-2.45286">
        <ele>2.7999999523163</ele>
        <time>2020-02-09T10:09:39.000Z</time>
      </trkpt>
      <trkpt lat="47.3161" lon="-2.45289">
        <ele>2.7999999523163</ele>
        <time>2020-02-09T10:09:42.000Z</time>
      </trkpt>
      <trkpt lat="47.31655" lon="-2.45295">
        <ele>2.7999999523163</ele>
        <time>2020-02-09T10:09:49.000Z</time>
      </trkpt>
      <trkpt lat="47.31673" lon="-2.4531">
        <ele>2.7999999523163</ele>
        <time>2020-02-09T10:09:52.000Z</time>
      </trkpt>
      <trkpt lat="47.31683" lon="-2.45324">
        <ele>2.7999999523163</ele>
        <time>2020-02-09T10:09:54.000Z</time>
      </trkpt>
      <trkpt lat="47.317" lon="-2.45343">
        <ele>2.7999999523163</ele>
        <time>2020-02-09T10:09:57.000Z</time>
      </trkpt>
      <trkpt lat="47.31707" lon="-2.45347">
        <ele>2.7999999523163</ele>
        <time>2020-02-09T10:09:58.000Z</time>
      </trkpt>
      <trkpt lat="47.31727" lon="-2.45346">
        <ele>2.7999999523163</ele>
        <time>2020-02-09T10:10:01.000Z</time>
      </trkpt>
      <trkpt lat="47.3174" lon="-2.45339">
        <ele>2.7999999523163</ele>
        <time>2020-02-09T10:10:03.000Z</time>
      </trkpt>
      <trkpt lat="47.31757" lon="-2.45327">
        <ele>2.7999999523163</ele>
        <time>2020-02-09T10:10:06.000Z</time>
      </trkpt>
      <trkpt lat="47.31772" lon="-2.45309">
        <ele>2.7999999523163</ele>
        <time>2020-02-09T10:10:09.000Z</time>
      </trkpt>
      <trkpt lat="47.31785" lon="-2.4529">
        <ele>2.7999999523163</ele>
        <time>2020-02-09T10:10:12.000Z</time>
      </trkpt>
      <trkpt lat="47.31821" lon="-2.4524">
        <ele>2.7999999523163</ele>
        <time>2020-02-09T10:10:20.000Z</time>
      </trkpt>
      <trkpt lat="47.31846" lon="-2.45207">
        <ele>2.7999999523163</ele>
        <time>2020-02-09T10:10:26.000Z</time>
      </trkpt>
      <trkpt lat="47.31849" lon="-2.45203">
        <ele>2.7999999523163</ele>
        <time>2020-02-09T10:10:27.000Z</time>
      </trkpt>
      <trkpt lat="47.31859" lon="-2.45188">
        <ele>2.7999999523163</ele>
        <time>2020-02-09T10:10:32.000Z</time>
      </trkpt>
      <trkpt lat="47.31863" lon="-2.45185">
        <ele>2.7999999523163</ele>
        <time>2020-02-09T10:10:34.000Z</time>
      </trkpt>
      <trkpt lat="47.31866" lon="-2.45188">
        <ele>2.7999999523163</ele>
        <time>2020-02-09T10:10:36.000Z</time>
      </trkpt>
      <trkpt lat="47.31873" lon="-2.45201">
        <ele>2.7999999523163</ele>
        <time>2020-02-09T10:10:40.000Z</time>
      </trkpt>
      <trkpt lat="47.31876" lon="-2.45205">
        <ele>2.7999999523163</ele>
        <time>2020-02-09T10:10:41.000Z</time>
      </trkpt>
      <trkpt lat="47.3189" lon="-2.45231">
        <ele>2.7999999523163</ele>
        <time>2020-02-09T10:10:46.000Z</time>
      </trkpt>
      <trkpt lat="47.31908" lon="-2.4526">
        <ele>2.7999999523163</ele>
        <time>2020-02-09T10:10:52.000Z</time>
      </trkpt>
      <trkpt lat="47.31924" lon="-2.45286">
        <ele>2.7999999523163</ele>
        <time>2020-02-09T10:10:57.000Z</time>
      </trkpt>
      <trkpt lat="47.31937" lon="-2.45303">
        <ele>2.7999999523163</ele>
        <time>2020-02-09T10:11:01.000Z</time>
      </trkpt>
      <trkpt lat="47.31945" lon="-2.45308">
        <ele>2.7999999523163</ele>
        <time>2020-02-09T10:11:03.000Z</time>
      </trkpt>
      <trkpt lat="47.31964" lon="-2.45307">
        <ele>2.7999999523163</ele>
        <time>2020-02-09T10:11:07.000Z</time>
      </trkpt>
      <trkpt lat="47.31974" lon="-2.453">
        <ele>2.7999999523163</ele>
        <time>2020-02-09T10:11:09.000Z</time>
      </trkpt>
      <trkpt lat="47.31982" lon="-2.45292">
        <ele>2.7999999523163</ele>
        <time>2020-02-09T10:11:11.000Z</time>
      </trkpt>
      <trkpt lat="47.31987" lon="-2.45289">
        <ele>2.7999999523163</ele>
        <time>2020-02-09T10:11:12.000Z</time>
      </trkpt>
      <trkpt lat="47.32001" lon="-2.45286">
        <ele>2.7999999523163</ele>
        <time>2020-02-09T10:11:15.000Z</time>
      </trkpt>
      <trkpt lat="47.32021" lon="-2.45297">
        <ele>2.7999999523163</ele>
        <time>2020-02-09T10:11:19.000Z</time>
      </trkpt>
      <trkpt lat="47.32056" lon="-2.45323">
        <ele>2.7999999523163</ele>
        <time>2020-02-09T10:11:26.000Z</time>
      </trkpt>
      <trkpt lat="47.321" lon="-2.45355">
        <ele>2.7999999523163</ele>
        <time>2020-02-09T10:11:36.000Z</time>
      </trkpt>
      <trkpt lat="47.32126" lon="-2.45376">
        <ele>2.7999999523163</ele>
        <time>2020-02-09T10:11:42.000Z</time>
      </trkpt>
      <trkpt lat="47.32158" lon="-2.45401">
        <ele>2.7999999523163</ele>
        <time>2020-02-09T10:11:49.000Z</time>
      </trkpt>
      <trkpt lat="47.32198" lon="-2.45431">
        <ele>2.7999999523163</ele>
        <time>2020-02-09T10:11:58.000Z</time>
      </trkpt>
      <trkpt lat="47.32227" lon="-2.45445">
        <ele>2.7999999523163</ele>
        <time>2020-02-09T10:12:04.000Z</time>
      </trkpt>
      <trkpt lat="47.32239" lon="-2.45444">
        <ele>2.7999999523163</ele>
        <time>2020-02-09T10:12:06.000Z</time>
      </trkpt>
      <trkpt lat="47.32254" lon="-2.45439">
        <ele>2.7999999523163</ele>
        <time>2020-02-09T10:12:09.000Z</time>
      </trkpt>
      <trkpt lat="47.32273" lon="-2.45429">
        <ele>2.7999999523163</ele>
        <time>2020-02-09T10:12:13.000Z</time>
      </trkpt>
      <trkpt lat="47.32287" lon="-2.4542">
        <ele>2.7999999523163</ele>
        <time>2020-02-09T10:12:16.000Z</time>
      </trkpt>
      <trkpt lat="47.32314" lon="-2.45406">
        <ele>2.7999999523163</ele>
        <time>2020-02-09T10:12:22.000Z</time>
      </trkpt>
      <trkpt lat="47.32317" lon="-2.45403">
        <ele>2.7999999523163</ele>
        <time>2020-02-09T10:12:23.000Z</time>
      </trkpt>
      <trkpt lat="47.32323" lon="-2.45386">
        <ele>2.7999999523163</ele>
        <time>2020-02-09T10:12:27.000Z</time>
      </trkpt>
      <trkpt lat="47.32321" lon="-2.45365">
        <ele>2.7999999523163</ele>
        <time>2020-02-09T10:12:33.000Z</time>
      </trkpt>
      <trkpt lat="47.32319" lon="-2.45337">
        <ele>2.7999999523163</ele>
        <time>2020-02-09T10:12:39.000Z</time>
      </trkpt>
      <trkpt lat="47.32318" lon="-2.4531">
        <ele>2.7999999523163</ele>
        <time>2020-02-09T10:12:44.000Z</time>
      </trkpt>
      <trkpt lat="47.32316" lon="-2.45305">
        <ele>3.2000000476837</ele>
        <time>2020-02-09T10:12:45.000Z</time>
      </trkpt>
      <trkpt lat="47.32315" lon="-2.45299">
        <ele>3.5999999046326</ele>
        <time>2020-02-09T10:12:46.000Z</time>
      </trkpt>
      <trkpt lat="47.32314" lon="-2.45293">
        <ele>4</ele>
        <time>2020-02-09T10:12:47.000Z</time>
      </trkpt>
      <trkpt lat="47.32312" lon="-2.45287">
        <ele>4.4000000953674</ele>
        <time>2020-02-09T10:12:48.000Z</time>
      </trkpt>
      <trkpt lat="47.3231" lon="-2.45282">
        <ele>4.8000001907349</ele>
        <time>2020-02-09T10:12:49.000Z</time>
      </trkpt>
      <trkpt lat="47.32301" lon="-2.45253">
        <ele>4.8000001907349</ele>
        <time>2020-02-09T10:12:55.000Z</time>
      </trkpt>
      <trkpt lat="47.32295" lon="-2.45237">
        <ele>4.8000001907349</ele>
        <time>2020-02-09T10:13:00.000Z</time>
      </trkpt>
      <trkpt lat="47.32284" lon="-2.45217">
        <ele>4.8000001907349</ele>
        <time>2020-02-09T10:13:07.000Z</time>
      </trkpt>
      <trkpt lat="47.32275" lon="-2.45198">
        <ele>4.8000001907349</ele>
        <time>2020-02-09T10:13:12.000Z</time>
      </trkpt>
      <trkpt lat="47.32267" lon="-2.45168">
        <ele>4.8000001907349</ele>
        <time>2020-02-09T10:13:19.000Z</time>
      </trkpt>
      <trkpt lat="47.32263" lon="-2.45147">
        <ele>4.8000001907349</ele>
        <time>2020-02-09T10:13:23.000Z</time>
      </trkpt>
      <trkpt lat="47.32255" lon="-2.45124">
        <ele>4.8000001907349</ele>
        <time>2020-02-09T10:13:28.000Z</time>
      </trkpt>
      <trkpt lat="47.32239" lon="-2.45085">
        <ele>4.8000001907349</ele>
        <time>2020-02-09T10:13:36.000Z</time>
      </trkpt>
      <trkpt lat="47.32224" lon="-2.45053">
        <ele>4.8000001907349</ele>
        <time>2020-02-09T10:13:43.000Z</time>
      </trkpt>
      <trkpt lat="47.32218" lon="-2.45027">
        <ele>4.8000001907349</ele>
        <time>2020-02-09T10:13:48.000Z</time>
      </trkpt>
      <trkpt lat="47.32227" lon="-2.45013">
        <ele>4.8000001907349</ele>
        <time>2020-02-09T10:13:52.000Z</time>
      </trkpt>
      <trkpt lat="47.32239" lon="-2.45001">
        <ele>4.8000001907349</ele>
        <time>2020-02-09T10:13:56.000Z</time>
      </trkpt>
      <trkpt lat="47.32242" lon="-2.44998">
        <ele>4.8000001907349</ele>
        <time>2020-02-09T10:13:57.000Z</time>
      </trkpt>
      <trkpt lat="47.32259" lon="-2.44981">
        <ele>4.8000001907349</ele>
        <time>2020-02-09T10:14:03.000Z</time>
      </trkpt>
      <trkpt lat="47.32275" lon="-2.44964">
        <ele>4.8000001907349</ele>
        <time>2020-02-09T10:14:09.000Z</time>
      </trkpt>
      <trkpt lat="47.32292" lon="-2.44944">
        <ele>4.8000001907349</ele>
        <time>2020-02-09T10:14:15.000Z</time>
      </trkpt>
      <trkpt lat="47.32311" lon="-2.44924">
        <ele>4.8000001907349</ele>
        <time>2020-02-09T10:14:21.000Z</time>
      </trkpt>
      <trkpt lat="47.32325" lon="-2.44902">
        <ele>4.8000001907349</ele>
        <time>2020-02-09T10:14:26.000Z</time>
      </trkpt>
      <trkpt lat="47.32343" lon="-2.44875">
        <ele>4.8000001907349</ele>
        <time>2020-02-09T10:14:32.000Z</time>
      </trkpt>
      <trkpt lat="47.32366" lon="-2.44852">
        <ele>4.8000001907349</ele>
        <time>2020-02-09T10:14:37.000Z</time>
      </trkpt>
      <trkpt lat="47.32394" lon="-2.44832">
        <ele>5.1999998092651</ele>
        <time>2020-02-09T10:14:43.000Z</time>
      </trkpt>
      <trkpt lat="47.32398" lon="-2.44829">
        <ele>5.5999999046326</ele>
        <time>2020-02-09T10:14:44.000Z</time>
      </trkpt>
      <trkpt lat="47.32402" lon="-2.44826">
        <ele>6</ele>
        <time>2020-02-09T10:14:45.000Z</time>
      </trkpt>
      <trkpt lat="47.32407" lon="-2.44823">
        <ele>6.4000000953674</ele>
        <time>2020-02-09T10:14:46.000Z</time>
      </trkpt>
      <trkpt lat="47.32411" lon="-2.44821">
        <ele>6.8000001907349</ele>
        <time>2020-02-09T10:14:47.000Z</time>
      </trkpt>
      <trkpt lat="47.32423" lon="-2.44813">
        <ele>6.8000001907349</ele>
        <time>2020-02-09T10:14:50.000Z</time>
      </trkpt>
      <trkpt lat="47.32427" lon="-2.44809">
        <ele>6.8000001907349</ele>
        <time>2020-02-09T10:14:51.000Z</time>
      </trkpt>
      <trkpt lat="47.32439" lon="-2.44801">
        <ele>6.8000001907349</ele>
        <time>2020-02-09T10:14:54.000Z</time>
      </trkpt>
      <trkpt lat="47.32443" lon="-2.44797">
        <ele>6.8000001907349</ele>
        <time>2020-02-09T10:14:55.000Z</time>
      </trkpt>
      <trkpt lat="47.32451" lon="-2.44792">
        <ele>6.8000001907349</ele>
        <time>2020-02-09T10:14:57.000Z</time>
      </trkpt>
      <trkpt lat="47.32458" lon="-2.44787">
        <ele>6.8000001907349</ele>
        <time>2020-02-09T10:14:59.000Z</time>
      </trkpt>
      <trkpt lat="47.32472" lon="-2.44782">
        <ele>6.8000001907349</ele>
        <time>2020-02-09T10:15:03.000Z</time>
      </trkpt>
      <trkpt lat="47.32487" lon="-2.44771">
        <ele>6.8000001907349</ele>
        <time>2020-02-09T10:15:08.000Z</time>
      </trkpt>
      <trkpt lat="47.32503" lon="-2.44759">
        <ele>6.8000001907349</ele>
        <time>2020-02-09T10:15:13.000Z</time>
      </trkpt>
      <trkpt lat="47.32518" lon="-2.44747">
        <ele>6.8000001907349</ele>
        <time>2020-02-09T10:15:19.000Z</time>
      </trkpt>
      <trkpt lat="47.32523" lon="-2.4474">
        <ele>6.8000001907349</ele>
        <time>2020-02-09T10:15:21.000Z</time>
      </trkpt>
      <trkpt lat="47.32524" lon="-2.44731">
        <ele>6.8000001907349</ele>
        <time>2020-02-09T10:15:23.000Z</time>
      </trkpt>
      <trkpt lat="47.32526" lon="-2.44724">
        <ele>6.8000001907349</ele>
        <time>2020-02-09T10:15:25.000Z</time>
      </trkpt>
      <trkpt lat="47.32529" lon="-2.4472">
        <ele>6.8000001907349</ele>
        <time>2020-02-09T10:15:27.000Z</time>
      </trkpt>
      <trkpt lat="47.32534" lon="-2.44712">
        <ele>6.8000001907349</ele>
        <time>2020-02-09T10:15:30.000Z</time>
      </trkpt>
      <trkpt lat="47.32536" lon="-2.44711">
        <ele>7.1999998092651</ele>
        <time>2020-02-09T10:15:31.000Z</time>
      </trkpt>
      <trkpt lat="47.32538" lon="-2.44709">
        <ele>7.5999999046326</ele>
        <time>2020-02-09T10:15:32.000Z</time>
      </trkpt>
      <trkpt lat="47.3254" lon="-2.44707">
        <ele>8</ele>
        <time>2020-02-09T10:15:33.000Z</time>
      </trkpt>
      <trkpt lat="47.32542" lon="-2.44704">
        <ele>8.3999996185303</ele>
        <time>2020-02-09T10:15:34.000Z</time>
      </trkpt>
      <trkpt lat="47.32544" lon="-2.44701">
        <ele>8.8000001907349</ele>
        <time>2020-02-09T10:15:35.000Z</time>
      </trkpt>
      <trkpt lat="47.32546" lon="-2.44698">
        <ele>8.8000001907349</ele>
        <time>2020-02-09T10:15:36.000Z</time>
      </trkpt>
      <trkpt lat="47.3256" lon="-2.44682">
        <ele>8.8000001907349</ele>
        <time>2020-02-09T10:15:42.000Z</time>
      </trkpt>
      <trkpt lat="47.32574" lon="-2.44661">
        <ele>8.8000001907349</ele>
        <time>2020-02-09T10:15:47.000Z</time>
      </trkpt>
      <trkpt lat="47.32587" lon="-2.44647">
        <ele>8.8000001907349</ele>
        <time>2020-02-09T10:15:52.000Z</time>
      </trkpt>
      <trkpt lat="47.32598" lon="-2.44636">
        <ele>8.8000001907349</ele>
        <time>2020-02-09T10:15:57.000Z</time>
      </trkpt>
      <trkpt lat="47.32608" lon="-2.44621">
        <ele>8.8000001907349</ele>
        <time>2020-02-09T10:16:01.000Z</time>
      </trkpt>
      <trkpt lat="47.32624" lon="-2.44594">
        <ele>9.1999998092651</ele>
        <time>2020-02-09T10:16:08.000Z</time>
      </trkpt>
      <trkpt lat="47.32626" lon="-2.44591">
        <ele>9.6000003814697</ele>
        <time>2020-02-09T10:16:09.000Z</time>
      </trkpt>
      <trkpt lat="47.32628" lon="-2.44587">
        <ele>10.199999809265</ele>
        <time>2020-02-09T10:16:10.000Z</time>
      </trkpt>
      <trkpt lat="47.3263" lon="-2.44583">
        <ele>10.60000038147</ele>
        <time>2020-02-09T10:16:11.000Z</time>
      </trkpt>
      <trkpt lat="47.32632" lon="-2.44579">
        <ele>11</ele>
        <time>2020-02-09T10:16:12.000Z</time>
      </trkpt>
      <trkpt lat="47.32637" lon="-2.44572">
        <ele>11</ele>
        <time>2020-02-09T10:16:14.000Z</time>
      </trkpt>
      <trkpt lat="47.32645" lon="-2.44554">
        <ele>11</ele>
        <time>2020-02-09T10:16:19.000Z</time>
      </trkpt>
      <trkpt lat="47.32657" lon="-2.44528">
        <ele>11</ele>
        <time>2020-02-09T10:16:26.000Z</time>
      </trkpt>
      <trkpt lat="47.32668" lon="-2.44511">
        <ele>11</ele>
        <time>2020-02-09T10:16:31.000Z</time>
      </trkpt>
      <trkpt lat="47.32671" lon="-2.44503">
        <ele>11</ele>
        <time>2020-02-09T10:16:34.000Z</time>
      </trkpt>
      <trkpt lat="47.32671" lon="-2.44501">
        <ele>11</ele>
        <time>2020-02-09T10:16:35.000Z</time>
      </trkpt>
      <trkpt lat="47.3267" lon="-2.44498">
        <ele>11</ele>
        <time>2020-02-09T10:16:38.000Z</time>
      </trkpt>
      <trkpt lat="47.32669" lon="-2.44498">
        <ele>13</ele>
        <time>2020-02-09T10:17:24.000Z</time>
      </trkpt>
      <trkpt lat="47.32657" lon="-2.44489">
        <ele>13</ele>
        <time>2020-02-09T10:17:29.000Z</time>
      </trkpt>
      <trkpt lat="47.32652" lon="-2.44475">
        <ele>13</ele>
        <time>2020-02-09T10:17:32.000Z</time>
      </trkpt>
      <trkpt lat="47.3265" lon="-2.44469">
        <ele>13</ele>
        <time>2020-02-09T10:17:33.000Z</time>
      </trkpt>
      <trkpt lat="47.32637" lon="-2.44432">
        <ele>13</ele>
        <time>2020-02-09T10:17:39.000Z</time>
      </trkpt>
      <trkpt lat="47.32635" lon="-2.44426">
        <ele>13</ele>
        <time>2020-02-09T10:17:40.000Z</time>
      </trkpt>
      <trkpt lat="47.32623" lon="-2.44405">
        <ele>13.39999961853</ele>
        <time>2020-02-09T10:17:44.000Z</time>
      </trkpt>
      <trkpt lat="47.32622" lon="-2.444">
        <ele>13.800000190735</ele>
        <time>2020-02-09T10:17:45.000Z</time>
      </trkpt>
      <trkpt lat="47.32621" lon="-2.44397">
        <ele>14.199999809265</ele>
        <time>2020-02-09T10:17:46.000Z</time>
      </trkpt>
      <trkpt lat="47.3262" lon="-2.44394">
        <ele>14.60000038147</ele>
        <time>2020-02-09T10:17:47.000Z</time>
      </trkpt>
      <trkpt lat="47.32617" lon="-2.44392">
        <ele>15</ele>
        <time>2020-02-09T10:17:48.000Z</time>
      </trkpt>
      <trkpt lat="47.32611" lon="-2.44388">
        <ele>15</ele>
        <time>2020-02-09T10:17:50.000Z</time>
      </trkpt>
      <trkpt lat="47.32595" lon="-2.44375">
        <ele>15</ele>
        <time>2020-02-09T10:17:54.000Z</time>
      </trkpt>
      <trkpt lat="47.32591" lon="-2.4437">
        <ele>15</ele>
        <time>2020-02-09T10:17:55.000Z</time>
      </trkpt>
      <trkpt lat="47.32584" lon="-2.44354">
        <ele>15</ele>
        <time>2020-02-09T10:17:58.000Z</time>
      </trkpt>
      <trkpt lat="47.32574" lon="-2.44328">
        <ele>15</ele>
        <time>2020-02-09T10:18:03.000Z</time>
      </trkpt>
      <trkpt lat="47.32564" lon="-2.44295">
        <ele>15</ele>
        <time>2020-02-09T10:18:09.000Z</time>
      </trkpt>
      <trkpt lat="47.32558" lon="-2.44269">
        <ele>15</ele>
        <time>2020-02-09T10:18:12.000Z</time>
      </trkpt>
      <trkpt lat="47.32552" lon="-2.44252">
        <ele>15</ele>
        <time>2020-02-09T10:18:15.000Z</time>
      </trkpt>
      <trkpt lat="47.32549" lon="-2.44247">
        <ele>15</ele>
        <time>2020-02-09T10:18:16.000Z</time>
      </trkpt>
      <trkpt lat="47.32538" lon="-2.44226">
        <ele>15</ele>
        <time>2020-02-09T10:18:20.000Z</time>
      </trkpt>
      <trkpt lat="47.32523" lon="-2.44191">
        <ele>15</ele>
        <time>2020-02-09T10:18:26.000Z</time>
      </trkpt>
      <trkpt lat="47.32525" lon="-2.44175">
        <ele>15</ele>
        <time>2020-02-09T10:18:29.000Z</time>
      </trkpt>
      <trkpt lat="47.32527" lon="-2.4417">
        <ele>15.39999961853</ele>
        <time>2020-02-09T10:18:30.000Z</time>
      </trkpt>
      <trkpt lat="47.32529" lon="-2.44164">
        <ele>15.800000190735</ele>
        <time>2020-02-09T10:18:31.000Z</time>
      </trkpt>
      <trkpt lat="47.32531" lon="-2.44158">
        <ele>16.39999961853</ele>
        <time>2020-02-09T10:18:32.000Z</time>
      </trkpt>
      <trkpt lat="47.32533" lon="-2.44153">
        <ele>16.799999237061</ele>
        <time>2020-02-09T10:18:33.000Z</time>
      </trkpt>
      <trkpt lat="47.32535" lon="-2.44148">
        <ele>17.200000762939</ele>
        <time>2020-02-09T10:18:34.000Z</time>
      </trkpt>
      <trkpt lat="47.32543" lon="-2.44124">
        <ele>17.200000762939</ele>
        <time>2020-02-09T10:18:38.000Z</time>
      </trkpt>
      <trkpt lat="47.32547" lon="-2.44111">
        <ele>17.200000762939</ele>
        <time>2020-02-09T10:18:40.000Z</time>
      </trkpt>
      <trkpt lat="47.3255" lon="-2.44099">
        <ele>17.200000762939</ele>
        <time>2020-02-09T10:18:42.000Z</time>
      </trkpt>
      <trkpt lat="47.32558" lon="-2.44076">
        <ele>17.200000762939</ele>
        <time>2020-02-09T10:18:46.000Z</time>
      </trkpt>
      <trkpt lat="47.32568" lon="-2.44048">
        <ele>17.200000762939</ele>
        <time>2020-02-09T10:18:52.000Z</time>
      </trkpt>
      <trkpt lat="47.32567" lon="-2.44038">
        <ele>17.200000762939</ele>
        <time>2020-02-09T10:18:55.000Z</time>
      </trkpt>
      <trkpt lat="47.32564" lon="-2.44035">
        <ele>17.200000762939</ele>
        <time>2020-02-09T10:18:56.000Z</time>
      </trkpt>
      <trkpt lat="47.32549" lon="-2.44027">
        <ele>17.200000762939</ele>
        <time>2020-02-09T10:19:00.000Z</time>
      </trkpt>
      <trkpt lat="47.32527" lon="-2.44013">
        <ele>17.200000762939</ele>
        <time>2020-02-09T10:19:05.000Z</time>
      </trkpt>
      <trkpt lat="47.32519" lon="-2.44005">
        <ele>17.200000762939</ele>
        <time>2020-02-09T10:19:07.000Z</time>
      </trkpt>
      <trkpt lat="47.3251" lon="-2.43994">
        <ele>17.200000762939</ele>
        <time>2020-02-09T10:19:10.000Z</time>
      </trkpt>
      <trkpt lat="47.32503" lon="-2.43987">
        <ele>17.200000762939</ele>
        <time>2020-02-09T10:19:13.000Z</time>
      </trkpt>
      <trkpt lat="47.325" lon="-2.43988">
        <ele>17.200000762939</ele>
        <time>2020-02-09T10:19:14.000Z</time>
      </trkpt>
      <trkpt lat="47.32485" lon="-2.43996">
        <ele>17.200000762939</ele>
        <time>2020-02-09T10:19:18.000Z</time>
      </trkpt>
      <trkpt lat="47.32478" lon="-2.44001">
        <ele>17.60000038147</ele>
        <time>2020-02-09T10:19:20.000Z</time>
      </trkpt>
      <trkpt lat="47.32474" lon="-2.44003">
        <ele>18</ele>
        <time>2020-02-09T10:19:21.000Z</time>
      </trkpt>
      <trkpt lat="47.3247" lon="-2.44006">
        <ele>18.39999961853</ele>
        <time>2020-02-09T10:19:22.000Z</time>
      </trkpt>
      <trkpt lat="47.32467" lon="-2.44009">
        <ele>18.799999237061</ele>
        <time>2020-02-09T10:19:23.000Z</time>
      </trkpt>
      <trkpt lat="47.32462" lon="-2.44011">
        <ele>19.200000762939</ele>
        <time>2020-02-09T10:19:24.000Z</time>
      </trkpt>
      <trkpt lat="47.32458" lon="-2.44014">
        <ele>19.200000762939</ele>
        <time>2020-02-09T10:19:25.000Z</time>
      </trkpt>
      <trkpt lat="47.32455" lon="-2.44017">
        <ele>19.200000762939</ele>
        <time>2020-02-09T10:19:26.000Z</time>
      </trkpt>
      <trkpt lat="47.32433" lon="-2.44032">
        <ele>19.200000762939</ele>
        <time>2020-02-09T10:19:31.000Z</time>
      </trkpt>
      <trkpt lat="47.32407" lon="-2.4405">
        <ele>19.200000762939</ele>
        <time>2020-02-09T10:19:37.000Z</time>
      </trkpt>
      <trkpt lat="47.32402" lon="-2.44052">
        <ele>19.200000762939</ele>
        <time>2020-02-09T10:19:38.000Z</time>
      </trkpt>
      <trkpt lat="47.32376" lon="-2.44067">
        <ele>19.200000762939</ele>
        <time>2020-02-09T10:19:43.000Z</time>
      </trkpt>
      <trkpt lat="47.32355" lon="-2.44073">
        <ele>19.200000762939</ele>
        <time>2020-02-09T10:19:47.000Z</time>
      </trkpt>
      <trkpt lat="47.32344" lon="-2.44073">
        <ele>19.200000762939</ele>
        <time>2020-02-09T10:19:49.000Z</time>
      </trkpt>
      <trkpt lat="47.32332" lon="-2.4407">
        <ele>19.200000762939</ele>
        <time>2020-02-09T10:19:51.000Z</time>
      </trkpt>
      <trkpt lat="47.32316" lon="-2.44065">
        <ele>19.200000762939</ele>
        <time>2020-02-09T10:19:54.000Z</time>
      </trkpt>
      <trkpt lat="47.32278" lon="-2.44052">
        <ele>19.200000762939</ele>
        <time>2020-02-09T10:20:01.000Z</time>
      </trkpt>
      <trkpt lat="47.32261" lon="-2.44048">
        <ele>19.200000762939</ele>
        <time>2020-02-09T10:20:05.000Z</time>
      </trkpt>
      <trkpt lat="47.32258" lon="-2.44045">
        <ele>19.200000762939</ele>
        <time>2020-02-09T10:20:06.000Z</time>
      </trkpt>
      <trkpt lat="47.32256" lon="-2.44031">
        <ele>19.200000762939</ele>
        <time>2020-02-09T10:20:09.000Z</time>
      </trkpt>
      <trkpt lat="47.32265" lon="-2.44023">
        <ele>19.200000762939</ele>
        <time>2020-02-09T10:20:12.000Z</time>
      </trkpt>
      <trkpt lat="47.32268" lon="-2.4402">
        <ele>19.200000762939</ele>
        <time>2020-02-09T10:20:13.000Z</time>
      </trkpt>
      <trkpt lat="47.32291" lon="-2.43996">
        <ele>19.200000762939</ele>
        <time>2020-02-09T10:20:20.000Z</time>
      </trkpt>
      <trkpt lat="47.32305" lon="-2.43975">
        <ele>19.200000762939</ele>
        <time>2020-02-09T10:20:25.000Z</time>
      </trkpt>
      <trkpt lat="47.32307" lon="-2.43969">
        <ele>19.200000762939</ele>
        <time>2020-02-09T10:20:26.000Z</time>
      </trkpt>
      <trkpt lat="47.32311" lon="-2.43952">
        <ele>19.200000762939</ele>
        <time>2020-02-09T10:20:29.000Z</time>
      </trkpt>
      <trkpt lat="47.32314" lon="-2.43941">
        <ele>19.200000762939</ele>
        <time>2020-02-09T10:20:31.000Z</time>
      </trkpt>
      <trkpt lat="47.32323" lon="-2.43899">
        <ele>19.200000762939</ele>
        <time>2020-02-09T10:20:38.000Z</time>
      </trkpt>
      <trkpt lat="47.32331" lon="-2.43857">
        <ele>19.200000762939</ele>
        <time>2020-02-09T10:20:45.000Z</time>
      </trkpt>
      <trkpt lat="47.32337" lon="-2.43837">
        <ele>19.200000762939</ele>
        <time>2020-02-09T10:20:48.000Z</time>
      </trkpt>
      <trkpt lat="47.32352" lon="-2.43794">
        <ele>19.200000762939</ele>
        <time>2020-02-09T10:20:55.000Z</time>
      </trkpt>
      <trkpt lat="47.32364" lon="-2.43756">
        <ele>19.200000762939</ele>
        <time>2020-02-09T10:21:01.000Z</time>
      </trkpt>
      <trkpt lat="47.32372" lon="-2.43721">
        <ele>19.200000762939</ele>
        <time>2020-02-09T10:21:06.000Z</time>
      </trkpt>
      <trkpt lat="47.32374" lon="-2.43713">
        <ele>19.200000762939</ele>
        <time>2020-02-09T10:21:07.000Z</time>
      </trkpt>
      <trkpt lat="47.32383" lon="-2.43656">
        <ele>19.200000762939</ele>
        <time>2020-02-09T10:21:15.000Z</time>
      </trkpt>
      <trkpt lat="47.32393" lon="-2.43605">
        <ele>19.200000762939</ele>
        <time>2020-02-09T10:21:22.000Z</time>
      </trkpt>
      <trkpt lat="47.32403" lon="-2.43568">
        <ele>19.200000762939</ele>
        <time>2020-02-09T10:21:28.000Z</time>
      </trkpt>
      <trkpt lat="47.32418" lon="-2.43527">
        <ele>19.200000762939</ele>
        <time>2020-02-09T10:21:36.000Z</time>
      </trkpt>
      <trkpt lat="47.32443" lon="-2.43503">
        <ele>19.200000762939</ele>
        <time>2020-02-09T10:21:42.000Z</time>
      </trkpt>
      <trkpt lat="47.32472" lon="-2.43474">
        <ele>19.200000762939</ele>
        <time>2020-02-09T10:21:49.000Z</time>
      </trkpt>
      <trkpt lat="47.32492" lon="-2.43451">
        <ele>19.200000762939</ele>
        <time>2020-02-09T10:21:54.000Z</time>
      </trkpt>
      <trkpt lat="47.32498" lon="-2.4344">
        <ele>19.200000762939</ele>
        <time>2020-02-09T10:21:56.000Z</time>
      </trkpt>
      <trkpt lat="47.32507" lon="-2.43415">
        <ele>19.200000762939</ele>
        <time>2020-02-09T10:22:00.000Z</time>
      </trkpt>
      <trkpt lat="47.32519" lon="-2.43411">
        <ele>19.200000762939</ele>
        <time>2020-02-09T10:22:03.000Z</time>
      </trkpt>
      <trkpt lat="47.32523" lon="-2.43409">
        <ele>19.200000762939</ele>
        <time>2020-02-09T10:22:04.000Z</time>
      </trkpt>
      <trkpt lat="47.32533" lon="-2.43393">
        <ele>19.200000762939</ele>
        <time>2020-02-09T10:22:07.000Z</time>
      </trkpt>
      <trkpt lat="47.32537" lon="-2.43379">
        <ele>19.200000762939</ele>
        <time>2020-02-09T10:22:09.000Z</time>
      </trkpt>
      <trkpt lat="47.32538" lon="-2.43373">
        <ele>19.200000762939</ele>
        <time>2020-02-09T10:22:10.000Z</time>
      </trkpt>
      <trkpt lat="47.3254" lon="-2.4336">
        <ele>19.200000762939</ele>
        <time>2020-02-09T10:22:12.000Z</time>
      </trkpt>
      <trkpt lat="47.32544" lon="-2.43327">
        <ele>19.60000038147</ele>
        <time>2020-02-09T10:22:17.000Z</time>
      </trkpt>
      <trkpt lat="47.32545" lon="-2.43322">
        <ele>20</ele>
        <time>2020-02-09T10:22:18.000Z</time>
      </trkpt>
      <trkpt lat="47.32546" lon="-2.43316">
        <ele>20.39999961853</ele>
        <time>2020-02-09T10:22:19.000Z</time>
      </trkpt>
      <trkpt lat="47.32547" lon="-2.4331">
        <ele>20.799999237061</ele>
        <time>2020-02-09T10:22:20.000Z</time>
      </trkpt>
      <trkpt lat="47.32549" lon="-2.43304">
        <ele>21.200000762939</ele>
        <time>2020-02-09T10:22:21.000Z</time>
      </trkpt>
      <trkpt lat="47.3256" lon="-2.43265">
        <ele>21.200000762939</ele>
        <time>2020-02-09T10:22:27.000Z</time>
      </trkpt>
      <trkpt lat="47.32564" lon="-2.43253">
        <ele>21.200000762939</ele>
        <time>2020-02-09T10:22:29.000Z</time>
      </trkpt>
      <trkpt lat="47.32574" lon="-2.43237">
        <ele>21.200000762939</ele>
        <time>2020-02-09T10:22:32.000Z</time>
      </trkpt>
      <trkpt lat="47.32582" lon="-2.43227">
        <ele>21.200000762939</ele>
        <time>2020-02-09T10:22:34.000Z</time>
      </trkpt>
      <trkpt lat="47.32598" lon="-2.43213">
        <ele>21.200000762939</ele>
        <time>2020-02-09T10:22:38.000Z</time>
      </trkpt>
      <trkpt lat="47.32626" lon="-2.43197">
        <ele>21.200000762939</ele>
        <time>2020-02-09T10:22:45.000Z</time>
      </trkpt>
      <trkpt lat="47.32639" lon="-2.43186">
        <ele>21.200000762939</ele>
        <time>2020-02-09T10:22:49.000Z</time>
      </trkpt>
      <trkpt lat="47.3264" lon="-2.43181">
        <ele>21.200000762939</ele>
        <time>2020-02-09T10:22:50.000Z</time>
      </trkpt>
      <trkpt lat="47.32636" lon="-2.43166">
        <ele>21.200000762939</ele>
        <time>2020-02-09T10:22:53.000Z</time>
      </trkpt>
      <trkpt lat="47.32633" lon="-2.43154">
        <ele>21.200000762939</ele>
        <time>2020-02-09T10:22:55.000Z</time>
      </trkpt>
      <trkpt lat="47.32631" lon="-2.43143">
        <ele>21.200000762939</ele>
        <time>2020-02-09T10:22:57.000Z</time>
      </trkpt>
      <trkpt lat="47.32627" lon="-2.43131">
        <ele>21.200000762939</ele>
        <time>2020-02-09T10:22:59.000Z</time>
      </trkpt>
      <trkpt lat="47.32621" lon="-2.43104">
        <ele>21.200000762939</ele>
        <time>2020-02-09T10:23:03.000Z</time>
      </trkpt>
      <trkpt lat="47.3262" lon="-2.43092">
        <ele>21.200000762939</ele>
        <time>2020-02-09T10:23:05.000Z</time>
      </trkpt>
      <trkpt lat="47.32622" lon="-2.43075">
        <ele>21.200000762939</ele>
        <time>2020-02-09T10:23:08.000Z</time>
      </trkpt>
      <trkpt lat="47.32625" lon="-2.43063">
        <ele>21.200000762939</ele>
        <time>2020-02-09T10:23:12.000Z</time>
      </trkpt>
      <trkpt lat="47.32627" lon="-2.43058">
        <ele>21.60000038147</ele>
        <time>2020-02-09T10:23:16.000Z</time>
      </trkpt>
      <trkpt lat="47.3263" lon="-2.43056">
        <ele>22.39999961853</ele>
        <time>2020-02-09T10:23:18.000Z</time>
      </trkpt>
      <trkpt lat="47.32633" lon="-2.43054">
        <ele>22.799999237061</ele>
        <time>2020-02-09T10:23:19.000Z</time>
      </trkpt>
      <trkpt lat="47.32637" lon="-2.43052">
        <ele>23.200000762939</ele>
        <time>2020-02-09T10:23:20.000Z</time>
      </trkpt>
      <trkpt lat="47.32645" lon="-2.4305">
        <ele>23.200000762939</ele>
        <time>2020-02-09T10:23:22.000Z</time>
      </trkpt>
      <trkpt lat="47.32675" lon="-2.43043">
        <ele>23.200000762939</ele>
        <time>2020-02-09T10:23:28.000Z</time>
      </trkpt>
      <trkpt lat="47.327" lon="-2.43036">
        <ele>23.200000762939</ele>
        <time>2020-02-09T10:23:34.000Z</time>
      </trkpt>
      <trkpt lat="47.32722" lon="-2.43025">
        <ele>23.200000762939</ele>
        <time>2020-02-09T10:23:40.000Z</time>
      </trkpt>
      <trkpt lat="47.32737" lon="-2.43023">
        <ele>23.200000762939</ele>
        <time>2020-02-09T10:23:45.000Z</time>
      </trkpt>
      <trkpt lat="47.32752" lon="-2.43013">
        <ele>23.200000762939</ele>
        <time>2020-02-09T10:23:51.000Z</time>
      </trkpt>
      <trkpt lat="47.32758" lon="-2.42996">
        <ele>23.200000762939</ele>
        <time>2020-02-09T10:23:55.000Z</time>
      </trkpt>
      <trkpt lat="47.32759" lon="-2.42992">
        <ele>23.200000762939</ele>
        <time>2020-02-09T10:23:56.000Z</time>
      </trkpt>
      <trkpt lat="47.32761" lon="-2.42987">
        <ele>23.60000038147</ele>
        <time>2020-02-09T10:23:57.000Z</time>
      </trkpt>
      <trkpt lat="47.32763" lon="-2.42981">
        <ele>24</ele>
        <time>2020-02-09T10:23:58.000Z</time>
      </trkpt>
      <trkpt lat="47.32765" lon="-2.42976">
        <ele>24.60000038147</ele>
        <time>2020-02-09T10:23:59.000Z</time>
      </trkpt>
      <trkpt lat="47.32767" lon="-2.42971">
        <ele>25</ele>
        <time>2020-02-09T10:24:00.000Z</time>
      </trkpt>
      <trkpt lat="47.32769" lon="-2.42967">
        <ele>25.39999961853</ele>
        <time>2020-02-09T10:24:01.000Z</time>
      </trkpt>
      <trkpt lat="47.3277" lon="-2.42961">
        <ele>25.39999961853</ele>
        <time>2020-02-09T10:24:02.000Z</time>
      </trkpt>
      <trkpt lat="47.32776" lon="-2.4294">
        <ele>25.39999961853</ele>
        <time>2020-02-09T10:24:07.000Z</time>
      </trkpt>
      <trkpt lat="47.32775" lon="-2.42909">
        <ele>25.39999961853</ele>
        <time>2020-02-09T10:24:13.000Z</time>
      </trkpt>
      <trkpt lat="47.32772" lon="-2.42876">
        <ele>25.39999961853</ele>
        <time>2020-02-09T10:24:20.000Z</time>
      </trkpt>
      <trkpt lat="47.32765" lon="-2.42856">
        <ele>25.39999961853</ele>
        <time>2020-02-09T10:24:25.000Z</time>
      </trkpt>
      <trkpt lat="47.32756" lon="-2.42827">
        <ele>25.39999961853</ele>
        <time>2020-02-09T10:24:33.000Z</time>
      </trkpt>
      <trkpt lat="47.3275" lon="-2.42796">
        <ele>25.39999961853</ele>
        <time>2020-02-09T10:24:40.000Z</time>
      </trkpt>
      <trkpt lat="47.32742" lon="-2.4277">
        <ele>25.39999961853</ele>
        <time>2020-02-09T10:24:45.000Z</time>
      </trkpt>
      <trkpt lat="47.32738" lon="-2.4276">
        <ele>25.39999961853</ele>
        <time>2020-02-09T10:24:47.000Z</time>
      </trkpt>
      <trkpt lat="47.32732" lon="-2.4273">
        <ele>25.39999961853</ele>
        <time>2020-02-09T10:24:53.000Z</time>
      </trkpt>
      <trkpt lat="47.32733" lon="-2.42707">
        <ele>25.39999961853</ele>
        <time>2020-02-09T10:24:58.000Z</time>
      </trkpt>
      <trkpt lat="47.32734" lon="-2.42701">
        <ele>25.799999237061</ele>
        <time>2020-02-09T10:24:59.000Z</time>
      </trkpt>
      <trkpt lat="47.32733" lon="-2.42696">
        <ele>26.200000762939</ele>
        <time>2020-02-09T10:25:00.000Z</time>
      </trkpt>
      <trkpt lat="47.32733" lon="-2.42691">
        <ele>26.60000038147</ele>
        <time>2020-02-09T10:25:01.000Z</time>
      </trkpt>
      <trkpt lat="47.32733" lon="-2.42686">
        <ele>27</ele>
        <time>2020-02-09T10:25:02.000Z</time>
      </trkpt>
      <trkpt lat="47.3273" lon="-2.42682">
        <ele>27.39999961853</ele>
        <time>2020-02-09T10:25:03.000Z</time>
      </trkpt>
      <trkpt lat="47.32726" lon="-2.42677">
        <ele>27.39999961853</ele>
        <time>2020-02-09T10:25:05.000Z</time>
      </trkpt>
      <trkpt lat="47.32718" lon="-2.4267">
        <ele>27.39999961853</ele>
        <time>2020-02-09T10:25:08.000Z</time>
      </trkpt>
      <trkpt lat="47.32714" lon="-2.42662">
        <ele>27.39999961853</ele>
        <time>2020-02-09T10:25:10.000Z</time>
      </trkpt>
      <trkpt lat="47.32704" lon="-2.42645">
        <ele>27.39999961853</ele>
        <time>2020-02-09T10:25:13.000Z</time>
      </trkpt>
      <trkpt lat="47.32703" lon="-2.42638">
        <ele>27.39999961853</ele>
        <time>2020-02-09T10:25:14.000Z</time>
      </trkpt>
      <trkpt lat="47.32696" lon="-2.42617">
        <ele>27.39999961853</ele>
        <time>2020-02-09T10:25:17.000Z</time>
      </trkpt>
      <trkpt lat="47.32687" lon="-2.42594">
        <ele>27.39999961853</ele>
        <time>2020-02-09T10:25:20.000Z</time>
      </trkpt>
      <trkpt lat="47.32682" lon="-2.42577">
        <ele>27.39999961853</ele>
        <time>2020-02-09T10:25:22.000Z</time>
      </trkpt>
      <trkpt lat="47.32664" lon="-2.42522">
        <ele>27.39999961853</ele>
        <time>2020-02-09T10:25:28.000Z</time>
      </trkpt>
      <trkpt lat="47.32643" lon="-2.42466">
        <ele>27.39999961853</ele>
        <time>2020-02-09T10:25:35.000Z</time>
      </trkpt>
      <trkpt lat="47.32634" lon="-2.42442">
        <ele>27.39999961853</ele>
        <time>2020-02-09T10:25:38.000Z</time>
      </trkpt>
      <trkpt lat="47.32629" lon="-2.42426">
        <ele>27.39999961853</ele>
        <time>2020-02-09T10:25:40.000Z</time>
      </trkpt>
      <trkpt lat="47.32621" lon="-2.42405">
        <ele>27.799999237061</ele>
        <time>2020-02-09T10:25:43.000Z</time>
      </trkpt>
      <trkpt lat="47.32618" lon="-2.42397">
        <ele>28.200000762939</ele>
        <time>2020-02-09T10:25:44.000Z</time>
      </trkpt>
      <trkpt lat="47.32614" lon="-2.4239">
        <ele>28.60000038147</ele>
        <time>2020-02-09T10:25:45.000Z</time>
      </trkpt>
      <trkpt lat="47.3261" lon="-2.42382">
        <ele>29</ele>
        <time>2020-02-09T10:25:46.000Z</time>
      </trkpt>
      <trkpt lat="47.32607" lon="-2.42375">
        <ele>29.39999961853</ele>
        <time>2020-02-09T10:25:47.000Z</time>
      </trkpt>
      <trkpt lat="47.32583" lon="-2.42329">
        <ele>29.39999961853</ele>
        <time>2020-02-09T10:25:54.000Z</time>
      </trkpt>
      <trkpt lat="47.32557" lon="-2.42287">
        <ele>29.39999961853</ele>
        <time>2020-02-09T10:26:02.000Z</time>
      </trkpt>
      <trkpt lat="47.32551" lon="-2.42275">
        <ele>29.39999961853</ele>
        <time>2020-02-09T10:26:04.000Z</time>
      </trkpt>
      <trkpt lat="47.32541" lon="-2.42256">
        <ele>29.39999961853</ele>
        <time>2020-02-09T10:26:07.000Z</time>
      </trkpt>
      <trkpt lat="47.32527" lon="-2.42227">
        <ele>29.39999961853</ele>
        <time>2020-02-09T10:26:12.000Z</time>
      </trkpt>
      <trkpt lat="47.32525" lon="-2.42221">
        <ele>29.39999961853</ele>
        <time>2020-02-09T10:26:13.000Z</time>
      </trkpt>
      <trkpt lat="47.32511" lon="-2.42186">
        <ele>29.39999961853</ele>
        <time>2020-02-09T10:26:20.000Z</time>
      </trkpt>
      <trkpt lat="47.3251" lon="-2.42182">
        <ele>29.799999237061</ele>
        <time>2020-02-09T10:26:21.000Z</time>
      </trkpt>
      <trkpt lat="47.32508" lon="-2.42176">
        <ele>30.200000762939</ele>
        <time>2020-02-09T10:26:22.000Z</time>
      </trkpt>
      <trkpt lat="47.32507" lon="-2.42173">
        <ele>30.60000038147</ele>
        <time>2020-02-09T10:26:23.000Z</time>
      </trkpt>
      <trkpt lat="47.32505" lon="-2.4217">
        <ele>31</ele>
        <time>2020-02-09T10:26:24.000Z</time>
      </trkpt>
      <trkpt lat="47.32504" lon="-2.42169">
        <ele>31.39999961853</ele>
        <time>2020-02-09T10:26:25.000Z</time>
      </trkpt>
      <trkpt lat="47.32498" lon="-2.42154">
        <ele>31.39999961853</ele>
        <time>2020-02-09T10:26:30.000Z</time>
      </trkpt>
      <trkpt lat="47.32489" lon="-2.42131">
        <ele>31.39999961853</ele>
        <time>2020-02-09T10:26:35.000Z</time>
      </trkpt>
      <trkpt lat="47.32481" lon="-2.42107">
        <ele>31.39999961853</ele>
        <time>2020-02-09T10:26:41.000Z</time>
      </trkpt>
      <trkpt lat="47.3247" lon="-2.42086">
        <ele>31.39999961853</ele>
        <time>2020-02-09T10:26:46.000Z</time>
      </trkpt>
      <trkpt lat="47.32455" lon="-2.4204">
        <ele>31.39999961853</ele>
        <time>2020-02-09T10:26:54.000Z</time>
      </trkpt>
      <trkpt lat="47.32454" lon="-2.42033">
        <ele>31.39999961853</ele>
        <time>2020-02-09T10:26:55.000Z</time>
      </trkpt>
      <trkpt lat="47.3245" lon="-2.42002">
        <ele>31.39999961853</ele>
        <time>2020-02-09T10:26:59.000Z</time>
      </trkpt>
      <trkpt lat="47.32449" lon="-2.41978">
        <ele>31.799999237061</ele>
        <time>2020-02-09T10:27:02.000Z</time>
      </trkpt>
      <trkpt lat="47.32448" lon="-2.41969">
        <ele>32.200000762939</ele>
        <time>2020-02-09T10:27:03.000Z</time>
      </trkpt>
      <trkpt lat="47.32447" lon="-2.41961">
        <ele>32.599998474121</ele>
        <time>2020-02-09T10:27:04.000Z</time>
      </trkpt>
      <trkpt lat="47.32446" lon="-2.4195">
        <ele>33</ele>
        <time>2020-02-09T10:27:05.000Z</time>
      </trkpt>
      <trkpt lat="47.32445" lon="-2.41942">
        <ele>33.400001525879</ele>
        <time>2020-02-09T10:27:06.000Z</time>
      </trkpt>
      <trkpt lat="47.32436" lon="-2.41876">
        <ele>33.400001525879</ele>
        <time>2020-02-09T10:27:13.000Z</time>
      </trkpt>
      <trkpt lat="47.32429" lon="-2.41821">
        <ele>33.400001525879</ele>
        <time>2020-02-09T10:27:20.000Z</time>
      </trkpt>
      <trkpt lat="47.32428" lon="-2.41814">
        <ele>33.400001525879</ele>
        <time>2020-02-09T10:27:21.000Z</time>
      </trkpt>
      <trkpt lat="47.32425" lon="-2.41776">
        <ele>33.400001525879</ele>
        <time>2020-02-09T10:27:26.000Z</time>
      </trkpt>
      <trkpt lat="47.32424" lon="-2.41769">
        <ele>33.400001525879</ele>
        <time>2020-02-09T10:27:27.000Z</time>
      </trkpt>
      <trkpt lat="47.32418" lon="-2.41727">
        <ele>33.400001525879</ele>
        <time>2020-02-09T10:27:34.000Z</time>
      </trkpt>
      <trkpt lat="47.32415" lon="-2.41701">
        <ele>33.400001525879</ele>
        <time>2020-02-09T10:27:39.000Z</time>
      </trkpt>
      <trkpt lat="47.32412" lon="-2.41661">
        <ele>33.400001525879</ele>
        <time>2020-02-09T10:27:45.000Z</time>
      </trkpt>
      <trkpt lat="47.32409" lon="-2.41636">
        <ele>33.400001525879</ele>
        <time>2020-02-09T10:27:49.000Z</time>
      </trkpt>
      <trkpt lat="47.32404" lon="-2.41627">
        <ele>33.400001525879</ele>
        <time>2020-02-09T10:27:51.000Z</time>
      </trkpt>
      <trkpt lat="47.32391" lon="-2.41607">
        <ele>33.400001525879</ele>
        <time>2020-02-09T10:27:57.000Z</time>
      </trkpt>
      <trkpt lat="47.32376" lon="-2.41586">
        <ele>33.400001525879</ele>
        <time>2020-02-09T10:28:04.000Z</time>
      </trkpt>
      <trkpt lat="47.32375" lon="-2.41574">
        <ele>33.400001525879</ele>
        <time>2020-02-09T10:28:09.000Z</time>
      </trkpt>
      <trkpt lat="47.32377" lon="-2.41569">
        <ele>33.400001525879</ele>
        <time>2020-02-09T10:28:14.000Z</time>
      </trkpt>
      <trkpt lat="47.32378" lon="-2.41568">
        <ele>33.400001525879</ele>
        <time>2020-02-09T10:28:16.000Z</time>
      </trkpt>
      <trkpt lat="47.3238" lon="-2.4156">
        <ele>33.400001525879</ele>
        <time>2020-02-09T10:28:19.000Z</time>
      </trkpt>
      <trkpt lat="47.32384" lon="-2.41561">
        <ele>33.400001525879</ele>
        <time>2020-02-09T10:28:21.000Z</time>
      </trkpt>
      <trkpt lat="47.32399" lon="-2.41569">
        <ele>33.400001525879</ele>
        <time>2020-02-09T10:28:25.000Z</time>
      </trkpt>
      <trkpt lat="47.32403" lon="-2.41571">
        <ele>33.400001525879</ele>
        <time>2020-02-09T10:28:26.000Z</time>
      </trkpt>
      <trkpt lat="47.32407" lon="-2.41572">
        <ele>33.400001525879</ele>
        <time>2020-02-09T10:28:27.000Z</time>
      </trkpt>
      <trkpt lat="47.32422" lon="-2.4157">
        <ele>33.400001525879</ele>
        <time>2020-02-09T10:28:30.000Z</time>
      </trkpt>
      <trkpt lat="47.32452" lon="-2.41571">
        <ele>33.400001525879</ele>
        <time>2020-02-09T10:28:35.000Z</time>
      </trkpt>
      <trkpt lat="47.32457" lon="-2.41572">
        <ele>33.400001525879</ele>
        <time>2020-02-09T10:28:36.000Z</time>
      </trkpt>
      <trkpt lat="47.32473" lon="-2.41578">
        <ele>33.400001525879</ele>
        <time>2020-02-09T10:28:39.000Z</time>
      </trkpt>
      <trkpt lat="47.32487" lon="-2.41586">
        <ele>33.400001525879</ele>
        <time>2020-02-09T10:28:42.000Z</time>
      </trkpt>
      <trkpt lat="47.32509" lon="-2.41589">
        <ele>33.400001525879</ele>
        <time>2020-02-09T10:28:46.000Z</time>
      </trkpt>
      <trkpt lat="47.32514" lon="-2.41589">
        <ele>33.400001525879</ele>
        <time>2020-02-09T10:28:47.000Z</time>
      </trkpt>
      <trkpt lat="47.32518" lon="-2.41588">
        <ele>33.400001525879</ele>
        <time>2020-02-09T10:28:48.000Z</time>
      </trkpt>
      <trkpt lat="47.32536" lon="-2.4158">
        <ele>33.400001525879</ele>
        <time>2020-02-09T10:28:52.000Z</time>
      </trkpt>
      <trkpt lat="47.32547" lon="-2.41577">
        <ele>33.400001525879</ele>
        <time>2020-02-09T10:28:54.000Z</time>
      </trkpt>
      <trkpt lat="47.32558" lon="-2.41578">
        <ele>33.400001525879</ele>
        <time>2020-02-09T10:28:56.000Z</time>
      </trkpt>
      <trkpt lat="47.32563" lon="-2.41582">
        <ele>33.400001525879</ele>
        <time>2020-02-09T10:28:57.000Z</time>
      </trkpt>
      <trkpt lat="47.32582" lon="-2.416">
        <ele>33.400001525879</ele>
        <time>2020-02-09T10:29:01.000Z</time>
      </trkpt>
      <trkpt lat="47.32586" lon="-2.41603">
        <ele>33.400001525879</ele>
        <time>2020-02-09T10:29:02.000Z</time>
      </trkpt>
      <trkpt lat="47.32595" lon="-2.41607">
        <ele>33.400001525879</ele>
        <time>2020-02-09T10:29:04.000Z</time>
      </trkpt>
      <trkpt lat="47.32604" lon="-2.41605">
        <ele>33.400001525879</ele>
        <time>2020-02-09T10:29:06.000Z</time>
      </trkpt>
      <trkpt lat="47.32613" lon="-2.41603">
        <ele>33.400001525879</ele>
        <time>2020-02-09T10:29:08.000Z</time>
      </trkpt>
      <trkpt lat="47.32627" lon="-2.41606">
        <ele>33.400001525879</ele>
        <time>2020-02-09T10:29:11.000Z</time>
      </trkpt>
      <trkpt lat="47.32648" lon="-2.41615">
        <ele>33.400001525879</ele>
        <time>2020-02-09T10:29:15.000Z</time>
      </trkpt>
      <trkpt lat="47.3266" lon="-2.41618">
        <ele>33.400001525879</ele>
        <time>2020-02-09T10:29:17.000Z</time>
      </trkpt>
      <trkpt lat="47.32678" lon="-2.41625">
        <ele>33.400001525879</ele>
        <time>2020-02-09T10:29:20.000Z</time>
      </trkpt>
      <trkpt lat="47.32694" lon="-2.41628">
        <ele>33.400001525879</ele>
        <time>2020-02-09T10:29:23.000Z</time>
      </trkpt>
      <trkpt lat="47.32708" lon="-2.41627">
        <ele>33.400001525879</ele>
        <time>2020-02-09T10:29:27.000Z</time>
      </trkpt>
      <trkpt lat="47.32717" lon="-2.41625">
        <ele>33.400001525879</ele>
        <time>2020-02-09T10:29:31.000Z</time>
      </trkpt>
      <trkpt lat="47.32717" lon="-2.41624">
        <ele>33.400001525879</ele>
        <time>2020-02-09T10:29:32.000Z</time>
      </trkpt>
      <trkpt lat="47.32715" lon="-2.41617">
        <ele>33.400001525879</ele>
        <time>2020-02-09T10:29:35.000Z</time>
      </trkpt>
      <trkpt lat="47.32714" lon="-2.41614">
        <ele>33.400001525879</ele>
        <time>2020-02-09T10:29:36.000Z</time>
      </trkpt>
      <trkpt lat="47.32705" lon="-2.41593">
        <ele>33.400001525879</ele>
        <time>2020-02-09T10:29:42.000Z</time>
      </trkpt>
      <trkpt lat="47.32704" lon="-2.4158">
        <ele>33.400001525879</ele>
        <time>2020-02-09T10:29:47.000Z</time>
      </trkpt>
      <trkpt lat="47.327" lon="-2.41573">
        <ele>33.400001525879</ele>
        <time>2020-02-09T10:29:50.000Z</time>
      </trkpt>
      <trkpt lat="47.32701" lon="-2.41564">
        <ele>33.400001525879</ele>
        <time>2020-02-09T10:29:52.000Z</time>
      </trkpt>
      <trkpt lat="47.32705" lon="-2.4156">
        <ele>33.400001525879</ele>
        <time>2020-02-09T10:29:54.000Z</time>
      </trkpt>
      <trkpt lat="47.32716" lon="-2.41555">
        <ele>33.400001525879</ele>
        <time>2020-02-09T10:29:57.000Z</time>
      </trkpt>
      <trkpt lat="47.32723" lon="-2.41546">
        <ele>33.400001525879</ele>
        <time>2020-02-09T10:29:59.000Z</time>
      </trkpt>
      <trkpt lat="47.32729" lon="-2.41536">
        <ele>33.400001525879</ele>
        <time>2020-02-09T10:30:01.000Z</time>
      </trkpt>
      <trkpt lat="47.32733" lon="-2.41523">
        <ele>33.400001525879</ele>
        <time>2020-02-09T10:30:03.000Z</time>
      </trkpt>
      <trkpt lat="47.32741" lon="-2.41473">
        <ele>33.400001525879</ele>
        <time>2020-02-09T10:30:10.000Z</time>
      </trkpt>
      <trkpt lat="47.32742" lon="-2.41437">
        <ele>33.400001525879</ele>
        <time>2020-02-09T10:30:15.000Z</time>
      </trkpt>
      <trkpt lat="47.3274" lon="-2.41415">
        <ele>33.400001525879</ele>
        <time>2020-02-09T10:30:18.000Z</time>
      </trkpt>
      <trkpt lat="47.32733" lon="-2.41376">
        <ele>33.400001525879</ele>
        <time>2020-02-09T10:30:24.000Z</time>
      </trkpt>
      <trkpt lat="47.32731" lon="-2.4137">
        <ele>33.799999237061</ele>
        <time>2020-02-09T10:30:25.000Z</time>
      </trkpt>
      <trkpt lat="47.32729" lon="-2.41364">
        <ele>34.799999237061</ele>
        <time>2020-02-09T10:30:26.000Z</time>
      </trkpt>
      <trkpt lat="47.32728" lon="-2.41358">
        <ele>35.200000762939</ele>
        <time>2020-02-09T10:30:27.000Z</time>
      </trkpt>
      <trkpt lat="47.32726" lon="-2.41352">
        <ele>35.599998474121</ele>
        <time>2020-02-09T10:30:28.000Z</time>
      </trkpt>
      <trkpt lat="47.32723" lon="-2.4134">
        <ele>35.599998474121</ele>
        <time>2020-02-09T10:30:30.000Z</time>
      </trkpt>
      <trkpt lat="47.32721" lon="-2.41335">
        <ele>35.599998474121</ele>
        <time>2020-02-09T10:30:31.000Z</time>
      </trkpt>
      <trkpt lat="47.32716" lon="-2.41324">
        <ele>35.599998474121</ele>
        <time>2020-02-09T10:30:33.000Z</time>
      </trkpt>
      <trkpt lat="47.3271" lon="-2.41304">
        <ele>35.599998474121</ele>
        <time>2020-02-09T10:30:36.000Z</time>
      </trkpt>
      <trkpt lat="47.32709" lon="-2.41295">
        <ele>35.599998474121</ele>
        <time>2020-02-09T10:30:37.000Z</time>
      </trkpt>
      <trkpt lat="47.32707" lon="-2.4127">
        <ele>35.599998474121</ele>
        <time>2020-02-09T10:30:40.000Z</time>
      </trkpt>
      <trkpt lat="47.32702" lon="-2.41253">
        <ele>35.599998474121</ele>
        <time>2020-02-09T10:30:42.000Z</time>
      </trkpt>
      <trkpt lat="47.32698" lon="-2.41246">
        <ele>35.599998474121</ele>
        <time>2020-02-09T10:30:43.000Z</time>
      </trkpt>
      <trkpt lat="47.32686" lon="-2.41226">
        <ele>35.599998474121</ele>
        <time>2020-02-09T10:30:46.000Z</time>
      </trkpt>
      <trkpt lat="47.32662" lon="-2.41205">
        <ele>35.599998474121</ele>
        <time>2020-02-09T10:30:51.000Z</time>
      </trkpt>
      <trkpt lat="47.32639" lon="-2.41188">
        <ele>35.599998474121</ele>
        <time>2020-02-09T10:30:56.000Z</time>
      </trkpt>
      <trkpt lat="47.32621" lon="-2.41177">
        <ele>35.599998474121</ele>
        <time>2020-02-09T10:31:00.000Z</time>
      </trkpt>
      <trkpt lat="47.32617" lon="-2.41173">
        <ele>35.599998474121</ele>
        <time>2020-02-09T10:31:01.000Z</time>
      </trkpt>
      <trkpt lat="47.32592" lon="-2.41148">
        <ele>35.599998474121</ele>
        <time>2020-02-09T10:31:07.000Z</time>
      </trkpt>
      <trkpt lat="47.32562" lon="-2.41112">
        <ele>35.599998474121</ele>
        <time>2020-02-09T10:31:15.000Z</time>
      </trkpt>
      <trkpt lat="47.3254" lon="-2.41087">
        <ele>35.599998474121</ele>
        <time>2020-02-09T10:31:22.000Z</time>
      </trkpt>
      <trkpt lat="47.32538" lon="-2.41085">
        <ele>36</ele>
        <time>2020-02-09T10:31:23.000Z</time>
      </trkpt>
      <trkpt lat="47.32535" lon="-2.41082">
        <ele>36.400001525879</ele>
        <time>2020-02-09T10:31:24.000Z</time>
      </trkpt>
      <trkpt lat="47.32532" lon="-2.41079">
        <ele>36.799999237061</ele>
        <time>2020-02-09T10:31:25.000Z</time>
      </trkpt>
      <trkpt lat="47.32529" lon="-2.41076">
        <ele>37.200000762939</ele>
        <time>2020-02-09T10:31:26.000Z</time>
      </trkpt>
      <trkpt lat="47.32526" lon="-2.41073">
        <ele>37.599998474121</ele>
        <time>2020-02-09T10:31:27.000Z</time>
      </trkpt>
      <trkpt lat="47.32523" lon="-2.41071">
        <ele>37.599998474121</ele>
        <time>2020-02-09T10:31:28.000Z</time>
      </trkpt>
      <trkpt lat="47.3251" lon="-2.41059">
        <ele>37.599998474121</ele>
        <time>2020-02-09T10:31:32.000Z</time>
      </trkpt>
      <trkpt lat="47.32507" lon="-2.41054">
        <ele>37.599998474121</ele>
        <time>2020-02-09T10:31:33.000Z</time>
      </trkpt>
      <trkpt lat="47.32499" lon="-2.41039">
        <ele>37.599998474121</ele>
        <time>2020-02-09T10:31:36.000Z</time>
      </trkpt>
      <trkpt lat="47.32491" lon="-2.41028">
        <ele>37.599998474121</ele>
        <time>2020-02-09T10:31:38.000Z</time>
      </trkpt>
      <trkpt lat="47.32463" lon="-2.40987">
        <ele>37.599998474121</ele>
        <time>2020-02-09T10:31:46.000Z</time>
      </trkpt>
      <trkpt lat="47.32439" lon="-2.4094">
        <ele>37.599998474121</ele>
        <time>2020-02-09T10:31:54.000Z</time>
      </trkpt>
      <trkpt lat="47.32431" lon="-2.40922">
        <ele>37.599998474121</ele>
        <time>2020-02-09T10:31:57.000Z</time>
      </trkpt>
      <trkpt lat="47.32422" lon="-2.40897">
        <ele>37.599998474121</ele>
        <time>2020-02-09T10:32:01.000Z</time>
      </trkpt>
      <trkpt lat="47.32411" lon="-2.4086">
        <ele>37.599998474121</ele>
        <time>2020-02-09T10:32:08.000Z</time>
      </trkpt>
      <trkpt lat="47.324" lon="-2.40826">
        <ele>37.599998474121</ele>
        <time>2020-02-09T10:32:14.000Z</time>
      </trkpt>
      <trkpt lat="47.32395" lon="-2.40808">
        <ele>37.599998474121</ele>
        <time>2020-02-09T10:32:17.000Z</time>
      </trkpt>
      <trkpt lat="47.32383" lon="-2.40774">
        <ele>37.599998474121</ele>
        <time>2020-02-09T10:32:24.000Z</time>
      </trkpt>
      <trkpt lat="47.32374" lon="-2.40739">
        <ele>37.599998474121</ele>
        <time>2020-02-09T10:32:31.000Z</time>
      </trkpt>
      <trkpt lat="47.3236" lon="-2.40695">
        <ele>37.599998474121</ele>
        <time>2020-02-09T10:32:37.000Z</time>
      </trkpt>
      <trkpt lat="47.32343" lon="-2.4064">
        <ele>37.599998474121</ele>
        <time>2020-02-09T10:32:44.000Z</time>
      </trkpt>
      <trkpt lat="47.32329" lon="-2.40633">
        <ele>37.599998474121</ele>
        <time>2020-02-09T10:32:47.000Z</time>
      </trkpt>
      <trkpt lat="47.32323" lon="-2.40632">
        <ele>37.599998474121</ele>
        <time>2020-02-09T10:32:48.000Z</time>
      </trkpt>
      <trkpt lat="47.32314" lon="-2.4063">
        <ele>38</ele>
        <time>2020-02-09T10:32:50.000Z</time>
      </trkpt>
      <trkpt lat="47.32309" lon="-2.40629">
        <ele>38.400001525879</ele>
        <time>2020-02-09T10:32:51.000Z</time>
      </trkpt>
      <trkpt lat="47.32305" lon="-2.4063">
        <ele>38.799999237061</ele>
        <time>2020-02-09T10:32:52.000Z</time>
      </trkpt>
      <trkpt lat="47.32301" lon="-2.40632">
        <ele>39.200000762939</ele>
        <time>2020-02-09T10:32:53.000Z</time>
      </trkpt>
      <trkpt lat="47.32297" lon="-2.40635">
        <ele>39.599998474121</ele>
        <time>2020-02-09T10:32:54.000Z</time>
      </trkpt>
      <trkpt lat="47.3229" lon="-2.40652">
        <ele>39.599998474121</ele>
        <time>2020-02-09T10:32:57.000Z</time>
      </trkpt>
      <trkpt lat="47.32289" lon="-2.40666">
        <ele>39.599998474121</ele>
        <time>2020-02-09T10:32:59.000Z</time>
      </trkpt>
      <trkpt lat="47.32288" lon="-2.40703">
        <ele>39.599998474121</ele>
        <time>2020-02-09T10:33:04.000Z</time>
      </trkpt>
      <trkpt lat="47.32284" lon="-2.40745">
        <ele>39.599998474121</ele>
        <time>2020-02-09T10:33:10.000Z</time>
      </trkpt>
      <trkpt lat="47.32285" lon="-2.40783">
        <ele>39.599998474121</ele>
        <time>2020-02-09T10:33:16.000Z</time>
      </trkpt>
      <trkpt lat="47.32291" lon="-2.40804">
        <ele>39.599998474121</ele>
        <time>2020-02-09T10:33:19.000Z</time>
      </trkpt>
      <trkpt lat="47.32294" lon="-2.40809">
        <ele>39.599998474121</ele>
        <time>2020-02-09T10:33:20.000Z</time>
      </trkpt>
      <trkpt lat="47.32305" lon="-2.40821">
        <ele>39.599998474121</ele>
        <time>2020-02-09T10:33:23.000Z</time>
      </trkpt>
      <trkpt lat="47.32319" lon="-2.40834">
        <ele>39.599998474121</ele>
        <time>2020-02-09T10:33:27.000Z</time>
      </trkpt>
      <trkpt lat="47.3233" lon="-2.40837">
        <ele>39.599998474121</ele>
        <time>2020-02-09T10:33:30.000Z</time>
      </trkpt>
      <trkpt lat="47.32334" lon="-2.40835">
        <ele>39.599998474121</ele>
        <time>2020-02-09T10:33:31.000Z</time>
      </trkpt>
      <trkpt lat="47.32348" lon="-2.40823">
        <ele>39.599998474121</ele>
        <time>2020-02-09T10:33:36.000Z</time>
      </trkpt>
      <trkpt lat="47.32351" lon="-2.4082">
        <ele>39.599998474121</ele>
        <time>2020-02-09T10:33:37.000Z</time>
      </trkpt>
      <trkpt lat="47.32362" lon="-2.40807">
        <ele>39.599998474121</ele>
        <time>2020-02-09T10:33:42.000Z</time>
      </trkpt>
      <trkpt lat="47.32369" lon="-2.40797">
        <ele>39.599998474121</ele>
        <time>2020-02-09T10:33:47.000Z</time>
      </trkpt>
      <trkpt lat="47.3237" lon="-2.40795">
        <ele>39.599998474121</ele>
        <time>2020-02-09T10:33:48.000Z</time>
      </trkpt>
      <trkpt lat="47.32367" lon="-2.40784">
        <ele>39.599998474121</ele>
        <time>2020-02-09T10:33:53.000Z</time>
      </trkpt>
      <trkpt lat="47.32366" lon="-2.40784">
        <ele>39.599998474121</ele>
        <time>2020-02-09T10:33:54.000Z</time>
      </trkpt>
      <trkpt lat="47.32369" lon="-2.40785">
        <ele>49.799999237061</ele>
        <time>2020-02-09T10:46:05.000Z</time>
      </trkpt>
      <trkpt lat="47.32369" lon="-2.40786">
        <ele>49.799999237061</ele>
        <time>2020-02-09T10:46:06.000Z</time>
      </trkpt>
      <trkpt lat="47.32365" lon="-2.40797">
        <ele>49.799999237061</ele>
        <time>2020-02-09T10:46:11.000Z</time>
      </trkpt>
      <trkpt lat="47.32362" lon="-2.40799">
        <ele>49.799999237061</ele>
        <time>2020-02-09T10:46:12.000Z</time>
      </trkpt>
      <trkpt lat="47.32346" lon="-2.40812">
        <ele>49.799999237061</ele>
        <time>2020-02-09T10:46:17.000Z</time>
      </trkpt>
      <trkpt lat="47.3233" lon="-2.40831">
        <ele>49.799999237061</ele>
        <time>2020-02-09T10:46:23.000Z</time>
      </trkpt>
      <trkpt lat="47.32319" lon="-2.40834">
        <ele>49.799999237061</ele>
        <time>2020-02-09T10:46:26.000Z</time>
      </trkpt>
      <trkpt lat="47.32315" lon="-2.40832">
        <ele>49.799999237061</ele>
        <time>2020-02-09T10:46:27.000Z</time>
      </trkpt>
      <trkpt lat="47.32304" lon="-2.40821">
        <ele>49.799999237061</ele>
        <time>2020-02-09T10:46:30.000Z</time>
      </trkpt>
      <trkpt lat="47.32286" lon="-2.40804">
        <ele>49.799999237061</ele>
        <time>2020-02-09T10:46:34.000Z</time>
      </trkpt>
      <trkpt lat="47.3228" lon="-2.40793">
        <ele>49.799999237061</ele>
        <time>2020-02-09T10:46:36.000Z</time>
      </trkpt>
      <trkpt lat="47.32276" lon="-2.40763">
        <ele>49.799999237061</ele>
        <time>2020-02-09T10:46:40.000Z</time>
      </trkpt>
      <trkpt lat="47.32277" lon="-2.40748">
        <ele>49.799999237061</ele>
        <time>2020-02-09T10:46:42.000Z</time>
      </trkpt>
      <trkpt lat="47.3228" lon="-2.40712">
        <ele>49.799999237061</ele>
        <time>2020-02-09T10:46:47.000Z</time>
      </trkpt>
      <trkpt lat="47.32287" lon="-2.40656">
        <ele>49.799999237061</ele>
        <time>2020-02-09T10:46:54.000Z</time>
      </trkpt>
      <trkpt lat="47.32288" lon="-2.40641">
        <ele>49.799999237061</ele>
        <time>2020-02-09T10:46:56.000Z</time>
      </trkpt>
      <trkpt lat="47.32283" lon="-2.40628">
        <ele>49.799999237061</ele>
        <time>2020-02-09T10:46:58.000Z</time>
      </trkpt>
      <trkpt lat="47.32269" lon="-2.40622">
        <ele>49.799999237061</ele>
        <time>2020-02-09T10:47:01.000Z</time>
      </trkpt>
      <trkpt lat="47.32264" lon="-2.40621">
        <ele>49.799999237061</ele>
        <time>2020-02-09T10:47:02.000Z</time>
      </trkpt>
      <trkpt lat="47.32258" lon="-2.40619">
        <ele>49.799999237061</ele>
        <time>2020-02-09T10:47:03.000Z</time>
      </trkpt>
      <trkpt lat="47.32243" lon="-2.40616">
        <ele>49.799999237061</ele>
        <time>2020-02-09T10:47:06.000Z</time>
      </trkpt>
      <trkpt lat="47.32238" lon="-2.40616">
        <ele>49.799999237061</ele>
        <time>2020-02-09T10:47:07.000Z</time>
      </trkpt>
      <trkpt lat="47.3223" lon="-2.40619">
        <ele>49.799999237061</ele>
        <time>2020-02-09T10:47:10.000Z</time>
      </trkpt>
      <trkpt lat="47.32228" lon="-2.40622">
        <ele>49.799999237061</ele>
        <time>2020-02-09T10:47:12.000Z</time>
      </trkpt>
      <trkpt lat="47.32224" lon="-2.40623">
        <ele>49.799999237061</ele>
        <time>2020-02-09T10:47:15.000Z</time>
      </trkpt>
      <trkpt lat="47.32223" lon="-2.40614">
        <ele>49.799999237061</ele>
        <time>2020-02-09T10:47:19.000Z</time>
      </trkpt>
      <trkpt lat="47.32224" lon="-2.40611">
        <ele>49.799999237061</ele>
        <time>2020-02-09T10:47:20.000Z</time>
      </trkpt>
      <trkpt lat="47.32226" lon="-2.40599">
        <ele>49.799999237061</ele>
        <time>2020-02-09T10:47:24.000Z</time>
      </trkpt>
      <trkpt lat="47.32226" lon="-2.40595">
        <ele>49.799999237061</ele>
        <time>2020-02-09T10:47:26.000Z</time>
      </trkpt>
      <trkpt lat="47.32227" lon="-2.40587">
        <ele>49.799999237061</ele>
        <time>2020-02-09T10:47:29.000Z</time>
      </trkpt>
      <trkpt lat="47.32228" lon="-2.40582">
        <ele>49.799999237061</ele>
        <time>2020-02-09T10:47:30.000Z</time>
      </trkpt>
      <trkpt lat="47.3223" lon="-2.40564">
        <ele>49.799999237061</ele>
        <time>2020-02-09T10:47:33.000Z</time>
      </trkpt>
      <trkpt lat="47.32239" lon="-2.40518">
        <ele>49.799999237061</ele>
        <time>2020-02-09T10:47:39.000Z</time>
      </trkpt>
      <trkpt lat="47.32249" lon="-2.40464">
        <ele>49.799999237061</ele>
        <time>2020-02-09T10:47:46.000Z</time>
      </trkpt>
      <trkpt lat="47.32261" lon="-2.40398">
        <ele>49.799999237061</ele>
        <time>2020-02-09T10:47:55.000Z</time>
      </trkpt>
      <trkpt lat="47.32272" lon="-2.40356">
        <ele>49.799999237061</ele>
        <time>2020-02-09T10:48:01.000Z</time>
      </trkpt>
      <trkpt lat="47.32273" lon="-2.40348">
        <ele>49.799999237061</ele>
        <time>2020-02-09T10:48:02.000Z</time>
      </trkpt>
      <trkpt lat="47.32276" lon="-2.40321">
        <ele>49.799999237061</ele>
        <time>2020-02-09T10:48:06.000Z</time>
      </trkpt>
      <trkpt lat="47.32281" lon="-2.40277">
        <ele>49.799999237061</ele>
        <time>2020-02-09T10:48:12.000Z</time>
      </trkpt>
      <trkpt lat="47.32282" lon="-2.40269">
        <ele>49.799999237061</ele>
        <time>2020-02-09T10:48:13.000Z</time>
      </trkpt>
      <trkpt lat="47.32289" lon="-2.40231">
        <ele>49.799999237061</ele>
        <time>2020-02-09T10:48:18.000Z</time>
      </trkpt>
      <trkpt lat="47.32296" lon="-2.40182">
        <ele>49.799999237061</ele>
        <time>2020-02-09T10:48:24.000Z</time>
      </trkpt>
      <trkpt lat="47.32297" lon="-2.40174">
        <ele>49.799999237061</ele>
        <time>2020-02-09T10:48:25.000Z</time>
      </trkpt>
      <trkpt lat="47.32307" lon="-2.40107">
        <ele>49.799999237061</ele>
        <time>2020-02-09T10:48:33.000Z</time>
      </trkpt>
      <trkpt lat="47.32318" lon="-2.40045">
        <ele>49.799999237061</ele>
        <time>2020-02-09T10:48:40.000Z</time>
      </trkpt>
      <trkpt lat="47.32323" lon="-2.4001">
        <ele>49.799999237061</ele>
        <time>2020-02-09T10:48:44.000Z</time>
      </trkpt>
      <trkpt lat="47.32327" lon="-2.39992">
        <ele>49.799999237061</ele>
        <time>2020-02-09T10:48:46.000Z</time>
      </trkpt>
      <trkpt lat="47.32338" lon="-2.39904">
        <ele>49.799999237061</ele>
        <time>2020-02-09T10:48:55.000Z</time>
      </trkpt>
      <trkpt lat="47.32342" lon="-2.39857">
        <ele>49.799999237061</ele>
        <time>2020-02-09T10:49:00.000Z</time>
      </trkpt>
      <trkpt lat="47.32343" lon="-2.39849">
        <ele>49.799999237061</ele>
        <time>2020-02-09T10:49:01.000Z</time>
      </trkpt>
      <trkpt lat="47.32348" lon="-2.39803">
        <ele>49.799999237061</ele>
        <time>2020-02-09T10:49:06.000Z</time>
      </trkpt>
      <trkpt lat="47.32358" lon="-2.39732">
        <ele>49.799999237061</ele>
        <time>2020-02-09T10:49:14.000Z</time>
      </trkpt>
      <trkpt lat="47.32361" lon="-2.39706">
        <ele>49.799999237061</ele>
        <time>2020-02-09T10:49:18.000Z</time>
      </trkpt>
      <trkpt lat="47.32361" lon="-2.39701">
        <ele>49.799999237061</ele>
        <time>2020-02-09T10:49:19.000Z</time>
      </trkpt>
      <trkpt lat="47.32353" lon="-2.39695">
        <ele>49.799999237061</ele>
        <time>2020-02-09T10:49:21.000Z</time>
      </trkpt>
      <trkpt lat="47.3234" lon="-2.39701">
        <ele>49.799999237061</ele>
        <time>2020-02-09T10:49:24.000Z</time>
      </trkpt>
      <trkpt lat="47.32324" lon="-2.3971">
        <ele>49.799999237061</ele>
        <time>2020-02-09T10:49:27.000Z</time>
      </trkpt>
      <trkpt lat="47.32312" lon="-2.39717">
        <ele>49.799999237061</ele>
        <time>2020-02-09T10:49:29.000Z</time>
      </trkpt>
      <trkpt lat="47.32267" lon="-2.39739">
        <ele>49.799999237061</ele>
        <time>2020-02-09T10:49:36.000Z</time>
      </trkpt>
      <trkpt lat="47.32241" lon="-2.39751">
        <ele>49.799999237061</ele>
        <time>2020-02-09T10:49:40.000Z</time>
      </trkpt>
      <trkpt lat="47.32228" lon="-2.39757">
        <ele>49.799999237061</ele>
        <time>2020-02-09T10:49:42.000Z</time>
      </trkpt>
      <trkpt lat="47.32179" lon="-2.39781">
        <ele>49.799999237061</ele>
        <time>2020-02-09T10:49:50.000Z</time>
      </trkpt>
      <trkpt lat="47.32139" lon="-2.39796">
        <ele>49.799999237061</ele>
        <time>2020-02-09T10:49:57.000Z</time>
      </trkpt>
      <trkpt lat="47.3213" lon="-2.39801">
        <ele>49.799999237061</ele>
        <time>2020-02-09T10:49:59.000Z</time>
      </trkpt>
      <trkpt lat="47.32123" lon="-2.39805">
        <ele>49.799999237061</ele>
        <time>2020-02-09T10:50:01.000Z</time>
      </trkpt>
      <trkpt lat="47.32108" lon="-2.3981">
        <ele>49.799999237061</ele>
        <time>2020-02-09T10:50:06.000Z</time>
      </trkpt>
      <trkpt lat="47.32097" lon="-2.3981">
        <ele>49.799999237061</ele>
        <time>2020-02-09T10:50:09.000Z</time>
      </trkpt>
      <trkpt lat="47.32093" lon="-2.39807">
        <ele>49.799999237061</ele>
        <time>2020-02-09T10:50:10.000Z</time>
      </trkpt>
      <trkpt lat="47.32084" lon="-2.39789">
        <ele>49.799999237061</ele>
        <time>2020-02-09T10:50:13.000Z</time>
      </trkpt>
      <trkpt lat="47.3208" lon="-2.39774">
        <ele>49.799999237061</ele>
        <time>2020-02-09T10:50:15.000Z</time>
      </trkpt>
      <trkpt lat="47.32073" lon="-2.39749">
        <ele>49.799999237061</ele>
        <time>2020-02-09T10:50:18.000Z</time>
      </trkpt>
      <trkpt lat="47.32058" lon="-2.39689">
        <ele>49.799999237061</ele>
        <time>2020-02-09T10:50:25.000Z</time>
      </trkpt>
      <trkpt lat="47.32045" lon="-2.39641">
        <ele>49.799999237061</ele>
        <time>2020-02-09T10:50:30.000Z</time>
      </trkpt>
      <trkpt lat="47.3204" lon="-2.39621">
        <ele>49.799999237061</ele>
        <time>2020-02-09T10:50:32.000Z</time>
      </trkpt>
      <trkpt lat="47.32031" lon="-2.3959">
        <ele>49.799999237061</ele>
        <time>2020-02-09T10:50:35.000Z</time>
      </trkpt>
      <trkpt lat="47.3202" lon="-2.39542">
        <ele>49.799999237061</ele>
        <time>2020-02-09T10:50:40.000Z</time>
      </trkpt>
      <trkpt lat="47.32005" lon="-2.39486">
        <ele>49.799999237061</ele>
        <time>2020-02-09T10:50:46.000Z</time>
      </trkpt>
      <trkpt lat="47.31988" lon="-2.39417">
        <ele>49.799999237061</ele>
        <time>2020-02-09T10:50:53.000Z</time>
      </trkpt>
      <trkpt lat="47.31974" lon="-2.39355">
        <ele>49.799999237061</ele>
        <time>2020-02-09T10:50:59.000Z</time>
      </trkpt>
      <trkpt lat="47.31955" lon="-2.39283">
        <ele>49.799999237061</ele>
        <time>2020-02-09T10:51:06.000Z</time>
      </trkpt>
      <trkpt lat="47.31933" lon="-2.39203">
        <ele>49.799999237061</ele>
        <time>2020-02-09T10:51:14.000Z</time>
      </trkpt>
      <trkpt lat="47.31916" lon="-2.39144">
        <ele>49.799999237061</ele>
        <time>2020-02-09T10:51:20.000Z</time>
      </trkpt>
      <trkpt lat="47.31896" lon="-2.39079">
        <ele>49.799999237061</ele>
        <time>2020-02-09T10:51:27.000Z</time>
      </trkpt>
      <trkpt lat="47.31877" lon="-2.39017">
        <ele>49.799999237061</ele>
        <time>2020-02-09T10:51:34.000Z</time>
      </trkpt>
      <trkpt lat="47.31868" lon="-2.3899">
        <ele>49.799999237061</ele>
        <time>2020-02-09T10:51:37.000Z</time>
      </trkpt>
      <trkpt lat="47.31858" lon="-2.38965">
        <ele>49.799999237061</ele>
        <time>2020-02-09T10:51:40.000Z</time>
      </trkpt>
      <trkpt lat="47.31846" lon="-2.38922">
        <ele>49.799999237061</ele>
        <time>2020-02-09T10:51:45.000Z</time>
      </trkpt>
      <trkpt lat="47.3183" lon="-2.38858">
        <ele>49.799999237061</ele>
        <time>2020-02-09T10:51:53.000Z</time>
      </trkpt>
      <trkpt lat="47.31821" lon="-2.38809">
        <ele>49.799999237061</ele>
        <time>2020-02-09T10:51:59.000Z</time>
      </trkpt>
      <trkpt lat="47.3182" lon="-2.388">
        <ele>49.799999237061</ele>
        <time>2020-02-09T10:52:00.000Z</time>
      </trkpt>
      <trkpt lat="47.31819" lon="-2.38768">
        <ele>49.799999237061</ele>
        <time>2020-02-09T10:52:04.000Z</time>
      </trkpt>
      <trkpt lat="47.31819" lon="-2.38761">
        <ele>49.799999237061</ele>
        <time>2020-02-09T10:52:05.000Z</time>
      </trkpt>
      <trkpt lat="47.31819" lon="-2.38725">
        <ele>49.799999237061</ele>
        <time>2020-02-09T10:52:10.000Z</time>
      </trkpt>
      <trkpt lat="47.31817" lon="-2.38666">
        <ele>49.799999237061</ele>
        <time>2020-02-09T10:52:18.000Z</time>
      </trkpt>
      <trkpt lat="47.31812" lon="-2.38605">
        <ele>49.799999237061</ele>
        <time>2020-02-09T10:52:26.000Z</time>
      </trkpt>
      <trkpt lat="47.3181" lon="-2.38544">
        <ele>49.799999237061</ele>
        <time>2020-02-09T10:52:34.000Z</time>
      </trkpt>
      <trkpt lat="47.3181" lon="-2.38504">
        <ele>49.400001525879</ele>
        <time>2020-02-09T10:52:39.000Z</time>
      </trkpt>
      <trkpt lat="47.3181" lon="-2.38496">
        <ele>48.599998474121</ele>
        <time>2020-02-09T10:52:40.000Z</time>
      </trkpt>
      <trkpt lat="47.3181" lon="-2.38487">
        <ele>48.200000762939</ele>
        <time>2020-02-09T10:52:41.000Z</time>
      </trkpt>
      <trkpt lat="47.3181" lon="-2.38478">
        <ele>47.799999237061</ele>
        <time>2020-02-09T10:52:42.000Z</time>
      </trkpt>
      <trkpt lat="47.3181" lon="-2.38397">
        <ele>47.799999237061</ele>
        <time>2020-02-09T10:52:51.000Z</time>
      </trkpt>
      <trkpt lat="47.3181" lon="-2.38315">
        <ele>47.799999237061</ele>
        <time>2020-02-09T10:52:59.000Z</time>
      </trkpt>
      <trkpt lat="47.31807" lon="-2.38229">
        <ele>47.799999237061</ele>
        <time>2020-02-09T10:53:06.000Z</time>
      </trkpt>
      <trkpt lat="47.31803" lon="-2.38138">
        <ele>47.799999237061</ele>
        <time>2020-02-09T10:53:13.000Z</time>
      </trkpt>
      <trkpt lat="47.31803" lon="-2.38126">
        <ele>47.799999237061</ele>
        <time>2020-02-09T10:53:14.000Z</time>
      </trkpt>
      <trkpt lat="47.31797" lon="-2.38037">
        <ele>47.799999237061</ele>
        <time>2020-02-09T10:53:21.000Z</time>
      </trkpt>
      <trkpt lat="47.31794" lon="-2.3798">
        <ele>47.799999237061</ele>
        <time>2020-02-09T10:53:26.000Z</time>
      </trkpt>
      <trkpt lat="47.31797" lon="-2.37921">
        <ele>47.799999237061</ele>
        <time>2020-02-09T10:53:32.000Z</time>
      </trkpt>
      <trkpt lat="47.31804" lon="-2.37857">
        <ele>47.799999237061</ele>
        <time>2020-02-09T10:53:39.000Z</time>
      </trkpt>
      <trkpt lat="47.31813" lon="-2.37793">
        <ele>47.799999237061</ele>
        <time>2020-02-09T10:53:46.000Z</time>
      </trkpt>
      <trkpt lat="47.31816" lon="-2.37742">
        <ele>47.799999237061</ele>
        <time>2020-02-09T10:53:52.000Z</time>
      </trkpt>
      <trkpt lat="47.31821" lon="-2.37698">
        <ele>47.799999237061</ele>
        <time>2020-02-09T10:53:58.000Z</time>
      </trkpt>
      <trkpt lat="47.31822" lon="-2.37691">
        <ele>47.799999237061</ele>
        <time>2020-02-09T10:53:59.000Z</time>
      </trkpt>
      <trkpt lat="47.31825" lon="-2.37678">
        <ele>47.799999237061</ele>
        <time>2020-02-09T10:54:01.000Z</time>
      </trkpt>
      <trkpt lat="47.31825" lon="-2.37664">
        <ele>47.799999237061</ele>
        <time>2020-02-09T10:54:03.000Z</time>
      </trkpt>
      <trkpt lat="47.31815" lon="-2.37652">
        <ele>47.799999237061</ele>
        <time>2020-02-09T10:54:06.000Z</time>
      </trkpt>
      <trkpt lat="47.31803" lon="-2.37658">
        <ele>47.799999237061</ele>
        <time>2020-02-09T10:54:09.000Z</time>
      </trkpt>
      <trkpt lat="47.31799" lon="-2.37661">
        <ele>47.799999237061</ele>
        <time>2020-02-09T10:54:10.000Z</time>
      </trkpt>
      <trkpt lat="47.31777" lon="-2.37679">
        <ele>47.799999237061</ele>
        <time>2020-02-09T10:54:15.000Z</time>
      </trkpt>
      <trkpt lat="47.31749" lon="-2.37705">
        <ele>47.799999237061</ele>
        <time>2020-02-09T10:54:22.000Z</time>
      </trkpt>
      <trkpt lat="47.31716" lon="-2.37717">
        <ele>47.799999237061</ele>
        <time>2020-02-09T10:54:30.000Z</time>
      </trkpt>
      <trkpt lat="47.31694" lon="-2.37712">
        <ele>47.799999237061</ele>
        <time>2020-02-09T10:54:35.000Z</time>
      </trkpt>
      <trkpt lat="47.3169" lon="-2.3771">
        <ele>47.799999237061</ele>
        <time>2020-02-09T10:54:36.000Z</time>
      </trkpt>
      <trkpt lat="47.31672" lon="-2.37697">
        <ele>47.799999237061</ele>
        <time>2020-02-09T10:54:41.000Z</time>
      </trkpt>
      <trkpt lat="47.31669" lon="-2.37693">
        <ele>47.799999237061</ele>
        <time>2020-02-09T10:54:42.000Z</time>
      </trkpt>
      <trkpt lat="47.31651" lon="-2.37671">
        <ele>47.799999237061</ele>
        <time>2020-02-09T10:54:47.000Z</time>
      </trkpt>
      <trkpt lat="47.31647" lon="-2.37668">
        <ele>47.799999237061</ele>
        <time>2020-02-09T10:54:48.000Z</time>
      </trkpt>
      <trkpt lat="47.31627" lon="-2.37662">
        <ele>47.799999237061</ele>
        <time>2020-02-09T10:54:52.000Z</time>
      </trkpt>
      <trkpt lat="47.31622" lon="-2.37662">
        <ele>47.799999237061</ele>
        <time>2020-02-09T10:54:53.000Z</time>
      </trkpt>
      <trkpt lat="47.31611" lon="-2.37664">
        <ele>47.799999237061</ele>
        <time>2020-02-09T10:54:55.000Z</time>
      </trkpt>
      <trkpt lat="47.31601" lon="-2.37671">
        <ele>47.799999237061</ele>
        <time>2020-02-09T10:54:57.000Z</time>
      </trkpt>
      <trkpt lat="47.31586" lon="-2.37686">
        <ele>47.799999237061</ele>
        <time>2020-02-09T10:55:00.000Z</time>
      </trkpt>
      <trkpt lat="47.31578" lon="-2.37699">
        <ele>47.799999237061</ele>
        <time>2020-02-09T10:55:02.000Z</time>
      </trkpt>
      <trkpt lat="47.31574" lon="-2.37705">
        <ele>47.400001525879</ele>
        <time>2020-02-09T10:55:03.000Z</time>
      </trkpt>
      <trkpt lat="47.3157" lon="-2.37712">
        <ele>47</ele>
        <time>2020-02-09T10:55:04.000Z</time>
      </trkpt>
      <trkpt lat="47.31566" lon="-2.37719">
        <ele>46.599998474121</ele>
        <time>2020-02-09T10:55:05.000Z</time>
      </trkpt>
      <trkpt lat="47.31563" lon="-2.37726">
        <ele>46.200000762939</ele>
        <time>2020-02-09T10:55:06.000Z</time>
      </trkpt>
      <trkpt lat="47.31559" lon="-2.37733">
        <ele>45.799999237061</ele>
        <time>2020-02-09T10:55:07.000Z</time>
      </trkpt>
      <trkpt lat="47.31553" lon="-2.37747">
        <ele>45.799999237061</ele>
        <time>2020-02-09T10:55:09.000Z</time>
      </trkpt>
      <trkpt lat="47.31541" lon="-2.37792">
        <ele>45.799999237061</ele>
        <time>2020-02-09T10:55:15.000Z</time>
      </trkpt>
      <trkpt lat="47.31526" lon="-2.3786">
        <ele>45.799999237061</ele>
        <time>2020-02-09T10:55:24.000Z</time>
      </trkpt>
      <trkpt lat="47.31514" lon="-2.37899">
        <ele>45.799999237061</ele>
        <time>2020-02-09T10:55:30.000Z</time>
      </trkpt>
      <trkpt lat="47.31496" lon="-2.37943">
        <ele>45.799999237061</ele>
        <time>2020-02-09T10:55:37.000Z</time>
      </trkpt>
      <trkpt lat="47.31472" lon="-2.3799">
        <ele>45.799999237061</ele>
        <time>2020-02-09T10:55:44.000Z</time>
      </trkpt>
      <trkpt lat="47.31442" lon="-2.38036">
        <ele>45.799999237061</ele>
        <time>2020-02-09T10:55:52.000Z</time>
      </trkpt>
      <trkpt lat="47.31419" lon="-2.38063">
        <ele>45.799999237061</ele>
        <time>2020-02-09T10:55:58.000Z</time>
      </trkpt>
      <trkpt lat="47.31415" lon="-2.38067">
        <ele>45.799999237061</ele>
        <time>2020-02-09T10:55:59.000Z</time>
      </trkpt>
      <trkpt lat="47.31398" lon="-2.38081">
        <ele>45.799999237061</ele>
        <time>2020-02-09T10:56:03.000Z</time>
      </trkpt>
      <trkpt lat="47.31393" lon="-2.38084">
        <ele>45.799999237061</ele>
        <time>2020-02-09T10:56:04.000Z</time>
      </trkpt>
      <trkpt lat="47.31362" lon="-2.38108">
        <ele>45.799999237061</ele>
        <time>2020-02-09T10:56:11.000Z</time>
      </trkpt>
      <trkpt lat="47.31335" lon="-2.38132">
        <ele>45.799999237061</ele>
        <time>2020-02-09T10:56:17.000Z</time>
      </trkpt>
      <trkpt lat="47.31304" lon="-2.38159">
        <ele>45.799999237061</ele>
        <time>2020-02-09T10:56:24.000Z</time>
      </trkpt>
      <trkpt lat="47.31275" lon="-2.38184">
        <ele>45.799999237061</ele>
        <time>2020-02-09T10:56:31.000Z</time>
      </trkpt>
      <trkpt lat="47.31259" lon="-2.38199">
        <ele>45.799999237061</ele>
        <time>2020-02-09T10:56:35.000Z</time>
      </trkpt>
      <trkpt lat="47.31245" lon="-2.3821">
        <ele>45.799999237061</ele>
        <time>2020-02-09T10:56:38.000Z</time>
      </trkpt>
      <trkpt lat="47.3122" lon="-2.3823">
        <ele>45.799999237061</ele>
        <time>2020-02-09T10:56:44.000Z</time>
      </trkpt>
      <trkpt lat="47.31187" lon="-2.38255">
        <ele>45.799999237061</ele>
        <time>2020-02-09T10:56:53.000Z</time>
      </trkpt>
      <trkpt lat="47.31161" lon="-2.38274">
        <ele>45.799999237061</ele>
        <time>2020-02-09T10:57:00.000Z</time>
      </trkpt>
      <trkpt lat="47.31137" lon="-2.38293">
        <ele>45.799999237061</ele>
        <time>2020-02-09T10:57:07.000Z</time>
      </trkpt>
      <trkpt lat="47.31105" lon="-2.3832">
        <ele>45.799999237061</ele>
        <time>2020-02-09T10:57:16.000Z</time>
      </trkpt>
      <trkpt lat="47.31073" lon="-2.3835">
        <ele>45.799999237061</ele>
        <time>2020-02-09T10:57:24.000Z</time>
      </trkpt>
      <trkpt lat="47.31049" lon="-2.38379">
        <ele>45.799999237061</ele>
        <time>2020-02-09T10:57:31.000Z</time>
      </trkpt>
      <trkpt lat="47.31023" lon="-2.38414">
        <ele>45.799999237061</ele>
        <time>2020-02-09T10:57:39.000Z</time>
      </trkpt>
      <trkpt lat="47.31001" lon="-2.38445">
        <ele>45.799999237061</ele>
        <time>2020-02-09T10:57:46.000Z</time>
      </trkpt>
      <trkpt lat="47.30986" lon="-2.38472">
        <ele>45.799999237061</ele>
        <time>2020-02-09T10:57:51.000Z</time>
      </trkpt>
      <trkpt lat="47.30965" lon="-2.38505">
        <ele>45.799999237061</ele>
        <time>2020-02-09T10:57:58.000Z</time>
      </trkpt>
      <trkpt lat="47.30934" lon="-2.38532">
        <ele>45.799999237061</ele>
        <time>2020-02-09T10:58:05.000Z</time>
      </trkpt>
      <trkpt lat="47.30907" lon="-2.38549">
        <ele>45.799999237061</ele>
        <time>2020-02-09T10:58:11.000Z</time>
      </trkpt>
      <trkpt lat="47.30876" lon="-2.38562">
        <ele>45.799999237061</ele>
        <time>2020-02-09T10:58:18.000Z</time>
      </trkpt>
      <trkpt lat="47.30846" lon="-2.38574">
        <ele>45.799999237061</ele>
        <time>2020-02-09T10:58:25.000Z</time>
      </trkpt>
      <trkpt lat="47.30833" lon="-2.38579">
        <ele>45.799999237061</ele>
        <time>2020-02-09T10:58:28.000Z</time>
      </trkpt>
      <trkpt lat="47.30815" lon="-2.38587">
        <ele>45.799999237061</ele>
        <time>2020-02-09T10:58:32.000Z</time>
      </trkpt>
      <trkpt lat="47.30788" lon="-2.38597">
        <ele>45.799999237061</ele>
        <time>2020-02-09T10:58:38.000Z</time>
      </trkpt>
      <trkpt lat="47.30761" lon="-2.38607">
        <ele>45.799999237061</ele>
        <time>2020-02-09T10:58:45.000Z</time>
      </trkpt>
      <trkpt lat="47.30746" lon="-2.3861">
        <ele>45.799999237061</ele>
        <time>2020-02-09T10:58:50.000Z</time>
      </trkpt>
      <trkpt lat="47.30744" lon="-2.38606">
        <ele>45.799999237061</ele>
        <time>2020-02-09T10:58:51.000Z</time>
      </trkpt>
      <trkpt lat="47.30737" lon="-2.38587">
        <ele>45.799999237061</ele>
        <time>2020-02-09T10:58:54.000Z</time>
      </trkpt>
      <trkpt lat="47.30719" lon="-2.38534">
        <ele>45.799999237061</ele>
        <time>2020-02-09T10:59:01.000Z</time>
      </trkpt>
      <trkpt lat="47.30699" lon="-2.38472">
        <ele>45.799999237061</ele>
        <time>2020-02-09T10:59:09.000Z</time>
      </trkpt>
      <trkpt lat="47.30682" lon="-2.38415">
        <ele>45.799999237061</ele>
        <time>2020-02-09T10:59:16.000Z</time>
      </trkpt>
      <trkpt lat="47.30668" lon="-2.38355">
        <ele>45.799999237061</ele>
        <time>2020-02-09T10:59:23.000Z</time>
      </trkpt>
      <trkpt lat="47.30657" lon="-2.38305">
        <ele>45.799999237061</ele>
        <time>2020-02-09T10:59:29.000Z</time>
      </trkpt>
      <trkpt lat="47.30643" lon="-2.38253">
        <ele>45.799999237061</ele>
        <time>2020-02-09T10:59:35.000Z</time>
      </trkpt>
      <trkpt lat="47.30633" lon="-2.38212">
        <ele>45</ele>
        <time>2020-02-09T10:59:40.000Z</time>
      </trkpt>
      <trkpt lat="47.30631" lon="-2.38204">
        <ele>44.599998474121</ele>
        <time>2020-02-09T10:59:41.000Z</time>
      </trkpt>
      <trkpt lat="47.30629" lon="-2.38196">
        <ele>44.200000762939</ele>
        <time>2020-02-09T10:59:42.000Z</time>
      </trkpt>
      <trkpt lat="47.30627" lon="-2.38188">
        <ele>43.799999237061</ele>
        <time>2020-02-09T10:59:43.000Z</time>
      </trkpt>
      <trkpt lat="47.30617" lon="-2.38152">
        <ele>43.799999237061</ele>
        <time>2020-02-09T10:59:47.000Z</time>
      </trkpt>
      <trkpt lat="47.30601" lon="-2.38092">
        <ele>43.799999237061</ele>
        <time>2020-02-09T10:59:54.000Z</time>
      </trkpt>
      <trkpt lat="47.30582" lon="-2.38023">
        <ele>43.799999237061</ele>
        <time>2020-02-09T11:00:02.000Z</time>
      </trkpt>
      <trkpt lat="47.30579" lon="-2.38006">
        <ele>43.799999237061</ele>
        <time>2020-02-09T11:00:04.000Z</time>
      </trkpt>
      <trkpt lat="47.30579" lon="-2.37989">
        <ele>43.799999237061</ele>
        <time>2020-02-09T11:00:06.000Z</time>
      </trkpt>
      <trkpt lat="47.30582" lon="-2.37964">
        <ele>43.799999237061</ele>
        <time>2020-02-09T11:00:09.000Z</time>
      </trkpt>
      <trkpt lat="47.30582" lon="-2.37955">
        <ele>43.799999237061</ele>
        <time>2020-02-09T11:00:10.000Z</time>
      </trkpt>
      <trkpt lat="47.3058" lon="-2.37947">
        <ele>43.799999237061</ele>
        <time>2020-02-09T11:00:11.000Z</time>
      </trkpt>
      <trkpt lat="47.30564" lon="-2.37924">
        <ele>43.799999237061</ele>
        <time>2020-02-09T11:00:15.000Z</time>
      </trkpt>
      <trkpt lat="47.30552" lon="-2.37905">
        <ele>43.799999237061</ele>
        <time>2020-02-09T11:00:18.000Z</time>
      </trkpt>
      <trkpt lat="47.30546" lon="-2.37888">
        <ele>43.799999237061</ele>
        <time>2020-02-09T11:00:20.000Z</time>
      </trkpt>
      <trkpt lat="47.30529" lon="-2.3783">
        <ele>43.799999237061</ele>
        <time>2020-02-09T11:00:26.000Z</time>
      </trkpt>
      <trkpt lat="47.30509" lon="-2.37755">
        <ele>43.799999237061</ele>
        <time>2020-02-09T11:00:34.000Z</time>
      </trkpt>
      <trkpt lat="47.30489" lon="-2.3769">
        <ele>43.799999237061</ele>
        <time>2020-02-09T11:00:41.000Z</time>
      </trkpt>
      <trkpt lat="47.30472" lon="-2.37629">
        <ele>43.799999237061</ele>
        <time>2020-02-09T11:00:48.000Z</time>
      </trkpt>
      <trkpt lat="47.30461" lon="-2.37585">
        <ele>43.799999237061</ele>
        <time>2020-02-09T11:00:54.000Z</time>
      </trkpt>
      <trkpt lat="47.30446" lon="-2.37532">
        <ele>43.799999237061</ele>
        <time>2020-02-09T11:01:01.000Z</time>
      </trkpt>
      <trkpt lat="47.30431" lon="-2.37477">
        <ele>43.799999237061</ele>
        <time>2020-02-09T11:01:08.000Z</time>
      </trkpt>
      <trkpt lat="47.30412" lon="-2.37414">
        <ele>43.799999237061</ele>
        <time>2020-02-09T11:01:16.000Z</time>
      </trkpt>
      <trkpt lat="47.30396" lon="-2.37361">
        <ele>43.799999237061</ele>
        <time>2020-02-09T11:01:23.000Z</time>
      </trkpt>
      <trkpt lat="47.3038" lon="-2.3731">
        <ele>43.799999237061</ele>
        <time>2020-02-09T11:01:30.000Z</time>
      </trkpt>
      <trkpt lat="47.30359" lon="-2.37243">
        <ele>43.799999237061</ele>
        <time>2020-02-09T11:01:39.000Z</time>
      </trkpt>
      <trkpt lat="47.30344" lon="-2.3719">
        <ele>43.799999237061</ele>
        <time>2020-02-09T11:01:46.000Z</time>
      </trkpt>
      <trkpt lat="47.30325" lon="-2.3713">
        <ele>43.799999237061</ele>
        <time>2020-02-09T11:01:54.000Z</time>
      </trkpt>
      <trkpt lat="47.30305" lon="-2.37071">
        <ele>43.799999237061</ele>
        <time>2020-02-09T11:02:02.000Z</time>
      </trkpt>
      <trkpt lat="47.3029" lon="-2.37028">
        <ele>43.799999237061</ele>
        <time>2020-02-09T11:02:08.000Z</time>
      </trkpt>
      <trkpt lat="47.30273" lon="-2.36983">
        <ele>43.799999237061</ele>
        <time>2020-02-09T11:02:15.000Z</time>
      </trkpt>
      <trkpt lat="47.30256" lon="-2.36943">
        <ele>43.799999237061</ele>
        <time>2020-02-09T11:02:20.000Z</time>
      </trkpt>
      <trkpt lat="47.30232" lon="-2.36882">
        <ele>43.799999237061</ele>
        <time>2020-02-09T11:02:26.000Z</time>
      </trkpt>
      <trkpt lat="47.30202" lon="-2.36805">
        <ele>43.799999237061</ele>
        <time>2020-02-09T11:02:33.000Z</time>
      </trkpt>
      <trkpt lat="47.30176" lon="-2.3673">
        <ele>43.799999237061</ele>
        <time>2020-02-09T11:02:40.000Z</time>
      </trkpt>
      <trkpt lat="47.30165" lon="-2.3669">
        <ele>43.799999237061</ele>
        <time>2020-02-09T11:02:45.000Z</time>
      </trkpt>
      <trkpt lat="47.30158" lon="-2.3668">
        <ele>43.799999237061</ele>
        <time>2020-02-09T11:02:49.000Z</time>
      </trkpt>
      <trkpt lat="47.30159" lon="-2.3668">
        <ele>43.799999237061</ele>
        <time>2020-02-09T11:02:50.000Z</time>
      </trkpt>
      <trkpt lat="47.30155" lon="-2.3668">
        <ele>43.799999237061</ele>
        <time>2020-02-09T11:04:04.000Z</time>
      </trkpt>
      <trkpt lat="47.30153" lon="-2.36681">
        <ele>43.799999237061</ele>
        <time>2020-02-09T11:04:05.000Z</time>
      </trkpt>
      <trkpt lat="47.30144" lon="-2.36692">
        <ele>43.799999237061</ele>
        <time>2020-02-09T11:04:08.000Z</time>
      </trkpt>
      <trkpt lat="47.30131" lon="-2.36711">
        <ele>43.799999237061</ele>
        <time>2020-02-09T11:04:13.000Z</time>
      </trkpt>
      <trkpt lat="47.30127" lon="-2.36716">
        <ele>43.799999237061</ele>
        <time>2020-02-09T11:04:14.000Z</time>
      </trkpt>
      <trkpt lat="47.30107" lon="-2.3673">
        <ele>43.799999237061</ele>
        <time>2020-02-09T11:04:19.000Z</time>
      </trkpt>
      <trkpt lat="47.30079" lon="-2.36751">
        <ele>43.799999237061</ele>
        <time>2020-02-09T11:04:27.000Z</time>
      </trkpt>
      <trkpt lat="47.30052" lon="-2.36779">
        <ele>43.799999237061</ele>
        <time>2020-02-09T11:04:35.000Z</time>
      </trkpt>
      <trkpt lat="47.30022" lon="-2.36815">
        <ele>43.799999237061</ele>
        <time>2020-02-09T11:04:44.000Z</time>
      </trkpt>
      <trkpt lat="47.29991" lon="-2.3685">
        <ele>43.799999237061</ele>
        <time>2020-02-09T11:04:52.000Z</time>
      </trkpt>
      <trkpt lat="47.29961" lon="-2.36885">
        <ele>43.799999237061</ele>
        <time>2020-02-09T11:05:00.000Z</time>
      </trkpt>
      <trkpt lat="47.29926" lon="-2.36928">
        <ele>43.799999237061</ele>
        <time>2020-02-09T11:05:10.000Z</time>
      </trkpt>
      <trkpt lat="47.29909" lon="-2.3695">
        <ele>43.799999237061</ele>
        <time>2020-02-09T11:05:15.000Z</time>
      </trkpt>
      <trkpt lat="47.29904" lon="-2.3696">
        <ele>43.799999237061</ele>
        <time>2020-02-09T11:05:17.000Z</time>
      </trkpt>
      <trkpt lat="47.29897" lon="-2.36973">
        <ele>43.799999237061</ele>
        <time>2020-02-09T11:05:20.000Z</time>
      </trkpt>
      <trkpt lat="47.29893" lon="-2.36973">
        <ele>43.799999237061</ele>
        <time>2020-02-09T11:05:21.000Z</time>
      </trkpt>
      <trkpt lat="47.29889" lon="-2.36973">
        <ele>43.799999237061</ele>
        <time>2020-02-09T11:05:22.000Z</time>
      </trkpt>
      <trkpt lat="47.29877" lon="-2.36976">
        <ele>43.799999237061</ele>
        <time>2020-02-09T11:05:25.000Z</time>
      </trkpt>
      <trkpt lat="47.29868" lon="-2.36984">
        <ele>43.799999237061</ele>
        <time>2020-02-09T11:05:27.000Z</time>
      </trkpt>
      <trkpt lat="47.29859" lon="-2.36998">
        <ele>43.799999237061</ele>
        <time>2020-02-09T11:05:30.000Z</time>
      </trkpt>
      <trkpt lat="47.29848" lon="-2.37011">
        <ele>43.799999237061</ele>
        <time>2020-02-09T11:05:33.000Z</time>
      </trkpt>
      <trkpt lat="47.29828" lon="-2.37035">
        <ele>43.799999237061</ele>
        <time>2020-02-09T11:05:38.000Z</time>
      </trkpt>
      <trkpt lat="47.29822" lon="-2.37045">
        <ele>43.799999237061</ele>
        <time>2020-02-09T11:05:40.000Z</time>
      </trkpt>
      <trkpt lat="47.29815" lon="-2.37061">
        <ele>43.799999237061</ele>
        <time>2020-02-09T11:05:43.000Z</time>
      </trkpt>
      <trkpt lat="47.29811" lon="-2.37076">
        <ele>43.799999237061</ele>
        <time>2020-02-09T11:05:46.000Z</time>
      </trkpt>
      <trkpt lat="47.29807" lon="-2.3711">
        <ele>43.400001525879</ele>
        <time>2020-02-09T11:05:53.000Z</time>
      </trkpt>
      <trkpt lat="47.29807" lon="-2.37115">
        <ele>43</ele>
        <time>2020-02-09T11:05:54.000Z</time>
      </trkpt>
      <trkpt lat="47.29805" lon="-2.37121">
        <ele>42.400001525879</ele>
        <time>2020-02-09T11:05:55.000Z</time>
      </trkpt>
      <trkpt lat="47.29804" lon="-2.37127">
        <ele>42</ele>
        <time>2020-02-09T11:05:56.000Z</time>
      </trkpt>
      <trkpt lat="47.29802" lon="-2.37134">
        <ele>41.599998474121</ele>
        <time>2020-02-09T11:05:57.000Z</time>
      </trkpt>
      <trkpt lat="47.29796" lon="-2.37146">
        <ele>41.599998474121</ele>
        <time>2020-02-09T11:05:59.000Z</time>
      </trkpt>
      <trkpt lat="47.29777" lon="-2.3717">
        <ele>41.599998474121</ele>
        <time>2020-02-09T11:06:04.000Z</time>
      </trkpt>
      <trkpt lat="47.29762" lon="-2.3718">
        <ele>41.599998474121</ele>
        <time>2020-02-09T11:06:07.000Z</time>
      </trkpt>
      <trkpt lat="47.29751" lon="-2.37185">
        <ele>41.599998474121</ele>
        <time>2020-02-09T11:06:09.000Z</time>
      </trkpt>
      <trkpt lat="47.29745" lon="-2.37186">
        <ele>41.599998474121</ele>
        <time>2020-02-09T11:06:10.000Z</time>
      </trkpt>
      <trkpt lat="47.29727" lon="-2.37186">
        <ele>41.599998474121</ele>
        <time>2020-02-09T11:06:13.000Z</time>
      </trkpt>
      <trkpt lat="47.29714" lon="-2.3719">
        <ele>41.599998474121</ele>
        <time>2020-02-09T11:06:15.000Z</time>
      </trkpt>
      <trkpt lat="47.29667" lon="-2.37209">
        <ele>41.599998474121</ele>
        <time>2020-02-09T11:06:23.000Z</time>
      </trkpt>
      <trkpt lat="47.29623" lon="-2.37226">
        <ele>41.599998474121</ele>
        <time>2020-02-09T11:06:31.000Z</time>
      </trkpt>
      <trkpt lat="47.29586" lon="-2.37248">
        <ele>41.599998474121</ele>
        <time>2020-02-09T11:06:38.000Z</time>
      </trkpt>
      <trkpt lat="47.29566" lon="-2.37261">
        <ele>41.599998474121</ele>
        <time>2020-02-09T11:06:42.000Z</time>
      </trkpt>
      <trkpt lat="47.29555" lon="-2.37266">
        <ele>41.599998474121</ele>
        <time>2020-02-09T11:06:44.000Z</time>
      </trkpt>
      <trkpt lat="47.29518" lon="-2.37285">
        <ele>41.599998474121</ele>
        <time>2020-02-09T11:06:50.000Z</time>
      </trkpt>
      <trkpt lat="47.29511" lon="-2.37286">
        <ele>41.599998474121</ele>
        <time>2020-02-09T11:06:51.000Z</time>
      </trkpt>
      <trkpt lat="47.29484" lon="-2.37286">
        <ele>41.599998474121</ele>
        <time>2020-02-09T11:06:55.000Z</time>
      </trkpt>
      <trkpt lat="47.29479" lon="-2.37288">
        <ele>41.599998474121</ele>
        <time>2020-02-09T11:06:56.000Z</time>
      </trkpt>
      <trkpt lat="47.29473" lon="-2.37288">
        <ele>41.599998474121</ele>
        <time>2020-02-09T11:06:57.000Z</time>
      </trkpt>
      <trkpt lat="47.29462" lon="-2.37284">
        <ele>41.599998474121</ele>
        <time>2020-02-09T11:06:59.000Z</time>
      </trkpt>
      <trkpt lat="47.29451" lon="-2.37275">
        <ele>41.599998474121</ele>
        <time>2020-02-09T11:07:01.000Z</time>
      </trkpt>
      <trkpt lat="47.29435" lon="-2.37258">
        <ele>41.599998474121</ele>
        <time>2020-02-09T11:07:04.000Z</time>
      </trkpt>
      <trkpt lat="47.29397" lon="-2.37227">
        <ele>41.599998474121</ele>
        <time>2020-02-09T11:07:10.000Z</time>
      </trkpt>
      <trkpt lat="47.29365" lon="-2.37212">
        <ele>41.599998474121</ele>
        <time>2020-02-09T11:07:15.000Z</time>
      </trkpt>
      <trkpt lat="47.29326" lon="-2.37188">
        <ele>41.599998474121</ele>
        <time>2020-02-09T11:07:22.000Z</time>
      </trkpt>
      <trkpt lat="47.29293" lon="-2.37157">
        <ele>41.599998474121</ele>
        <time>2020-02-09T11:07:29.000Z</time>
      </trkpt>
      <trkpt lat="47.2928" lon="-2.37144">
        <ele>41.599998474121</ele>
        <time>2020-02-09T11:07:32.000Z</time>
      </trkpt>
      <trkpt lat="47.29269" lon="-2.37128">
        <ele>41.599998474121</ele>
        <time>2020-02-09T11:07:35.000Z</time>
      </trkpt>
      <trkpt lat="47.29249" lon="-2.37105">
        <ele>41.200000762939</ele>
        <time>2020-02-09T11:07:40.000Z</time>
      </trkpt>
      <trkpt lat="47.29244" lon="-2.371">
        <ele>40.799999237061</ele>
        <time>2020-02-09T11:07:41.000Z</time>
      </trkpt>
      <trkpt lat="47.2924" lon="-2.37096">
        <ele>40.400001525879</ele>
        <time>2020-02-09T11:07:42.000Z</time>
      </trkpt>
      <trkpt lat="47.29235" lon="-2.37091">
        <ele>40</ele>
        <time>2020-02-09T11:07:43.000Z</time>
      </trkpt>
      <trkpt lat="47.29231" lon="-2.37086">
        <ele>39.599998474121</ele>
        <time>2020-02-09T11:07:44.000Z</time>
      </trkpt>
      <trkpt lat="47.29211" lon="-2.37064">
        <ele>39.599998474121</ele>
        <time>2020-02-09T11:07:49.000Z</time>
      </trkpt>
      <trkpt lat="47.29204" lon="-2.37056">
        <ele>39.599998474121</ele>
        <time>2020-02-09T11:07:51.000Z</time>
      </trkpt>
      <trkpt lat="47.29193" lon="-2.37043">
        <ele>39.599998474121</ele>
        <time>2020-02-09T11:07:54.000Z</time>
      </trkpt>
      <trkpt lat="47.29167" lon="-2.37012">
        <ele>39.599998474121</ele>
        <time>2020-02-09T11:08:01.000Z</time>
      </trkpt>
      <trkpt lat="47.29139" lon="-2.36975">
        <ele>39.599998474121</ele>
        <time>2020-02-09T11:08:09.000Z</time>
      </trkpt>
      <trkpt lat="47.29121" lon="-2.36962">
        <ele>39.599998474121</ele>
        <time>2020-02-09T11:08:14.000Z</time>
      </trkpt>
      <trkpt lat="47.29107" lon="-2.36956">
        <ele>39.599998474121</ele>
        <time>2020-02-09T11:08:19.000Z</time>
      </trkpt>
      <trkpt lat="47.29093" lon="-2.36953">
        <ele>39.599998474121</ele>
        <time>2020-02-09T11:08:24.000Z</time>
      </trkpt>
      <trkpt lat="47.29083" lon="-2.36948">
        <ele>39.599998474121</ele>
        <time>2020-02-09T11:08:30.000Z</time>
      </trkpt>
      <trkpt lat="47.29082" lon="-2.36947">
        <ele>39.599998474121</ele>
        <time>2020-02-09T11:08:31.000Z</time>
      </trkpt>
      <trkpt lat="47.29068" lon="-2.36938">
        <ele>39.599998474121</ele>
        <time>2020-02-09T11:08:36.000Z</time>
      </trkpt>
      <trkpt lat="47.29055" lon="-2.36928">
        <ele>39.599998474121</ele>
        <time>2020-02-09T11:08:42.000Z</time>
      </trkpt>
      <trkpt lat="47.29044" lon="-2.3692">
        <ele>39.599998474121</ele>
        <time>2020-02-09T11:08:46.000Z</time>
      </trkpt>
      <trkpt lat="47.2903" lon="-2.36906">
        <ele>39.599998474121</ele>
        <time>2020-02-09T11:08:50.000Z</time>
      </trkpt>
      <trkpt lat="47.29023" lon="-2.36897">
        <ele>39.599998474121</ele>
        <time>2020-02-09T11:08:52.000Z</time>
      </trkpt>
      <trkpt lat="47.28994" lon="-2.3687">
        <ele>39.599998474121</ele>
        <time>2020-02-09T11:08:58.000Z</time>
      </trkpt>
      <trkpt lat="47.28965" lon="-2.36845">
        <ele>39.599998474121</ele>
        <time>2020-02-09T11:09:04.000Z</time>
      </trkpt>
      <trkpt lat="47.28935" lon="-2.36815">
        <ele>39.599998474121</ele>
        <time>2020-02-09T11:09:11.000Z</time>
      </trkpt>
      <trkpt lat="47.28917" lon="-2.36795">
        <ele>39.599998474121</ele>
        <time>2020-02-09T11:09:17.000Z</time>
      </trkpt>
      <trkpt lat="47.28912" lon="-2.36792">
        <ele>39.599998474121</ele>
        <time>2020-02-09T11:09:18.000Z</time>
      </trkpt>
      <trkpt lat="47.28899" lon="-2.36785">
        <ele>39.599998474121</ele>
        <time>2020-02-09T11:09:21.000Z</time>
      </trkpt>
      <trkpt lat="47.28878" lon="-2.3678">
        <ele>39.599998474121</ele>
        <time>2020-02-09T11:09:26.000Z</time>
      </trkpt>
      <trkpt lat="47.28874" lon="-2.3678">
        <ele>39.599998474121</ele>
        <time>2020-02-09T11:09:28.000Z</time>
      </trkpt>
      <trkpt lat="47.28872" lon="-2.36782">
        <ele>39.200000762939</ele>
        <time>2020-02-09T11:09:29.000Z</time>
      </trkpt>
      <trkpt lat="47.28871" lon="-2.36787">
        <ele>38.799999237061</ele>
        <time>2020-02-09T11:09:30.000Z</time>
      </trkpt>
      <trkpt lat="47.28869" lon="-2.36792">
        <ele>38.400001525879</ele>
        <time>2020-02-09T11:09:31.000Z</time>
      </trkpt>
      <trkpt lat="47.28867" lon="-2.36797">
        <ele>38</ele>
        <time>2020-02-09T11:09:32.000Z</time>
      </trkpt>
      <trkpt lat="47.28865" lon="-2.36803">
        <ele>37.599998474121</ele>
        <time>2020-02-09T11:09:33.000Z</time>
      </trkpt>
      <trkpt lat="47.28861" lon="-2.36816">
        <ele>37.599998474121</ele>
        <time>2020-02-09T11:09:35.000Z</time>
      </trkpt>
      <trkpt lat="47.28852" lon="-2.36849">
        <ele>37.599998474121</ele>
        <time>2020-02-09T11:09:40.000Z</time>
      </trkpt>
      <trkpt lat="47.28851" lon="-2.36855">
        <ele>37.599998474121</ele>
        <time>2020-02-09T11:09:41.000Z</time>
      </trkpt>
      <trkpt lat="47.28844" lon="-2.36879">
        <ele>37.599998474121</ele>
        <time>2020-02-09T11:09:46.000Z</time>
      </trkpt>
      <trkpt lat="47.28833" lon="-2.36872">
        <ele>37.599998474121</ele>
        <time>2020-02-09T11:09:49.000Z</time>
      </trkpt>
      <trkpt lat="47.28825" lon="-2.3685">
        <ele>37.599998474121</ele>
        <time>2020-02-09T11:09:52.000Z</time>
      </trkpt>
      <trkpt lat="47.28823" lon="-2.36842">
        <ele>37.599998474121</ele>
        <time>2020-02-09T11:09:53.000Z</time>
      </trkpt>
      <trkpt lat="47.28818" lon="-2.36827">
        <ele>37.599998474121</ele>
        <time>2020-02-09T11:09:55.000Z</time>
      </trkpt>
      <trkpt lat="47.28814" lon="-2.36821">
        <ele>37.599998474121</ele>
        <time>2020-02-09T11:09:56.000Z</time>
      </trkpt>
      <trkpt lat="47.28811" lon="-2.36818">
        <ele>37.200000762939</ele>
        <time>2020-02-09T11:09:57.000Z</time>
      </trkpt>
      <trkpt lat="47.28807" lon="-2.36817">
        <ele>36.799999237061</ele>
        <time>2020-02-09T11:09:58.000Z</time>
      </trkpt>
      <trkpt lat="47.28804" lon="-2.36821">
        <ele>36.400001525879</ele>
        <time>2020-02-09T11:09:59.000Z</time>
      </trkpt>
      <trkpt lat="47.28801" lon="-2.36826">
        <ele>36</ele>
        <time>2020-02-09T11:10:00.000Z</time>
      </trkpt>
      <trkpt lat="47.28798" lon="-2.36832">
        <ele>35.599998474121</ele>
        <time>2020-02-09T11:10:01.000Z</time>
      </trkpt>
      <trkpt lat="47.28795" lon="-2.36839">
        <ele>35.599998474121</ele>
        <time>2020-02-09T11:10:02.000Z</time>
      </trkpt>
      <trkpt lat="47.28793" lon="-2.36846">
        <ele>35.599998474121</ele>
        <time>2020-02-09T11:10:03.000Z</time>
      </trkpt>
      <trkpt lat="47.28785" lon="-2.36872">
        <ele>35.599998474121</ele>
        <time>2020-02-09T11:10:07.000Z</time>
      </trkpt>
      <trkpt lat="47.28782" lon="-2.36884">
        <ele>35.599998474121</ele>
        <time>2020-02-09T11:10:09.000Z</time>
      </trkpt>
      <trkpt lat="47.28781" lon="-2.36891">
        <ele>35.599998474121</ele>
        <time>2020-02-09T11:10:10.000Z</time>
      </trkpt>
      <trkpt lat="47.28782" lon="-2.36907">
        <ele>35.599998474121</ele>
        <time>2020-02-09T11:10:13.000Z</time>
      </trkpt>
      <trkpt lat="47.28781" lon="-2.3691">
        <ele>35.599998474121</ele>
        <time>2020-02-09T11:10:14.000Z</time>
      </trkpt>
      <trkpt lat="47.28778" lon="-2.36912">
        <ele>35.599998474121</ele>
        <time>2020-02-09T11:10:16.000Z</time>
      </trkpt>
      <trkpt lat="47.28767" lon="-2.36909">
        <ele>35.599998474121</ele>
        <time>2020-02-09T11:10:21.000Z</time>
      </trkpt>
      <trkpt lat="47.28759" lon="-2.36909">
        <ele>35.599998474121</ele>
        <time>2020-02-09T11:10:27.000Z</time>
      </trkpt>
      <trkpt lat="47.28758" lon="-2.3691">
        <ele>35.599998474121</ele>
        <time>2020-02-09T11:10:28.000Z</time>
      </trkpt>
      <trkpt lat="47.28748" lon="-2.36913">
        <ele>35.599998474121</ele>
        <time>2020-02-09T11:10:32.000Z</time>
      </trkpt>
      <trkpt lat="47.28737" lon="-2.36912">
        <ele>35.599998474121</ele>
        <time>2020-02-09T11:10:37.000Z</time>
      </trkpt>
      <trkpt lat="47.28735" lon="-2.36908">
        <ele>35.599998474121</ele>
        <time>2020-02-09T11:10:39.000Z</time>
      </trkpt>
      <trkpt lat="47.28729" lon="-2.36898">
        <ele>35.599998474121</ele>
        <time>2020-02-09T11:10:42.000Z</time>
      </trkpt>
      <trkpt lat="47.28719" lon="-2.36884">
        <ele>35.599998474121</ele>
        <time>2020-02-09T11:10:47.000Z</time>
      </trkpt>
      <trkpt lat="47.28704" lon="-2.36863">
        <ele>35.599998474121</ele>
        <time>2020-02-09T11:10:53.000Z</time>
      </trkpt>
      <trkpt lat="47.28691" lon="-2.36837">
        <ele>35.599998474121</ele>
        <time>2020-02-09T11:10:59.000Z</time>
      </trkpt>
      <trkpt lat="47.28678" lon="-2.36817">
        <ele>35.599998474121</ele>
        <time>2020-02-09T11:11:04.000Z</time>
      </trkpt>
      <trkpt lat="47.2867" lon="-2.36804">
        <ele>35.599998474121</ele>
        <time>2020-02-09T11:11:08.000Z</time>
      </trkpt>
      <trkpt lat="47.28667" lon="-2.36805">
        <ele>35.599998474121</ele>
        <time>2020-02-09T11:11:09.000Z</time>
      </trkpt>
      <trkpt lat="47.28652" lon="-2.36821">
        <ele>35.599998474121</ele>
        <time>2020-02-09T11:11:14.000Z</time>
      </trkpt>
      <trkpt lat="47.28646" lon="-2.36829">
        <ele>35.599998474121</ele>
        <time>2020-02-09T11:11:16.000Z</time>
      </trkpt>
      <trkpt lat="47.28631" lon="-2.3684">
        <ele>35.599998474121</ele>
        <time>2020-02-09T11:11:18.000Z</time>
      </trkpt>
      <trkpt lat="47.2861" lon="-2.36844">
        <ele>35.599998474121</ele>
        <time>2020-02-09T11:11:21.000Z</time>
      </trkpt>
      <trkpt lat="47.28593" lon="-2.36833">
        <ele>35.599998474121</ele>
        <time>2020-02-09T11:11:24.000Z</time>
      </trkpt>
      <trkpt lat="47.28582" lon="-2.36817">
        <ele>35.599998474121</ele>
        <time>2020-02-09T11:11:27.000Z</time>
      </trkpt>
      <trkpt lat="47.28572" lon="-2.36801">
        <ele>35.599998474121</ele>
        <time>2020-02-09T11:11:30.000Z</time>
      </trkpt>
      <trkpt lat="47.28551" lon="-2.36765">
        <ele>35.599998474121</ele>
        <time>2020-02-09T11:11:37.000Z</time>
      </trkpt>
      <trkpt lat="47.28536" lon="-2.36737">
        <ele>35.599998474121</ele>
        <time>2020-02-09T11:11:43.000Z</time>
      </trkpt>
      <trkpt lat="47.28523" lon="-2.36709">
        <ele>35.599998474121</ele>
        <time>2020-02-09T11:11:50.000Z</time>
      </trkpt>
      <trkpt lat="47.28516" lon="-2.36691">
        <ele>35.599998474121</ele>
        <time>2020-02-09T11:11:56.000Z</time>
      </trkpt>
      <trkpt lat="47.28514" lon="-2.36689">
        <ele>35.599998474121</ele>
        <time>2020-02-09T11:11:57.000Z</time>
      </trkpt>
      <trkpt lat="47.28501" lon="-2.36684">
        <ele>35.599998474121</ele>
        <time>2020-02-09T11:12:01.000Z</time>
      </trkpt>
      <trkpt lat="47.28485" lon="-2.36692">
        <ele>35.599998474121</ele>
        <time>2020-02-09T11:12:06.000Z</time>
      </trkpt>
      <trkpt lat="47.28481" lon="-2.36695">
        <ele>35.599998474121</ele>
        <time>2020-02-09T11:12:07.000Z</time>
      </trkpt>
      <trkpt lat="47.28459" lon="-2.36715">
        <ele>35.599998474121</ele>
        <time>2020-02-09T11:12:13.000Z</time>
      </trkpt>
      <trkpt lat="47.28451" lon="-2.36723">
        <ele>35.599998474121</ele>
        <time>2020-02-09T11:12:17.000Z</time>
      </trkpt>
      <trkpt lat="47.28449" lon="-2.36723">
        <ele>35.599998474121</ele>
        <time>2020-02-09T11:12:18.000Z</time>
      </trkpt>
      <trkpt lat="47.28444" lon="-2.36718">
        <ele>35.599998474121</ele>
        <time>2020-02-09T11:12:20.000Z</time>
      </trkpt>
      <trkpt lat="47.28439" lon="-2.36706">
        <ele>35.599998474121</ele>
        <time>2020-02-09T11:12:23.000Z</time>
      </trkpt>
      <trkpt lat="47.28435" lon="-2.36697">
        <ele>35.599998474121</ele>
        <time>2020-02-09T11:12:25.000Z</time>
      </trkpt>
      <trkpt lat="47.28424" lon="-2.36667">
        <ele>35.599998474121</ele>
        <time>2020-02-09T11:12:31.000Z</time>
      </trkpt>
      <trkpt lat="47.2842" lon="-2.36657">
        <ele>35.200000762939</ele>
        <time>2020-02-09T11:12:33.000Z</time>
      </trkpt>
      <trkpt lat="47.28417" lon="-2.36652">
        <ele>34.799999237061</ele>
        <time>2020-02-09T11:12:34.000Z</time>
      </trkpt>
      <trkpt lat="47.28414" lon="-2.36647">
        <ele>34.400001525879</ele>
        <time>2020-02-09T11:12:35.000Z</time>
      </trkpt>
      <trkpt lat="47.28411" lon="-2.36641">
        <ele>34</ele>
        <time>2020-02-09T11:12:36.000Z</time>
      </trkpt>
      <trkpt lat="47.28408" lon="-2.36635">
        <ele>33.400001525879</ele>
        <time>2020-02-09T11:12:37.000Z</time>
      </trkpt>
      <trkpt lat="47.28385" lon="-2.36591">
        <ele>33.400001525879</ele>
        <time>2020-02-09T11:12:43.000Z</time>
      </trkpt>
      <trkpt lat="47.28378" lon="-2.36585">
        <ele>33.400001525879</ele>
        <time>2020-02-09T11:12:44.000Z</time>
      </trkpt>
      <trkpt lat="47.28365" lon="-2.36578">
        <ele>33.400001525879</ele>
        <time>2020-02-09T11:12:46.000Z</time>
      </trkpt>
      <trkpt lat="47.28349" lon="-2.36586">
        <ele>33.400001525879</ele>
        <time>2020-02-09T11:12:49.000Z</time>
      </trkpt>
      <trkpt lat="47.28344" lon="-2.36592">
        <ele>33.400001525879</ele>
        <time>2020-02-09T11:12:50.000Z</time>
      </trkpt>
      <trkpt lat="47.28318" lon="-2.36623">
        <ele>33.400001525879</ele>
        <time>2020-02-09T11:12:55.000Z</time>
      </trkpt>
      <trkpt lat="47.28286" lon="-2.36659">
        <ele>33.400001525879</ele>
        <time>2020-02-09T11:13:01.000Z</time>
      </trkpt>
      <trkpt lat="47.28253" lon="-2.36696">
        <ele>33.400001525879</ele>
        <time>2020-02-09T11:13:07.000Z</time>
      </trkpt>
      <trkpt lat="47.28243" lon="-2.36708">
        <ele>33</ele>
        <time>2020-02-09T11:13:09.000Z</time>
      </trkpt>
      <trkpt lat="47.28238" lon="-2.36714">
        <ele>32.599998474121</ele>
        <time>2020-02-09T11:13:10.000Z</time>
      </trkpt>
      <trkpt lat="47.28233" lon="-2.3672">
        <ele>32.200000762939</ele>
        <time>2020-02-09T11:13:11.000Z</time>
      </trkpt>
      <trkpt lat="47.28227" lon="-2.36725">
        <ele>31.799999237061</ele>
        <time>2020-02-09T11:13:12.000Z</time>
      </trkpt>
      <trkpt lat="47.28221" lon="-2.3673">
        <ele>31.39999961853</ele>
        <time>2020-02-09T11:13:13.000Z</time>
      </trkpt>
      <trkpt lat="47.28208" lon="-2.36745">
        <ele>31.39999961853</ele>
        <time>2020-02-09T11:13:16.000Z</time>
      </trkpt>
      <trkpt lat="47.28176" lon="-2.36781">
        <ele>31.39999961853</ele>
        <time>2020-02-09T11:13:23.000Z</time>
      </trkpt>
      <trkpt lat="47.28145" lon="-2.36818">
        <ele>31.39999961853</ele>
        <time>2020-02-09T11:13:30.000Z</time>
      </trkpt>
      <trkpt lat="47.28139" lon="-2.36841">
        <ele>31.39999961853</ele>
        <time>2020-02-09T11:13:33.000Z</time>
      </trkpt>
      <trkpt lat="47.28137" lon="-2.36849">
        <ele>31.39999961853</ele>
        <time>2020-02-09T11:13:34.000Z</time>
      </trkpt>
      <trkpt lat="47.28136" lon="-2.36857">
        <ele>31.39999961853</ele>
        <time>2020-02-09T11:13:35.000Z</time>
      </trkpt>
      <trkpt lat="47.28127" lon="-2.36876">
        <ele>31.39999961853</ele>
        <time>2020-02-09T11:13:38.000Z</time>
      </trkpt>
      <trkpt lat="47.28113" lon="-2.36883">
        <ele>31.39999961853</ele>
        <time>2020-02-09T11:13:41.000Z</time>
      </trkpt>
      <trkpt lat="47.28097" lon="-2.36877">
        <ele>31.39999961853</ele>
        <time>2020-02-09T11:13:44.000Z</time>
      </trkpt>
      <trkpt lat="47.28093" lon="-2.36874">
        <ele>31.39999961853</ele>
        <time>2020-02-09T11:13:45.000Z</time>
      </trkpt>
      <trkpt lat="47.28085" lon="-2.36862">
        <ele>31.39999961853</ele>
        <time>2020-02-09T11:13:47.000Z</time>
      </trkpt>
      <trkpt lat="47.28082" lon="-2.36855">
        <ele>31</ele>
        <time>2020-02-09T11:13:48.000Z</time>
      </trkpt>
      <trkpt lat="47.28079" lon="-2.36849">
        <ele>30.60000038147</ele>
        <time>2020-02-09T11:13:49.000Z</time>
      </trkpt>
      <trkpt lat="47.28076" lon="-2.36845">
        <ele>30</ele>
        <time>2020-02-09T11:13:50.000Z</time>
      </trkpt>
      <trkpt lat="47.28072" lon="-2.36844">
        <ele>29.60000038147</ele>
        <time>2020-02-09T11:13:51.000Z</time>
      </trkpt>
      <trkpt lat="47.28068" lon="-2.36844">
        <ele>29.200000762939</ele>
        <time>2020-02-09T11:13:52.000Z</time>
      </trkpt>
      <trkpt lat="47.28063" lon="-2.36844">
        <ele>29.200000762939</ele>
        <time>2020-02-09T11:13:53.000Z</time>
      </trkpt>
      <trkpt lat="47.28047" lon="-2.36842">
        <ele>29.200000762939</ele>
        <time>2020-02-09T11:13:56.000Z</time>
      </trkpt>
      <trkpt lat="47.28002" lon="-2.36831">
        <ele>29.200000762939</ele>
        <time>2020-02-09T11:14:04.000Z</time>
      </trkpt>
      <trkpt lat="47.2797" lon="-2.36825">
        <ele>29.200000762939</ele>
        <time>2020-02-09T11:14:10.000Z</time>
      </trkpt>
      <trkpt lat="47.27932" lon="-2.36817">
        <ele>29.200000762939</ele>
        <time>2020-02-09T11:14:17.000Z</time>
      </trkpt>
      <trkpt lat="47.2789" lon="-2.36811">
        <ele>29.200000762939</ele>
        <time>2020-02-09T11:14:25.000Z</time>
      </trkpt>
      <trkpt lat="47.27858" lon="-2.36805">
        <ele>29.200000762939</ele>
        <time>2020-02-09T11:14:31.000Z</time>
      </trkpt>
      <trkpt lat="47.27822" lon="-2.36799">
        <ele>29.200000762939</ele>
        <time>2020-02-09T11:14:38.000Z</time>
      </trkpt>
      <trkpt lat="47.27799" lon="-2.36795">
        <ele>29.200000762939</ele>
        <time>2020-02-09T11:14:43.000Z</time>
      </trkpt>
      <trkpt lat="47.27768" lon="-2.36788">
        <ele>29.200000762939</ele>
        <time>2020-02-09T11:14:50.000Z</time>
      </trkpt>
      <trkpt lat="47.27748" lon="-2.36783">
        <ele>29.200000762939</ele>
        <time>2020-02-09T11:14:56.000Z</time>
      </trkpt>
      <trkpt lat="47.27733" lon="-2.36781">
        <ele>29.200000762939</ele>
        <time>2020-02-09T11:15:02.000Z</time>
      </trkpt>
      <trkpt lat="47.2772" lon="-2.36777">
        <ele>29.200000762939</ele>
        <time>2020-02-09T11:15:09.000Z</time>
      </trkpt>
      <trkpt lat="47.27716" lon="-2.36778">
        <ele>29.200000762939</ele>
        <time>2020-02-09T11:15:11.000Z</time>
      </trkpt>
      <trkpt lat="47.27715" lon="-2.3678">
        <ele>28.799999237061</ele>
        <time>2020-02-09T11:15:12.000Z</time>
      </trkpt>
      <trkpt lat="47.27713" lon="-2.36781">
        <ele>28.39999961853</ele>
        <time>2020-02-09T11:15:13.000Z</time>
      </trkpt>
      <trkpt lat="47.27711" lon="-2.36782">
        <ele>28</ele>
        <time>2020-02-09T11:15:14.000Z</time>
      </trkpt>
      <trkpt lat="47.27709" lon="-2.36783">
        <ele>27.60000038147</ele>
        <time>2020-02-09T11:15:15.000Z</time>
      </trkpt>
      <trkpt lat="47.27706" lon="-2.36784">
        <ele>27.200000762939</ele>
        <time>2020-02-09T11:15:16.000Z</time>
      </trkpt>
      <trkpt lat="47.27701" lon="-2.36783">
        <ele>27.200000762939</ele>
        <time>2020-02-09T11:15:18.000Z</time>
      </trkpt>
      <trkpt lat="47.27698" lon="-2.3678">
        <ele>27.200000762939</ele>
        <time>2020-02-09T11:15:19.000Z</time>
      </trkpt>
      <trkpt lat="47.2769" lon="-2.36759">
        <ele>27.200000762939</ele>
        <time>2020-02-09T11:15:23.000Z</time>
      </trkpt>
      <trkpt lat="47.27676" lon="-2.36713">
        <ele>27.200000762939</ele>
        <time>2020-02-09T11:15:29.000Z</time>
      </trkpt>
      <trkpt lat="47.27656" lon="-2.36651">
        <ele>27.200000762939</ele>
        <time>2020-02-09T11:15:36.000Z</time>
      </trkpt>
      <trkpt lat="47.27639" lon="-2.36603">
        <ele>27.200000762939</ele>
        <time>2020-02-09T11:15:42.000Z</time>
      </trkpt>
      <trkpt lat="47.27619" lon="-2.36543">
        <ele>27.200000762939</ele>
        <time>2020-02-09T11:15:50.000Z</time>
      </trkpt>
      <trkpt lat="47.27599" lon="-2.36486">
        <ele>27.200000762939</ele>
        <time>2020-02-09T11:15:57.000Z</time>
      </trkpt>
      <trkpt lat="47.27574" lon="-2.3642">
        <ele>27.200000762939</ele>
        <time>2020-02-09T11:16:05.000Z</time>
      </trkpt>
      <trkpt lat="47.27553" lon="-2.36363">
        <ele>27.200000762939</ele>
        <time>2020-02-09T11:16:12.000Z</time>
      </trkpt>
      <trkpt lat="47.2755" lon="-2.36355">
        <ele>26.799999237061</ele>
        <time>2020-02-09T11:16:13.000Z</time>
      </trkpt>
      <trkpt lat="47.27547" lon="-2.36347">
        <ele>26.39999961853</ele>
        <time>2020-02-09T11:16:14.000Z</time>
      </trkpt>
      <trkpt lat="47.27543" lon="-2.36339">
        <ele>26</ele>
        <time>2020-02-09T11:16:15.000Z</time>
      </trkpt>
      <trkpt lat="47.2754" lon="-2.36331">
        <ele>25.60000038147</ele>
        <time>2020-02-09T11:16:16.000Z</time>
      </trkpt>
      <trkpt lat="47.27537" lon="-2.36323">
        <ele>25.200000762939</ele>
        <time>2020-02-09T11:16:17.000Z</time>
      </trkpt>
      <trkpt lat="47.27528" lon="-2.36298">
        <ele>25.200000762939</ele>
        <time>2020-02-09T11:16:20.000Z</time>
      </trkpt>
      <trkpt lat="47.27502" lon="-2.36228">
        <ele>25.200000762939</ele>
        <time>2020-02-09T11:16:29.000Z</time>
      </trkpt>
      <trkpt lat="47.27479" lon="-2.36165">
        <ele>25.200000762939</ele>
        <time>2020-02-09T11:16:37.000Z</time>
      </trkpt>
      <trkpt lat="47.27463" lon="-2.36115">
        <ele>25.200000762939</ele>
        <time>2020-02-09T11:16:43.000Z</time>
      </trkpt>
      <trkpt lat="47.2746" lon="-2.36106">
        <ele>25.200000762939</ele>
        <time>2020-02-09T11:16:44.000Z</time>
      </trkpt>
      <trkpt lat="47.27448" lon="-2.36084">
        <ele>25.200000762939</ele>
        <time>2020-02-09T11:16:47.000Z</time>
      </trkpt>
      <trkpt lat="47.27445" lon="-2.36076">
        <ele>25.200000762939</ele>
        <time>2020-02-09T11:16:48.000Z</time>
      </trkpt>
      <trkpt lat="47.27436" lon="-2.36051">
        <ele>25.200000762939</ele>
        <time>2020-02-09T11:16:51.000Z</time>
      </trkpt>
      <trkpt lat="47.27411" lon="-2.35991">
        <ele>25.200000762939</ele>
        <time>2020-02-09T11:16:59.000Z</time>
      </trkpt>
      <trkpt lat="47.27386" lon="-2.35932">
        <ele>25.200000762939</ele>
        <time>2020-02-09T11:17:07.000Z</time>
      </trkpt>
      <trkpt lat="47.27359" lon="-2.35864">
        <ele>25.200000762939</ele>
        <time>2020-02-09T11:17:16.000Z</time>
      </trkpt>
      <trkpt lat="47.27353" lon="-2.35848">
        <ele>24.799999237061</ele>
        <time>2020-02-09T11:17:18.000Z</time>
      </trkpt>
      <trkpt lat="47.2735" lon="-2.3584">
        <ele>24.39999961853</ele>
        <time>2020-02-09T11:17:19.000Z</time>
      </trkpt>
      <trkpt lat="47.27347" lon="-2.35831">
        <ele>24</ele>
        <time>2020-02-09T11:17:20.000Z</time>
      </trkpt>
      <trkpt lat="47.27343" lon="-2.35823">
        <ele>23.200000762939</ele>
        <time>2020-02-09T11:17:21.000Z</time>
      </trkpt>
      <trkpt lat="47.27333" lon="-2.35797">
        <ele>23.200000762939</ele>
        <time>2020-02-09T11:17:24.000Z</time>
      </trkpt>
      <trkpt lat="47.27327" lon="-2.3578">
        <ele>23.200000762939</ele>
        <time>2020-02-09T11:17:26.000Z</time>
      </trkpt>
      <trkpt lat="47.27322" lon="-2.35762">
        <ele>23.200000762939</ele>
        <time>2020-02-09T11:17:28.000Z</time>
      </trkpt>
      <trkpt lat="47.27314" lon="-2.35747">
        <ele>23.200000762939</ele>
        <time>2020-02-09T11:17:30.000Z</time>
      </trkpt>
      <trkpt lat="47.27304" lon="-2.35722">
        <ele>23.200000762939</ele>
        <time>2020-02-09T11:17:33.000Z</time>
      </trkpt>
      <trkpt lat="47.27298" lon="-2.35707">
        <ele>23.200000762939</ele>
        <time>2020-02-09T11:17:35.000Z</time>
      </trkpt>
      <trkpt lat="47.27295" lon="-2.357">
        <ele>23.200000762939</ele>
        <time>2020-02-09T11:17:36.000Z</time>
      </trkpt>
      <trkpt lat="47.27281" lon="-2.35673">
        <ele>23.200000762939</ele>
        <time>2020-02-09T11:17:40.000Z</time>
      </trkpt>
      <trkpt lat="47.27252" lon="-2.3561">
        <ele>23.200000762939</ele>
        <time>2020-02-09T11:17:49.000Z</time>
      </trkpt>
      <trkpt lat="47.27223" lon="-2.35545">
        <ele>23.200000762939</ele>
        <time>2020-02-09T11:17:58.000Z</time>
      </trkpt>
      <trkpt lat="47.27201" lon="-2.35497">
        <ele>23.200000762939</ele>
        <time>2020-02-09T11:18:05.000Z</time>
      </trkpt>
      <trkpt lat="47.27175" lon="-2.35447">
        <ele>23.200000762939</ele>
        <time>2020-02-09T11:18:12.000Z</time>
      </trkpt>
      <trkpt lat="47.27145" lon="-2.3539">
        <ele>23.200000762939</ele>
        <time>2020-02-09T11:18:20.000Z</time>
      </trkpt>
      <trkpt lat="47.27113" lon="-2.35338">
        <ele>23.200000762939</ele>
        <time>2020-02-09T11:18:28.000Z</time>
      </trkpt>
      <trkpt lat="47.27105" lon="-2.35324">
        <ele>23.200000762939</ele>
        <time>2020-02-09T11:18:30.000Z</time>
      </trkpt>
      <trkpt lat="47.27077" lon="-2.3528">
        <ele>23.200000762939</ele>
        <time>2020-02-09T11:18:37.000Z</time>
      </trkpt>
      <trkpt lat="47.2707" lon="-2.35268">
        <ele>23.200000762939</ele>
        <time>2020-02-09T11:18:39.000Z</time>
      </trkpt>
      <trkpt lat="47.2706" lon="-2.35251">
        <ele>23.200000762939</ele>
        <time>2020-02-09T11:18:42.000Z</time>
      </trkpt>
      <trkpt lat="47.27045" lon="-2.35227">
        <ele>22.799999237061</ele>
        <time>2020-02-09T11:18:46.000Z</time>
      </trkpt>
      <trkpt lat="47.2704" lon="-2.35221">
        <ele>22.200000762939</ele>
        <time>2020-02-09T11:18:47.000Z</time>
      </trkpt>
      <trkpt lat="47.27036" lon="-2.35215">
        <ele>21.799999237061</ele>
        <time>2020-02-09T11:18:48.000Z</time>
      </trkpt>
      <trkpt lat="47.27032" lon="-2.35208">
        <ele>21.39999961853</ele>
        <time>2020-02-09T11:18:49.000Z</time>
      </trkpt>
      <trkpt lat="47.27028" lon="-2.35202">
        <ele>21</ele>
        <time>2020-02-09T11:18:50.000Z</time>
      </trkpt>
      <trkpt lat="47.26999" lon="-2.35159">
        <ele>21</ele>
        <time>2020-02-09T11:18:57.000Z</time>
      </trkpt>
      <trkpt lat="47.26963" lon="-2.35107">
        <ele>21</ele>
        <time>2020-02-09T11:19:05.000Z</time>
      </trkpt>
      <trkpt lat="47.26932" lon="-2.3506">
        <ele>21</ele>
        <time>2020-02-09T11:19:12.000Z</time>
      </trkpt>
      <trkpt lat="47.269" lon="-2.35012">
        <ele>21</ele>
        <time>2020-02-09T11:19:20.000Z</time>
      </trkpt>
      <trkpt lat="47.26863" lon="-2.34956">
        <ele>21</ele>
        <time>2020-02-09T11:19:29.000Z</time>
      </trkpt>
      <trkpt lat="47.26834" lon="-2.3491">
        <ele>21</ele>
        <time>2020-02-09T11:19:37.000Z</time>
      </trkpt>
      <trkpt lat="47.26803" lon="-2.34867">
        <ele>21</ele>
        <time>2020-02-09T11:19:45.000Z</time>
      </trkpt>
      <trkpt lat="47.26771" lon="-2.34823">
        <ele>21</ele>
        <time>2020-02-09T11:19:53.000Z</time>
      </trkpt>
      <trkpt lat="47.26759" lon="-2.34809">
        <ele>21</ele>
        <time>2020-02-09T11:19:56.000Z</time>
      </trkpt>
      <trkpt lat="47.26752" lon="-2.34798">
        <ele>21</ele>
        <time>2020-02-09T11:19:58.000Z</time>
      </trkpt>
      <trkpt lat="47.2674" lon="-2.34783">
        <ele>21</ele>
        <time>2020-02-09T11:20:01.000Z</time>
      </trkpt>
      <trkpt lat="47.26732" lon="-2.34774">
        <ele>21</ele>
        <time>2020-02-09T11:20:03.000Z</time>
      </trkpt>
      <trkpt lat="47.26701" lon="-2.34736">
        <ele>21</ele>
        <time>2020-02-09T11:20:11.000Z</time>
      </trkpt>
      <trkpt lat="47.26668" lon="-2.34695">
        <ele>21</ele>
        <time>2020-02-09T11:20:19.000Z</time>
      </trkpt>
      <trkpt lat="47.26637" lon="-2.34657">
        <ele>21</ele>
        <time>2020-02-09T11:20:27.000Z</time>
      </trkpt>
      <trkpt lat="47.26613" lon="-2.34627">
        <ele>21</ele>
        <time>2020-02-09T11:20:33.000Z</time>
      </trkpt>
      <trkpt lat="47.2658" lon="-2.34588">
        <ele>21</ele>
        <time>2020-02-09T11:20:40.000Z</time>
      </trkpt>
      <trkpt lat="47.26552" lon="-2.34559">
        <ele>20.60000038147</ele>
        <time>2020-02-09T11:20:46.000Z</time>
      </trkpt>
      <trkpt lat="47.26548" lon="-2.34554">
        <ele>20.200000762939</ele>
        <time>2020-02-09T11:20:47.000Z</time>
      </trkpt>
      <trkpt lat="47.26543" lon="-2.34549">
        <ele>19.799999237061</ele>
        <time>2020-02-09T11:20:48.000Z</time>
      </trkpt>
      <trkpt lat="47.26539" lon="-2.34545">
        <ele>19.39999961853</ele>
        <time>2020-02-09T11:20:49.000Z</time>
      </trkpt>
      <trkpt lat="47.26534" lon="-2.34541">
        <ele>19</ele>
        <time>2020-02-09T11:20:50.000Z</time>
      </trkpt>
      <trkpt lat="47.26512" lon="-2.34521">
        <ele>19</ele>
        <time>2020-02-09T11:20:55.000Z</time>
      </trkpt>
      <trkpt lat="47.26482" lon="-2.345">
        <ele>19</ele>
        <time>2020-02-09T11:21:02.000Z</time>
      </trkpt>
      <trkpt lat="47.26445" lon="-2.34474">
        <ele>19</ele>
        <time>2020-02-09T11:21:10.000Z</time>
      </trkpt>
      <trkpt lat="47.26412" lon="-2.34449">
        <ele>19</ele>
        <time>2020-02-09T11:21:17.000Z</time>
      </trkpt>
      <trkpt lat="47.26384" lon="-2.34426">
        <ele>19</ele>
        <time>2020-02-09T11:21:23.000Z</time>
      </trkpt>
      <trkpt lat="47.26348" lon="-2.34393">
        <ele>19</ele>
        <time>2020-02-09T11:21:31.000Z</time>
      </trkpt>
      <trkpt lat="47.26339" lon="-2.34385">
        <ele>19</ele>
        <time>2020-02-09T11:21:33.000Z</time>
      </trkpt>
      <trkpt lat="47.26324" lon="-2.34379">
        <ele>19</ele>
        <time>2020-02-09T11:21:36.000Z</time>
      </trkpt>
      <trkpt lat="47.26314" lon="-2.34364">
        <ele>19</ele>
        <time>2020-02-09T11:21:39.000Z</time>
      </trkpt>
      <trkpt lat="47.26297" lon="-2.34345">
        <ele>19</ele>
        <time>2020-02-09T11:21:43.000Z</time>
      </trkpt>
      <trkpt lat="47.26257" lon="-2.34301">
        <ele>19</ele>
        <time>2020-02-09T11:21:52.000Z</time>
      </trkpt>
      <trkpt lat="47.26221" lon="-2.34262">
        <ele>19</ele>
        <time>2020-02-09T11:22:00.000Z</time>
      </trkpt>
      <trkpt lat="47.26192" lon="-2.34233">
        <ele>18.60000038147</ele>
        <time>2020-02-09T11:22:06.000Z</time>
      </trkpt>
      <trkpt lat="47.26187" lon="-2.34228">
        <ele>18.200000762939</ele>
        <time>2020-02-09T11:22:07.000Z</time>
      </trkpt>
      <trkpt lat="47.26183" lon="-2.34223">
        <ele>17.799999237061</ele>
        <time>2020-02-09T11:22:08.000Z</time>
      </trkpt>
      <trkpt lat="47.26178" lon="-2.34218">
        <ele>17.39999961853</ele>
        <time>2020-02-09T11:22:09.000Z</time>
      </trkpt>
      <trkpt lat="47.26173" lon="-2.34214">
        <ele>17</ele>
        <time>2020-02-09T11:22:10.000Z</time>
      </trkpt>
      <trkpt lat="47.26154" lon="-2.34195">
        <ele>17</ele>
        <time>2020-02-09T11:22:14.000Z</time>
      </trkpt>
      <trkpt lat="47.26145" lon="-2.34187">
        <ele>17</ele>
        <time>2020-02-09T11:22:16.000Z</time>
      </trkpt>
      <trkpt lat="47.26134" lon="-2.34185">
        <ele>17</ele>
        <time>2020-02-09T11:22:18.000Z</time>
      </trkpt>
      <trkpt lat="47.26122" lon="-2.34173">
        <ele>17</ele>
        <time>2020-02-09T11:22:21.000Z</time>
      </trkpt>
      <trkpt lat="47.26102" lon="-2.3416">
        <ele>17</ele>
        <time>2020-02-09T11:22:25.000Z</time>
      </trkpt>
      <trkpt lat="47.26067" lon="-2.34141">
        <ele>17</ele>
        <time>2020-02-09T11:22:32.000Z</time>
      </trkpt>
      <trkpt lat="47.26035" lon="-2.34125">
        <ele>17</ele>
        <time>2020-02-09T11:22:38.000Z</time>
      </trkpt>
      <trkpt lat="47.26002" lon="-2.34107">
        <ele>17</ele>
        <time>2020-02-09T11:22:46.000Z</time>
      </trkpt>
      <trkpt lat="47.25997" lon="-2.34105">
        <ele>17</ele>
        <time>2020-02-09T11:22:47.000Z</time>
      </trkpt>
      <trkpt lat="47.25984" lon="-2.34098">
        <ele>17</ele>
        <time>2020-02-09T11:22:50.000Z</time>
      </trkpt>
      <trkpt lat="47.25977" lon="-2.34094">
        <ele>17</ele>
        <time>2020-02-09T11:22:52.000Z</time>
      </trkpt>
      <trkpt lat="47.25952" lon="-2.34086">
        <ele>17</ele>
        <time>2020-02-09T11:22:57.000Z</time>
      </trkpt>
      <trkpt lat="47.25924" lon="-2.34075">
        <ele>17</ele>
        <time>2020-02-09T11:23:03.000Z</time>
      </trkpt>
      <trkpt lat="47.25905" lon="-2.34086">
        <ele>17</ele>
        <time>2020-02-09T11:23:07.000Z</time>
      </trkpt>
      <trkpt lat="47.25895" lon="-2.34104">
        <ele>17</ele>
        <time>2020-02-09T11:23:10.000Z</time>
      </trkpt>
      <trkpt lat="47.2589" lon="-2.34116">
        <ele>17</ele>
        <time>2020-02-09T11:23:12.000Z</time>
      </trkpt>
      <trkpt lat="47.25888" lon="-2.34122">
        <ele>17</ele>
        <time>2020-02-09T11:23:13.000Z</time>
      </trkpt>
      <trkpt lat="47.25879" lon="-2.34148">
        <ele>17</ele>
        <time>2020-02-09T11:23:17.000Z</time>
      </trkpt>
      <trkpt lat="47.25875" lon="-2.34159">
        <ele>17</ele>
        <time>2020-02-09T11:23:19.000Z</time>
      </trkpt>
      <trkpt lat="47.25869" lon="-2.34164">
        <ele>17</ele>
        <time>2020-02-09T11:23:21.000Z</time>
      </trkpt>
      <trkpt lat="47.25861" lon="-2.3416">
        <ele>17</ele>
        <time>2020-02-09T11:23:24.000Z</time>
      </trkpt>
      <trkpt lat="47.25842" lon="-2.3415">
        <ele>17</ele>
        <time>2020-02-09T11:23:31.000Z</time>
      </trkpt>
      <trkpt lat="47.25839" lon="-2.3415">
        <ele>17</ele>
        <time>2020-02-09T11:23:32.000Z</time>
      </trkpt>
      <trkpt lat="47.25834" lon="-2.34157">
        <ele>17</ele>
        <time>2020-02-09T11:23:34.000Z</time>
      </trkpt>
      <trkpt lat="47.25829" lon="-2.34177">
        <ele>17</ele>
        <time>2020-02-09T11:23:38.000Z</time>
      </trkpt>
      <trkpt lat="47.25819" lon="-2.34177">
        <ele>17</ele>
        <time>2020-02-09T11:23:41.000Z</time>
      </trkpt>
      <trkpt lat="47.25802" lon="-2.34173">
        <ele>17</ele>
        <time>2020-02-09T11:23:46.000Z</time>
      </trkpt>
      <trkpt lat="47.25781" lon="-2.34173">
        <ele>17</ele>
        <time>2020-02-09T11:23:51.000Z</time>
      </trkpt>
      <trkpt lat="47.25775" lon="-2.34174">
        <ele>17</ele>
        <time>2020-02-09T11:23:52.000Z</time>
      </trkpt>
      <trkpt lat="47.25736" lon="-2.3418">
        <ele>17</ele>
        <time>2020-02-09T11:24:00.000Z</time>
      </trkpt>
      <trkpt lat="47.25726" lon="-2.34181">
        <ele>17</ele>
        <time>2020-02-09T11:24:02.000Z</time>
      </trkpt>
      <trkpt lat="47.25712" lon="-2.34182">
        <ele>17</ele>
        <time>2020-02-09T11:24:05.000Z</time>
      </trkpt>
      <trkpt lat="47.25695" lon="-2.34184">
        <ele>17</ele>
        <time>2020-02-09T11:24:09.000Z</time>
      </trkpt>
      <trkpt lat="47.25688" lon="-2.34184">
        <ele>17</ele>
        <time>2020-02-09T11:24:11.000Z</time>
      </trkpt>
      <trkpt lat="47.25675" lon="-2.34187">
        <ele>17</ele>
        <time>2020-02-09T11:24:17.000Z</time>
      </trkpt>
      <trkpt lat="47.25664" lon="-2.3418">
        <ele>17</ele>
        <time>2020-02-09T11:24:23.000Z</time>
      </trkpt>
      <trkpt lat="47.25651" lon="-2.34154">
        <ele>17</ele>
        <time>2020-02-09T11:24:29.000Z</time>
      </trkpt>
      <trkpt lat="47.25643" lon="-2.34135">
        <ele>17</ele>
        <time>2020-02-09T11:24:33.000Z</time>
      </trkpt>
      <trkpt lat="47.25639" lon="-2.34117">
        <ele>17</ele>
        <time>2020-02-09T11:24:36.000Z</time>
      </trkpt>
      <trkpt lat="47.25638" lon="-2.34111">
        <ele>17</ele>
        <time>2020-02-09T11:24:37.000Z</time>
      </trkpt>
      <trkpt lat="47.25638" lon="-2.34087">
        <ele>17</ele>
        <time>2020-02-09T11:24:41.000Z</time>
      </trkpt>
      <trkpt lat="47.25643" lon="-2.34039">
        <ele>17</ele>
        <time>2020-02-09T11:24:48.000Z</time>
      </trkpt>
      <trkpt lat="47.25654" lon="-2.33984">
        <ele>17</ele>
        <time>2020-02-09T11:24:56.000Z</time>
      </trkpt>
      <trkpt lat="47.25659" lon="-2.33939">
        <ele>17</ele>
        <time>2020-02-09T11:25:03.000Z</time>
      </trkpt>
      <trkpt lat="47.25653" lon="-2.33894">
        <ele>17</ele>
        <time>2020-02-09T11:25:10.000Z</time>
      </trkpt>
      <trkpt lat="47.2565" lon="-2.33878">
        <ele>17</ele>
        <time>2020-02-09T11:25:13.000Z</time>
      </trkpt>
      <trkpt lat="47.25648" lon="-2.33874">
        <ele>17</ele>
        <time>2020-02-09T11:25:14.000Z</time>
      </trkpt>
      <trkpt lat="47.25646" lon="-2.33856">
        <ele>17</ele>
        <time>2020-02-09T11:25:18.000Z</time>
      </trkpt>
      <trkpt lat="47.25644" lon="-2.33836">
        <ele>17</ele>
        <time>2020-02-09T11:25:23.000Z</time>
      </trkpt>
      <trkpt lat="47.25644" lon="-2.33829">
        <ele>16.60000038147</ele>
        <time>2020-02-09T11:25:25.000Z</time>
      </trkpt>
      <trkpt lat="47.25643" lon="-2.33825">
        <ele>16.200000762939</ele>
        <time>2020-02-09T11:25:26.000Z</time>
      </trkpt>
      <trkpt lat="47.25643" lon="-2.33821">
        <ele>15.800000190735</ele>
        <time>2020-02-09T11:25:27.000Z</time>
      </trkpt>
      <trkpt lat="47.25642" lon="-2.33816">
        <ele>15.39999961853</ele>
        <time>2020-02-09T11:25:28.000Z</time>
      </trkpt>
      <trkpt lat="47.25641" lon="-2.3381">
        <ele>15</ele>
        <time>2020-02-09T11:25:29.000Z</time>
      </trkpt>
      <trkpt lat="47.25633" lon="-2.33783">
        <ele>15</ele>
        <time>2020-02-09T11:25:34.000Z</time>
      </trkpt>
      <trkpt lat="47.25631" lon="-2.33779">
        <ele>15</ele>
        <time>2020-02-09T11:25:35.000Z</time>
      </trkpt>
      <trkpt lat="47.25626" lon="-2.3377">
        <ele>15</ele>
        <time>2020-02-09T11:25:37.000Z</time>
      </trkpt>
      <trkpt lat="47.25618" lon="-2.33765">
        <ele>15</ele>
        <time>2020-02-09T11:25:39.000Z</time>
      </trkpt>
      <trkpt lat="47.25608" lon="-2.33763">
        <ele>15</ele>
        <time>2020-02-09T11:25:42.000Z</time>
      </trkpt>
      <trkpt lat="47.25604" lon="-2.33763">
        <ele>15</ele>
        <time>2020-02-09T11:25:43.000Z</time>
      </trkpt>
      <trkpt lat="47.256" lon="-2.33763">
        <ele>15</ele>
        <time>2020-02-09T11:25:44.000Z</time>
      </trkpt>
      <trkpt lat="47.25564" lon="-2.33764">
        <ele>15</ele>
        <time>2020-02-09T11:25:51.000Z</time>
      </trkpt>
      <trkpt lat="47.25535" lon="-2.33764">
        <ele>15</ele>
        <time>2020-02-09T11:25:56.000Z</time>
      </trkpt>
      <trkpt lat="47.25503" lon="-2.3376">
        <ele>15</ele>
        <time>2020-02-09T11:26:02.000Z</time>
      </trkpt>
      <trkpt lat="47.25482" lon="-2.33758">
        <ele>15</ele>
        <time>2020-02-09T11:26:06.000Z</time>
      </trkpt>
      <trkpt lat="47.2547" lon="-2.33753">
        <ele>15</ele>
        <time>2020-02-09T11:26:08.000Z</time>
      </trkpt>
      <trkpt lat="47.25465" lon="-2.33749">
        <ele>15</ele>
        <time>2020-02-09T11:26:09.000Z</time>
      </trkpt>
      <trkpt lat="47.25454" lon="-2.3373">
        <ele>15</ele>
        <time>2020-02-09T11:26:12.000Z</time>
      </trkpt>
      <trkpt lat="47.25452" lon="-2.33715">
        <ele>15</ele>
        <time>2020-02-09T11:26:14.000Z</time>
      </trkpt>
      <trkpt lat="47.2545" lon="-2.33701">
        <ele>15</ele>
        <time>2020-02-09T11:26:16.000Z</time>
      </trkpt>
      <trkpt lat="47.25446" lon="-2.33659">
        <ele>15</ele>
        <time>2020-02-09T11:26:23.000Z</time>
      </trkpt>
      <trkpt lat="47.25444" lon="-2.33626">
        <ele>15</ele>
        <time>2020-02-09T11:26:29.000Z</time>
      </trkpt>
      <trkpt lat="47.25443" lon="-2.33601">
        <ele>15</ele>
        <time>2020-02-09T11:26:34.000Z</time>
      </trkpt>
      <trkpt lat="47.25444" lon="-2.33588">
        <ele>15</ele>
        <time>2020-02-09T11:26:37.000Z</time>
      </trkpt>
      <trkpt lat="47.25448" lon="-2.33585">
        <ele>15</ele>
        <time>2020-02-09T11:26:39.000Z</time>
      </trkpt>
      <trkpt lat="47.25456" lon="-2.33575">
        <ele>15</ele>
        <time>2020-02-09T11:26:44.000Z</time>
      </trkpt>
      <trkpt lat="47.25454" lon="-2.33561">
        <ele>15</ele>
        <time>2020-02-09T11:26:47.000Z</time>
      </trkpt>
      <trkpt lat="47.25452" lon="-2.3355">
        <ele>15</ele>
        <time>2020-02-09T11:26:49.000Z</time>
      </trkpt>
      <trkpt lat="47.25443" lon="-2.33508">
        <ele>15</ele>
        <time>2020-02-09T11:26:57.000Z</time>
      </trkpt>
      <trkpt lat="47.25442" lon="-2.33502">
        <ele>15</ele>
        <time>2020-02-09T11:26:58.000Z</time>
      </trkpt>
      <trkpt lat="47.25438" lon="-2.3348">
        <ele>15</ele>
        <time>2020-02-09T11:27:02.000Z</time>
      </trkpt>
      <trkpt lat="47.25433" lon="-2.3345">
        <ele>15</ele>
        <time>2020-02-09T11:27:07.000Z</time>
      </trkpt>
      <trkpt lat="47.25432" lon="-2.3341">
        <ele>15</ele>
        <time>2020-02-09T11:27:13.000Z</time>
      </trkpt>
      <trkpt lat="47.25432" lon="-2.33363">
        <ele>15</ele>
        <time>2020-02-09T11:27:20.000Z</time>
      </trkpt>
      <trkpt lat="47.25432" lon="-2.33355">
        <ele>14.60000038147</ele>
        <time>2020-02-09T11:27:21.000Z</time>
      </trkpt>
      <trkpt lat="47.25432" lon="-2.33348">
        <ele>14.199999809265</ele>
        <time>2020-02-09T11:27:22.000Z</time>
      </trkpt>
      <trkpt lat="47.25433" lon="-2.33342">
        <ele>13.800000190735</ele>
        <time>2020-02-09T11:27:23.000Z</time>
      </trkpt>
      <trkpt lat="47.25433" lon="-2.33337">
        <ele>13.39999961853</ele>
        <time>2020-02-09T11:27:24.000Z</time>
      </trkpt>
      <trkpt lat="47.25436" lon="-2.33331">
        <ele>13</ele>
        <time>2020-02-09T11:27:25.000Z</time>
      </trkpt>
      <trkpt lat="47.25446" lon="-2.33301">
        <ele>13</ele>
        <time>2020-02-09T11:27:30.000Z</time>
      </trkpt>
      <trkpt lat="47.25448" lon="-2.33287">
        <ele>13</ele>
        <time>2020-02-09T11:27:32.000Z</time>
      </trkpt>
      <trkpt lat="47.25445" lon="-2.33268">
        <ele>13</ele>
        <time>2020-02-09T11:27:35.000Z</time>
      </trkpt>
      <trkpt lat="47.25444" lon="-2.33262">
        <ele>13</ele>
        <time>2020-02-09T11:27:36.000Z</time>
      </trkpt>
      <trkpt lat="47.25439" lon="-2.3325">
        <ele>13</ele>
        <time>2020-02-09T11:27:38.000Z</time>
      </trkpt>
      <trkpt lat="47.25426" lon="-2.33227">
        <ele>13</ele>
        <time>2020-02-09T11:27:42.000Z</time>
      </trkpt>
      <trkpt lat="47.25406" lon="-2.33186">
        <ele>13</ele>
        <time>2020-02-09T11:27:49.000Z</time>
      </trkpt>
      <trkpt lat="47.25404" lon="-2.33181">
        <ele>13</ele>
        <time>2020-02-09T11:27:50.000Z</time>
      </trkpt>
      <trkpt lat="47.25395" lon="-2.3316">
        <ele>13</ele>
        <time>2020-02-09T11:27:54.000Z</time>
      </trkpt>
      <trkpt lat="47.25385" lon="-2.33147">
        <ele>13</ele>
        <time>2020-02-09T11:27:58.000Z</time>
      </trkpt>
      <trkpt lat="47.25383" lon="-2.33144">
        <ele>13</ele>
        <time>2020-02-09T11:27:59.000Z</time>
      </trkpt>
      <trkpt lat="47.25375" lon="-2.33123">
        <ele>13</ele>
        <time>2020-02-09T11:28:06.000Z</time>
      </trkpt>
      <trkpt lat="47.25373" lon="-2.33122">
        <ele>13</ele>
        <time>2020-02-09T11:28:07.000Z</time>
      </trkpt>
      <trkpt lat="47.25373" lon="-2.3312">
        <ele>13</ele>
        <time>2020-02-09T11:28:10.000Z</time>
      </trkpt>
      <trkpt lat="47.25374" lon="-2.33119">
        <ele>4.8000001907349</ele>
        <time>2020-02-09T11:36:40.000Z</time>
      </trkpt>
      <trkpt lat="47.25372" lon="-2.33112">
        <ele>4.8000001907349</ele>
        <time>2020-02-09T11:36:43.000Z</time>
      </trkpt>
      <trkpt lat="47.25364" lon="-2.33091">
        <ele>4.8000001907349</ele>
        <time>2020-02-09T11:36:48.000Z</time>
      </trkpt>
      <trkpt lat="47.25349" lon="-2.33053">
        <ele>4.8000001907349</ele>
        <time>2020-02-09T11:36:55.000Z</time>
      </trkpt>
      <trkpt lat="47.25332" lon="-2.33006">
        <ele>4.8000001907349</ele>
        <time>2020-02-09T11:37:03.000Z</time>
      </trkpt>
      <trkpt lat="47.25319" lon="-2.32972">
        <ele>4.8000001907349</ele>
        <time>2020-02-09T11:37:09.000Z</time>
      </trkpt>
      <trkpt lat="47.25306" lon="-2.32935">
        <ele>4.8000001907349</ele>
        <time>2020-02-09T11:37:15.000Z</time>
      </trkpt>
      <trkpt lat="47.25306" lon="-2.32928">
        <ele>4.8000001907349</ele>
        <time>2020-02-09T11:37:16.000Z</time>
      </trkpt>
      <trkpt lat="47.25313" lon="-2.32912">
        <ele>4.8000001907349</ele>
        <time>2020-02-09T11:37:19.000Z</time>
      </trkpt>
      <trkpt lat="47.25325" lon="-2.32901">
        <ele>4.4000000953674</ele>
        <time>2020-02-09T11:37:22.000Z</time>
      </trkpt>
      <trkpt lat="47.25329" lon="-2.32897">
        <ele>4</ele>
        <time>2020-02-09T11:37:23.000Z</time>
      </trkpt>
      <trkpt lat="47.25333" lon="-2.32893">
        <ele>3.5999999046326</ele>
        <time>2020-02-09T11:37:24.000Z</time>
      </trkpt>
      <trkpt lat="47.25338" lon="-2.3289">
        <ele>3.2000000476837</ele>
        <time>2020-02-09T11:37:25.000Z</time>
      </trkpt>
      <trkpt lat="47.25341" lon="-2.32886">
        <ele>2.7999999523163</ele>
        <time>2020-02-09T11:37:26.000Z</time>
      </trkpt>
      <trkpt lat="47.25358" lon="-2.3287">
        <ele>2.7999999523163</ele>
        <time>2020-02-09T11:37:30.000Z</time>
      </trkpt>
      <trkpt lat="47.25392" lon="-2.32834">
        <ele>2.7999999523163</ele>
        <time>2020-02-09T11:37:38.000Z</time>
      </trkpt>
      <trkpt lat="47.2542" lon="-2.32793">
        <ele>2.7999999523163</ele>
        <time>2020-02-09T11:37:46.000Z</time>
      </trkpt>
      <trkpt lat="47.25428" lon="-2.32776">
        <ele>2.7999999523163</ele>
        <time>2020-02-09T11:37:49.000Z</time>
      </trkpt>
      <trkpt lat="47.25433" lon="-2.32767">
        <ele>2.7999999523163</ele>
        <time>2020-02-09T11:37:51.000Z</time>
      </trkpt>
      <trkpt lat="47.25444" lon="-2.32752">
        <ele>2.7999999523163</ele>
        <time>2020-02-09T11:37:54.000Z</time>
      </trkpt>
      <trkpt lat="47.25447" lon="-2.32746">
        <ele>2.7999999523163</ele>
        <time>2020-02-09T11:37:55.000Z</time>
      </trkpt>
      <trkpt lat="47.25477" lon="-2.32705">
        <ele>2.7999999523163</ele>
        <time>2020-02-09T11:38:03.000Z</time>
      </trkpt>
      <trkpt lat="47.25483" lon="-2.32693">
        <ele>2.7999999523163</ele>
        <time>2020-02-09T11:38:05.000Z</time>
      </trkpt>
      <trkpt lat="47.25488" lon="-2.32671">
        <ele>2.4000000953674</ele>
        <time>2020-02-09T11:38:08.000Z</time>
      </trkpt>
      <trkpt lat="47.25488" lon="-2.32663">
        <ele>2</ele>
        <time>2020-02-09T11:38:09.000Z</time>
      </trkpt>
      <trkpt lat="47.25488" lon="-2.32656">
        <ele>1.6000000238419</ele>
        <time>2020-02-09T11:38:10.000Z</time>
      </trkpt>
      <trkpt lat="47.25487" lon="-2.32648">
        <ele>1.2000000476837</ele>
        <time>2020-02-09T11:38:11.000Z</time>
      </trkpt>
      <trkpt lat="47.25486" lon="-2.3264">
        <ele>0.80000001192093</ele>
        <time>2020-02-09T11:38:12.000Z</time>
      </trkpt>
      <trkpt lat="47.25485" lon="-2.32633">
        <ele>0.80000001192093</ele>
        <time>2020-02-09T11:38:13.000Z</time>
      </trkpt>
      <trkpt lat="47.25478" lon="-2.32589">
        <ele>0.80000001192093</ele>
        <time>2020-02-09T11:38:19.000Z</time>
      </trkpt>
      <trkpt lat="47.25478" lon="-2.32582">
        <ele>0.80000001192093</ele>
        <time>2020-02-09T11:38:20.000Z</time>
      </trkpt>
      <trkpt lat="47.25481" lon="-2.32562">
        <ele>0.80000001192093</ele>
        <time>2020-02-09T11:38:23.000Z</time>
      </trkpt>
      <trkpt lat="47.25494" lon="-2.32548">
        <ele>0.80000001192093</ele>
        <time>2020-02-09T11:38:26.000Z</time>
      </trkpt>
      <trkpt lat="47.25498" lon="-2.32543">
        <ele>0.80000001192093</ele>
        <time>2020-02-09T11:38:27.000Z</time>
      </trkpt>
      <trkpt lat="47.25536" lon="-2.32508">
        <ele>0.80000001192093</ele>
        <time>2020-02-09T11:38:34.000Z</time>
      </trkpt>
      <trkpt lat="47.25574" lon="-2.32471">
        <ele>0.80000001192093</ele>
        <time>2020-02-09T11:38:40.000Z</time>
      </trkpt>
      <trkpt lat="47.2561" lon="-2.32431">
        <ele>0.80000001192093</ele>
        <time>2020-02-09T11:38:45.000Z</time>
      </trkpt>
      <trkpt lat="47.25644" lon="-2.32402">
        <ele>0.80000001192093</ele>
        <time>2020-02-09T11:38:50.000Z</time>
      </trkpt>
      <trkpt lat="47.25663" lon="-2.32405">
        <ele>0.80000001192093</ele>
        <time>2020-02-09T11:38:53.000Z</time>
      </trkpt>
      <trkpt lat="47.25667" lon="-2.3241">
        <ele>0.40000000596046</ele>
        <time>2020-02-09T11:38:54.000Z</time>
      </trkpt>
      <trkpt lat="47.25672" lon="-2.32417">
        <ele>4.8</ele>
        <time>2020-02-09T11:38:55.000Z</time>
      </trkpt>
      <trkpt lat="47.25678" lon="-2.32419">
        <ele>-0.60000002384186</ele>
        <time>2020-02-09T11:38:56.000Z</time>
      </trkpt>
      <trkpt lat="47.25685" lon="-2.3242">
        <ele>-1</ele>
        <time>2020-02-09T11:38:57.000Z</time>
      </trkpt>
      <trkpt lat="47.25692" lon="-2.3242">
        <ele>-1.3999999761581</ele>
        <time>2020-02-09T11:38:58.000Z</time>
      </trkpt>
      <trkpt lat="47.25699" lon="-2.32421">
        <ele>-1.3999999761581</ele>
        <time>2020-02-09T11:38:59.000Z</time>
      </trkpt>
      <trkpt lat="47.2575" lon="-2.32423">
        <ele>-1.3999999761581</ele>
        <time>2020-02-09T11:39:06.000Z</time>
      </trkpt>
      <trkpt lat="47.25756" lon="-2.32421">
        <ele>-1.3999999761581</ele>
        <time>2020-02-09T11:39:07.000Z</time>
      </trkpt>
      <trkpt lat="47.25767" lon="-2.32416">
        <ele>-1.3999999761581</ele>
        <time>2020-02-09T11:39:09.000Z</time>
      </trkpt>
      <trkpt lat="47.25773" lon="-2.32415">
        <ele>-1.3999999761581</ele>
        <time>2020-02-09T11:39:10.000Z</time>
      </trkpt>
      <trkpt lat="47.25783" lon="-2.32424">
        <ele>-1.3999999761581</ele>
        <time>2020-02-09T11:39:12.000Z</time>
      </trkpt>
      <trkpt lat="47.25787" lon="-2.3243">
        <ele>-1.3999999761581</ele>
        <time>2020-02-09T11:39:13.000Z</time>
      </trkpt>
      <trkpt lat="47.25791" lon="-2.32437">
        <ele>-1.3999999761581</ele>
        <time>2020-02-09T11:39:14.000Z</time>
      </trkpt>
      <trkpt lat="47.258" lon="-2.32449">
        <ele>-1.3999999761581</ele>
        <time>2020-02-09T11:39:16.000Z</time>
      </trkpt>
      <trkpt lat="47.25811" lon="-2.32458">
        <ele>-1.3999999761581</ele>
        <time>2020-02-09T11:39:18.000Z</time>
      </trkpt>
      <trkpt lat="47.25824" lon="-2.32466">
        <ele>-1.3999999761581</ele>
        <time>2020-02-09T11:39:20.000Z</time>
      </trkpt>
      <trkpt lat="47.25847" lon="-2.32475">
        <ele>-1.3999999761581</ele>
        <time>2020-02-09T11:39:24.000Z</time>
      </trkpt>
      <trkpt lat="47.25852" lon="-2.32475">
        <ele>-1.3999999761581</ele>
        <time>2020-02-09T11:39:25.000Z</time>
      </trkpt>
      <trkpt lat="47.25874" lon="-2.32472">
        <ele>-1.3999999761581</ele>
        <time>2020-02-09T11:39:29.000Z</time>
      </trkpt>
      <trkpt lat="47.25884" lon="-2.32469">
        <ele>-1.3999999761581</ele>
        <time>2020-02-09T11:39:31.000Z</time>
      </trkpt>
      <trkpt lat="47.25894" lon="-2.32463">
        <ele>-1.3999999761581</ele>
        <time>2020-02-09T11:39:33.000Z</time>
      </trkpt>
      <trkpt lat="47.25899" lon="-2.32457">
        <ele>-1.3999999761581</ele>
        <time>2020-02-09T11:39:34.000Z</time>
      </trkpt>
      <trkpt lat="47.25932" lon="-2.32416">
        <ele>-1.3999999761581</ele>
        <time>2020-02-09T11:39:41.000Z</time>
      </trkpt>
      <trkpt lat="47.25971" lon="-2.32364">
        <ele>-1.3999999761581</ele>
        <time>2020-02-09T11:39:49.000Z</time>
      </trkpt>
      <trkpt lat="47.26007" lon="-2.32317">
        <ele>-1.3999999761581</ele>
        <time>2020-02-09T11:39:56.000Z</time>
      </trkpt>
      <trkpt lat="47.2605" lon="-2.32267">
        <ele>-1.3999999761581</ele>
        <time>2020-02-09T11:40:04.000Z</time>
      </trkpt>
      <trkpt lat="47.2606" lon="-2.32254">
        <ele>-1.3999999761581</ele>
        <time>2020-02-09T11:40:06.000Z</time>
      </trkpt>
      <trkpt lat="47.26088" lon="-2.32217">
        <ele>-1.3999999761581</ele>
        <time>2020-02-09T11:40:12.000Z</time>
      </trkpt>
      <trkpt lat="47.26108" lon="-2.32175">
        <ele>-1.3999999761581</ele>
        <time>2020-02-09T11:40:18.000Z</time>
      </trkpt>
      <trkpt lat="47.26123" lon="-2.32137">
        <ele>-1.3999999761581</ele>
        <time>2020-02-09T11:40:23.000Z</time>
      </trkpt>
      <trkpt lat="47.2614" lon="-2.32077">
        <ele>-1.3999999761581</ele>
        <time>2020-02-09T11:40:30.000Z</time>
      </trkpt>
      <trkpt lat="47.26156" lon="-2.32013">
        <ele>-1.3999999761581</ele>
        <time>2020-02-09T11:40:37.000Z</time>
      </trkpt>
      <trkpt lat="47.26157" lon="-2.31994">
        <ele>-1.3999999761581</ele>
        <time>2020-02-09T11:40:39.000Z</time>
      </trkpt>
      <trkpt lat="47.26155" lon="-2.31969">
        <ele>-1.3999999761581</ele>
        <time>2020-02-09T11:40:42.000Z</time>
      </trkpt>
      <trkpt lat="47.26154" lon="-2.31961">
        <ele>-1.3999999761581</ele>
        <time>2020-02-09T11:40:43.000Z</time>
      </trkpt>
      <trkpt lat="47.26146" lon="-2.319">
        <ele>-1.3999999761581</ele>
        <time>2020-02-09T11:40:51.000Z</time>
      </trkpt>
      <trkpt lat="47.26138" lon="-2.31838">
        <ele>-1.3999999761581</ele>
        <time>2020-02-09T11:40:59.000Z</time>
      </trkpt>
      <trkpt lat="47.26136" lon="-2.3183">
        <ele>-1.3999999761581</ele>
        <time>2020-02-09T11:41:00.000Z</time>
      </trkpt>
      <trkpt lat="47.26132" lon="-2.31782">
        <ele>-1.3999999761581</ele>
        <time>2020-02-09T11:41:06.000Z</time>
      </trkpt>
      <trkpt lat="47.26126" lon="-2.31721">
        <ele>-1.3999999761581</ele>
        <time>2020-02-09T11:41:14.000Z</time>
      </trkpt>
      <trkpt lat="47.26124" lon="-2.31694">
        <ele>-1.3999999761581</ele>
        <time>2020-02-09T11:41:18.000Z</time>
      </trkpt>
      <trkpt lat="47.26123" lon="-2.31689">
        <ele>-1.3999999761581</ele>
        <time>2020-02-09T11:41:19.000Z</time>
      </trkpt>
      <trkpt lat="47.26116" lon="-2.31647">
        <ele>-1.3999999761581</ele>
        <time>2020-02-09T11:41:25.000Z</time>
      </trkpt>
      <trkpt lat="47.26112" lon="-2.31629">
        <ele>-1.3999999761581</ele>
        <time>2020-02-09T11:41:28.000Z</time>
      </trkpt>
      <trkpt lat="47.26116" lon="-2.31618">
        <ele>-1.3999999761581</ele>
        <time>2020-02-09T11:41:30.000Z</time>
      </trkpt>
      <trkpt lat="47.26127" lon="-2.31613">
        <ele>-1.3999999761581</ele>
        <time>2020-02-09T11:41:33.000Z</time>
      </trkpt>
      <trkpt lat="47.26135" lon="-2.31612">
        <ele>-1.3999999761581</ele>
        <time>2020-02-09T11:41:35.000Z</time>
      </trkpt>
      <trkpt lat="47.26139" lon="-2.31612">
        <ele>-1.3999999761581</ele>
        <time>2020-02-09T11:41:36.000Z</time>
      </trkpt>
      <trkpt lat="47.26158" lon="-2.31607">
        <ele>-1.3999999761581</ele>
        <time>2020-02-09T11:41:40.000Z</time>
      </trkpt>
      <trkpt lat="47.26167" lon="-2.31603">
        <ele>-1.3999999761581</ele>
        <time>2020-02-09T11:41:42.000Z</time>
      </trkpt>
      <trkpt lat="47.26176" lon="-2.31599">
        <ele>-1.3999999761581</ele>
        <time>2020-02-09T11:41:44.000Z</time>
      </trkpt>
      <trkpt lat="47.26184" lon="-2.31596">
        <ele>-1.3999999761581</ele>
        <time>2020-02-09T11:41:46.000Z</time>
      </trkpt>
      <trkpt lat="47.26204" lon="-2.3159">
        <ele>-1.3999999761581</ele>
        <time>2020-02-09T11:41:50.000Z</time>
      </trkpt>
      <trkpt lat="47.26219" lon="-2.31592">
        <ele>-1.3999999761581</ele>
        <time>2020-02-09T11:41:53.000Z</time>
      </trkpt>
      <trkpt lat="47.26235" lon="-2.31603">
        <ele>-1.3999999761581</ele>
        <time>2020-02-09T11:41:57.000Z</time>
      </trkpt>
      <trkpt lat="47.26238" lon="-2.31607">
        <ele>-1.3999999761581</ele>
        <time>2020-02-09T11:41:58.000Z</time>
      </trkpt>
      <trkpt lat="47.26254" lon="-2.31633">
        <ele>-1.3999999761581</ele>
        <time>2020-02-09T11:42:03.000Z</time>
      </trkpt>
      <trkpt lat="47.26275" lon="-2.31671">
        <ele>-1.3999999761581</ele>
        <time>2020-02-09T11:42:10.000Z</time>
      </trkpt>
      <trkpt lat="47.26288" lon="-2.31698">
        <ele>-1.3999999761581</ele>
        <time>2020-02-09T11:42:16.000Z</time>
      </trkpt>
      <trkpt lat="47.26293" lon="-2.31707">
        <ele>-1.3999999761581</ele>
        <time>2020-02-09T11:42:22.000Z</time>
      </trkpt>
      <trkpt lat="47.26304" lon="-2.31711">
        <ele>-1.3999999761581</ele>
        <time>2020-02-09T11:42:28.000Z</time>
      </trkpt>
      <trkpt lat="47.26327" lon="-2.31701">
        <ele>-1.3999999761581</ele>
        <time>2020-02-09T11:42:34.000Z</time>
      </trkpt>
      <trkpt lat="47.26329" lon="-2.31698">
        <ele>-1.3999999761581</ele>
        <time>2020-02-09T11:42:35.000Z</time>
      </trkpt>
      <trkpt lat="47.26332" lon="-2.3169">
        <ele>-1.3999999761581</ele>
        <time>2020-02-09T11:42:37.000Z</time>
      </trkpt>
      <trkpt lat="47.26342" lon="-2.31685">
        <ele>-1.3999999761581</ele>
        <time>2020-02-09T11:42:40.000Z</time>
      </trkpt>
      <trkpt lat="47.2635" lon="-2.31682">
        <ele>-1.3999999761581</ele>
        <time>2020-02-09T11:42:42.000Z</time>
      </trkpt>
      <trkpt lat="47.26372" lon="-2.31672">
        <ele>-1.3999999761581</ele>
        <time>2020-02-09T11:42:48.000Z</time>
      </trkpt>
      <trkpt lat="47.26393" lon="-2.3166">
        <ele>-1.3999999761581</ele>
        <time>2020-02-09T11:42:54.000Z</time>
      </trkpt>
      <trkpt lat="47.26409" lon="-2.31648">
        <ele>-1.3999999761581</ele>
        <time>2020-02-09T11:43:00.000Z</time>
      </trkpt>
      <trkpt lat="47.2641" lon="-2.31632">
        <ele>-1.3999999761581</ele>
        <time>2020-02-09T11:43:04.000Z</time>
      </trkpt>
      <trkpt lat="47.26409" lon="-2.31617">
        <ele>-1.3999999761581</ele>
        <time>2020-02-09T11:43:07.000Z</time>
      </trkpt>
      <trkpt lat="47.2641" lon="-2.31607">
        <ele>-1.3999999761581</ele>
        <time>2020-02-09T11:43:09.000Z</time>
      </trkpt>
      <trkpt lat="47.2641" lon="-2.3158">
        <ele>-1.3999999761581</ele>
        <time>2020-02-09T11:43:14.000Z</time>
      </trkpt>
      <trkpt lat="47.2641" lon="-2.31558">
        <ele>-1.3999999761581</ele>
        <time>2020-02-09T11:43:19.000Z</time>
      </trkpt>
      <trkpt lat="47.26412" lon="-2.31555">
        <ele>-1.3999999761581</ele>
        <time>2020-02-09T11:43:20.000Z</time>
      </trkpt>
      <trkpt lat="47.26415" lon="-2.31554">
        <ele>-1.3999999761581</ele>
        <time>2020-02-09T11:43:22.000Z</time>
      </trkpt>
      <trkpt lat="47.26419" lon="-2.31554">
        <ele>-1.3999999761581</ele>
        <time>2020-02-09T11:43:26.000Z</time>
      </trkpt>
    </trkseg>
  </trk>
</gpx>